<?xml version="1.0" encoding="UTF-8" standalone="no" ?>
<gpx xmlns="http://www.topografix.com/GPX/1/1" xmlns:xsi="http://www.w3.org/2001/XMLSchema-instance" xsi:schemaLocation="http://www.topografix.com/GPX/1/1 http://www.topografix.com/GPX/1/1/gpx.xsd" version="1.1" creator="VisuGPX - https://www.visugpx.com">
  <metadata>
    <name>CHEZINE - CENS</name>
    <desc><![CDATA[Balade roulante, émaillée de petits spots, et d\\\'accidents géographiques ravisssants]]></desc>
  </metadata>
  <trk>
    <name><![CDATA[Chézine - Cens - 2013-09-15-01]]></name>
    <trkseg>
      <trkpt lat="47.23072" lon="-1.60737">
        <ele>38.232246</ele>
        <time>2013-09-15T07:36:35Z</time>
      </trkpt>
      <trkpt lat="47.23072" lon="-1.60737">
        <ele>25.133819</ele>
        <time>2013-09-15T07:36:36Z</time>
      </trkpt>
      <trkpt lat="47.23072" lon="-1.60737">
        <ele>25.1</ele>
        <time>2013-09-15T07:36:36Z</time>
      </trkpt>
      <trkpt lat="47.23066" lon="-1.60751">
        <ele>38.1</ele>
        <time>2013-09-15T07:36:44Z</time>
      </trkpt>
      <trkpt lat="47.23057" lon="-1.60743">
        <ele>41.5</ele>
        <time>2013-09-15T07:36:49Z</time>
      </trkpt>
      <trkpt lat="47.23052" lon="-1.60729">
        <ele>40.8</ele>
        <time>2013-09-15T07:36:52Z</time>
      </trkpt>
      <trkpt lat="47.23048" lon="-1.60716">
        <ele>43.9</ele>
        <time>2013-09-15T07:36:54Z</time>
      </trkpt>
      <trkpt lat="47.23042" lon="-1.60701">
        <ele>41.4</ele>
        <time>2013-09-15T07:36:57Z</time>
      </trkpt>
      <trkpt lat="47.23039" lon="-1.60687">
        <ele>42</ele>
        <time>2013-09-15T07:37:04Z</time>
      </trkpt>
      <trkpt lat="47.23034" lon="-1.60671">
        <ele>41.7</ele>
        <time>2013-09-15T07:37:07Z</time>
      </trkpt>
      <trkpt lat="47.2303" lon="-1.60658">
        <ele>41.4</ele>
        <time>2013-09-15T07:37:10Z</time>
      </trkpt>
      <trkpt lat="47.23025" lon="-1.60642">
        <ele>41.1</ele>
        <time>2013-09-15T07:37:13Z</time>
      </trkpt>
      <trkpt lat="47.23021" lon="-1.60626">
        <ele>40.9</ele>
        <time>2013-09-15T07:37:16Z</time>
      </trkpt>
      <trkpt lat="47.23017" lon="-1.60613">
        <ele>40.7</ele>
        <time>2013-09-15T07:37:19Z</time>
      </trkpt>
      <trkpt lat="47.2301" lon="-1.60596">
        <ele>40.8</ele>
        <time>2013-09-15T07:37:22Z</time>
      </trkpt>
      <trkpt lat="47.23004" lon="-1.60583">
        <ele>40.8</ele>
        <time>2013-09-15T07:37:24Z</time>
      </trkpt>
      <trkpt lat="47.23002" lon="-1.6057">
        <ele>40.9</ele>
        <time>2013-09-15T07:37:28Z</time>
      </trkpt>
      <trkpt lat="47.23012" lon="-1.60562">
        <ele>40.9</ele>
        <time>2013-09-15T07:37:31Z</time>
      </trkpt>
      <trkpt lat="47.2302" lon="-1.60555">
        <ele>40.7</ele>
        <time>2013-09-15T07:37:33Z</time>
      </trkpt>
      <trkpt lat="47.23029" lon="-1.60547">
        <ele>39.4</ele>
        <time>2013-09-15T07:37:35Z</time>
      </trkpt>
      <trkpt lat="47.2304" lon="-1.60536">
        <ele>38.6</ele>
        <time>2013-09-15T07:37:38Z</time>
      </trkpt>
      <trkpt lat="47.2304" lon="-1.60536">
        <ele>38.6</ele>
        <time>2013-09-15T07:37:38Z</time>
      </trkpt>
      <trkpt lat="47.2305" lon="-1.60524">
        <ele>38.9</ele>
        <time>2013-09-15T07:37:41Z</time>
      </trkpt>
      <trkpt lat="47.2306" lon="-1.60516">
        <ele>38.7</ele>
        <time>2013-09-15T07:37:44Z</time>
      </trkpt>
      <trkpt lat="47.23068" lon="-1.60507">
        <ele>38.7</ele>
        <time>2013-09-15T07:37:47Z</time>
      </trkpt>
      <trkpt lat="47.23075" lon="-1.60496">
        <ele>38.3</ele>
        <time>2013-09-15T07:37:50Z</time>
      </trkpt>
      <trkpt lat="47.23079" lon="-1.60477">
        <ele>38</ele>
        <time>2013-09-15T07:37:53Z</time>
      </trkpt>
      <trkpt lat="47.2308" lon="-1.60463">
        <ele>37</ele>
        <time>2013-09-15T07:37:55Z</time>
      </trkpt>
      <trkpt lat="47.23081" lon="-1.60449">
        <ele>36.2</ele>
        <time>2013-09-15T07:37:57Z</time>
      </trkpt>
      <trkpt lat="47.23077" lon="-1.60434">
        <ele>36.1</ele>
        <time>2013-09-15T07:38:00Z</time>
      </trkpt>
      <trkpt lat="47.23074" lon="-1.60417">
        <ele>35</ele>
        <time>2013-09-15T07:38:03Z</time>
      </trkpt>
      <trkpt lat="47.23074" lon="-1.60402">
        <ele>33.9</ele>
        <time>2013-09-15T07:38:05Z</time>
      </trkpt>
      <trkpt lat="47.23076" lon="-1.60386">
        <ele>32.8</ele>
        <time>2013-09-15T07:38:07Z</time>
      </trkpt>
      <trkpt lat="47.23081" lon="-1.60372">
        <ele>32.1</ele>
        <time>2013-09-15T07:38:09Z</time>
      </trkpt>
      <trkpt lat="47.23087" lon="-1.60356">
        <ele>30.9</ele>
        <time>2013-09-15T07:38:11Z</time>
      </trkpt>
      <trkpt lat="47.23094" lon="-1.60341">
        <ele>30.4</ele>
        <time>2013-09-15T07:38:13Z</time>
      </trkpt>
      <trkpt lat="47.231" lon="-1.60329">
        <ele>29.1</ele>
        <time>2013-09-15T07:38:15Z</time>
      </trkpt>
      <trkpt lat="47.23103" lon="-1.60313">
        <ele>28.9</ele>
        <time>2013-09-15T07:38:18Z</time>
      </trkpt>
      <trkpt lat="47.23107" lon="-1.60299">
        <ele>28.2</ele>
        <time>2013-09-15T07:38:20Z</time>
      </trkpt>
      <trkpt lat="47.2311" lon="-1.60284">
        <ele>26.5</ele>
        <time>2013-09-15T07:38:22Z</time>
      </trkpt>
      <trkpt lat="47.23115" lon="-1.60266">
        <ele>25.4</ele>
        <time>2013-09-15T07:38:24Z</time>
      </trkpt>
      <trkpt lat="47.23119" lon="-1.6025">
        <ele>24.4</ele>
        <time>2013-09-15T07:38:26Z</time>
      </trkpt>
      <trkpt lat="47.23123" lon="-1.60237">
        <ele>23.1</ele>
        <time>2013-09-15T07:38:28Z</time>
      </trkpt>
      <trkpt lat="47.23124" lon="-1.60219">
        <ele>23</ele>
        <time>2013-09-15T07:38:31Z</time>
      </trkpt>
      <trkpt lat="47.23134" lon="-1.60217">
        <ele>23.5</ele>
        <time>2013-09-15T07:38:37Z</time>
      </trkpt>
      <trkpt lat="47.23145" lon="-1.60218">
        <ele>23.9</ele>
        <time>2013-09-15T07:38:41Z</time>
      </trkpt>
      <trkpt lat="47.23152" lon="-1.60208">
        <ele>24.4</ele>
        <time>2013-09-15T07:38:44Z</time>
      </trkpt>
      <trkpt lat="47.23156" lon="-1.60195">
        <ele>24.9</ele>
        <time>2013-09-15T07:38:48Z</time>
      </trkpt>
      <trkpt lat="47.23164" lon="-1.60186">
        <ele>25.7</ele>
        <time>2013-09-15T07:38:56Z</time>
      </trkpt>
      <trkpt lat="47.23175" lon="-1.60189">
        <ele>26</ele>
        <time>2013-09-15T07:39:02Z</time>
      </trkpt>
      <trkpt lat="47.23185" lon="-1.6019">
        <ele>26.2</ele>
        <time>2013-09-15T07:39:06Z</time>
      </trkpt>
      <trkpt lat="47.23196" lon="-1.60188">
        <ele>26.1</ele>
        <time>2013-09-15T07:39:10Z</time>
      </trkpt>
      <trkpt lat="47.23206" lon="-1.60187">
        <ele>26.2</ele>
        <time>2013-09-15T07:39:14Z</time>
      </trkpt>
      <trkpt lat="47.23216" lon="-1.60179">
        <ele>25.8</ele>
        <time>2013-09-15T07:39:19Z</time>
      </trkpt>
      <trkpt lat="47.23221" lon="-1.60166">
        <ele>24.6</ele>
        <time>2013-09-15T07:39:21Z</time>
      </trkpt>
      <trkpt lat="47.23226" lon="-1.60155">
        <ele>23.9</ele>
        <time>2013-09-15T07:39:23Z</time>
      </trkpt>
      <trkpt lat="47.23232" lon="-1.60143">
        <ele>22.9</ele>
        <time>2013-09-15T07:39:25Z</time>
      </trkpt>
      <trkpt lat="47.2324" lon="-1.60134">
        <ele>22.3</ele>
        <time>2013-09-15T07:39:27Z</time>
      </trkpt>
      <trkpt lat="47.23248" lon="-1.60121">
        <ele>22.7</ele>
        <time>2013-09-15T07:39:29Z</time>
      </trkpt>
      <trkpt lat="47.23256" lon="-1.60107">
        <ele>23.7</ele>
        <time>2013-09-15T07:39:32Z</time>
      </trkpt>
      <trkpt lat="47.23266" lon="-1.60093">
        <ele>22.2</ele>
        <time>2013-09-15T07:39:35Z</time>
      </trkpt>
      <trkpt lat="47.23275" lon="-1.6008">
        <ele>21.5</ele>
        <time>2013-09-15T07:39:38Z</time>
      </trkpt>
      <trkpt lat="47.23285" lon="-1.60083">
        <ele>21.2</ele>
        <time>2013-09-15T07:39:45Z</time>
      </trkpt>
      <trkpt lat="47.23291" lon="-1.60095">
        <ele>20.8</ele>
        <time>2013-09-15T07:39:48Z</time>
      </trkpt>
      <trkpt lat="47.233" lon="-1.60096">
        <ele>19.6</ele>
        <time>2013-09-15T07:39:57Z</time>
      </trkpt>
      <trkpt lat="47.23305" lon="-1.6011">
        <ele>18.8</ele>
        <time>2013-09-15T07:40:02Z</time>
      </trkpt>
      <trkpt lat="47.23312" lon="-1.60122">
        <ele>18.2</ele>
        <time>2013-09-15T07:40:05Z</time>
      </trkpt>
      <trkpt lat="47.23323" lon="-1.60135">
        <ele>17.8</ele>
        <time>2013-09-15T07:40:08Z</time>
      </trkpt>
      <trkpt lat="47.23331" lon="-1.60144">
        <ele>14.9</ele>
        <time>2013-09-15T07:40:10Z</time>
      </trkpt>
      <trkpt lat="47.23339" lon="-1.60152">
        <ele>14.8</ele>
        <time>2013-09-15T07:40:12Z</time>
      </trkpt>
      <trkpt lat="47.23351" lon="-1.60163">
        <ele>13.1</ele>
        <time>2013-09-15T07:40:15Z</time>
      </trkpt>
      <trkpt lat="47.23358" lon="-1.60174">
        <ele>11.3</ele>
        <time>2013-09-15T07:40:17Z</time>
      </trkpt>
      <trkpt lat="47.23366" lon="-1.60191">
        <ele>8.9</ele>
        <time>2013-09-15T07:40:19Z</time>
      </trkpt>
      <trkpt lat="47.23372" lon="-1.60204">
        <ele>8.7</ele>
        <time>2013-09-15T07:40:21Z</time>
      </trkpt>
      <trkpt lat="47.23378" lon="-1.60215">
        <ele>8.5</ele>
        <time>2013-09-15T07:40:23Z</time>
      </trkpt>
      <trkpt lat="47.23384" lon="-1.60225">
        <ele>8.2</ele>
        <time>2013-09-15T07:40:26Z</time>
      </trkpt>
      <trkpt lat="47.23392" lon="-1.60234">
        <ele>8.2</ele>
        <time>2013-09-15T07:40:29Z</time>
      </trkpt>
      <trkpt lat="47.234" lon="-1.60246">
        <ele>7.8</ele>
        <time>2013-09-15T07:40:32Z</time>
      </trkpt>
      <trkpt lat="47.23409" lon="-1.60258">
        <ele>8</ele>
        <time>2013-09-15T07:40:35Z</time>
      </trkpt>
      <trkpt lat="47.23416" lon="-1.60272">
        <ele>7.9</ele>
        <time>2013-09-15T07:40:38Z</time>
      </trkpt>
      <trkpt lat="47.23425" lon="-1.60282">
        <ele>7.9</ele>
        <time>2013-09-15T07:40:41Z</time>
      </trkpt>
      <trkpt lat="47.23434" lon="-1.6029">
        <ele>7.8</ele>
        <time>2013-09-15T07:40:44Z</time>
      </trkpt>
      <trkpt lat="47.23445" lon="-1.60299">
        <ele>7.3</ele>
        <time>2013-09-15T07:40:47Z</time>
      </trkpt>
      <trkpt lat="47.23453" lon="-1.60305">
        <ele>7</ele>
        <time>2013-09-15T07:40:50Z</time>
      </trkpt>
      <trkpt lat="47.23464" lon="-1.60315">
        <ele>7.2</ele>
        <time>2013-09-15T07:40:53Z</time>
      </trkpt>
      <trkpt lat="47.23474" lon="-1.60329">
        <ele>7</ele>
        <time>2013-09-15T07:40:56Z</time>
      </trkpt>
      <trkpt lat="47.23482" lon="-1.60337">
        <ele>6.2</ele>
        <time>2013-09-15T07:40:58Z</time>
      </trkpt>
      <trkpt lat="47.23494" lon="-1.60341">
        <ele>6.7</ele>
        <time>2013-09-15T07:41:01Z</time>
      </trkpt>
      <trkpt lat="47.23503" lon="-1.60342">
        <ele>6.8</ele>
        <time>2013-09-15T07:41:04Z</time>
      </trkpt>
      <trkpt lat="47.23514" lon="-1.60342">
        <ele>6.7</ele>
        <time>2013-09-15T07:41:07Z</time>
      </trkpt>
      <trkpt lat="47.23523" lon="-1.60337">
        <ele>6.6</ele>
        <time>2013-09-15T07:41:10Z</time>
      </trkpt>
      <trkpt lat="47.2353" lon="-1.60347">
        <ele>6.7</ele>
        <time>2013-09-15T07:41:15Z</time>
      </trkpt>
      <trkpt lat="47.23538" lon="-1.60362">
        <ele>6.8</ele>
        <time>2013-09-15T07:41:19Z</time>
      </trkpt>
      <trkpt lat="47.23543" lon="-1.60373">
        <ele>6.8</ele>
        <time>2013-09-15T07:41:21Z</time>
      </trkpt>
      <trkpt lat="47.23545" lon="-1.60394">
        <ele>8.1</ele>
        <time>2013-09-15T07:41:23Z</time>
      </trkpt>
      <trkpt lat="47.23545" lon="-1.60414">
        <ele>8.6</ele>
        <time>2013-09-15T07:41:25Z</time>
      </trkpt>
      <trkpt lat="47.23544" lon="-1.6043">
        <ele>8.7</ele>
        <time>2013-09-15T07:41:27Z</time>
      </trkpt>
      <trkpt lat="47.23547" lon="-1.60445">
        <ele>8.8</ele>
        <time>2013-09-15T07:41:29Z</time>
      </trkpt>
      <trkpt lat="47.23553" lon="-1.60456">
        <ele>8.8</ele>
        <time>2013-09-15T07:41:32Z</time>
      </trkpt>
      <trkpt lat="47.23561" lon="-1.60465">
        <ele>8.7</ele>
        <time>2013-09-15T07:41:35Z</time>
      </trkpt>
      <trkpt lat="47.23569" lon="-1.60475">
        <ele>9</ele>
        <time>2013-09-15T07:41:39Z</time>
      </trkpt>
      <trkpt lat="47.23576" lon="-1.60485">
        <ele>9.3</ele>
        <time>2013-09-15T07:41:45Z</time>
      </trkpt>
      <trkpt lat="47.23584" lon="-1.60493">
        <ele>9.9</ele>
        <time>2013-09-15T07:41:50Z</time>
      </trkpt>
      <trkpt lat="47.23594" lon="-1.60502">
        <ele>11</ele>
        <time>2013-09-15T07:41:56Z</time>
      </trkpt>
      <trkpt lat="47.23601" lon="-1.6051">
        <ele>12.3</ele>
        <time>2013-09-15T07:42:01Z</time>
      </trkpt>
      <trkpt lat="47.23609" lon="-1.60519">
        <ele>14</ele>
        <time>2013-09-15T07:42:06Z</time>
      </trkpt>
      <trkpt lat="47.23618" lon="-1.60525">
        <ele>15.9</ele>
        <time>2013-09-15T07:42:11Z</time>
      </trkpt>
      <trkpt lat="47.23627" lon="-1.6052">
        <ele>17.1</ele>
        <time>2013-09-15T07:42:17Z</time>
      </trkpt>
      <trkpt lat="47.23636" lon="-1.60515">
        <ele>17.4</ele>
        <time>2013-09-15T07:42:21Z</time>
      </trkpt>
      <trkpt lat="47.23644" lon="-1.60508">
        <ele>18.3</ele>
        <time>2013-09-15T07:42:28Z</time>
      </trkpt>
      <trkpt lat="47.23653" lon="-1.605">
        <ele>19.1</ele>
        <time>2013-09-15T07:42:33Z</time>
      </trkpt>
      <trkpt lat="47.23656" lon="-1.60487">
        <ele>24.7</ele>
        <time>2013-09-15T07:43:12Z</time>
      </trkpt>
      <trkpt lat="47.23663" lon="-1.605">
        <ele>25.8</ele>
        <time>2013-09-15T07:43:31Z</time>
      </trkpt>
      <trkpt lat="47.23666" lon="-1.60514">
        <ele>26</ele>
        <time>2013-09-15T07:43:36Z</time>
      </trkpt>
      <trkpt lat="47.2367" lon="-1.60529">
        <ele>26.3</ele>
        <time>2013-09-15T07:43:40Z</time>
      </trkpt>
      <trkpt lat="47.23673" lon="-1.60543">
        <ele>26.4</ele>
        <time>2013-09-15T07:43:43Z</time>
      </trkpt>
      <trkpt lat="47.23678" lon="-1.60557">
        <ele>26.4</ele>
        <time>2013-09-15T07:43:46Z</time>
      </trkpt>
      <trkpt lat="47.23682" lon="-1.60574">
        <ele>26.2</ele>
        <time>2013-09-15T07:43:49Z</time>
      </trkpt>
      <trkpt lat="47.23686" lon="-1.60586">
        <ele>26.5</ele>
        <time>2013-09-15T07:43:52Z</time>
      </trkpt>
      <trkpt lat="47.23691" lon="-1.606">
        <ele>26.7</ele>
        <time>2013-09-15T07:43:55Z</time>
      </trkpt>
      <trkpt lat="47.23698" lon="-1.60617">
        <ele>27.6</ele>
        <time>2013-09-15T07:43:58Z</time>
      </trkpt>
      <trkpt lat="47.23706" lon="-1.60631">
        <ele>28.4</ele>
        <time>2013-09-15T07:44:01Z</time>
      </trkpt>
      <trkpt lat="47.23713" lon="-1.6064">
        <ele>28.2</ele>
        <time>2013-09-15T07:44:04Z</time>
      </trkpt>
      <trkpt lat="47.23722" lon="-1.60644">
        <ele>28</ele>
        <time>2013-09-15T07:44:07Z</time>
      </trkpt>
      <trkpt lat="47.23732" lon="-1.60647">
        <ele>28.1</ele>
        <time>2013-09-15T07:44:10Z</time>
      </trkpt>
      <trkpt lat="47.23744" lon="-1.6065">
        <ele>28.3</ele>
        <time>2013-09-15T07:44:14Z</time>
      </trkpt>
      <trkpt lat="47.23752" lon="-1.60654">
        <ele>28.7</ele>
        <time>2013-09-15T07:44:17Z</time>
      </trkpt>
      <trkpt lat="47.23764" lon="-1.6066">
        <ele>29</ele>
        <time>2013-09-15T07:44:20Z</time>
      </trkpt>
      <trkpt lat="47.23775" lon="-1.60664">
        <ele>29.2</ele>
        <time>2013-09-15T07:44:23Z</time>
      </trkpt>
      <trkpt lat="47.23786" lon="-1.60665">
        <ele>29.5</ele>
        <time>2013-09-15T07:44:26Z</time>
      </trkpt>
      <trkpt lat="47.23798" lon="-1.60667">
        <ele>29.7</ele>
        <time>2013-09-15T07:44:29Z</time>
      </trkpt>
      <trkpt lat="47.2381" lon="-1.60664">
        <ele>29.8</ele>
        <time>2013-09-15T07:44:33Z</time>
      </trkpt>
      <trkpt lat="47.23821" lon="-1.60659">
        <ele>29.6</ele>
        <time>2013-09-15T07:44:36Z</time>
      </trkpt>
      <trkpt lat="47.23832" lon="-1.60654">
        <ele>30.4</ele>
        <time>2013-09-15T07:44:39Z</time>
      </trkpt>
      <trkpt lat="47.23843" lon="-1.60647">
        <ele>30.6</ele>
        <time>2013-09-15T07:44:43Z</time>
      </trkpt>
      <trkpt lat="47.23853" lon="-1.6064">
        <ele>30.6</ele>
        <time>2013-09-15T07:44:46Z</time>
      </trkpt>
      <trkpt lat="47.23862" lon="-1.60632">
        <ele>30.6</ele>
        <time>2013-09-15T07:44:50Z</time>
      </trkpt>
      <trkpt lat="47.23865" lon="-1.60618">
        <ele>30.7</ele>
        <time>2013-09-15T07:44:53Z</time>
      </trkpt>
      <trkpt lat="47.23875" lon="-1.60613">
        <ele>30.6</ele>
        <time>2013-09-15T07:44:57Z</time>
      </trkpt>
      <trkpt lat="47.23884" lon="-1.6062">
        <ele>30.6</ele>
        <time>2013-09-15T07:45:00Z</time>
      </trkpt>
      <trkpt lat="47.23891" lon="-1.60633">
        <ele>30.9</ele>
        <time>2013-09-15T07:45:03Z</time>
      </trkpt>
      <trkpt lat="47.23898" lon="-1.60649">
        <ele>31.2</ele>
        <time>2013-09-15T07:45:06Z</time>
      </trkpt>
      <trkpt lat="47.23905" lon="-1.60664">
        <ele>32.6</ele>
        <time>2013-09-15T07:45:09Z</time>
      </trkpt>
      <trkpt lat="47.23913" lon="-1.60679">
        <ele>34.4</ele>
        <time>2013-09-15T07:45:12Z</time>
      </trkpt>
      <trkpt lat="47.23919" lon="-1.6069">
        <ele>34.7</ele>
        <time>2013-09-15T07:45:15Z</time>
      </trkpt>
      <trkpt lat="47.23928" lon="-1.60703">
        <ele>34.9</ele>
        <time>2013-09-15T07:45:18Z</time>
      </trkpt>
      <trkpt lat="47.23937" lon="-1.60714">
        <ele>35.3</ele>
        <time>2013-09-15T07:45:21Z</time>
      </trkpt>
      <trkpt lat="47.23946" lon="-1.60726">
        <ele>35.4</ele>
        <time>2013-09-15T07:45:24Z</time>
      </trkpt>
      <trkpt lat="47.23953" lon="-1.60738">
        <ele>36.1</ele>
        <time>2013-09-15T07:45:27Z</time>
      </trkpt>
      <trkpt lat="47.23961" lon="-1.60749">
        <ele>36.1</ele>
        <time>2013-09-15T07:45:30Z</time>
      </trkpt>
      <trkpt lat="47.23969" lon="-1.6076">
        <ele>36.3</ele>
        <time>2013-09-15T07:45:33Z</time>
      </trkpt>
      <trkpt lat="47.23977" lon="-1.60771">
        <ele>36.5</ele>
        <time>2013-09-15T07:45:36Z</time>
      </trkpt>
      <trkpt lat="47.23983" lon="-1.60783">
        <ele>36.7</ele>
        <time>2013-09-15T07:45:39Z</time>
      </trkpt>
      <trkpt lat="47.23988" lon="-1.60795">
        <ele>36.9</ele>
        <time>2013-09-15T07:45:42Z</time>
      </trkpt>
      <trkpt lat="47.23994" lon="-1.60808">
        <ele>37.2</ele>
        <time>2013-09-15T07:45:45Z</time>
      </trkpt>
      <trkpt lat="47.23999" lon="-1.60824">
        <ele>37.5</ele>
        <time>2013-09-15T07:45:48Z</time>
      </trkpt>
      <trkpt lat="47.24003" lon="-1.60837">
        <ele>37.9</ele>
        <time>2013-09-15T07:45:51Z</time>
      </trkpt>
      <trkpt lat="47.24008" lon="-1.60852">
        <ele>38.2</ele>
        <time>2013-09-15T07:45:54Z</time>
      </trkpt>
      <trkpt lat="47.24012" lon="-1.60866">
        <ele>38.4</ele>
        <time>2013-09-15T07:45:57Z</time>
      </trkpt>
      <trkpt lat="47.24019" lon="-1.6088">
        <ele>39.8</ele>
        <time>2013-09-15T07:46:00Z</time>
      </trkpt>
      <trkpt lat="47.24029" lon="-1.60881">
        <ele>40.4</ele>
        <time>2013-09-15T07:46:03Z</time>
      </trkpt>
      <trkpt lat="47.2404" lon="-1.60874">
        <ele>41.4</ele>
        <time>2013-09-15T07:46:06Z</time>
      </trkpt>
      <trkpt lat="47.24051" lon="-1.60866">
        <ele>42.5</ele>
        <time>2013-09-15T07:46:09Z</time>
      </trkpt>
      <trkpt lat="47.24063" lon="-1.6086">
        <ele>44.3</ele>
        <time>2013-09-15T07:46:12Z</time>
      </trkpt>
      <trkpt lat="47.24076" lon="-1.60854">
        <ele>44.8</ele>
        <time>2013-09-15T07:46:15Z</time>
      </trkpt>
      <trkpt lat="47.24087" lon="-1.60849">
        <ele>44.9</ele>
        <time>2013-09-15T07:46:18Z</time>
      </trkpt>
      <trkpt lat="47.24095" lon="-1.60845">
        <ele>45.4</ele>
        <time>2013-09-15T07:46:21Z</time>
      </trkpt>
      <trkpt lat="47.24102" lon="-1.60855">
        <ele>45.4</ele>
        <time>2013-09-15T07:46:27Z</time>
      </trkpt>
      <trkpt lat="47.24107" lon="-1.60843">
        <ele>45.7</ele>
        <time>2013-09-15T07:46:42Z</time>
      </trkpt>
      <trkpt lat="47.24107" lon="-1.6083">
        <ele>45.6</ele>
        <time>2013-09-15T07:46:47Z</time>
      </trkpt>
      <trkpt lat="47.24107" lon="-1.60814">
        <ele>45.8</ele>
        <time>2013-09-15T07:46:58Z</time>
      </trkpt>
      <trkpt lat="47.24103" lon="-1.60802">
        <ele>46</ele>
        <time>2013-09-15T07:47:18Z</time>
      </trkpt>
      <trkpt lat="47.24112" lon="-1.60807">
        <ele>44.1</ele>
        <time>2013-09-15T07:50:51Z</time>
      </trkpt>
      <trkpt lat="47.24116" lon="-1.60822">
        <ele>44.5</ele>
        <time>2013-09-15T07:51:02Z</time>
      </trkpt>
      <trkpt lat="47.24116" lon="-1.60836">
        <ele>44.4</ele>
        <time>2013-09-15T07:51:50Z</time>
      </trkpt>
      <trkpt lat="47.24123" lon="-1.60846">
        <ele>44</ele>
        <time>2013-09-15T07:52:50Z</time>
      </trkpt>
      <trkpt lat="47.24124" lon="-1.6086">
        <ele>43.7</ele>
        <time>2013-09-15T07:53:00Z</time>
      </trkpt>
      <trkpt lat="47.24133" lon="-1.60863">
        <ele>43.2</ele>
        <time>2013-09-15T07:53:10Z</time>
      </trkpt>
      <trkpt lat="47.24143" lon="-1.60864">
        <ele>43.6</ele>
        <time>2013-09-15T07:53:15Z</time>
      </trkpt>
      <trkpt lat="47.24155" lon="-1.60866">
        <ele>43.6</ele>
        <time>2013-09-15T07:53:19Z</time>
      </trkpt>
      <trkpt lat="47.24167" lon="-1.60861">
        <ele>43</ele>
        <time>2013-09-15T07:53:22Z</time>
      </trkpt>
      <trkpt lat="47.24177" lon="-1.6086">
        <ele>43.2</ele>
        <time>2013-09-15T07:53:24Z</time>
      </trkpt>
      <trkpt lat="47.24186" lon="-1.60863">
        <ele>43.1</ele>
        <time>2013-09-15T07:53:26Z</time>
      </trkpt>
      <trkpt lat="47.24197" lon="-1.60866">
        <ele>43.1</ele>
        <time>2013-09-15T07:53:29Z</time>
      </trkpt>
      <trkpt lat="47.24207" lon="-1.6087">
        <ele>43.2</ele>
        <time>2013-09-15T07:53:32Z</time>
      </trkpt>
      <trkpt lat="47.24216" lon="-1.60862">
        <ele>43.4</ele>
        <time>2013-09-15T07:53:35Z</time>
      </trkpt>
      <trkpt lat="47.24222" lon="-1.60852">
        <ele>43.3</ele>
        <time>2013-09-15T07:53:39Z</time>
      </trkpt>
      <trkpt lat="47.24233" lon="-1.60859">
        <ele>43.2</ele>
        <time>2013-09-15T07:53:44Z</time>
      </trkpt>
      <trkpt lat="47.24238" lon="-1.6087">
        <ele>43.3</ele>
        <time>2013-09-15T07:53:47Z</time>
      </trkpt>
      <trkpt lat="47.2424" lon="-1.60887">
        <ele>43.5</ele>
        <time>2013-09-15T07:53:50Z</time>
      </trkpt>
      <trkpt lat="47.24242" lon="-1.60905">
        <ele>44</ele>
        <time>2013-09-15T07:53:53Z</time>
      </trkpt>
      <trkpt lat="47.24244" lon="-1.60919">
        <ele>44</ele>
        <time>2013-09-15T07:53:55Z</time>
      </trkpt>
      <trkpt lat="47.24247" lon="-1.60939">
        <ele>43.9</ele>
        <time>2013-09-15T07:53:58Z</time>
      </trkpt>
      <trkpt lat="47.24249" lon="-1.60954">
        <ele>44.2</ele>
        <time>2013-09-15T07:54:00Z</time>
      </trkpt>
      <trkpt lat="47.24251" lon="-1.60969">
        <ele>43.8</ele>
        <time>2013-09-15T07:54:02Z</time>
      </trkpt>
      <trkpt lat="47.24253" lon="-1.60982">
        <ele>43.2</ele>
        <time>2013-09-15T07:54:04Z</time>
      </trkpt>
      <trkpt lat="47.24256" lon="-1.60998">
        <ele>42.4</ele>
        <time>2013-09-15T07:54:06Z</time>
      </trkpt>
      <trkpt lat="47.24258" lon="-1.6101">
        <ele>41.8</ele>
        <time>2013-09-15T07:54:08Z</time>
      </trkpt>
      <trkpt lat="47.24258" lon="-1.61024">
        <ele>40.9</ele>
        <time>2013-09-15T07:54:10Z</time>
      </trkpt>
      <trkpt lat="47.24258" lon="-1.61043">
        <ele>40</ele>
        <time>2013-09-15T07:54:13Z</time>
      </trkpt>
      <trkpt lat="47.24263" lon="-1.61057">
        <ele>40.1</ele>
        <time>2013-09-15T07:54:16Z</time>
      </trkpt>
      <trkpt lat="47.24268" lon="-1.61071">
        <ele>40</ele>
        <time>2013-09-15T07:54:20Z</time>
      </trkpt>
      <trkpt lat="47.24262" lon="-1.61083">
        <ele>39.3</ele>
        <time>2013-09-15T07:54:39Z</time>
      </trkpt>
      <trkpt lat="47.2426" lon="-1.61097">
        <ele>38.6</ele>
        <time>2013-09-15T07:54:45Z</time>
      </trkpt>
      <trkpt lat="47.24266" lon="-1.6111">
        <ele>38.2</ele>
        <time>2013-09-15T07:54:50Z</time>
      </trkpt>
      <trkpt lat="47.24269" lon="-1.61123">
        <ele>37.8</ele>
        <time>2013-09-15T07:54:58Z</time>
      </trkpt>
      <trkpt lat="47.24268" lon="-1.61137">
        <ele>36.5</ele>
        <time>2013-09-15T07:55:07Z</time>
      </trkpt>
      <trkpt lat="47.24259" lon="-1.61141">
        <ele>35.4</ele>
        <time>2013-09-15T07:55:17Z</time>
      </trkpt>
      <trkpt lat="47.2425" lon="-1.61138">
        <ele>35</ele>
        <time>2013-09-15T07:55:42Z</time>
      </trkpt>
      <trkpt lat="47.24245" lon="-1.61126">
        <ele>35.8</ele>
        <time>2013-09-15T07:55:54Z</time>
      </trkpt>
      <trkpt lat="47.24241" lon="-1.61112">
        <ele>36.1</ele>
        <time>2013-09-15T07:56:00Z</time>
      </trkpt>
      <trkpt lat="47.24231" lon="-1.61113">
        <ele>36.3</ele>
        <time>2013-09-15T07:56:55Z</time>
      </trkpt>
      <trkpt lat="47.24224" lon="-1.61122">
        <ele>35.8</ele>
        <time>2013-09-15T07:57:13Z</time>
      </trkpt>
      <trkpt lat="47.24218" lon="-1.61134">
        <ele>33.3</ele>
        <time>2013-09-15T07:57:59Z</time>
      </trkpt>
      <trkpt lat="47.24212" lon="-1.61148">
        <ele>32.6</ele>
        <time>2013-09-15T07:58:04Z</time>
      </trkpt>
      <trkpt lat="47.24204" lon="-1.61158">
        <ele>32.5</ele>
        <time>2013-09-15T07:58:09Z</time>
      </trkpt>
      <trkpt lat="47.24196" lon="-1.61167">
        <ele>32.3</ele>
        <time>2013-09-15T07:58:13Z</time>
      </trkpt>
      <trkpt lat="47.24185" lon="-1.61174">
        <ele>32.2</ele>
        <time>2013-09-15T07:58:16Z</time>
      </trkpt>
      <trkpt lat="47.24175" lon="-1.6118">
        <ele>32.3</ele>
        <time>2013-09-15T07:58:18Z</time>
      </trkpt>
      <trkpt lat="47.24165" lon="-1.61185">
        <ele>32.4</ele>
        <time>2013-09-15T07:58:20Z</time>
      </trkpt>
      <trkpt lat="47.24153" lon="-1.61193">
        <ele>32.9</ele>
        <time>2013-09-15T07:58:23Z</time>
      </trkpt>
      <trkpt lat="47.24143" lon="-1.61199">
        <ele>32.9</ele>
        <time>2013-09-15T07:58:26Z</time>
      </trkpt>
      <trkpt lat="47.24134" lon="-1.61205">
        <ele>33</ele>
        <time>2013-09-15T07:58:28Z</time>
      </trkpt>
      <trkpt lat="47.24125" lon="-1.6121">
        <ele>33.9</ele>
        <time>2013-09-15T07:58:30Z</time>
      </trkpt>
      <trkpt lat="47.24116" lon="-1.61215">
        <ele>34</ele>
        <time>2013-09-15T07:58:32Z</time>
      </trkpt>
      <trkpt lat="47.24108" lon="-1.6122">
        <ele>34.3</ele>
        <time>2013-09-15T07:58:34Z</time>
      </trkpt>
      <trkpt lat="47.24099" lon="-1.61222">
        <ele>34.5</ele>
        <time>2013-09-15T07:58:38Z</time>
      </trkpt>
      <trkpt lat="47.24087" lon="-1.61219">
        <ele>34.6</ele>
        <time>2013-09-15T07:58:42Z</time>
      </trkpt>
      <trkpt lat="47.24075" lon="-1.6122">
        <ele>34.3</ele>
        <time>2013-09-15T07:58:45Z</time>
      </trkpt>
      <trkpt lat="47.24062" lon="-1.61218">
        <ele>34.2</ele>
        <time>2013-09-15T07:58:48Z</time>
      </trkpt>
      <trkpt lat="47.24052" lon="-1.61216">
        <ele>33.9</ele>
        <time>2013-09-15T07:58:51Z</time>
      </trkpt>
      <trkpt lat="47.24041" lon="-1.6122">
        <ele>33.6</ele>
        <time>2013-09-15T07:58:54Z</time>
      </trkpt>
      <trkpt lat="47.24036" lon="-1.61232">
        <ele>33.5</ele>
        <time>2013-09-15T07:58:56Z</time>
      </trkpt>
      <trkpt lat="47.24034" lon="-1.61247">
        <ele>33.4</ele>
        <time>2013-09-15T07:58:59Z</time>
      </trkpt>
      <trkpt lat="47.24033" lon="-1.61266">
        <ele>33</ele>
        <time>2013-09-15T07:59:02Z</time>
      </trkpt>
      <trkpt lat="47.24031" lon="-1.61284">
        <ele>30.9</ele>
        <time>2013-09-15T07:59:05Z</time>
      </trkpt>
      <trkpt lat="47.24029" lon="-1.61304">
        <ele>30.5</ele>
        <time>2013-09-15T07:59:08Z</time>
      </trkpt>
      <trkpt lat="47.24029" lon="-1.6132">
        <ele>30.6</ele>
        <time>2013-09-15T07:59:10Z</time>
      </trkpt>
      <trkpt lat="47.2403" lon="-1.61334">
        <ele>30.3</ele>
        <time>2013-09-15T07:59:12Z</time>
      </trkpt>
      <trkpt lat="47.24033" lon="-1.61353">
        <ele>30.7</ele>
        <time>2013-09-15T07:59:15Z</time>
      </trkpt>
      <trkpt lat="47.24035" lon="-1.61366">
        <ele>30.2</ele>
        <time>2013-09-15T07:59:17Z</time>
      </trkpt>
      <trkpt lat="47.24037" lon="-1.61383">
        <ele>30.3</ele>
        <time>2013-09-15T07:59:20Z</time>
      </trkpt>
      <trkpt lat="47.24042" lon="-1.614">
        <ele>30.3</ele>
        <time>2013-09-15T07:59:23Z</time>
      </trkpt>
      <trkpt lat="47.24046" lon="-1.61414">
        <ele>30.3</ele>
        <time>2013-09-15T07:59:26Z</time>
      </trkpt>
      <trkpt lat="47.2405" lon="-1.61429">
        <ele>30.4</ele>
        <time>2013-09-15T07:59:29Z</time>
      </trkpt>
      <trkpt lat="47.24055" lon="-1.61443">
        <ele>30.6</ele>
        <time>2013-09-15T07:59:32Z</time>
      </trkpt>
      <trkpt lat="47.2406" lon="-1.61457">
        <ele>30.8</ele>
        <time>2013-09-15T07:59:35Z</time>
      </trkpt>
      <trkpt lat="47.24066" lon="-1.61472">
        <ele>31</ele>
        <time>2013-09-15T07:59:38Z</time>
      </trkpt>
      <trkpt lat="47.24072" lon="-1.61487">
        <ele>32.2</ele>
        <time>2013-09-15T07:59:41Z</time>
      </trkpt>
      <trkpt lat="47.24076" lon="-1.61499">
        <ele>32.3</ele>
        <time>2013-09-15T07:59:44Z</time>
      </trkpt>
      <trkpt lat="47.24081" lon="-1.61513">
        <ele>32.5</ele>
        <time>2013-09-15T07:59:47Z</time>
      </trkpt>
      <trkpt lat="47.24085" lon="-1.61525">
        <ele>32.6</ele>
        <time>2013-09-15T07:59:51Z</time>
      </trkpt>
      <trkpt lat="47.24079" lon="-1.61536">
        <ele>32.8</ele>
        <time>2013-09-15T07:59:55Z</time>
      </trkpt>
      <trkpt lat="47.24065" lon="-1.61537">
        <ele>36.4</ele>
        <time>2013-09-15T07:59:58Z</time>
      </trkpt>
      <trkpt lat="47.24052" lon="-1.61536">
        <ele>39.1</ele>
        <time>2013-09-15T08:00:01Z</time>
      </trkpt>
      <trkpt lat="47.24043" lon="-1.61535">
        <ele>39.6</ele>
        <time>2013-09-15T08:00:03Z</time>
      </trkpt>
      <trkpt lat="47.24033" lon="-1.61536">
        <ele>39.4</ele>
        <time>2013-09-15T08:00:05Z</time>
      </trkpt>
      <trkpt lat="47.24022" lon="-1.61536">
        <ele>39.6</ele>
        <time>2013-09-15T08:00:07Z</time>
      </trkpt>
      <trkpt lat="47.24011" lon="-1.61537">
        <ele>38.5</ele>
        <time>2013-09-15T08:00:09Z</time>
      </trkpt>
      <trkpt lat="47.23999" lon="-1.61538">
        <ele>37.5</ele>
        <time>2013-09-15T08:00:11Z</time>
      </trkpt>
      <trkpt lat="47.23986" lon="-1.61539">
        <ele>36.4</ele>
        <time>2013-09-15T08:00:13Z</time>
      </trkpt>
      <trkpt lat="47.23972" lon="-1.61539">
        <ele>35.1</ele>
        <time>2013-09-15T08:00:15Z</time>
      </trkpt>
      <trkpt lat="47.23958" lon="-1.61538">
        <ele>34.8</ele>
        <time>2013-09-15T08:00:17Z</time>
      </trkpt>
      <trkpt lat="47.23942" lon="-1.61537">
        <ele>36.3</ele>
        <time>2013-09-15T08:00:19Z</time>
      </trkpt>
      <trkpt lat="47.23928" lon="-1.61535">
        <ele>38</ele>
        <time>2013-09-15T08:00:21Z</time>
      </trkpt>
      <trkpt lat="47.23916" lon="-1.61535">
        <ele>37.6</ele>
        <time>2013-09-15T08:00:23Z</time>
      </trkpt>
      <trkpt lat="47.23902" lon="-1.61534">
        <ele>36.4</ele>
        <time>2013-09-15T08:00:25Z</time>
      </trkpt>
      <trkpt lat="47.23886" lon="-1.61532">
        <ele>35.5</ele>
        <time>2013-09-15T08:00:27Z</time>
      </trkpt>
      <trkpt lat="47.2387" lon="-1.61529">
        <ele>34.9</ele>
        <time>2013-09-15T08:00:29Z</time>
      </trkpt>
      <trkpt lat="47.23854" lon="-1.61525">
        <ele>33.9</ele>
        <time>2013-09-15T08:00:31Z</time>
      </trkpt>
      <trkpt lat="47.23839" lon="-1.61522">
        <ele>32.5</ele>
        <time>2013-09-15T08:00:33Z</time>
      </trkpt>
      <trkpt lat="47.23825" lon="-1.61519">
        <ele>31.2</ele>
        <time>2013-09-15T08:00:35Z</time>
      </trkpt>
      <trkpt lat="47.23812" lon="-1.61514">
        <ele>30.2</ele>
        <time>2013-09-15T08:00:37Z</time>
      </trkpt>
      <trkpt lat="47.23802" lon="-1.61511">
        <ele>29.5</ele>
        <time>2013-09-15T08:00:39Z</time>
      </trkpt>
      <trkpt lat="47.23793" lon="-1.61523">
        <ele>27.7</ele>
        <time>2013-09-15T08:00:42Z</time>
      </trkpt>
      <trkpt lat="47.23787" lon="-1.61537">
        <ele>26.2</ele>
        <time>2013-09-15T08:00:45Z</time>
      </trkpt>
      <trkpt lat="47.23781" lon="-1.6155">
        <ele>25.4</ele>
        <time>2013-09-15T08:00:49Z</time>
      </trkpt>
      <trkpt lat="47.23778" lon="-1.61564">
        <ele>24.8</ele>
        <time>2013-09-15T08:00:52Z</time>
      </trkpt>
      <trkpt lat="47.23776" lon="-1.61579">
        <ele>22.8</ele>
        <time>2013-09-15T08:01:06Z</time>
      </trkpt>
      <trkpt lat="47.23774" lon="-1.61593">
        <ele>21.1</ele>
        <time>2013-09-15T08:01:12Z</time>
      </trkpt>
      <trkpt lat="47.23774" lon="-1.61606">
        <ele>20.1</ele>
        <time>2013-09-15T08:01:19Z</time>
      </trkpt>
      <trkpt lat="47.2377" lon="-1.61621">
        <ele>19.6</ele>
        <time>2013-09-15T08:01:23Z</time>
      </trkpt>
      <trkpt lat="47.23767" lon="-1.61636">
        <ele>19.4</ele>
        <time>2013-09-15T08:01:27Z</time>
      </trkpt>
      <trkpt lat="47.23765" lon="-1.6165">
        <ele>19.1</ele>
        <time>2013-09-15T08:01:31Z</time>
      </trkpt>
      <trkpt lat="47.23763" lon="-1.61668">
        <ele>18.7</ele>
        <time>2013-09-15T08:01:39Z</time>
      </trkpt>
      <trkpt lat="47.23761" lon="-1.61682">
        <ele>18.7</ele>
        <time>2013-09-15T08:01:44Z</time>
      </trkpt>
      <trkpt lat="47.23765" lon="-1.61694">
        <ele>19.1</ele>
        <time>2013-09-15T08:01:50Z</time>
      </trkpt>
      <trkpt lat="47.23772" lon="-1.61711">
        <ele>19.7</ele>
        <time>2013-09-15T08:02:01Z</time>
      </trkpt>
      <trkpt lat="47.23772" lon="-1.61724">
        <ele>20.1</ele>
        <time>2013-09-15T08:02:06Z</time>
      </trkpt>
      <trkpt lat="47.23772" lon="-1.61739">
        <ele>21.1</ele>
        <time>2013-09-15T08:02:19Z</time>
      </trkpt>
      <trkpt lat="47.23775" lon="-1.61753">
        <ele>21.8</ele>
        <time>2013-09-15T08:02:23Z</time>
      </trkpt>
      <trkpt lat="47.23779" lon="-1.61765">
        <ele>22.6</ele>
        <time>2013-09-15T08:02:27Z</time>
      </trkpt>
      <trkpt lat="47.23782" lon="-1.61779">
        <ele>23.4</ele>
        <time>2013-09-15T08:02:31Z</time>
      </trkpt>
      <trkpt lat="47.23788" lon="-1.61789">
        <ele>23.8</ele>
        <time>2013-09-15T08:02:35Z</time>
      </trkpt>
      <trkpt lat="47.23794" lon="-1.61805">
        <ele>24</ele>
        <time>2013-09-15T08:02:39Z</time>
      </trkpt>
      <trkpt lat="47.238" lon="-1.61819">
        <ele>24</ele>
        <time>2013-09-15T08:02:42Z</time>
      </trkpt>
      <trkpt lat="47.23806" lon="-1.6183">
        <ele>23.8</ele>
        <time>2013-09-15T08:02:45Z</time>
      </trkpt>
      <trkpt lat="47.23813" lon="-1.61842">
        <ele>23.6</ele>
        <time>2013-09-15T08:02:49Z</time>
      </trkpt>
      <trkpt lat="47.2382" lon="-1.61851">
        <ele>23.3</ele>
        <time>2013-09-15T08:02:54Z</time>
      </trkpt>
      <trkpt lat="47.23825" lon="-1.61865">
        <ele>22.9</ele>
        <time>2013-09-15T08:02:59Z</time>
      </trkpt>
      <trkpt lat="47.23829" lon="-1.61878">
        <ele>22.7</ele>
        <time>2013-09-15T08:03:04Z</time>
      </trkpt>
      <trkpt lat="47.23831" lon="-1.61892">
        <ele>22.4</ele>
        <time>2013-09-15T08:03:07Z</time>
      </trkpt>
      <trkpt lat="47.23829" lon="-1.61906">
        <ele>21.6</ele>
        <time>2013-09-15T08:03:13Z</time>
      </trkpt>
      <trkpt lat="47.23832" lon="-1.61919">
        <ele>19.7</ele>
        <time>2013-09-15T08:03:59Z</time>
      </trkpt>
      <trkpt lat="47.23839" lon="-1.61931">
        <ele>19.5</ele>
        <time>2013-09-15T08:04:04Z</time>
      </trkpt>
      <trkpt lat="47.23847" lon="-1.61941">
        <ele>19.3</ele>
        <time>2013-09-15T08:04:08Z</time>
      </trkpt>
      <trkpt lat="47.23856" lon="-1.61948">
        <ele>18.6</ele>
        <time>2013-09-15T08:04:12Z</time>
      </trkpt>
      <trkpt lat="47.23865" lon="-1.61952">
        <ele>17.3</ele>
        <time>2013-09-15T08:04:14Z</time>
      </trkpt>
      <trkpt lat="47.23874" lon="-1.61957">
        <ele>17.2</ele>
        <time>2013-09-15T08:04:16Z</time>
      </trkpt>
      <trkpt lat="47.23885" lon="-1.61961">
        <ele>17.1</ele>
        <time>2013-09-15T08:04:19Z</time>
      </trkpt>
      <trkpt lat="47.23895" lon="-1.61966">
        <ele>16.9</ele>
        <time>2013-09-15T08:04:22Z</time>
      </trkpt>
      <trkpt lat="47.23904" lon="-1.61968">
        <ele>16.8</ele>
        <time>2013-09-15T08:04:26Z</time>
      </trkpt>
      <trkpt lat="47.23914" lon="-1.61969">
        <ele>17</ele>
        <time>2013-09-15T08:04:29Z</time>
      </trkpt>
      <trkpt lat="47.23925" lon="-1.61969">
        <ele>17.1</ele>
        <time>2013-09-15T08:04:32Z</time>
      </trkpt>
      <trkpt lat="47.23935" lon="-1.61968">
        <ele>17.2</ele>
        <time>2013-09-15T08:04:36Z</time>
      </trkpt>
      <trkpt lat="47.23946" lon="-1.61975">
        <ele>17.2</ele>
        <time>2013-09-15T08:04:40Z</time>
      </trkpt>
      <trkpt lat="47.23955" lon="-1.61979">
        <ele>17.2</ele>
        <time>2013-09-15T08:04:42Z</time>
      </trkpt>
      <trkpt lat="47.23966" lon="-1.61986">
        <ele>17.4</ele>
        <time>2013-09-15T08:04:44Z</time>
      </trkpt>
      <trkpt lat="47.23976" lon="-1.61994">
        <ele>17</ele>
        <time>2013-09-15T08:04:46Z</time>
      </trkpt>
      <trkpt lat="47.23985" lon="-1.62002">
        <ele>16.6</ele>
        <time>2013-09-15T08:04:48Z</time>
      </trkpt>
      <trkpt lat="47.23993" lon="-1.62011">
        <ele>16.6</ele>
        <time>2013-09-15T08:04:50Z</time>
      </trkpt>
      <trkpt lat="47.24002" lon="-1.62023">
        <ele>16.7</ele>
        <time>2013-09-15T08:04:53Z</time>
      </trkpt>
      <trkpt lat="47.24009" lon="-1.62039">
        <ele>16.5</ele>
        <time>2013-09-15T08:04:56Z</time>
      </trkpt>
      <trkpt lat="47.24013" lon="-1.62053">
        <ele>16.4</ele>
        <time>2013-09-15T08:04:58Z</time>
      </trkpt>
      <trkpt lat="47.24015" lon="-1.62066">
        <ele>16.3</ele>
        <time>2013-09-15T08:05:00Z</time>
      </trkpt>
      <trkpt lat="47.24014" lon="-1.62084">
        <ele>16.1</ele>
        <time>2013-09-15T08:05:03Z</time>
      </trkpt>
      <trkpt lat="47.24014" lon="-1.62103">
        <ele>16.2</ele>
        <time>2013-09-15T08:05:06Z</time>
      </trkpt>
      <trkpt lat="47.24014" lon="-1.62117">
        <ele>16.3</ele>
        <time>2013-09-15T08:05:08Z</time>
      </trkpt>
      <trkpt lat="47.24013" lon="-1.62132">
        <ele>16.2</ele>
        <time>2013-09-15T08:05:10Z</time>
      </trkpt>
      <trkpt lat="47.24013" lon="-1.6215">
        <ele>16.2</ele>
        <time>2013-09-15T08:05:13Z</time>
      </trkpt>
      <trkpt lat="47.24013" lon="-1.62167">
        <ele>15.9</ele>
        <time>2013-09-15T08:05:16Z</time>
      </trkpt>
      <trkpt lat="47.24013" lon="-1.62185">
        <ele>15.8</ele>
        <time>2013-09-15T08:05:19Z</time>
      </trkpt>
      <trkpt lat="47.24013" lon="-1.62201">
        <ele>15.9</ele>
        <time>2013-09-15T08:05:22Z</time>
      </trkpt>
      <trkpt lat="47.24015" lon="-1.62218">
        <ele>15.8</ele>
        <time>2013-09-15T08:05:26Z</time>
      </trkpt>
      <trkpt lat="47.24013" lon="-1.62233">
        <ele>15.8</ele>
        <time>2013-09-15T08:05:29Z</time>
      </trkpt>
      <trkpt lat="47.24012" lon="-1.62253">
        <ele>15.9</ele>
        <time>2013-09-15T08:05:32Z</time>
      </trkpt>
      <trkpt lat="47.24012" lon="-1.62271">
        <ele>16.1</ele>
        <time>2013-09-15T08:05:35Z</time>
      </trkpt>
      <trkpt lat="47.24012" lon="-1.62286">
        <ele>16.4</ele>
        <time>2013-09-15T08:05:38Z</time>
      </trkpt>
      <trkpt lat="47.24013" lon="-1.62301">
        <ele>16.8</ele>
        <time>2013-09-15T08:05:41Z</time>
      </trkpt>
      <trkpt lat="47.24012" lon="-1.62316">
        <ele>17</ele>
        <time>2013-09-15T08:05:44Z</time>
      </trkpt>
      <trkpt lat="47.24008" lon="-1.6233">
        <ele>17.3</ele>
        <time>2013-09-15T08:05:47Z</time>
      </trkpt>
      <trkpt lat="47.24011" lon="-1.62349">
        <ele>17.3</ele>
        <time>2013-09-15T08:05:50Z</time>
      </trkpt>
      <trkpt lat="47.24014" lon="-1.62362">
        <ele>17.4</ele>
        <time>2013-09-15T08:05:52Z</time>
      </trkpt>
      <trkpt lat="47.24015" lon="-1.62382">
        <ele>17.5</ele>
        <time>2013-09-15T08:05:55Z</time>
      </trkpt>
      <trkpt lat="47.24016" lon="-1.62399">
        <ele>17.7</ele>
        <time>2013-09-15T08:05:57Z</time>
      </trkpt>
      <trkpt lat="47.24014" lon="-1.62418">
        <ele>17.6</ele>
        <time>2013-09-15T08:06:00Z</time>
      </trkpt>
      <trkpt lat="47.2401" lon="-1.62433">
        <ele>17.7</ele>
        <time>2013-09-15T08:06:03Z</time>
      </trkpt>
      <trkpt lat="47.24011" lon="-1.62452">
        <ele>17.8</ele>
        <time>2013-09-15T08:06:06Z</time>
      </trkpt>
      <trkpt lat="47.24019" lon="-1.62463">
        <ele>17.8</ele>
        <time>2013-09-15T08:06:09Z</time>
      </trkpt>
      <trkpt lat="47.24029" lon="-1.62477">
        <ele>19.1</ele>
        <time>2013-09-15T08:06:12Z</time>
      </trkpt>
      <trkpt lat="47.24038" lon="-1.62487">
        <ele>20.6</ele>
        <time>2013-09-15T08:06:14Z</time>
      </trkpt>
      <trkpt lat="47.24046" lon="-1.62497">
        <ele>20.3</ele>
        <time>2013-09-15T08:06:16Z</time>
      </trkpt>
      <trkpt lat="47.24055" lon="-1.6251">
        <ele>20.2</ele>
        <time>2013-09-15T08:06:19Z</time>
      </trkpt>
      <trkpt lat="47.24063" lon="-1.62522">
        <ele>19.9</ele>
        <time>2013-09-15T08:06:22Z</time>
      </trkpt>
      <trkpt lat="47.24071" lon="-1.62534">
        <ele>19.4</ele>
        <time>2013-09-15T08:06:25Z</time>
      </trkpt>
      <trkpt lat="47.24081" lon="-1.62541">
        <ele>19.1</ele>
        <time>2013-09-15T08:06:28Z</time>
      </trkpt>
      <trkpt lat="47.24091" lon="-1.62546">
        <ele>19</ele>
        <time>2013-09-15T08:06:31Z</time>
      </trkpt>
      <trkpt lat="47.24099" lon="-1.62557">
        <ele>18.9</ele>
        <time>2013-09-15T08:06:35Z</time>
      </trkpt>
      <trkpt lat="47.24103" lon="-1.6257">
        <ele>18.7</ele>
        <time>2013-09-15T08:06:38Z</time>
      </trkpt>
      <trkpt lat="47.24099" lon="-1.62584">
        <ele>18.6</ele>
        <time>2013-09-15T08:06:41Z</time>
      </trkpt>
      <trkpt lat="47.24093" lon="-1.626">
        <ele>18.2</ele>
        <time>2013-09-15T08:06:45Z</time>
      </trkpt>
      <trkpt lat="47.24087" lon="-1.62617">
        <ele>17.9</ele>
        <time>2013-09-15T08:06:48Z</time>
      </trkpt>
      <trkpt lat="47.24078" lon="-1.62632">
        <ele>17.5</ele>
        <time>2013-09-15T08:06:51Z</time>
      </trkpt>
      <trkpt lat="47.24072" lon="-1.62646">
        <ele>17.2</ele>
        <time>2013-09-15T08:06:54Z</time>
      </trkpt>
      <trkpt lat="47.24066" lon="-1.62657">
        <ele>17</ele>
        <time>2013-09-15T08:06:57Z</time>
      </trkpt>
      <trkpt lat="47.2406" lon="-1.62667">
        <ele>16.5</ele>
        <time>2013-09-15T08:07:01Z</time>
      </trkpt>
      <trkpt lat="47.24061" lon="-1.62681">
        <ele>15.4</ele>
        <time>2013-09-15T08:07:09Z</time>
      </trkpt>
      <trkpt lat="47.24068" lon="-1.6269">
        <ele>14.8</ele>
        <time>2013-09-15T08:07:16Z</time>
      </trkpt>
      <trkpt lat="47.24078" lon="-1.62697">
        <ele>14.4</ele>
        <time>2013-09-15T08:07:21Z</time>
      </trkpt>
      <trkpt lat="47.24086" lon="-1.62703">
        <ele>14.4</ele>
        <time>2013-09-15T08:07:26Z</time>
      </trkpt>
      <trkpt lat="47.24088" lon="-1.62716">
        <ele>14.2</ele>
        <time>2013-09-15T08:07:34Z</time>
      </trkpt>
      <trkpt lat="47.24096" lon="-1.62729">
        <ele>12</ele>
        <time>2013-09-15T08:08:04Z</time>
      </trkpt>
      <trkpt lat="47.24101" lon="-1.6274">
        <ele>12</ele>
        <time>2013-09-15T08:08:07Z</time>
      </trkpt>
      <trkpt lat="47.24108" lon="-1.62757">
        <ele>12</ele>
        <time>2013-09-15T08:08:11Z</time>
      </trkpt>
      <trkpt lat="47.24117" lon="-1.62772">
        <ele>12.1</ele>
        <time>2013-09-15T08:08:14Z</time>
      </trkpt>
      <trkpt lat="47.24125" lon="-1.62786">
        <ele>12</ele>
        <time>2013-09-15T08:08:17Z</time>
      </trkpt>
      <trkpt lat="47.2413" lon="-1.62801">
        <ele>12.3</ele>
        <time>2013-09-15T08:08:20Z</time>
      </trkpt>
      <trkpt lat="47.24136" lon="-1.62818">
        <ele>12.8</ele>
        <time>2013-09-15T08:08:23Z</time>
      </trkpt>
      <trkpt lat="47.24141" lon="-1.62829">
        <ele>13.2</ele>
        <time>2013-09-15T08:08:26Z</time>
      </trkpt>
      <trkpt lat="47.24147" lon="-1.62843">
        <ele>14</ele>
        <time>2013-09-15T08:08:30Z</time>
      </trkpt>
      <trkpt lat="47.24155" lon="-1.62855">
        <ele>14.7</ele>
        <time>2013-09-15T08:08:34Z</time>
      </trkpt>
      <trkpt lat="47.24161" lon="-1.62868">
        <ele>15.1</ele>
        <time>2013-09-15T08:08:37Z</time>
      </trkpt>
      <trkpt lat="47.24167" lon="-1.62881">
        <ele>15.3</ele>
        <time>2013-09-15T08:08:40Z</time>
      </trkpt>
      <trkpt lat="47.24174" lon="-1.62893">
        <ele>15.5</ele>
        <time>2013-09-15T08:08:42Z</time>
      </trkpt>
      <trkpt lat="47.24179" lon="-1.62906">
        <ele>15.6</ele>
        <time>2013-09-15T08:08:44Z</time>
      </trkpt>
      <trkpt lat="47.24184" lon="-1.62923">
        <ele>15.9</ele>
        <time>2013-09-15T08:08:47Z</time>
      </trkpt>
      <trkpt lat="47.24187" lon="-1.62939">
        <ele>16.3</ele>
        <time>2013-09-15T08:08:50Z</time>
      </trkpt>
      <trkpt lat="47.2419" lon="-1.62953">
        <ele>16.5</ele>
        <time>2013-09-15T08:08:53Z</time>
      </trkpt>
      <trkpt lat="47.24192" lon="-1.62968">
        <ele>16.6</ele>
        <time>2013-09-15T08:08:56Z</time>
      </trkpt>
      <trkpt lat="47.24195" lon="-1.62983">
        <ele>16.5</ele>
        <time>2013-09-15T08:08:59Z</time>
      </trkpt>
      <trkpt lat="47.24198" lon="-1.62998">
        <ele>16.5</ele>
        <time>2013-09-15T08:09:02Z</time>
      </trkpt>
      <trkpt lat="47.24198" lon="-1.63015">
        <ele>16.6</ele>
        <time>2013-09-15T08:09:05Z</time>
      </trkpt>
      <trkpt lat="47.24197" lon="-1.63029">
        <ele>16.7</ele>
        <time>2013-09-15T08:09:07Z</time>
      </trkpt>
      <trkpt lat="47.24198" lon="-1.63046">
        <ele>16.8</ele>
        <time>2013-09-15T08:09:09Z</time>
      </trkpt>
      <trkpt lat="47.242" lon="-1.63064">
        <ele>17</ele>
        <time>2013-09-15T08:09:11Z</time>
      </trkpt>
      <trkpt lat="47.24204" lon="-1.63081">
        <ele>16.5</ele>
        <time>2013-09-15T08:09:13Z</time>
      </trkpt>
      <trkpt lat="47.24207" lon="-1.63099">
        <ele>16.8</ele>
        <time>2013-09-15T08:09:15Z</time>
      </trkpt>
      <trkpt lat="47.24212" lon="-1.63115">
        <ele>15.3</ele>
        <time>2013-09-15T08:09:17Z</time>
      </trkpt>
      <trkpt lat="47.24217" lon="-1.63128">
        <ele>14.2</ele>
        <time>2013-09-15T08:09:19Z</time>
      </trkpt>
      <trkpt lat="47.24223" lon="-1.63141">
        <ele>14.8</ele>
        <time>2013-09-15T08:09:21Z</time>
      </trkpt>
      <trkpt lat="47.2423" lon="-1.63153">
        <ele>14.6</ele>
        <time>2013-09-15T08:09:23Z</time>
      </trkpt>
      <trkpt lat="47.24239" lon="-1.63167">
        <ele>14.4</ele>
        <time>2013-09-15T08:09:26Z</time>
      </trkpt>
      <trkpt lat="47.24246" lon="-1.63179">
        <ele>14.8</ele>
        <time>2013-09-15T08:09:28Z</time>
      </trkpt>
      <trkpt lat="47.24253" lon="-1.6319">
        <ele>14.8</ele>
        <time>2013-09-15T08:09:30Z</time>
      </trkpt>
      <trkpt lat="47.24261" lon="-1.632">
        <ele>14.7</ele>
        <time>2013-09-15T08:09:32Z</time>
      </trkpt>
      <trkpt lat="47.2427" lon="-1.63205">
        <ele>15.6</ele>
        <time>2013-09-15T08:09:34Z</time>
      </trkpt>
      <trkpt lat="47.2428" lon="-1.6321">
        <ele>16.5</ele>
        <time>2013-09-15T08:09:36Z</time>
      </trkpt>
      <trkpt lat="47.24292" lon="-1.63219">
        <ele>17.8</ele>
        <time>2013-09-15T08:09:39Z</time>
      </trkpt>
      <trkpt lat="47.24299" lon="-1.63227">
        <ele>17.9</ele>
        <time>2013-09-15T08:09:41Z</time>
      </trkpt>
      <trkpt lat="47.24307" lon="-1.63237">
        <ele>18</ele>
        <time>2013-09-15T08:09:43Z</time>
      </trkpt>
      <trkpt lat="47.24316" lon="-1.63252">
        <ele>18.1</ele>
        <time>2013-09-15T08:09:46Z</time>
      </trkpt>
      <trkpt lat="47.24323" lon="-1.63263">
        <ele>18.1</ele>
        <time>2013-09-15T08:09:48Z</time>
      </trkpt>
      <trkpt lat="47.24331" lon="-1.63275">
        <ele>18.1</ele>
        <time>2013-09-15T08:09:51Z</time>
      </trkpt>
      <trkpt lat="47.2434" lon="-1.63287">
        <ele>18.3</ele>
        <time>2013-09-15T08:09:54Z</time>
      </trkpt>
      <trkpt lat="47.24351" lon="-1.63291">
        <ele>18.6</ele>
        <time>2013-09-15T08:09:57Z</time>
      </trkpt>
      <trkpt lat="47.2436" lon="-1.63296">
        <ele>18.7</ele>
        <time>2013-09-15T08:09:59Z</time>
      </trkpt>
      <trkpt lat="47.24369" lon="-1.6331">
        <ele>18.5</ele>
        <time>2013-09-15T08:10:02Z</time>
      </trkpt>
      <trkpt lat="47.24376" lon="-1.63326">
        <ele>18.5</ele>
        <time>2013-09-15T08:10:05Z</time>
      </trkpt>
      <trkpt lat="47.24381" lon="-1.63343">
        <ele>18.5</ele>
        <time>2013-09-15T08:10:08Z</time>
      </trkpt>
      <trkpt lat="47.2438" lon="-1.63361">
        <ele>18.8</ele>
        <time>2013-09-15T08:10:11Z</time>
      </trkpt>
      <trkpt lat="47.24377" lon="-1.63378">
        <ele>19</ele>
        <time>2013-09-15T08:10:14Z</time>
      </trkpt>
      <trkpt lat="47.24371" lon="-1.63395">
        <ele>18.1</ele>
        <time>2013-09-15T08:10:17Z</time>
      </trkpt>
      <trkpt lat="47.24366" lon="-1.63408">
        <ele>18</ele>
        <time>2013-09-15T08:10:20Z</time>
      </trkpt>
      <trkpt lat="47.24374" lon="-1.63416">
        <ele>16.9</ele>
        <time>2013-09-15T08:10:26Z</time>
      </trkpt>
      <trkpt lat="47.24382" lon="-1.63423">
        <ele>16.9</ele>
        <time>2013-09-15T08:10:32Z</time>
      </trkpt>
      <trkpt lat="47.24385" lon="-1.63437">
        <ele>17.5</ele>
        <time>2013-09-15T08:10:38Z</time>
      </trkpt>
      <trkpt lat="47.2439" lon="-1.6345">
        <ele>17.8</ele>
        <time>2013-09-15T08:10:42Z</time>
      </trkpt>
      <trkpt lat="47.24393" lon="-1.63464">
        <ele>18</ele>
        <time>2013-09-15T08:10:46Z</time>
      </trkpt>
      <trkpt lat="47.24395" lon="-1.63477">
        <ele>18.3</ele>
        <time>2013-09-15T08:10:50Z</time>
      </trkpt>
      <trkpt lat="47.24396" lon="-1.63493">
        <ele>18.9</ele>
        <time>2013-09-15T08:10:54Z</time>
      </trkpt>
      <trkpt lat="47.24395" lon="-1.63507">
        <ele>19.1</ele>
        <time>2013-09-15T08:10:57Z</time>
      </trkpt>
      <trkpt lat="47.24392" lon="-1.63522">
        <ele>19.2</ele>
        <time>2013-09-15T08:11:02Z</time>
      </trkpt>
      <trkpt lat="47.24386" lon="-1.63537">
        <ele>19.4</ele>
        <time>2013-09-15T08:11:04Z</time>
      </trkpt>
      <trkpt lat="47.24383" lon="-1.63552">
        <ele>20.4</ele>
        <time>2013-09-15T08:11:06Z</time>
      </trkpt>
      <trkpt lat="47.24381" lon="-1.63567">
        <ele>21.3</ele>
        <time>2013-09-15T08:11:08Z</time>
      </trkpt>
      <trkpt lat="47.24382" lon="-1.63584">
        <ele>21.2</ele>
        <time>2013-09-15T08:11:11Z</time>
      </trkpt>
      <trkpt lat="47.24386" lon="-1.63597">
        <ele>20.7</ele>
        <time>2013-09-15T08:11:14Z</time>
      </trkpt>
      <trkpt lat="47.24389" lon="-1.63613">
        <ele>20.1</ele>
        <time>2013-09-15T08:11:18Z</time>
      </trkpt>
      <trkpt lat="47.24395" lon="-1.63628">
        <ele>20.5</ele>
        <time>2013-09-15T08:11:22Z</time>
      </trkpt>
      <trkpt lat="47.24396" lon="-1.63644">
        <ele>21.4</ele>
        <time>2013-09-15T08:11:26Z</time>
      </trkpt>
      <trkpt lat="47.24397" lon="-1.63659">
        <ele>21.9</ele>
        <time>2013-09-15T08:11:29Z</time>
      </trkpt>
      <trkpt lat="47.24397" lon="-1.63673">
        <ele>22.1</ele>
        <time>2013-09-15T08:11:32Z</time>
      </trkpt>
      <trkpt lat="47.24398" lon="-1.63687">
        <ele>22.4</ele>
        <time>2013-09-15T08:11:36Z</time>
      </trkpt>
      <trkpt lat="47.24396" lon="-1.63704">
        <ele>22.5</ele>
        <time>2013-09-15T08:11:40Z</time>
      </trkpt>
      <trkpt lat="47.24393" lon="-1.63722">
        <ele>22.4</ele>
        <time>2013-09-15T08:11:43Z</time>
      </trkpt>
      <trkpt lat="47.2439" lon="-1.63737">
        <ele>22.4</ele>
        <time>2013-09-15T08:11:46Z</time>
      </trkpt>
      <trkpt lat="47.24395" lon="-1.63754">
        <ele>23.1</ele>
        <time>2013-09-15T08:11:49Z</time>
      </trkpt>
      <trkpt lat="47.24403" lon="-1.6375">
        <ele>23</ele>
        <time>2013-09-15T08:11:54Z</time>
      </trkpt>
      <trkpt lat="47.24411" lon="-1.63737">
        <ele>23.4</ele>
        <time>2013-09-15T08:11:58Z</time>
      </trkpt>
      <trkpt lat="47.24421" lon="-1.63741">
        <ele>23.8</ele>
        <time>2013-09-15T08:14:41Z</time>
      </trkpt>
      <trkpt lat="47.24431" lon="-1.63748">
        <ele>23.6</ele>
        <time>2013-09-15T08:14:46Z</time>
      </trkpt>
      <trkpt lat="47.2444" lon="-1.63753">
        <ele>23.2</ele>
        <time>2013-09-15T08:14:49Z</time>
      </trkpt>
      <trkpt lat="47.2445" lon="-1.63758">
        <ele>22.7</ele>
        <time>2013-09-15T08:14:53Z</time>
      </trkpt>
      <trkpt lat="47.2446" lon="-1.63764">
        <ele>22.4</ele>
        <time>2013-09-15T08:14:56Z</time>
      </trkpt>
      <trkpt lat="47.24468" lon="-1.63772">
        <ele>22.4</ele>
        <time>2013-09-15T08:15:00Z</time>
      </trkpt>
      <trkpt lat="47.24478" lon="-1.6378">
        <ele>22.8</ele>
        <time>2013-09-15T08:15:04Z</time>
      </trkpt>
      <trkpt lat="47.24487" lon="-1.63786">
        <ele>22.9</ele>
        <time>2013-09-15T08:15:07Z</time>
      </trkpt>
      <trkpt lat="47.24495" lon="-1.63792">
        <ele>22.5</ele>
        <time>2013-09-15T08:15:10Z</time>
      </trkpt>
      <trkpt lat="47.24506" lon="-1.63798">
        <ele>22.5</ele>
        <time>2013-09-15T08:15:14Z</time>
      </trkpt>
      <trkpt lat="47.24517" lon="-1.63803">
        <ele>22.6</ele>
        <time>2013-09-15T08:15:18Z</time>
      </trkpt>
      <trkpt lat="47.24528" lon="-1.63806">
        <ele>22.7</ele>
        <time>2013-09-15T08:15:22Z</time>
      </trkpt>
      <trkpt lat="47.24537" lon="-1.63809">
        <ele>22.9</ele>
        <time>2013-09-15T08:15:25Z</time>
      </trkpt>
      <trkpt lat="47.24546" lon="-1.63808">
        <ele>23.3</ele>
        <time>2013-09-15T08:15:28Z</time>
      </trkpt>
      <trkpt lat="47.24557" lon="-1.63803">
        <ele>23.8</ele>
        <time>2013-09-15T08:15:31Z</time>
      </trkpt>
      <trkpt lat="47.24566" lon="-1.63798">
        <ele>24.2</ele>
        <time>2013-09-15T08:15:34Z</time>
      </trkpt>
      <trkpt lat="47.24575" lon="-1.63792">
        <ele>24.8</ele>
        <time>2013-09-15T08:15:37Z</time>
      </trkpt>
      <trkpt lat="47.24583" lon="-1.63786">
        <ele>25.2</ele>
        <time>2013-09-15T08:15:40Z</time>
      </trkpt>
      <trkpt lat="47.24593" lon="-1.63779">
        <ele>25.9</ele>
        <time>2013-09-15T08:15:44Z</time>
      </trkpt>
      <trkpt lat="47.24603" lon="-1.63772">
        <ele>26.6</ele>
        <time>2013-09-15T08:15:48Z</time>
      </trkpt>
      <trkpt lat="47.24614" lon="-1.63767">
        <ele>27.3</ele>
        <time>2013-09-15T08:15:51Z</time>
      </trkpt>
      <trkpt lat="47.24624" lon="-1.63763">
        <ele>27.8</ele>
        <time>2013-09-15T08:15:54Z</time>
      </trkpt>
      <trkpt lat="47.24635" lon="-1.63767">
        <ele>27.9</ele>
        <time>2013-09-15T08:15:58Z</time>
      </trkpt>
      <trkpt lat="47.24643" lon="-1.63775">
        <ele>27.9</ele>
        <time>2013-09-15T08:16:01Z</time>
      </trkpt>
      <trkpt lat="47.24651" lon="-1.63783">
        <ele>27.9</ele>
        <time>2013-09-15T08:16:04Z</time>
      </trkpt>
      <trkpt lat="47.2466" lon="-1.63791">
        <ele>28</ele>
        <time>2013-09-15T08:16:07Z</time>
      </trkpt>
      <trkpt lat="47.24668" lon="-1.63797">
        <ele>28.4</ele>
        <time>2013-09-15T08:16:10Z</time>
      </trkpt>
      <trkpt lat="47.24677" lon="-1.63799">
        <ele>28.6</ele>
        <time>2013-09-15T08:16:13Z</time>
      </trkpt>
      <trkpt lat="47.24687" lon="-1.63794">
        <ele>28.9</ele>
        <time>2013-09-15T08:16:16Z</time>
      </trkpt>
      <trkpt lat="47.24697" lon="-1.63786">
        <ele>29.3</ele>
        <time>2013-09-15T08:16:19Z</time>
      </trkpt>
      <trkpt lat="47.24704" lon="-1.63776">
        <ele>29.6</ele>
        <time>2013-09-15T08:16:22Z</time>
      </trkpt>
      <trkpt lat="47.2471" lon="-1.63766">
        <ele>30.2</ele>
        <time>2013-09-15T08:16:26Z</time>
      </trkpt>
      <trkpt lat="47.24717" lon="-1.63755">
        <ele>30.9</ele>
        <time>2013-09-15T08:16:30Z</time>
      </trkpt>
      <trkpt lat="47.24723" lon="-1.63744">
        <ele>31.8</ele>
        <time>2013-09-15T08:16:34Z</time>
      </trkpt>
      <trkpt lat="47.24729" lon="-1.63733">
        <ele>32.6</ele>
        <time>2013-09-15T08:16:38Z</time>
      </trkpt>
      <trkpt lat="47.24737" lon="-1.63725">
        <ele>34.4</ele>
        <time>2013-09-15T08:16:45Z</time>
      </trkpt>
      <trkpt lat="47.24748" lon="-1.63722">
        <ele>35.4</ele>
        <time>2013-09-15T08:16:50Z</time>
      </trkpt>
      <trkpt lat="47.2476" lon="-1.63723">
        <ele>35.3</ele>
        <time>2013-09-15T08:16:54Z</time>
      </trkpt>
      <trkpt lat="47.24769" lon="-1.63727">
        <ele>35.9</ele>
        <time>2013-09-15T08:16:58Z</time>
      </trkpt>
      <trkpt lat="47.24778" lon="-1.63731">
        <ele>36.1</ele>
        <time>2013-09-15T08:17:02Z</time>
      </trkpt>
      <trkpt lat="47.24788" lon="-1.63733">
        <ele>37.2</ele>
        <time>2013-09-15T08:17:06Z</time>
      </trkpt>
      <trkpt lat="47.24798" lon="-1.63736">
        <ele>38.5</ele>
        <time>2013-09-15T08:17:10Z</time>
      </trkpt>
      <trkpt lat="47.24807" lon="-1.63743">
        <ele>39.4</ele>
        <time>2013-09-15T08:17:14Z</time>
      </trkpt>
      <trkpt lat="47.24817" lon="-1.6375">
        <ele>40.6</ele>
        <time>2013-09-15T08:17:19Z</time>
      </trkpt>
      <trkpt lat="47.24826" lon="-1.63755">
        <ele>41.5</ele>
        <time>2013-09-15T08:17:23Z</time>
      </trkpt>
      <trkpt lat="47.24836" lon="-1.63761">
        <ele>43.2</ele>
        <time>2013-09-15T08:17:28Z</time>
      </trkpt>
      <trkpt lat="47.24846" lon="-1.63765">
        <ele>44.6</ele>
        <time>2013-09-15T08:17:32Z</time>
      </trkpt>
      <trkpt lat="47.24854" lon="-1.63769">
        <ele>45.6</ele>
        <time>2013-09-15T08:17:36Z</time>
      </trkpt>
      <trkpt lat="47.24864" lon="-1.63772">
        <ele>46.6</ele>
        <time>2013-09-15T08:17:41Z</time>
      </trkpt>
      <trkpt lat="47.24876" lon="-1.63777">
        <ele>47</ele>
        <time>2013-09-15T08:17:45Z</time>
      </trkpt>
      <trkpt lat="47.24885" lon="-1.63781">
        <ele>47.1</ele>
        <time>2013-09-15T08:17:48Z</time>
      </trkpt>
      <trkpt lat="47.24896" lon="-1.63787">
        <ele>47.2</ele>
        <time>2013-09-15T08:17:52Z</time>
      </trkpt>
      <trkpt lat="47.24905" lon="-1.63791">
        <ele>47.3</ele>
        <time>2013-09-15T08:17:55Z</time>
      </trkpt>
      <trkpt lat="47.24914" lon="-1.63794">
        <ele>47.2</ele>
        <time>2013-09-15T08:17:59Z</time>
      </trkpt>
      <trkpt lat="47.24923" lon="-1.63796">
        <ele>47.6</ele>
        <time>2013-09-15T08:18:03Z</time>
      </trkpt>
      <trkpt lat="47.24935" lon="-1.63799">
        <ele>47.8</ele>
        <time>2013-09-15T08:18:07Z</time>
      </trkpt>
      <trkpt lat="47.24945" lon="-1.63807">
        <ele>48.2</ele>
        <time>2013-09-15T08:18:11Z</time>
      </trkpt>
      <trkpt lat="47.2495" lon="-1.6382">
        <ele>48.4</ele>
        <time>2013-09-15T08:18:15Z</time>
      </trkpt>
      <trkpt lat="47.24956" lon="-1.63834">
        <ele>48.4</ele>
        <time>2013-09-15T08:18:19Z</time>
      </trkpt>
      <trkpt lat="47.2496" lon="-1.63849">
        <ele>48.4</ele>
        <time>2013-09-15T08:18:22Z</time>
      </trkpt>
      <trkpt lat="47.24964" lon="-1.63862">
        <ele>48.5</ele>
        <time>2013-09-15T08:18:25Z</time>
      </trkpt>
      <trkpt lat="47.2497" lon="-1.63875">
        <ele>48.6</ele>
        <time>2013-09-15T08:18:28Z</time>
      </trkpt>
      <trkpt lat="47.24975" lon="-1.63887">
        <ele>48.7</ele>
        <time>2013-09-15T08:18:31Z</time>
      </trkpt>
      <trkpt lat="47.24981" lon="-1.63901">
        <ele>49</ele>
        <time>2013-09-15T08:18:35Z</time>
      </trkpt>
      <trkpt lat="47.24985" lon="-1.63917">
        <ele>48.8</ele>
        <time>2013-09-15T08:18:39Z</time>
      </trkpt>
      <trkpt lat="47.24991" lon="-1.63933">
        <ele>48.6</ele>
        <time>2013-09-15T08:18:43Z</time>
      </trkpt>
      <trkpt lat="47.25002" lon="-1.63946">
        <ele>48.5</ele>
        <time>2013-09-15T08:18:46Z</time>
      </trkpt>
      <trkpt lat="47.25012" lon="-1.63952">
        <ele>48.3</ele>
        <time>2013-09-15T08:18:49Z</time>
      </trkpt>
      <trkpt lat="47.25024" lon="-1.63947">
        <ele>48.3</ele>
        <time>2013-09-15T08:18:52Z</time>
      </trkpt>
      <trkpt lat="47.25033" lon="-1.6394">
        <ele>48.3</ele>
        <time>2013-09-15T08:18:55Z</time>
      </trkpt>
      <trkpt lat="47.25044" lon="-1.63931">
        <ele>48.4</ele>
        <time>2013-09-15T08:18:58Z</time>
      </trkpt>
      <trkpt lat="47.25055" lon="-1.63923">
        <ele>48.4</ele>
        <time>2013-09-15T08:19:01Z</time>
      </trkpt>
      <trkpt lat="47.25065" lon="-1.63914">
        <ele>48.2</ele>
        <time>2013-09-15T08:19:03Z</time>
      </trkpt>
      <trkpt lat="47.25073" lon="-1.63907">
        <ele>48.3</ele>
        <time>2013-09-15T08:19:05Z</time>
      </trkpt>
      <trkpt lat="47.25082" lon="-1.63898">
        <ele>48.4</ele>
        <time>2013-09-15T08:19:08Z</time>
      </trkpt>
      <trkpt lat="47.25092" lon="-1.63888">
        <ele>49.6</ele>
        <time>2013-09-15T08:19:11Z</time>
      </trkpt>
      <trkpt lat="47.251" lon="-1.63876">
        <ele>50.3</ele>
        <time>2013-09-15T08:19:13Z</time>
      </trkpt>
      <trkpt lat="47.25109" lon="-1.63864">
        <ele>50.9</ele>
        <time>2013-09-15T08:19:15Z</time>
      </trkpt>
      <trkpt lat="47.25116" lon="-1.6385">
        <ele>52.2</ele>
        <time>2013-09-15T08:19:17Z</time>
      </trkpt>
      <trkpt lat="47.25124" lon="-1.63835">
        <ele>53</ele>
        <time>2013-09-15T08:19:19Z</time>
      </trkpt>
      <trkpt lat="47.25134" lon="-1.63822">
        <ele>52.4</ele>
        <time>2013-09-15T08:19:21Z</time>
      </trkpt>
      <trkpt lat="47.25144" lon="-1.63809">
        <ele>52.3</ele>
        <time>2013-09-15T08:19:23Z</time>
      </trkpt>
      <trkpt lat="47.25157" lon="-1.638">
        <ele>51.1</ele>
        <time>2013-09-15T08:19:25Z</time>
      </trkpt>
      <trkpt lat="47.25169" lon="-1.63794">
        <ele>49.8</ele>
        <time>2013-09-15T08:19:27Z</time>
      </trkpt>
      <trkpt lat="47.25179" lon="-1.63794">
        <ele>49.2</ele>
        <time>2013-09-15T08:19:29Z</time>
      </trkpt>
      <trkpt lat="47.25189" lon="-1.63797">
        <ele>48.6</ele>
        <time>2013-09-15T08:19:31Z</time>
      </trkpt>
      <trkpt lat="47.25199" lon="-1.63801">
        <ele>48.6</ele>
        <time>2013-09-15T08:19:33Z</time>
      </trkpt>
      <trkpt lat="47.25209" lon="-1.63807">
        <ele>48.5</ele>
        <time>2013-09-15T08:19:35Z</time>
      </trkpt>
      <trkpt lat="47.25218" lon="-1.63815">
        <ele>47.7</ele>
        <time>2013-09-15T08:19:37Z</time>
      </trkpt>
      <trkpt lat="47.25228" lon="-1.63821">
        <ele>48.3</ele>
        <time>2013-09-15T08:19:39Z</time>
      </trkpt>
      <trkpt lat="47.25238" lon="-1.63822">
        <ele>48.3</ele>
        <time>2013-09-15T08:19:41Z</time>
      </trkpt>
      <trkpt lat="47.25248" lon="-1.63822">
        <ele>48.4</ele>
        <time>2013-09-15T08:19:43Z</time>
      </trkpt>
      <trkpt lat="47.25259" lon="-1.63819">
        <ele>48.4</ele>
        <time>2013-09-15T08:19:45Z</time>
      </trkpt>
      <trkpt lat="47.25269" lon="-1.63817">
        <ele>48.9</ele>
        <time>2013-09-15T08:19:47Z</time>
      </trkpt>
      <trkpt lat="47.2528" lon="-1.63808">
        <ele>48.7</ele>
        <time>2013-09-15T08:19:50Z</time>
      </trkpt>
      <trkpt lat="47.25289" lon="-1.63798">
        <ele>48.4</ele>
        <time>2013-09-15T08:19:53Z</time>
      </trkpt>
      <trkpt lat="47.25297" lon="-1.63789">
        <ele>48.1</ele>
        <time>2013-09-15T08:19:56Z</time>
      </trkpt>
      <trkpt lat="47.25303" lon="-1.63775">
        <ele>48</ele>
        <time>2013-09-15T08:19:59Z</time>
      </trkpt>
      <trkpt lat="47.25305" lon="-1.63758">
        <ele>47.7</ele>
        <time>2013-09-15T08:20:02Z</time>
      </trkpt>
      <trkpt lat="47.25305" lon="-1.63744">
        <ele>47.4</ele>
        <time>2013-09-15T08:20:05Z</time>
      </trkpt>
      <trkpt lat="47.25306" lon="-1.63728">
        <ele>47.2</ele>
        <time>2013-09-15T08:20:09Z</time>
      </trkpt>
      <trkpt lat="47.25303" lon="-1.63714">
        <ele>47.5</ele>
        <time>2013-09-15T08:20:13Z</time>
      </trkpt>
      <trkpt lat="47.25293" lon="-1.63713">
        <ele>47.8</ele>
        <time>2013-09-15T08:20:18Z</time>
      </trkpt>
      <trkpt lat="47.25284" lon="-1.63715">
        <ele>48.1</ele>
        <time>2013-09-15T08:20:22Z</time>
      </trkpt>
      <trkpt lat="47.25273" lon="-1.63716">
        <ele>48.5</ele>
        <time>2013-09-15T08:20:26Z</time>
      </trkpt>
      <trkpt lat="47.25262" lon="-1.63712">
        <ele>48.6</ele>
        <time>2013-09-15T08:20:29Z</time>
      </trkpt>
      <trkpt lat="47.25252" lon="-1.6371">
        <ele>48.7</ele>
        <time>2013-09-15T08:20:33Z</time>
      </trkpt>
      <trkpt lat="47.25243" lon="-1.63709">
        <ele>48.7</ele>
        <time>2013-09-15T08:20:37Z</time>
      </trkpt>
      <trkpt lat="47.25234" lon="-1.63699">
        <ele>48.8</ele>
        <time>2013-09-15T08:20:42Z</time>
      </trkpt>
      <trkpt lat="47.25222" lon="-1.63694">
        <ele>48.5</ele>
        <time>2013-09-15T08:20:46Z</time>
      </trkpt>
      <trkpt lat="47.25212" lon="-1.63689">
        <ele>48</ele>
        <time>2013-09-15T08:20:49Z</time>
      </trkpt>
      <trkpt lat="47.25204" lon="-1.63681">
        <ele>47.7</ele>
        <time>2013-09-15T08:20:52Z</time>
      </trkpt>
      <trkpt lat="47.25195" lon="-1.63672">
        <ele>47.1</ele>
        <time>2013-09-15T08:20:56Z</time>
      </trkpt>
      <trkpt lat="47.25187" lon="-1.63661">
        <ele>46.8</ele>
        <time>2013-09-15T08:21:00Z</time>
      </trkpt>
      <trkpt lat="47.25181" lon="-1.63649">
        <ele>46.8</ele>
        <time>2013-09-15T08:21:05Z</time>
      </trkpt>
      <trkpt lat="47.25171" lon="-1.63644">
        <ele>46.6</ele>
        <time>2013-09-15T08:21:10Z</time>
      </trkpt>
      <trkpt lat="47.2516" lon="-1.63641">
        <ele>47</ele>
        <time>2013-09-15T08:21:14Z</time>
      </trkpt>
      <trkpt lat="47.2515" lon="-1.63638">
        <ele>47.6</ele>
        <time>2013-09-15T08:21:18Z</time>
      </trkpt>
      <trkpt lat="47.25141" lon="-1.63637">
        <ele>51.9</ele>
        <time>2013-09-15T08:22:12Z</time>
      </trkpt>
      <trkpt lat="47.25148" lon="-1.63646">
        <ele>52.4</ele>
        <time>2013-09-15T08:22:30Z</time>
      </trkpt>
      <trkpt lat="47.25151" lon="-1.63634">
        <ele>53.3</ele>
        <time>2013-09-15T08:22:46Z</time>
      </trkpt>
      <trkpt lat="47.25144" lon="-1.63623">
        <ele>53.3</ele>
        <time>2013-09-15T08:23:18Z</time>
      </trkpt>
      <trkpt lat="47.25144" lon="-1.6361">
        <ele>53.2</ele>
        <time>2013-09-15T08:23:23Z</time>
      </trkpt>
      <trkpt lat="47.25143" lon="-1.63593">
        <ele>52.9</ele>
        <time>2013-09-15T08:23:28Z</time>
      </trkpt>
      <trkpt lat="47.25143" lon="-1.63579">
        <ele>52.7</ele>
        <time>2013-09-15T08:23:32Z</time>
      </trkpt>
      <trkpt lat="47.25144" lon="-1.63563">
        <ele>52.4</ele>
        <time>2013-09-15T08:23:37Z</time>
      </trkpt>
      <trkpt lat="47.25145" lon="-1.63548">
        <ele>52.2</ele>
        <time>2013-09-15T08:23:41Z</time>
      </trkpt>
      <trkpt lat="47.25148" lon="-1.63534">
        <ele>52.1</ele>
        <time>2013-09-15T08:23:45Z</time>
      </trkpt>
      <trkpt lat="47.25159" lon="-1.63526">
        <ele>51.8</ele>
        <time>2013-09-15T08:23:51Z</time>
      </trkpt>
      <trkpt lat="47.2517" lon="-1.63519">
        <ele>51.5</ele>
        <time>2013-09-15T08:23:54Z</time>
      </trkpt>
      <trkpt lat="47.25183" lon="-1.63511">
        <ele>50.8</ele>
        <time>2013-09-15T08:23:58Z</time>
      </trkpt>
      <trkpt lat="47.25194" lon="-1.6351">
        <ele>50.4</ele>
        <time>2013-09-15T08:24:00Z</time>
      </trkpt>
      <trkpt lat="47.25205" lon="-1.63519">
        <ele>49.7</ele>
        <time>2013-09-15T08:24:03Z</time>
      </trkpt>
      <trkpt lat="47.25213" lon="-1.63526">
        <ele>49.4</ele>
        <time>2013-09-15T08:24:05Z</time>
      </trkpt>
      <trkpt lat="47.25222" lon="-1.63535">
        <ele>49.3</ele>
        <time>2013-09-15T08:24:07Z</time>
      </trkpt>
      <trkpt lat="47.2523" lon="-1.63544">
        <ele>49.2</ele>
        <time>2013-09-15T08:24:09Z</time>
      </trkpt>
      <trkpt lat="47.25238" lon="-1.63552">
        <ele>49</ele>
        <time>2013-09-15T08:24:11Z</time>
      </trkpt>
      <trkpt lat="47.25247" lon="-1.63561">
        <ele>49.1</ele>
        <time>2013-09-15T08:24:13Z</time>
      </trkpt>
      <trkpt lat="47.25255" lon="-1.63571">
        <ele>49</ele>
        <time>2013-09-15T08:24:15Z</time>
      </trkpt>
      <trkpt lat="47.25263" lon="-1.63581">
        <ele>48.7</ele>
        <time>2013-09-15T08:24:17Z</time>
      </trkpt>
      <trkpt lat="47.25271" lon="-1.6359">
        <ele>48.8</ele>
        <time>2013-09-15T08:24:19Z</time>
      </trkpt>
      <trkpt lat="47.25278" lon="-1.63598">
        <ele>49</ele>
        <time>2013-09-15T08:24:21Z</time>
      </trkpt>
      <trkpt lat="47.25286" lon="-1.63606">
        <ele>50.9</ele>
        <time>2013-09-15T08:24:23Z</time>
      </trkpt>
      <trkpt lat="47.25294" lon="-1.63613">
        <ele>51.5</ele>
        <time>2013-09-15T08:24:25Z</time>
      </trkpt>
      <trkpt lat="47.25303" lon="-1.63623">
        <ele>51.1</ele>
        <time>2013-09-15T08:24:27Z</time>
      </trkpt>
      <trkpt lat="47.25311" lon="-1.63637">
        <ele>51.1</ele>
        <time>2013-09-15T08:24:31Z</time>
      </trkpt>
      <trkpt lat="47.2531" lon="-1.63655">
        <ele>51.2</ele>
        <time>2013-09-15T08:24:34Z</time>
      </trkpt>
      <trkpt lat="47.25308" lon="-1.63671">
        <ele>51.3</ele>
        <time>2013-09-15T08:24:37Z</time>
      </trkpt>
      <trkpt lat="47.25307" lon="-1.63685">
        <ele>51.6</ele>
        <time>2013-09-15T08:24:40Z</time>
      </trkpt>
      <trkpt lat="47.25304" lon="-1.63698">
        <ele>51.6</ele>
        <time>2013-09-15T08:24:42Z</time>
      </trkpt>
      <trkpt lat="47.25302" lon="-1.63712">
        <ele>51.6</ele>
        <time>2013-09-15T08:24:44Z</time>
      </trkpt>
      <trkpt lat="47.25301" lon="-1.63725">
        <ele>51.3</ele>
        <time>2013-09-15T08:24:47Z</time>
      </trkpt>
      <trkpt lat="47.25304" lon="-1.6374">
        <ele>50.8</ele>
        <time>2013-09-15T08:24:51Z</time>
      </trkpt>
      <trkpt lat="47.25308" lon="-1.63752">
        <ele>50.4</ele>
        <time>2013-09-15T08:24:55Z</time>
      </trkpt>
      <trkpt lat="47.25309" lon="-1.63766">
        <ele>50.2</ele>
        <time>2013-09-15T08:24:59Z</time>
      </trkpt>
      <trkpt lat="47.25312" lon="-1.6378">
        <ele>50.1</ele>
        <time>2013-09-15T08:25:04Z</time>
      </trkpt>
      <trkpt lat="47.25312" lon="-1.63794">
        <ele>49.4</ele>
        <time>2013-09-15T08:25:10Z</time>
      </trkpt>
      <trkpt lat="47.25313" lon="-1.63811">
        <ele>47.8</ele>
        <time>2013-09-15T08:25:16Z</time>
      </trkpt>
      <trkpt lat="47.25311" lon="-1.63826">
        <ele>45.3</ele>
        <time>2013-09-15T08:25:21Z</time>
      </trkpt>
      <trkpt lat="47.253" lon="-1.63833">
        <ele>42.7</ele>
        <time>2013-09-15T08:25:26Z</time>
      </trkpt>
      <trkpt lat="47.25289" lon="-1.63837">
        <ele>41.3</ele>
        <time>2013-09-15T08:25:29Z</time>
      </trkpt>
      <trkpt lat="47.2528" lon="-1.63842">
        <ele>40.5</ele>
        <time>2013-09-15T08:25:31Z</time>
      </trkpt>
      <trkpt lat="47.25268" lon="-1.6385">
        <ele>38.8</ele>
        <time>2013-09-15T08:25:34Z</time>
      </trkpt>
      <trkpt lat="47.25259" lon="-1.63856">
        <ele>36.9</ele>
        <time>2013-09-15T08:25:36Z</time>
      </trkpt>
      <trkpt lat="47.25247" lon="-1.63863">
        <ele>36.4</ele>
        <time>2013-09-15T08:25:39Z</time>
      </trkpt>
      <trkpt lat="47.25238" lon="-1.6387">
        <ele>36.2</ele>
        <time>2013-09-15T08:25:41Z</time>
      </trkpt>
      <trkpt lat="47.25229" lon="-1.63883">
        <ele>36.9</ele>
        <time>2013-09-15T08:25:43Z</time>
      </trkpt>
      <trkpt lat="47.25222" lon="-1.63894">
        <ele>37</ele>
        <time>2013-09-15T08:25:45Z</time>
      </trkpt>
      <trkpt lat="47.25216" lon="-1.63906">
        <ele>36.9</ele>
        <time>2013-09-15T08:25:47Z</time>
      </trkpt>
      <trkpt lat="47.25208" lon="-1.63922">
        <ele>36.9</ele>
        <time>2013-09-15T08:25:49Z</time>
      </trkpt>
      <trkpt lat="47.252" lon="-1.63938">
        <ele>38.2</ele>
        <time>2013-09-15T08:25:51Z</time>
      </trkpt>
      <trkpt lat="47.25195" lon="-1.63949">
        <ele>38.5</ele>
        <time>2013-09-15T08:25:53Z</time>
      </trkpt>
      <trkpt lat="47.25189" lon="-1.63964">
        <ele>39.1</ele>
        <time>2013-09-15T08:25:56Z</time>
      </trkpt>
      <trkpt lat="47.25182" lon="-1.63975">
        <ele>39.7</ele>
        <time>2013-09-15T08:25:59Z</time>
      </trkpt>
      <trkpt lat="47.25175" lon="-1.63985">
        <ele>40.5</ele>
        <time>2013-09-15T08:26:02Z</time>
      </trkpt>
      <trkpt lat="47.25168" lon="-1.63996">
        <ele>41.2</ele>
        <time>2013-09-15T08:26:05Z</time>
      </trkpt>
      <trkpt lat="47.25159" lon="-1.64008">
        <ele>42.1</ele>
        <time>2013-09-15T08:26:08Z</time>
      </trkpt>
      <trkpt lat="47.25152" lon="-1.64021">
        <ele>43</ele>
        <time>2013-09-15T08:26:11Z</time>
      </trkpt>
      <trkpt lat="47.25148" lon="-1.64037">
        <ele>43.7</ele>
        <time>2013-09-15T08:26:14Z</time>
      </trkpt>
      <trkpt lat="47.25144" lon="-1.64056">
        <ele>44.5</ele>
        <time>2013-09-15T08:26:17Z</time>
      </trkpt>
      <trkpt lat="47.25139" lon="-1.6407">
        <ele>44.9</ele>
        <time>2013-09-15T08:26:20Z</time>
      </trkpt>
      <trkpt lat="47.25135" lon="-1.64083">
        <ele>45.2</ele>
        <time>2013-09-15T08:26:23Z</time>
      </trkpt>
      <trkpt lat="47.25128" lon="-1.64101">
        <ele>45.3</ele>
        <time>2013-09-15T08:26:26Z</time>
      </trkpt>
      <trkpt lat="47.25121" lon="-1.64111">
        <ele>45.5</ele>
        <time>2013-09-15T08:26:29Z</time>
      </trkpt>
      <trkpt lat="47.25112" lon="-1.64121">
        <ele>46.2</ele>
        <time>2013-09-15T08:26:32Z</time>
      </trkpt>
      <trkpt lat="47.25102" lon="-1.64129">
        <ele>46.7</ele>
        <time>2013-09-15T08:26:35Z</time>
      </trkpt>
      <trkpt lat="47.25092" lon="-1.64138">
        <ele>47.1</ele>
        <time>2013-09-15T08:26:38Z</time>
      </trkpt>
      <trkpt lat="47.25082" lon="-1.64146">
        <ele>49.3</ele>
        <time>2013-09-15T08:26:41Z</time>
      </trkpt>
      <trkpt lat="47.25074" lon="-1.64154">
        <ele>49.8</ele>
        <time>2013-09-15T08:26:44Z</time>
      </trkpt>
      <trkpt lat="47.25065" lon="-1.64164">
        <ele>50.1</ele>
        <time>2013-09-15T08:26:47Z</time>
      </trkpt>
      <trkpt lat="47.25056" lon="-1.64169">
        <ele>50</ele>
        <time>2013-09-15T08:26:50Z</time>
      </trkpt>
      <trkpt lat="47.25045" lon="-1.64171">
        <ele>50</ele>
        <time>2013-09-15T08:26:54Z</time>
      </trkpt>
      <trkpt lat="47.25033" lon="-1.64174">
        <ele>49.3</ele>
        <time>2013-09-15T08:26:57Z</time>
      </trkpt>
      <trkpt lat="47.2502" lon="-1.64179">
        <ele>49.2</ele>
        <time>2013-09-15T08:26:59Z</time>
      </trkpt>
      <trkpt lat="47.25009" lon="-1.64184">
        <ele>48.8</ele>
        <time>2013-09-15T08:27:01Z</time>
      </trkpt>
      <trkpt lat="47.24997" lon="-1.64189">
        <ele>47.5</ele>
        <time>2013-09-15T08:27:03Z</time>
      </trkpt>
      <trkpt lat="47.24987" lon="-1.64193">
        <ele>46.8</ele>
        <time>2013-09-15T08:27:05Z</time>
      </trkpt>
      <trkpt lat="47.24977" lon="-1.64197">
        <ele>46.1</ele>
        <time>2013-09-15T08:27:07Z</time>
      </trkpt>
      <trkpt lat="47.24968" lon="-1.64202">
        <ele>45.2</ele>
        <time>2013-09-15T08:27:09Z</time>
      </trkpt>
      <trkpt lat="47.24958" lon="-1.64206">
        <ele>44.9</ele>
        <time>2013-09-15T08:27:11Z</time>
      </trkpt>
      <trkpt lat="47.24949" lon="-1.64211">
        <ele>44.8</ele>
        <time>2013-09-15T08:27:13Z</time>
      </trkpt>
      <trkpt lat="47.2494" lon="-1.64216">
        <ele>44.6</ele>
        <time>2013-09-15T08:27:15Z</time>
      </trkpt>
      <trkpt lat="47.24933" lon="-1.64226">
        <ele>43.7</ele>
        <time>2013-09-15T08:27:17Z</time>
      </trkpt>
      <trkpt lat="47.2493" lon="-1.6424">
        <ele>43.6</ele>
        <time>2013-09-15T08:27:19Z</time>
      </trkpt>
      <trkpt lat="47.24929" lon="-1.64255">
        <ele>43.3</ele>
        <time>2013-09-15T08:27:21Z</time>
      </trkpt>
      <trkpt lat="47.24927" lon="-1.64269">
        <ele>42.8</ele>
        <time>2013-09-15T08:27:24Z</time>
      </trkpt>
      <trkpt lat="47.24929" lon="-1.64285">
        <ele>42.4</ele>
        <time>2013-09-15T08:27:27Z</time>
      </trkpt>
      <trkpt lat="47.24934" lon="-1.64298">
        <ele>42.1</ele>
        <time>2013-09-15T08:27:29Z</time>
      </trkpt>
      <trkpt lat="47.24939" lon="-1.64309">
        <ele>41.9</ele>
        <time>2013-09-15T08:27:31Z</time>
      </trkpt>
      <trkpt lat="47.24945" lon="-1.64324">
        <ele>41.6</ele>
        <time>2013-09-15T08:27:34Z</time>
      </trkpt>
      <trkpt lat="47.2495" lon="-1.64339">
        <ele>41.2</ele>
        <time>2013-09-15T08:27:37Z</time>
      </trkpt>
      <trkpt lat="47.24953" lon="-1.64353">
        <ele>41</ele>
        <time>2013-09-15T08:27:39Z</time>
      </trkpt>
      <trkpt lat="47.24957" lon="-1.64366">
        <ele>40.7</ele>
        <time>2013-09-15T08:27:42Z</time>
      </trkpt>
      <trkpt lat="47.24962" lon="-1.64383">
        <ele>40.6</ele>
        <time>2013-09-15T08:27:45Z</time>
      </trkpt>
      <trkpt lat="47.24966" lon="-1.64398">
        <ele>40.4</ele>
        <time>2013-09-15T08:27:48Z</time>
      </trkpt>
      <trkpt lat="47.24971" lon="-1.64411">
        <ele>40.4</ele>
        <time>2013-09-15T08:27:50Z</time>
      </trkpt>
      <trkpt lat="47.24976" lon="-1.64427">
        <ele>41.4</ele>
        <time>2013-09-15T08:27:53Z</time>
      </trkpt>
      <trkpt lat="47.24979" lon="-1.64441">
        <ele>41.6</ele>
        <time>2013-09-15T08:27:55Z</time>
      </trkpt>
      <trkpt lat="47.24982" lon="-1.64455">
        <ele>42</ele>
        <time>2013-09-15T08:27:57Z</time>
      </trkpt>
      <trkpt lat="47.24986" lon="-1.6447">
        <ele>41.7</ele>
        <time>2013-09-15T08:27:59Z</time>
      </trkpt>
      <trkpt lat="47.24989" lon="-1.64483">
        <ele>42</ele>
        <time>2013-09-15T08:28:01Z</time>
      </trkpt>
      <trkpt lat="47.24995" lon="-1.64501">
        <ele>41.8</ele>
        <time>2013-09-15T08:28:04Z</time>
      </trkpt>
      <trkpt lat="47.25" lon="-1.64514">
        <ele>41.6</ele>
        <time>2013-09-15T08:28:06Z</time>
      </trkpt>
      <trkpt lat="47.25005" lon="-1.64526">
        <ele>41.4</ele>
        <time>2013-09-15T08:28:08Z</time>
      </trkpt>
      <trkpt lat="47.25009" lon="-1.64538">
        <ele>39.9</ele>
        <time>2013-09-15T08:28:10Z</time>
      </trkpt>
      <trkpt lat="47.25015" lon="-1.64557">
        <ele>38.5</ele>
        <time>2013-09-15T08:28:13Z</time>
      </trkpt>
      <trkpt lat="47.2502" lon="-1.64572">
        <ele>36.9</ele>
        <time>2013-09-15T08:28:15Z</time>
      </trkpt>
      <trkpt lat="47.25027" lon="-1.64585">
        <ele>37.3</ele>
        <time>2013-09-15T08:28:18Z</time>
      </trkpt>
      <trkpt lat="47.25038" lon="-1.64583">
        <ele>37.4</ele>
        <time>2013-09-15T08:28:22Z</time>
      </trkpt>
      <trkpt lat="47.25045" lon="-1.64574">
        <ele>37.3</ele>
        <time>2013-09-15T08:28:25Z</time>
      </trkpt>
      <trkpt lat="47.25053" lon="-1.64564">
        <ele>37.4</ele>
        <time>2013-09-15T08:28:28Z</time>
      </trkpt>
      <trkpt lat="47.25061" lon="-1.64552">
        <ele>38</ele>
        <time>2013-09-15T08:28:32Z</time>
      </trkpt>
      <trkpt lat="47.2507" lon="-1.64541">
        <ele>38.5</ele>
        <time>2013-09-15T08:28:36Z</time>
      </trkpt>
      <trkpt lat="47.2508" lon="-1.64533">
        <ele>39.1</ele>
        <time>2013-09-15T08:28:40Z</time>
      </trkpt>
      <trkpt lat="47.25089" lon="-1.64522">
        <ele>39.5</ele>
        <time>2013-09-15T08:28:44Z</time>
      </trkpt>
      <trkpt lat="47.25096" lon="-1.64514">
        <ele>39.9</ele>
        <time>2013-09-15T08:28:47Z</time>
      </trkpt>
      <trkpt lat="47.25105" lon="-1.64503">
        <ele>40.4</ele>
        <time>2013-09-15T08:28:52Z</time>
      </trkpt>
      <trkpt lat="47.25114" lon="-1.64495">
        <ele>40.8</ele>
        <time>2013-09-15T08:28:56Z</time>
      </trkpt>
      <trkpt lat="47.25122" lon="-1.64489">
        <ele>41.2</ele>
        <time>2013-09-15T08:29:00Z</time>
      </trkpt>
      <trkpt lat="47.25131" lon="-1.64483">
        <ele>41.4</ele>
        <time>2013-09-15T08:29:03Z</time>
      </trkpt>
      <trkpt lat="47.25139" lon="-1.64477">
        <ele>41.7</ele>
        <time>2013-09-15T08:29:06Z</time>
      </trkpt>
      <trkpt lat="47.25147" lon="-1.64471">
        <ele>42.1</ele>
        <time>2013-09-15T08:29:09Z</time>
      </trkpt>
      <trkpt lat="47.25157" lon="-1.64464">
        <ele>42.6</ele>
        <time>2013-09-15T08:29:13Z</time>
      </trkpt>
      <trkpt lat="47.25168" lon="-1.64456">
        <ele>42.7</ele>
        <time>2013-09-15T08:29:16Z</time>
      </trkpt>
      <trkpt lat="47.25178" lon="-1.64449">
        <ele>42.8</ele>
        <time>2013-09-15T08:29:19Z</time>
      </trkpt>
      <trkpt lat="47.25187" lon="-1.64443">
        <ele>42.8</ele>
        <time>2013-09-15T08:29:22Z</time>
      </trkpt>
      <trkpt lat="47.25196" lon="-1.64436">
        <ele>43.2</ele>
        <time>2013-09-15T08:29:26Z</time>
      </trkpt>
      <trkpt lat="47.25208" lon="-1.64428">
        <ele>43.5</ele>
        <time>2013-09-15T08:29:29Z</time>
      </trkpt>
      <trkpt lat="47.25216" lon="-1.64422">
        <ele>43.7</ele>
        <time>2013-09-15T08:29:31Z</time>
      </trkpt>
      <trkpt lat="47.25227" lon="-1.64413">
        <ele>44.2</ele>
        <time>2013-09-15T08:29:34Z</time>
      </trkpt>
      <trkpt lat="47.25236" lon="-1.64406">
        <ele>44.7</ele>
        <time>2013-09-15T08:29:37Z</time>
      </trkpt>
      <trkpt lat="47.25247" lon="-1.64399">
        <ele>45.2</ele>
        <time>2013-09-15T08:29:40Z</time>
      </trkpt>
      <trkpt lat="47.25256" lon="-1.64389">
        <ele>45.6</ele>
        <time>2013-09-15T08:29:43Z</time>
      </trkpt>
      <trkpt lat="47.25267" lon="-1.64381">
        <ele>46</ele>
        <time>2013-09-15T08:29:46Z</time>
      </trkpt>
      <trkpt lat="47.25278" lon="-1.64371">
        <ele>46.4</ele>
        <time>2013-09-15T08:29:49Z</time>
      </trkpt>
      <trkpt lat="47.25287" lon="-1.64364">
        <ele>47</ele>
        <time>2013-09-15T08:29:52Z</time>
      </trkpt>
      <trkpt lat="47.25298" lon="-1.64355">
        <ele>48.9</ele>
        <time>2013-09-15T08:29:55Z</time>
      </trkpt>
      <trkpt lat="47.25307" lon="-1.64347">
        <ele>49.3</ele>
        <time>2013-09-15T08:29:58Z</time>
      </trkpt>
      <trkpt lat="47.25317" lon="-1.64338">
        <ele>49.6</ele>
        <time>2013-09-15T08:30:01Z</time>
      </trkpt>
      <trkpt lat="47.25327" lon="-1.64328">
        <ele>50</ele>
        <time>2013-09-15T08:30:04Z</time>
      </trkpt>
      <trkpt lat="47.25337" lon="-1.64321">
        <ele>50.4</ele>
        <time>2013-09-15T08:30:07Z</time>
      </trkpt>
      <trkpt lat="47.25347" lon="-1.64315">
        <ele>50.9</ele>
        <time>2013-09-15T08:30:10Z</time>
      </trkpt>
      <trkpt lat="47.25358" lon="-1.64312">
        <ele>51.2</ele>
        <time>2013-09-15T08:30:13Z</time>
      </trkpt>
      <trkpt lat="47.25371" lon="-1.64308">
        <ele>52.5</ele>
        <time>2013-09-15T08:30:16Z</time>
      </trkpt>
      <trkpt lat="47.25381" lon="-1.64305">
        <ele>54.4</ele>
        <time>2013-09-15T08:30:18Z</time>
      </trkpt>
      <trkpt lat="47.25393" lon="-1.64302">
        <ele>55.2</ele>
        <time>2013-09-15T08:30:20Z</time>
      </trkpt>
      <trkpt lat="47.25404" lon="-1.64298">
        <ele>55.3</ele>
        <time>2013-09-15T08:30:22Z</time>
      </trkpt>
      <trkpt lat="47.25417" lon="-1.64297">
        <ele>54.8</ele>
        <time>2013-09-15T08:30:24Z</time>
      </trkpt>
      <trkpt lat="47.2543" lon="-1.64295">
        <ele>53.6</ele>
        <time>2013-09-15T08:30:26Z</time>
      </trkpt>
      <trkpt lat="47.25442" lon="-1.64291">
        <ele>52.8</ele>
        <time>2013-09-15T08:30:28Z</time>
      </trkpt>
      <trkpt lat="47.25453" lon="-1.64287">
        <ele>53</ele>
        <time>2013-09-15T08:30:31Z</time>
      </trkpt>
      <trkpt lat="47.25463" lon="-1.64282">
        <ele>53.3</ele>
        <time>2013-09-15T08:30:34Z</time>
      </trkpt>
      <trkpt lat="47.25475" lon="-1.64277">
        <ele>53.7</ele>
        <time>2013-09-15T08:30:37Z</time>
      </trkpt>
      <trkpt lat="47.25487" lon="-1.64272">
        <ele>56.4</ele>
        <time>2013-09-15T08:30:40Z</time>
      </trkpt>
      <trkpt lat="47.25501" lon="-1.6427">
        <ele>58.3</ele>
        <time>2013-09-15T08:30:43Z</time>
      </trkpt>
      <trkpt lat="47.2551" lon="-1.6427">
        <ele>59.3</ele>
        <time>2013-09-15T08:30:45Z</time>
      </trkpt>
      <trkpt lat="47.2552" lon="-1.64273">
        <ele>60.1</ele>
        <time>2013-09-15T08:30:47Z</time>
      </trkpt>
      <trkpt lat="47.25529" lon="-1.64276">
        <ele>60.9</ele>
        <time>2013-09-15T08:30:49Z</time>
      </trkpt>
      <trkpt lat="47.2554" lon="-1.64283">
        <ele>59.8</ele>
        <time>2013-09-15T08:30:52Z</time>
      </trkpt>
      <trkpt lat="47.25549" lon="-1.64291">
        <ele>59.6</ele>
        <time>2013-09-15T08:30:54Z</time>
      </trkpt>
      <trkpt lat="47.25558" lon="-1.64299">
        <ele>59.4</ele>
        <time>2013-09-15T08:30:56Z</time>
      </trkpt>
      <trkpt lat="47.25566" lon="-1.64314">
        <ele>60.3</ele>
        <time>2013-09-15T08:30:59Z</time>
      </trkpt>
      <trkpt lat="47.25572" lon="-1.64327">
        <ele>59.6</ele>
        <time>2013-09-15T08:31:01Z</time>
      </trkpt>
      <trkpt lat="47.2558" lon="-1.64339">
        <ele>59.5</ele>
        <time>2013-09-15T08:31:03Z</time>
      </trkpt>
      <trkpt lat="47.25589" lon="-1.6435">
        <ele>59.9</ele>
        <time>2013-09-15T08:31:05Z</time>
      </trkpt>
      <trkpt lat="47.25597" lon="-1.64358">
        <ele>60.8</ele>
        <time>2013-09-15T08:31:07Z</time>
      </trkpt>
      <trkpt lat="47.25606" lon="-1.64362">
        <ele>60.4</ele>
        <time>2013-09-15T08:31:09Z</time>
      </trkpt>
      <trkpt lat="47.25616" lon="-1.64364">
        <ele>59.8</ele>
        <time>2013-09-15T08:31:11Z</time>
      </trkpt>
      <trkpt lat="47.25629" lon="-1.64368">
        <ele>59.3</ele>
        <time>2013-09-15T08:31:14Z</time>
      </trkpt>
      <trkpt lat="47.25641" lon="-1.64372">
        <ele>59.4</ele>
        <time>2013-09-15T08:31:17Z</time>
      </trkpt>
      <trkpt lat="47.25654" lon="-1.64374">
        <ele>59.6</ele>
        <time>2013-09-15T08:31:20Z</time>
      </trkpt>
      <trkpt lat="47.25665" lon="-1.64378">
        <ele>59.8</ele>
        <time>2013-09-15T08:31:22Z</time>
      </trkpt>
      <trkpt lat="47.25674" lon="-1.64381">
        <ele>59.7</ele>
        <time>2013-09-15T08:31:24Z</time>
      </trkpt>
      <trkpt lat="47.25686" lon="-1.64385">
        <ele>59.7</ele>
        <time>2013-09-15T08:31:27Z</time>
      </trkpt>
      <trkpt lat="47.25697" lon="-1.64388">
        <ele>59.4</ele>
        <time>2013-09-15T08:31:30Z</time>
      </trkpt>
      <trkpt lat="47.25707" lon="-1.64394">
        <ele>59.1</ele>
        <time>2013-09-15T08:31:33Z</time>
      </trkpt>
      <trkpt lat="47.25719" lon="-1.64397">
        <ele>58.4</ele>
        <time>2013-09-15T08:31:36Z</time>
      </trkpt>
      <trkpt lat="47.25731" lon="-1.64403">
        <ele>58.3</ele>
        <time>2013-09-15T08:31:39Z</time>
      </trkpt>
      <trkpt lat="47.2574" lon="-1.6441">
        <ele>58.2</ele>
        <time>2013-09-15T08:31:42Z</time>
      </trkpt>
      <trkpt lat="47.25749" lon="-1.64416">
        <ele>58.2</ele>
        <time>2013-09-15T08:31:45Z</time>
      </trkpt>
      <trkpt lat="47.2576" lon="-1.64417">
        <ele>58.3</ele>
        <time>2013-09-15T08:31:49Z</time>
      </trkpt>
      <trkpt lat="47.25767" lon="-1.64406">
        <ele>58.3</ele>
        <time>2013-09-15T08:31:52Z</time>
      </trkpt>
      <trkpt lat="47.25769" lon="-1.64391">
        <ele>57.5</ele>
        <time>2013-09-15T08:31:54Z</time>
      </trkpt>
      <trkpt lat="47.25769" lon="-1.64378">
        <ele>57</ele>
        <time>2013-09-15T08:31:56Z</time>
      </trkpt>
      <trkpt lat="47.25767" lon="-1.64361">
        <ele>57</ele>
        <time>2013-09-15T08:31:59Z</time>
      </trkpt>
      <trkpt lat="47.25763" lon="-1.64346">
        <ele>57</ele>
        <time>2013-09-15T08:32:02Z</time>
      </trkpt>
      <trkpt lat="47.2576" lon="-1.6433">
        <ele>56.9</ele>
        <time>2013-09-15T08:32:05Z</time>
      </trkpt>
      <trkpt lat="47.25758" lon="-1.64315">
        <ele>56.9</ele>
        <time>2013-09-15T08:32:08Z</time>
      </trkpt>
      <trkpt lat="47.25756" lon="-1.643">
        <ele>56.9</ele>
        <time>2013-09-15T08:32:11Z</time>
      </trkpt>
      <trkpt lat="47.25751" lon="-1.64283">
        <ele>57</ele>
        <time>2013-09-15T08:32:14Z</time>
      </trkpt>
      <trkpt lat="47.25749" lon="-1.64269">
        <ele>56.9</ele>
        <time>2013-09-15T08:32:17Z</time>
      </trkpt>
      <trkpt lat="47.25744" lon="-1.6425">
        <ele>56.7</ele>
        <time>2013-09-15T08:32:20Z</time>
      </trkpt>
      <trkpt lat="47.25741" lon="-1.64236">
        <ele>57</ele>
        <time>2013-09-15T08:32:22Z</time>
      </trkpt>
      <trkpt lat="47.25739" lon="-1.6422">
        <ele>58</ele>
        <time>2013-09-15T08:32:24Z</time>
      </trkpt>
      <trkpt lat="47.25737" lon="-1.64207">
        <ele>58.8</ele>
        <time>2013-09-15T08:32:26Z</time>
      </trkpt>
      <trkpt lat="47.25736" lon="-1.64194">
        <ele>59</ele>
        <time>2013-09-15T08:32:28Z</time>
      </trkpt>
      <trkpt lat="47.25734" lon="-1.6418">
        <ele>58.8</ele>
        <time>2013-09-15T08:32:30Z</time>
      </trkpt>
      <trkpt lat="47.25732" lon="-1.64167">
        <ele>58</ele>
        <time>2013-09-15T08:32:32Z</time>
      </trkpt>
      <trkpt lat="47.25728" lon="-1.64148">
        <ele>55.4</ele>
        <time>2013-09-15T08:32:35Z</time>
      </trkpt>
      <trkpt lat="47.25724" lon="-1.64132">
        <ele>52.7</ele>
        <time>2013-09-15T08:32:38Z</time>
      </trkpt>
      <trkpt lat="47.25721" lon="-1.64115">
        <ele>53.1</ele>
        <time>2013-09-15T08:32:41Z</time>
      </trkpt>
      <trkpt lat="47.25728" lon="-1.64106">
        <ele>52.9</ele>
        <time>2013-09-15T08:32:48Z</time>
      </trkpt>
      <trkpt lat="47.25737" lon="-1.64102">
        <ele>53.3</ele>
        <time>2013-09-15T08:33:05Z</time>
      </trkpt>
      <trkpt lat="47.25749" lon="-1.64103">
        <ele>53.9</ele>
        <time>2013-09-15T08:33:18Z</time>
      </trkpt>
      <trkpt lat="47.25758" lon="-1.64108">
        <ele>54</ele>
        <time>2013-09-15T08:33:25Z</time>
      </trkpt>
      <trkpt lat="47.25767" lon="-1.64111">
        <ele>55.3</ele>
        <time>2013-09-15T08:33:48Z</time>
      </trkpt>
      <trkpt lat="47.25777" lon="-1.64114">
        <ele>55.4</ele>
        <time>2013-09-15T08:33:52Z</time>
      </trkpt>
      <trkpt lat="47.25788" lon="-1.64117">
        <ele>55.3</ele>
        <time>2013-09-15T08:33:56Z</time>
      </trkpt>
      <trkpt lat="47.25799" lon="-1.64121">
        <ele>55.1</ele>
        <time>2013-09-15T08:34:00Z</time>
      </trkpt>
      <trkpt lat="47.25809" lon="-1.64119">
        <ele>54.8</ele>
        <time>2013-09-15T08:34:04Z</time>
      </trkpt>
      <trkpt lat="47.25819" lon="-1.64122">
        <ele>54.5</ele>
        <time>2013-09-15T08:34:08Z</time>
      </trkpt>
      <trkpt lat="47.2583" lon="-1.64126">
        <ele>54.1</ele>
        <time>2013-09-15T08:34:12Z</time>
      </trkpt>
      <trkpt lat="47.25839" lon="-1.64128">
        <ele>53.6</ele>
        <time>2013-09-15T08:34:15Z</time>
      </trkpt>
      <trkpt lat="47.25849" lon="-1.64131">
        <ele>53.2</ele>
        <time>2013-09-15T08:34:18Z</time>
      </trkpt>
      <trkpt lat="47.25859" lon="-1.64135">
        <ele>52.6</ele>
        <time>2013-09-15T08:34:21Z</time>
      </trkpt>
      <trkpt lat="47.25872" lon="-1.64139">
        <ele>52.1</ele>
        <time>2013-09-15T08:34:24Z</time>
      </trkpt>
      <trkpt lat="47.25882" lon="-1.64144">
        <ele>51.9</ele>
        <time>2013-09-15T08:34:27Z</time>
      </trkpt>
      <trkpt lat="47.25893" lon="-1.64151">
        <ele>51.7</ele>
        <time>2013-09-15T08:34:30Z</time>
      </trkpt>
      <trkpt lat="47.25904" lon="-1.64159">
        <ele>51.2</ele>
        <time>2013-09-15T08:34:33Z</time>
      </trkpt>
      <trkpt lat="47.25913" lon="-1.64168">
        <ele>51</ele>
        <time>2013-09-15T08:34:36Z</time>
      </trkpt>
      <trkpt lat="47.2592" lon="-1.64177">
        <ele>50.9</ele>
        <time>2013-09-15T08:34:38Z</time>
      </trkpt>
      <trkpt lat="47.25928" lon="-1.64186">
        <ele>51</ele>
        <time>2013-09-15T08:34:42Z</time>
      </trkpt>
      <trkpt lat="47.25937" lon="-1.64195">
        <ele>50.8</ele>
        <time>2013-09-15T08:34:46Z</time>
      </trkpt>
      <trkpt lat="47.25946" lon="-1.64204">
        <ele>50.8</ele>
        <time>2013-09-15T08:34:50Z</time>
      </trkpt>
      <trkpt lat="47.25957" lon="-1.64209">
        <ele>50.8</ele>
        <time>2013-09-15T08:34:54Z</time>
      </trkpt>
      <trkpt lat="47.25966" lon="-1.64213">
        <ele>50.7</ele>
        <time>2013-09-15T08:34:57Z</time>
      </trkpt>
      <trkpt lat="47.25977" lon="-1.64217">
        <ele>50.7</ele>
        <time>2013-09-15T08:35:00Z</time>
      </trkpt>
      <trkpt lat="47.25988" lon="-1.64221">
        <ele>50.9</ele>
        <time>2013-09-15T08:35:03Z</time>
      </trkpt>
      <trkpt lat="47.25998" lon="-1.64224">
        <ele>51.3</ele>
        <time>2013-09-15T08:35:06Z</time>
      </trkpt>
      <trkpt lat="47.26011" lon="-1.64224">
        <ele>51.5</ele>
        <time>2013-09-15T08:35:09Z</time>
      </trkpt>
      <trkpt lat="47.26022" lon="-1.6422">
        <ele>51.7</ele>
        <time>2013-09-15T08:35:12Z</time>
      </trkpt>
      <trkpt lat="47.26033" lon="-1.64219">
        <ele>51.7</ele>
        <time>2013-09-15T08:35:15Z</time>
      </trkpt>
      <trkpt lat="47.26043" lon="-1.64218">
        <ele>51.7</ele>
        <time>2013-09-15T08:35:18Z</time>
      </trkpt>
      <trkpt lat="47.26055" lon="-1.64217">
        <ele>51.7</ele>
        <time>2013-09-15T08:35:21Z</time>
      </trkpt>
      <trkpt lat="47.26066" lon="-1.64213">
        <ele>51.8</ele>
        <time>2013-09-15T08:35:25Z</time>
      </trkpt>
      <trkpt lat="47.26077" lon="-1.64211">
        <ele>52</ele>
        <time>2013-09-15T08:35:29Z</time>
      </trkpt>
      <trkpt lat="47.26086" lon="-1.64208">
        <ele>52</ele>
        <time>2013-09-15T08:35:32Z</time>
      </trkpt>
      <trkpt lat="47.26095" lon="-1.64202">
        <ele>52</ele>
        <time>2013-09-15T08:35:35Z</time>
      </trkpt>
      <trkpt lat="47.26105" lon="-1.64196">
        <ele>52</ele>
        <time>2013-09-15T08:35:38Z</time>
      </trkpt>
      <trkpt lat="47.26117" lon="-1.64189">
        <ele>51.9</ele>
        <time>2013-09-15T08:35:41Z</time>
      </trkpt>
      <trkpt lat="47.2613" lon="-1.64184">
        <ele>51.6</ele>
        <time>2013-09-15T08:35:44Z</time>
      </trkpt>
      <trkpt lat="47.26141" lon="-1.64179">
        <ele>51.2</ele>
        <time>2013-09-15T08:35:47Z</time>
      </trkpt>
      <trkpt lat="47.2615" lon="-1.64173">
        <ele>51</ele>
        <time>2013-09-15T08:35:50Z</time>
      </trkpt>
      <trkpt lat="47.26161" lon="-1.64166">
        <ele>50.8</ele>
        <time>2013-09-15T08:35:53Z</time>
      </trkpt>
      <trkpt lat="47.26169" lon="-1.6416">
        <ele>50.6</ele>
        <time>2013-09-15T08:35:55Z</time>
      </trkpt>
      <trkpt lat="47.26179" lon="-1.64153">
        <ele>49.7</ele>
        <time>2013-09-15T08:35:57Z</time>
      </trkpt>
      <trkpt lat="47.26192" lon="-1.64144">
        <ele>48.5</ele>
        <time>2013-09-15T08:35:59Z</time>
      </trkpt>
      <trkpt lat="47.26207" lon="-1.64135">
        <ele>47.4</ele>
        <time>2013-09-15T08:36:01Z</time>
      </trkpt>
      <trkpt lat="47.26221" lon="-1.64128">
        <ele>46.2</ele>
        <time>2013-09-15T08:36:03Z</time>
      </trkpt>
      <trkpt lat="47.26233" lon="-1.64122">
        <ele>45.1</ele>
        <time>2013-09-15T08:36:05Z</time>
      </trkpt>
      <trkpt lat="47.26239" lon="-1.64111">
        <ele>45</ele>
        <time>2013-09-15T08:36:07Z</time>
      </trkpt>
      <trkpt lat="47.26244" lon="-1.64099">
        <ele>44.8</ele>
        <time>2013-09-15T08:36:09Z</time>
      </trkpt>
      <trkpt lat="47.26247" lon="-1.64083">
        <ele>44.3</ele>
        <time>2013-09-15T08:36:12Z</time>
      </trkpt>
      <trkpt lat="47.26246" lon="-1.64069">
        <ele>43.8</ele>
        <time>2013-09-15T08:36:18Z</time>
      </trkpt>
      <trkpt lat="47.26247" lon="-1.64051">
        <ele>42.5</ele>
        <time>2013-09-15T08:36:27Z</time>
      </trkpt>
      <trkpt lat="47.26254" lon="-1.6404">
        <ele>41.9</ele>
        <time>2013-09-15T08:36:31Z</time>
      </trkpt>
      <trkpt lat="47.26261" lon="-1.64028">
        <ele>41.5</ele>
        <time>2013-09-15T08:36:34Z</time>
      </trkpt>
      <trkpt lat="47.26267" lon="-1.64018">
        <ele>41.4</ele>
        <time>2013-09-15T08:36:37Z</time>
      </trkpt>
      <trkpt lat="47.26274" lon="-1.64004">
        <ele>41.6</ele>
        <time>2013-09-15T08:36:40Z</time>
      </trkpt>
      <trkpt lat="47.26282" lon="-1.6399">
        <ele>41.7</ele>
        <time>2013-09-15T08:36:43Z</time>
      </trkpt>
      <trkpt lat="47.26288" lon="-1.63979">
        <ele>41.8</ele>
        <time>2013-09-15T08:36:45Z</time>
      </trkpt>
      <trkpt lat="47.26296" lon="-1.6397">
        <ele>42</ele>
        <time>2013-09-15T08:36:47Z</time>
      </trkpt>
      <trkpt lat="47.26305" lon="-1.63967">
        <ele>42.9</ele>
        <time>2013-09-15T08:36:49Z</time>
      </trkpt>
      <trkpt lat="47.26315" lon="-1.63968">
        <ele>43</ele>
        <time>2013-09-15T08:36:52Z</time>
      </trkpt>
      <trkpt lat="47.26324" lon="-1.63971">
        <ele>43.4</ele>
        <time>2013-09-15T08:36:55Z</time>
      </trkpt>
      <trkpt lat="47.26334" lon="-1.6398">
        <ele>43.6</ele>
        <time>2013-09-15T08:36:58Z</time>
      </trkpt>
      <trkpt lat="47.26342" lon="-1.63991">
        <ele>43.6</ele>
        <time>2013-09-15T08:37:01Z</time>
      </trkpt>
      <trkpt lat="47.26348" lon="-1.64002">
        <ele>43.6</ele>
        <time>2013-09-15T08:37:04Z</time>
      </trkpt>
      <trkpt lat="47.26354" lon="-1.64013">
        <ele>43.7</ele>
        <time>2013-09-15T08:37:07Z</time>
      </trkpt>
      <trkpt lat="47.26359" lon="-1.64027">
        <ele>43.7</ele>
        <time>2013-09-15T08:37:10Z</time>
      </trkpt>
      <trkpt lat="47.26364" lon="-1.6404">
        <ele>44.3</ele>
        <time>2013-09-15T08:37:14Z</time>
      </trkpt>
      <trkpt lat="47.26368" lon="-1.64053">
        <ele>45</ele>
        <time>2013-09-15T08:37:18Z</time>
      </trkpt>
      <trkpt lat="47.26375" lon="-1.64066">
        <ele>45.9</ele>
        <time>2013-09-15T08:37:22Z</time>
      </trkpt>
      <trkpt lat="47.26384" lon="-1.64074">
        <ele>46.9</ele>
        <time>2013-09-15T08:37:26Z</time>
      </trkpt>
      <trkpt lat="47.26394" lon="-1.6408">
        <ele>47.7</ele>
        <time>2013-09-15T08:37:30Z</time>
      </trkpt>
      <trkpt lat="47.26404" lon="-1.64088">
        <ele>48.5</ele>
        <time>2013-09-15T08:37:34Z</time>
      </trkpt>
      <trkpt lat="47.26412" lon="-1.64096">
        <ele>49.3</ele>
        <time>2013-09-15T08:37:38Z</time>
      </trkpt>
      <trkpt lat="47.26421" lon="-1.64103">
        <ele>50.3</ele>
        <time>2013-09-15T08:37:43Z</time>
      </trkpt>
      <trkpt lat="47.26431" lon="-1.641">
        <ele>50.9</ele>
        <time>2013-09-15T08:37:47Z</time>
      </trkpt>
      <trkpt lat="47.26438" lon="-1.64089">
        <ele>51.1</ele>
        <time>2013-09-15T08:37:50Z</time>
      </trkpt>
      <trkpt lat="47.26445" lon="-1.64077">
        <ele>51</ele>
        <time>2013-09-15T08:37:53Z</time>
      </trkpt>
      <trkpt lat="47.26451" lon="-1.64065">
        <ele>51</ele>
        <time>2013-09-15T08:37:56Z</time>
      </trkpt>
      <trkpt lat="47.26457" lon="-1.64053">
        <ele>50.9</ele>
        <time>2013-09-15T08:37:59Z</time>
      </trkpt>
      <trkpt lat="47.26465" lon="-1.64042">
        <ele>50.9</ele>
        <time>2013-09-15T08:38:02Z</time>
      </trkpt>
      <trkpt lat="47.26475" lon="-1.64042">
        <ele>51</ele>
        <time>2013-09-15T08:38:06Z</time>
      </trkpt>
      <trkpt lat="47.26485" lon="-1.64052">
        <ele>50.3</ele>
        <time>2013-09-15T08:38:09Z</time>
      </trkpt>
      <trkpt lat="47.26494" lon="-1.6406">
        <ele>49.3</ele>
        <time>2013-09-15T08:38:11Z</time>
      </trkpt>
      <trkpt lat="47.26504" lon="-1.64068">
        <ele>49.2</ele>
        <time>2013-09-15T08:38:13Z</time>
      </trkpt>
      <trkpt lat="47.26512" lon="-1.64075">
        <ele>49</ele>
        <time>2013-09-15T08:38:15Z</time>
      </trkpt>
      <trkpt lat="47.26522" lon="-1.64081">
        <ele>48.8</ele>
        <time>2013-09-15T08:38:18Z</time>
      </trkpt>
      <trkpt lat="47.26533" lon="-1.64087">
        <ele>48.7</ele>
        <time>2013-09-15T08:38:21Z</time>
      </trkpt>
      <trkpt lat="47.26546" lon="-1.64094">
        <ele>48.3</ele>
        <time>2013-09-15T08:38:24Z</time>
      </trkpt>
      <trkpt lat="47.26556" lon="-1.64097">
        <ele>46</ele>
        <time>2013-09-15T08:38:26Z</time>
      </trkpt>
      <trkpt lat="47.26569" lon="-1.64101">
        <ele>41.9</ele>
        <time>2013-09-15T08:38:28Z</time>
      </trkpt>
      <trkpt lat="47.26581" lon="-1.64108">
        <ele>39.2</ele>
        <time>2013-09-15T08:38:30Z</time>
      </trkpt>
      <trkpt lat="47.2659" lon="-1.64114">
        <ele>37.6</ele>
        <time>2013-09-15T08:38:32Z</time>
      </trkpt>
      <trkpt lat="47.26602" lon="-1.64119">
        <ele>37.3</ele>
        <time>2013-09-15T08:38:35Z</time>
      </trkpt>
      <trkpt lat="47.26611" lon="-1.64123">
        <ele>37.1</ele>
        <time>2013-09-15T08:38:37Z</time>
      </trkpt>
      <trkpt lat="47.26621" lon="-1.64127">
        <ele>36.8</ele>
        <time>2013-09-15T08:38:39Z</time>
      </trkpt>
      <trkpt lat="47.26632" lon="-1.6413">
        <ele>36.5</ele>
        <time>2013-09-15T08:38:41Z</time>
      </trkpt>
      <trkpt lat="47.26642" lon="-1.64133">
        <ele>36.1</ele>
        <time>2013-09-15T08:38:43Z</time>
      </trkpt>
      <trkpt lat="47.26653" lon="-1.64133">
        <ele>35.8</ele>
        <time>2013-09-15T08:38:45Z</time>
      </trkpt>
      <trkpt lat="47.26661" lon="-1.64126">
        <ele>35.4</ele>
        <time>2013-09-15T08:38:47Z</time>
      </trkpt>
      <trkpt lat="47.2667" lon="-1.64114">
        <ele>34.7</ele>
        <time>2013-09-15T08:38:50Z</time>
      </trkpt>
      <trkpt lat="47.26677" lon="-1.64101">
        <ele>33.7</ele>
        <time>2013-09-15T08:38:53Z</time>
      </trkpt>
      <trkpt lat="47.26684" lon="-1.64088">
        <ele>29.2</ele>
        <time>2013-09-15T08:38:55Z</time>
      </trkpt>
      <trkpt lat="47.26691" lon="-1.64072">
        <ele>22.3</ele>
        <time>2013-09-15T08:38:57Z</time>
      </trkpt>
      <trkpt lat="47.26693" lon="-1.64059">
        <ele>19.1</ele>
        <time>2013-09-15T08:38:58Z</time>
      </trkpt>
      <trkpt lat="47.26696" lon="-1.64044">
        <ele>16</ele>
        <time>2013-09-15T08:39:00Z</time>
      </trkpt>
      <trkpt lat="47.26702" lon="-1.64025">
        <ele>15.3</ele>
        <time>2013-09-15T08:39:03Z</time>
      </trkpt>
      <trkpt lat="47.26705" lon="-1.64009">
        <ele>14.6</ele>
        <time>2013-09-15T08:39:06Z</time>
      </trkpt>
      <trkpt lat="47.26704" lon="-1.63994">
        <ele>13.8</ele>
        <time>2013-09-15T08:39:09Z</time>
      </trkpt>
      <trkpt lat="47.26702" lon="-1.63981">
        <ele>13.1</ele>
        <time>2013-09-15T08:39:12Z</time>
      </trkpt>
      <trkpt lat="47.26701" lon="-1.63966">
        <ele>12.2</ele>
        <time>2013-09-15T08:39:17Z</time>
      </trkpt>
      <trkpt lat="47.26709" lon="-1.63944">
        <ele>12.4</ele>
        <time>2013-09-15T08:39:23Z</time>
      </trkpt>
      <trkpt lat="47.26719" lon="-1.63932">
        <ele>13</ele>
        <time>2013-09-15T08:39:26Z</time>
      </trkpt>
      <trkpt lat="47.26728" lon="-1.6392">
        <ele>14.2</ele>
        <time>2013-09-15T08:39:31Z</time>
      </trkpt>
      <trkpt lat="47.26739" lon="-1.63926">
        <ele>15.4</ele>
        <time>2013-09-15T08:39:44Z</time>
      </trkpt>
      <trkpt lat="47.26748" lon="-1.63939">
        <ele>17.1</ele>
        <time>2013-09-15T08:39:57Z</time>
      </trkpt>
      <trkpt lat="47.26761" lon="-1.63944">
        <ele>19</ele>
        <time>2013-09-15T08:40:07Z</time>
      </trkpt>
      <trkpt lat="47.26771" lon="-1.63938">
        <ele>21.1</ele>
        <time>2013-09-15T08:40:15Z</time>
      </trkpt>
      <trkpt lat="47.2678" lon="-1.63929">
        <ele>23.4</ele>
        <time>2013-09-15T08:40:23Z</time>
      </trkpt>
      <trkpt lat="47.26786" lon="-1.63915">
        <ele>25.5</ele>
        <time>2013-09-15T08:40:31Z</time>
      </trkpt>
      <trkpt lat="47.26796" lon="-1.63901">
        <ele>27.2</ele>
        <time>2013-09-15T08:40:41Z</time>
      </trkpt>
      <trkpt lat="47.26807" lon="-1.63892">
        <ele>28.8</ele>
        <time>2013-09-15T08:40:49Z</time>
      </trkpt>
      <trkpt lat="47.26812" lon="-1.6388">
        <ele>30.2</ele>
        <time>2013-09-15T08:40:57Z</time>
      </trkpt>
      <trkpt lat="47.26821" lon="-1.63869">
        <ele>31.1</ele>
        <time>2013-09-15T08:41:03Z</time>
      </trkpt>
      <trkpt lat="47.26826" lon="-1.63858">
        <ele>31.1</ele>
        <time>2013-09-15T08:41:08Z</time>
      </trkpt>
      <trkpt lat="47.26833" lon="-1.63847">
        <ele>30.6</ele>
        <time>2013-09-15T08:41:14Z</time>
      </trkpt>
      <trkpt lat="47.26841" lon="-1.63839">
        <ele>29.9</ele>
        <time>2013-09-15T08:41:18Z</time>
      </trkpt>
      <trkpt lat="47.2685" lon="-1.63832">
        <ele>28.9</ele>
        <time>2013-09-15T08:41:24Z</time>
      </trkpt>
      <trkpt lat="47.26859" lon="-1.63835">
        <ele>28.5</ele>
        <time>2013-09-15T08:41:31Z</time>
      </trkpt>
      <trkpt lat="47.26868" lon="-1.63833">
        <ele>27.5</ele>
        <time>2013-09-15T08:41:46Z</time>
      </trkpt>
      <trkpt lat="47.26876" lon="-1.6384">
        <ele>30.8</ele>
        <time>2013-09-15T08:43:26Z</time>
      </trkpt>
      <trkpt lat="47.26884" lon="-1.63854">
        <ele>31.9</ele>
        <time>2013-09-15T08:43:30Z</time>
      </trkpt>
      <trkpt lat="47.26892" lon="-1.63862">
        <ele>32.9</ele>
        <time>2013-09-15T08:43:33Z</time>
      </trkpt>
      <trkpt lat="47.26898" lon="-1.63874">
        <ele>34.6</ele>
        <time>2013-09-15T08:43:39Z</time>
      </trkpt>
      <trkpt lat="47.26893" lon="-1.63888">
        <ele>37.3</ele>
        <time>2013-09-15T08:44:12Z</time>
      </trkpt>
      <trkpt lat="47.26894" lon="-1.63902">
        <ele>38.6</ele>
        <time>2013-09-15T08:44:20Z</time>
      </trkpt>
      <trkpt lat="47.26901" lon="-1.63912">
        <ele>39</ele>
        <time>2013-09-15T08:44:25Z</time>
      </trkpt>
      <trkpt lat="47.26903" lon="-1.63927">
        <ele>39.1</ele>
        <time>2013-09-15T08:44:31Z</time>
      </trkpt>
      <trkpt lat="47.26905" lon="-1.63942">
        <ele>38.2</ele>
        <time>2013-09-15T08:44:37Z</time>
      </trkpt>
      <trkpt lat="47.26907" lon="-1.63957">
        <ele>36.6</ele>
        <time>2013-09-15T08:44:42Z</time>
      </trkpt>
      <trkpt lat="47.26914" lon="-1.63971">
        <ele>35.9</ele>
        <time>2013-09-15T08:44:45Z</time>
      </trkpt>
      <trkpt lat="47.26922" lon="-1.63985">
        <ele>34.9</ele>
        <time>2013-09-15T08:44:49Z</time>
      </trkpt>
      <trkpt lat="47.26927" lon="-1.64001">
        <ele>33.8</ele>
        <time>2013-09-15T08:44:53Z</time>
      </trkpt>
      <trkpt lat="47.26926" lon="-1.64017">
        <ele>31.6</ele>
        <time>2013-09-15T08:44:59Z</time>
      </trkpt>
      <trkpt lat="47.26921" lon="-1.64028">
        <ele>30</ele>
        <time>2013-09-15T08:45:03Z</time>
      </trkpt>
      <trkpt lat="47.26921" lon="-1.64044">
        <ele>28.6</ele>
        <time>2013-09-15T08:45:06Z</time>
      </trkpt>
      <trkpt lat="47.26923" lon="-1.64058">
        <ele>27.5</ele>
        <time>2013-09-15T08:45:08Z</time>
      </trkpt>
      <trkpt lat="47.26926" lon="-1.64075">
        <ele>21.4</ele>
        <time>2013-09-15T08:45:10Z</time>
      </trkpt>
      <trkpt lat="47.26934" lon="-1.6409">
        <ele>15.8</ele>
        <time>2013-09-15T08:45:12Z</time>
      </trkpt>
      <trkpt lat="47.2694" lon="-1.64104">
        <ele>14.7</ele>
        <time>2013-09-15T08:45:15Z</time>
      </trkpt>
      <trkpt lat="47.26945" lon="-1.64116">
        <ele>14.4</ele>
        <time>2013-09-15T08:45:17Z</time>
      </trkpt>
      <trkpt lat="47.2695" lon="-1.64131">
        <ele>14.5</ele>
        <time>2013-09-15T08:45:20Z</time>
      </trkpt>
      <trkpt lat="47.26954" lon="-1.64144">
        <ele>14.9</ele>
        <time>2013-09-15T08:45:23Z</time>
      </trkpt>
      <trkpt lat="47.26955" lon="-1.64159">
        <ele>16.2</ele>
        <time>2013-09-15T08:45:29Z</time>
      </trkpt>
      <trkpt lat="47.26963" lon="-1.6417">
        <ele>17.9</ele>
        <time>2013-09-15T08:45:33Z</time>
      </trkpt>
      <trkpt lat="47.26969" lon="-1.6418">
        <ele>19</ele>
        <time>2013-09-15T08:45:36Z</time>
      </trkpt>
      <trkpt lat="47.26975" lon="-1.64191">
        <ele>19.9</ele>
        <time>2013-09-15T08:45:39Z</time>
      </trkpt>
      <trkpt lat="47.26982" lon="-1.64199">
        <ele>21.2</ele>
        <time>2013-09-15T08:45:43Z</time>
      </trkpt>
      <trkpt lat="47.2699" lon="-1.64206">
        <ele>22.5</ele>
        <time>2013-09-15T08:45:48Z</time>
      </trkpt>
      <trkpt lat="47.26998" lon="-1.64214">
        <ele>23.7</ele>
        <time>2013-09-15T08:45:54Z</time>
      </trkpt>
      <trkpt lat="47.27004" lon="-1.64225">
        <ele>24</ele>
        <time>2013-09-15T08:45:58Z</time>
      </trkpt>
      <trkpt lat="47.27007" lon="-1.6424">
        <ele>24.5</ele>
        <time>2013-09-15T08:46:04Z</time>
      </trkpt>
      <trkpt lat="47.2701" lon="-1.64255">
        <ele>25.3</ele>
        <time>2013-09-15T08:46:09Z</time>
      </trkpt>
      <trkpt lat="47.27013" lon="-1.64268">
        <ele>27.8</ele>
        <time>2013-09-15T08:46:23Z</time>
      </trkpt>
      <trkpt lat="47.27013" lon="-1.64283">
        <ele>28.6</ele>
        <time>2013-09-15T08:46:27Z</time>
      </trkpt>
      <trkpt lat="47.27012" lon="-1.64298">
        <ele>29</ele>
        <time>2013-09-15T08:46:31Z</time>
      </trkpt>
      <trkpt lat="47.27014" lon="-1.64312">
        <ele>29.4</ele>
        <time>2013-09-15T08:46:35Z</time>
      </trkpt>
      <trkpt lat="47.27014" lon="-1.64327">
        <ele>29.5</ele>
        <time>2013-09-15T08:46:40Z</time>
      </trkpt>
      <trkpt lat="47.27016" lon="-1.64342">
        <ele>29.7</ele>
        <time>2013-09-15T08:46:44Z</time>
      </trkpt>
      <trkpt lat="47.2702" lon="-1.64356">
        <ele>30.4</ele>
        <time>2013-09-15T08:46:49Z</time>
      </trkpt>
      <trkpt lat="47.27019" lon="-1.64371">
        <ele>30.7</ele>
        <time>2013-09-15T08:46:52Z</time>
      </trkpt>
      <trkpt lat="47.27017" lon="-1.64386">
        <ele>30.5</ele>
        <time>2013-09-15T08:46:56Z</time>
      </trkpt>
      <trkpt lat="47.27016" lon="-1.64401">
        <ele>30.6</ele>
        <time>2013-09-15T08:47:00Z</time>
      </trkpt>
      <trkpt lat="47.27017" lon="-1.64416">
        <ele>30.7</ele>
        <time>2013-09-15T08:47:04Z</time>
      </trkpt>
      <trkpt lat="47.27019" lon="-1.64429">
        <ele>31.3</ele>
        <time>2013-09-15T08:47:32Z</time>
      </trkpt>
      <trkpt lat="47.27024" lon="-1.6444">
        <ele>29.9</ele>
        <time>2013-09-15T08:48:14Z</time>
      </trkpt>
      <trkpt lat="47.27028" lon="-1.64453">
        <ele>29.6</ele>
        <time>2013-09-15T08:48:22Z</time>
      </trkpt>
      <trkpt lat="47.27029" lon="-1.64467">
        <ele>29.3</ele>
        <time>2013-09-15T08:48:27Z</time>
      </trkpt>
      <trkpt lat="47.2703" lon="-1.64482">
        <ele>29.2</ele>
        <time>2013-09-15T08:48:32Z</time>
      </trkpt>
      <trkpt lat="47.27032" lon="-1.64496">
        <ele>29.5</ele>
        <time>2013-09-15T08:48:39Z</time>
      </trkpt>
      <trkpt lat="47.27033" lon="-1.64509">
        <ele>30.4</ele>
        <time>2013-09-15T08:48:48Z</time>
      </trkpt>
      <trkpt lat="47.27027" lon="-1.6452">
        <ele>30.8</ele>
        <time>2013-09-15T08:48:55Z</time>
      </trkpt>
      <trkpt lat="47.27024" lon="-1.64534">
        <ele>30.5</ele>
        <time>2013-09-15T08:49:01Z</time>
      </trkpt>
      <trkpt lat="47.27019" lon="-1.64546">
        <ele>31</ele>
        <time>2013-09-15T08:49:08Z</time>
      </trkpt>
      <trkpt lat="47.27009" lon="-1.64549">
        <ele>29.8</ele>
        <time>2013-09-15T08:49:22Z</time>
      </trkpt>
      <trkpt lat="47.26999" lon="-1.64548">
        <ele>29.7</ele>
        <time>2013-09-15T08:49:58Z</time>
      </trkpt>
      <trkpt lat="47.27009" lon="-1.64549">
        <ele>28.3</ele>
        <time>2013-09-15T08:50:37Z</time>
      </trkpt>
      <trkpt lat="47.27017" lon="-1.64543">
        <ele>28.4</ele>
        <time>2013-09-15T08:50:45Z</time>
      </trkpt>
      <trkpt lat="47.27025" lon="-1.64535">
        <ele>28.2</ele>
        <time>2013-09-15T08:50:51Z</time>
      </trkpt>
      <trkpt lat="47.27031" lon="-1.64525">
        <ele>27.7</ele>
        <time>2013-09-15T08:51:01Z</time>
      </trkpt>
      <trkpt lat="47.27034" lon="-1.64509">
        <ele>28.2</ele>
        <time>2013-09-15T08:51:17Z</time>
      </trkpt>
      <trkpt lat="47.27036" lon="-1.64494">
        <ele>28.1</ele>
        <time>2013-09-15T08:51:22Z</time>
      </trkpt>
      <trkpt lat="47.27039" lon="-1.64479">
        <ele>27.8</ele>
        <time>2013-09-15T08:51:26Z</time>
      </trkpt>
      <trkpt lat="47.27041" lon="-1.64465">
        <ele>27.5</ele>
        <time>2013-09-15T08:51:30Z</time>
      </trkpt>
      <trkpt lat="47.27038" lon="-1.64452">
        <ele>27.4</ele>
        <time>2013-09-15T08:51:36Z</time>
      </trkpt>
      <trkpt lat="47.27029" lon="-1.64455">
        <ele>26.5</ele>
        <time>2013-09-15T08:51:46Z</time>
      </trkpt>
      <trkpt lat="47.27018" lon="-1.64455">
        <ele>26.7</ele>
        <time>2013-09-15T08:51:52Z</time>
      </trkpt>
      <trkpt lat="47.27008" lon="-1.64463">
        <ele>26.6</ele>
        <time>2013-09-15T08:51:56Z</time>
      </trkpt>
      <trkpt lat="47.27" lon="-1.64475">
        <ele>26.9</ele>
        <time>2013-09-15T08:51:59Z</time>
      </trkpt>
      <trkpt lat="47.26995" lon="-1.64488">
        <ele>27.5</ele>
        <time>2013-09-15T08:52:03Z</time>
      </trkpt>
      <trkpt lat="47.26991" lon="-1.64501">
        <ele>27.9</ele>
        <time>2013-09-15T08:52:07Z</time>
      </trkpt>
      <trkpt lat="47.26985" lon="-1.64512">
        <ele>27.3</ele>
        <time>2013-09-15T08:52:22Z</time>
      </trkpt>
      <trkpt lat="47.26979" lon="-1.64522">
        <ele>27</ele>
        <time>2013-09-15T08:52:27Z</time>
      </trkpt>
      <trkpt lat="47.26977" lon="-1.64539">
        <ele>27</ele>
        <time>2013-09-15T08:52:32Z</time>
      </trkpt>
      <trkpt lat="47.26984" lon="-1.64558">
        <ele>26.9</ele>
        <time>2013-09-15T08:52:35Z</time>
      </trkpt>
      <trkpt lat="47.26986" lon="-1.64573">
        <ele>27</ele>
        <time>2013-09-15T08:52:37Z</time>
      </trkpt>
      <trkpt lat="47.26985" lon="-1.6459">
        <ele>27.1</ele>
        <time>2013-09-15T08:52:39Z</time>
      </trkpt>
      <trkpt lat="47.26985" lon="-1.64604">
        <ele>27.5</ele>
        <time>2013-09-15T08:52:41Z</time>
      </trkpt>
      <trkpt lat="47.26985" lon="-1.64625">
        <ele>28</ele>
        <time>2013-09-15T08:52:44Z</time>
      </trkpt>
      <trkpt lat="47.26986" lon="-1.6464">
        <ele>28.1</ele>
        <time>2013-09-15T08:52:46Z</time>
      </trkpt>
      <trkpt lat="47.26987" lon="-1.64658">
        <ele>28</ele>
        <time>2013-09-15T08:52:49Z</time>
      </trkpt>
      <trkpt lat="47.26987" lon="-1.64678">
        <ele>27.9</ele>
        <time>2013-09-15T08:52:52Z</time>
      </trkpt>
      <trkpt lat="47.26986" lon="-1.64692">
        <ele>27.9</ele>
        <time>2013-09-15T08:52:54Z</time>
      </trkpt>
      <trkpt lat="47.26983" lon="-1.64707">
        <ele>27.9</ele>
        <time>2013-09-15T08:52:56Z</time>
      </trkpt>
      <trkpt lat="47.26979" lon="-1.64723">
        <ele>28.1</ele>
        <time>2013-09-15T08:52:58Z</time>
      </trkpt>
      <trkpt lat="47.26973" lon="-1.6474">
        <ele>27.6</ele>
        <time>2013-09-15T08:53:00Z</time>
      </trkpt>
      <trkpt lat="47.26969" lon="-1.64755">
        <ele>27.5</ele>
        <time>2013-09-15T08:53:02Z</time>
      </trkpt>
      <trkpt lat="47.26967" lon="-1.64769">
        <ele>26.5</ele>
        <time>2013-09-15T08:53:04Z</time>
      </trkpt>
      <trkpt lat="47.26963" lon="-1.64788">
        <ele>26.1</ele>
        <time>2013-09-15T08:53:07Z</time>
      </trkpt>
      <trkpt lat="47.26959" lon="-1.64803">
        <ele>26.1</ele>
        <time>2013-09-15T08:53:10Z</time>
      </trkpt>
      <trkpt lat="47.2695" lon="-1.64811">
        <ele>26</ele>
        <time>2013-09-15T08:53:13Z</time>
      </trkpt>
      <trkpt lat="47.26939" lon="-1.64819">
        <ele>26</ele>
        <time>2013-09-15T08:53:17Z</time>
      </trkpt>
      <trkpt lat="47.2693" lon="-1.64826">
        <ele>26.9</ele>
        <time>2013-09-15T08:53:19Z</time>
      </trkpt>
      <trkpt lat="47.26922" lon="-1.64835">
        <ele>26.9</ele>
        <time>2013-09-15T08:53:21Z</time>
      </trkpt>
      <trkpt lat="47.26914" lon="-1.64844">
        <ele>26.4</ele>
        <time>2013-09-15T08:53:23Z</time>
      </trkpt>
      <trkpt lat="47.26908" lon="-1.64863">
        <ele>26.6</ele>
        <time>2013-09-15T08:53:26Z</time>
      </trkpt>
      <trkpt lat="47.26902" lon="-1.64879">
        <ele>26.9</ele>
        <time>2013-09-15T08:53:28Z</time>
      </trkpt>
      <trkpt lat="47.26895" lon="-1.64894">
        <ele>27.5</ele>
        <time>2013-09-15T08:53:30Z</time>
      </trkpt>
      <trkpt lat="47.26889" lon="-1.6491">
        <ele>27.7</ele>
        <time>2013-09-15T08:53:32Z</time>
      </trkpt>
      <trkpt lat="47.26884" lon="-1.64926">
        <ele>27.4</ele>
        <time>2013-09-15T08:53:34Z</time>
      </trkpt>
      <trkpt lat="47.26878" lon="-1.64947">
        <ele>26.1</ele>
        <time>2013-09-15T08:53:36Z</time>
      </trkpt>
      <trkpt lat="47.26874" lon="-1.64961">
        <ele>25.9</ele>
        <time>2013-09-15T08:53:38Z</time>
      </trkpt>
      <trkpt lat="47.26871" lon="-1.64974">
        <ele>25.8</ele>
        <time>2013-09-15T08:53:40Z</time>
      </trkpt>
      <trkpt lat="47.26866" lon="-1.64988">
        <ele>25.8</ele>
        <time>2013-09-15T08:53:42Z</time>
      </trkpt>
      <trkpt lat="47.26859" lon="-1.65004">
        <ele>25.8</ele>
        <time>2013-09-15T08:53:44Z</time>
      </trkpt>
      <trkpt lat="47.26855" lon="-1.65016">
        <ele>25.8</ele>
        <time>2013-09-15T08:53:46Z</time>
      </trkpt>
      <trkpt lat="47.26852" lon="-1.65029">
        <ele>26.7</ele>
        <time>2013-09-15T08:53:48Z</time>
      </trkpt>
      <trkpt lat="47.26849" lon="-1.65045">
        <ele>27.9</ele>
        <time>2013-09-15T08:53:50Z</time>
      </trkpt>
      <trkpt lat="47.26847" lon="-1.65061">
        <ele>28.2</ele>
        <time>2013-09-15T08:53:52Z</time>
      </trkpt>
      <trkpt lat="47.26843" lon="-1.65076">
        <ele>27.5</ele>
        <time>2013-09-15T08:53:54Z</time>
      </trkpt>
      <trkpt lat="47.2684" lon="-1.65089">
        <ele>26.6</ele>
        <time>2013-09-15T08:53:56Z</time>
      </trkpt>
      <trkpt lat="47.26834" lon="-1.65104">
        <ele>26.4</ele>
        <time>2013-09-15T08:53:59Z</time>
      </trkpt>
      <trkpt lat="47.26827" lon="-1.65119">
        <ele>24.3</ele>
        <time>2013-09-15T08:54:01Z</time>
      </trkpt>
      <trkpt lat="47.26819" lon="-1.65131">
        <ele>24</ele>
        <time>2013-09-15T08:54:03Z</time>
      </trkpt>
      <trkpt lat="47.26812" lon="-1.65145">
        <ele>23.5</ele>
        <time>2013-09-15T08:54:06Z</time>
      </trkpt>
      <trkpt lat="47.26804" lon="-1.65156">
        <ele>23</ele>
        <time>2013-09-15T08:54:09Z</time>
      </trkpt>
      <trkpt lat="47.26798" lon="-1.65165">
        <ele>22.3</ele>
        <time>2013-09-15T08:54:12Z</time>
      </trkpt>
      <trkpt lat="47.26789" lon="-1.65177">
        <ele>21.4</ele>
        <time>2013-09-15T08:54:16Z</time>
      </trkpt>
      <trkpt lat="47.26781" lon="-1.65188">
        <ele>21.3</ele>
        <time>2013-09-15T08:54:19Z</time>
      </trkpt>
      <trkpt lat="47.26778" lon="-1.65205">
        <ele>21.9</ele>
        <time>2013-09-15T08:54:22Z</time>
      </trkpt>
      <trkpt lat="47.26781" lon="-1.65224">
        <ele>22.6</ele>
        <time>2013-09-15T08:54:25Z</time>
      </trkpt>
      <trkpt lat="47.26781" lon="-1.65242">
        <ele>22.9</ele>
        <time>2013-09-15T08:54:28Z</time>
      </trkpt>
      <trkpt lat="47.26774" lon="-1.65256">
        <ele>24.6</ele>
        <time>2013-09-15T08:54:31Z</time>
      </trkpt>
      <trkpt lat="47.26769" lon="-1.65273">
        <ele>25.9</ele>
        <time>2013-09-15T08:54:34Z</time>
      </trkpt>
      <trkpt lat="47.26767" lon="-1.65291">
        <ele>25.9</ele>
        <time>2013-09-15T08:54:37Z</time>
      </trkpt>
      <trkpt lat="47.26764" lon="-1.65307">
        <ele>26.4</ele>
        <time>2013-09-15T08:54:42Z</time>
      </trkpt>
      <trkpt lat="47.26759" lon="-1.6532">
        <ele>26.8</ele>
        <time>2013-09-15T08:54:46Z</time>
      </trkpt>
      <trkpt lat="47.26755" lon="-1.65333">
        <ele>27.4</ele>
        <time>2013-09-15T08:54:54Z</time>
      </trkpt>
      <trkpt lat="47.2675" lon="-1.65346">
        <ele>27.7</ele>
        <time>2013-09-15T08:55:01Z</time>
      </trkpt>
      <trkpt lat="47.26742" lon="-1.65353">
        <ele>29.7</ele>
        <time>2013-09-15T08:55:26Z</time>
      </trkpt>
      <trkpt lat="47.26748" lon="-1.65366">
        <ele>29.3</ele>
        <time>2013-09-15T08:57:13Z</time>
      </trkpt>
      <trkpt lat="47.26754" lon="-1.65379">
        <ele>29.3</ele>
        <time>2013-09-15T08:57:17Z</time>
      </trkpt>
      <trkpt lat="47.26757" lon="-1.65392">
        <ele>29.5</ele>
        <time>2013-09-15T08:57:20Z</time>
      </trkpt>
      <trkpt lat="47.26759" lon="-1.65408">
        <ele>29.8</ele>
        <time>2013-09-15T08:57:22Z</time>
      </trkpt>
      <trkpt lat="47.26761" lon="-1.65423">
        <ele>29.9</ele>
        <time>2013-09-15T08:57:24Z</time>
      </trkpt>
      <trkpt lat="47.26763" lon="-1.65439">
        <ele>30.1</ele>
        <time>2013-09-15T08:57:27Z</time>
      </trkpt>
      <trkpt lat="47.26767" lon="-1.65452">
        <ele>30.2</ele>
        <time>2013-09-15T08:57:30Z</time>
      </trkpt>
      <trkpt lat="47.26773" lon="-1.65469">
        <ele>30.6</ele>
        <time>2013-09-15T08:57:33Z</time>
      </trkpt>
      <trkpt lat="47.26774" lon="-1.65486">
        <ele>30.5</ele>
        <time>2013-09-15T08:57:36Z</time>
      </trkpt>
      <trkpt lat="47.26774" lon="-1.65499">
        <ele>30.5</ele>
        <time>2013-09-15T08:57:39Z</time>
      </trkpt>
      <trkpt lat="47.26774" lon="-1.65514">
        <ele>30.4</ele>
        <time>2013-09-15T08:57:43Z</time>
      </trkpt>
      <trkpt lat="47.2678" lon="-1.65525">
        <ele>30.5</ele>
        <time>2013-09-15T08:57:47Z</time>
      </trkpt>
      <trkpt lat="47.26793" lon="-1.65526">
        <ele>29</ele>
        <time>2013-09-15T08:57:50Z</time>
      </trkpt>
      <trkpt lat="47.26805" lon="-1.65527">
        <ele>28.4</ele>
        <time>2013-09-15T08:57:53Z</time>
      </trkpt>
      <trkpt lat="47.26817" lon="-1.65531">
        <ele>27.8</ele>
        <time>2013-09-15T08:57:57Z</time>
      </trkpt>
      <trkpt lat="47.26829" lon="-1.65534">
        <ele>26.1</ele>
        <time>2013-09-15T08:58:00Z</time>
      </trkpt>
      <trkpt lat="47.26839" lon="-1.65536">
        <ele>25</ele>
        <time>2013-09-15T08:58:12Z</time>
      </trkpt>
      <trkpt lat="47.26845" lon="-1.65546">
        <ele>23.7</ele>
        <time>2013-09-15T08:58:33Z</time>
      </trkpt>
      <trkpt lat="47.26848" lon="-1.6556">
        <ele>23.6</ele>
        <time>2013-09-15T08:58:38Z</time>
      </trkpt>
      <trkpt lat="47.26853" lon="-1.65573">
        <ele>23.9</ele>
        <time>2013-09-15T08:58:43Z</time>
      </trkpt>
      <trkpt lat="47.26859" lon="-1.65584">
        <ele>24.1</ele>
        <time>2013-09-15T08:58:47Z</time>
      </trkpt>
      <trkpt lat="47.26862" lon="-1.65597">
        <ele>24.4</ele>
        <time>2013-09-15T08:58:53Z</time>
      </trkpt>
      <trkpt lat="47.26861" lon="-1.6561">
        <ele>24.9</ele>
        <time>2013-09-15T08:59:02Z</time>
      </trkpt>
      <trkpt lat="47.26859" lon="-1.65624">
        <ele>25.1</ele>
        <time>2013-09-15T08:59:15Z</time>
      </trkpt>
      <trkpt lat="47.26862" lon="-1.65637">
        <ele>26.5</ele>
        <time>2013-09-15T08:59:49Z</time>
      </trkpt>
      <trkpt lat="47.26867" lon="-1.65648">
        <ele>25.9</ele>
        <time>2013-09-15T08:59:55Z</time>
      </trkpt>
      <trkpt lat="47.26868" lon="-1.65663">
        <ele>25.2</ele>
        <time>2013-09-15T09:00:00Z</time>
      </trkpt>
      <trkpt lat="47.26864" lon="-1.65675">
        <ele>24.6</ele>
        <time>2013-09-15T09:00:05Z</time>
      </trkpt>
      <trkpt lat="47.26857" lon="-1.65689">
        <ele>23.6</ele>
        <time>2013-09-15T09:00:11Z</time>
      </trkpt>
      <trkpt lat="47.26849" lon="-1.65702">
        <ele>23.1</ele>
        <time>2013-09-15T09:00:14Z</time>
      </trkpt>
      <trkpt lat="47.26842" lon="-1.65719">
        <ele>22.5</ele>
        <time>2013-09-15T09:00:17Z</time>
      </trkpt>
      <trkpt lat="47.26838" lon="-1.65736">
        <ele>22</ele>
        <time>2013-09-15T09:00:20Z</time>
      </trkpt>
      <trkpt lat="47.26835" lon="-1.65749">
        <ele>21.8</ele>
        <time>2013-09-15T09:00:23Z</time>
      </trkpt>
      <trkpt lat="47.26826" lon="-1.6576">
        <ele>21.9</ele>
        <time>2013-09-15T09:00:27Z</time>
      </trkpt>
      <trkpt lat="47.26816" lon="-1.65758">
        <ele>22.6</ele>
        <time>2013-09-15T09:00:31Z</time>
      </trkpt>
      <trkpt lat="47.26806" lon="-1.65765">
        <ele>23.2</ele>
        <time>2013-09-15T09:00:35Z</time>
      </trkpt>
      <trkpt lat="47.26798" lon="-1.65774">
        <ele>23.6</ele>
        <time>2013-09-15T09:00:39Z</time>
      </trkpt>
      <trkpt lat="47.26792" lon="-1.65784">
        <ele>23.7</ele>
        <time>2013-09-15T09:00:42Z</time>
      </trkpt>
      <trkpt lat="47.26784" lon="-1.65796">
        <ele>23.7</ele>
        <time>2013-09-15T09:00:46Z</time>
      </trkpt>
      <trkpt lat="47.26778" lon="-1.65809">
        <ele>23.7</ele>
        <time>2013-09-15T09:00:49Z</time>
      </trkpt>
      <trkpt lat="47.2677" lon="-1.65822">
        <ele>23.6</ele>
        <time>2013-09-15T09:00:53Z</time>
      </trkpt>
      <trkpt lat="47.2676" lon="-1.65829">
        <ele>23.5</ele>
        <time>2013-09-15T09:00:57Z</time>
      </trkpt>
      <trkpt lat="47.26748" lon="-1.65831">
        <ele>23.7</ele>
        <time>2013-09-15T09:01:01Z</time>
      </trkpt>
      <trkpt lat="47.26739" lon="-1.65837">
        <ele>24.4</ele>
        <time>2013-09-15T09:01:06Z</time>
      </trkpt>
      <trkpt lat="47.2673" lon="-1.65841">
        <ele>25.2</ele>
        <time>2013-09-15T09:01:11Z</time>
      </trkpt>
      <trkpt lat="47.26719" lon="-1.65843">
        <ele>26.8</ele>
        <time>2013-09-15T09:01:17Z</time>
      </trkpt>
      <trkpt lat="47.2671" lon="-1.65851">
        <ele>27.7</ele>
        <time>2013-09-15T09:01:21Z</time>
      </trkpt>
      <trkpt lat="47.26701" lon="-1.65857">
        <ele>28.8</ele>
        <time>2013-09-15T09:01:26Z</time>
      </trkpt>
      <trkpt lat="47.2669" lon="-1.65858">
        <ele>29.4</ele>
        <time>2013-09-15T09:01:31Z</time>
      </trkpt>
      <trkpt lat="47.26679" lon="-1.65857">
        <ele>29.5</ele>
        <time>2013-09-15T09:01:34Z</time>
      </trkpt>
      <trkpt lat="47.26669" lon="-1.65858">
        <ele>29.7</ele>
        <time>2013-09-15T09:01:37Z</time>
      </trkpt>
      <trkpt lat="47.26659" lon="-1.65859">
        <ele>30</ele>
        <time>2013-09-15T09:01:42Z</time>
      </trkpt>
      <trkpt lat="47.2665" lon="-1.65864">
        <ele>30.3</ele>
        <time>2013-09-15T09:01:44Z</time>
      </trkpt>
      <trkpt lat="47.26639" lon="-1.65856">
        <ele>30.9</ele>
        <time>2013-09-15T09:01:49Z</time>
      </trkpt>
      <trkpt lat="47.2663" lon="-1.65848">
        <ele>31.1</ele>
        <time>2013-09-15T09:01:52Z</time>
      </trkpt>
      <trkpt lat="47.26621" lon="-1.65846">
        <ele>31.4</ele>
        <time>2013-09-15T09:01:55Z</time>
      </trkpt>
      <trkpt lat="47.26612" lon="-1.65846">
        <ele>31.6</ele>
        <time>2013-09-15T09:01:58Z</time>
      </trkpt>
      <trkpt lat="47.26602" lon="-1.65841">
        <ele>31.8</ele>
        <time>2013-09-15T09:02:01Z</time>
      </trkpt>
      <trkpt lat="47.26592" lon="-1.65844">
        <ele>32.3</ele>
        <time>2013-09-15T09:02:06Z</time>
      </trkpt>
      <trkpt lat="47.26583" lon="-1.65852">
        <ele>32.3</ele>
        <time>2013-09-15T09:02:10Z</time>
      </trkpt>
      <trkpt lat="47.26575" lon="-1.6586">
        <ele>32.4</ele>
        <time>2013-09-15T09:02:15Z</time>
      </trkpt>
      <trkpt lat="47.26567" lon="-1.65868">
        <ele>32.4</ele>
        <time>2013-09-15T09:02:26Z</time>
      </trkpt>
      <trkpt lat="47.26558" lon="-1.65869">
        <ele>34.5</ele>
        <time>2013-09-15T09:02:43Z</time>
      </trkpt>
      <trkpt lat="47.26562" lon="-1.65857">
        <ele>33.2</ele>
        <time>2013-09-15T09:03:01Z</time>
      </trkpt>
      <trkpt lat="47.26567" lon="-1.65871">
        <ele>31</ele>
        <time>2013-09-15T09:03:36Z</time>
      </trkpt>
      <trkpt lat="47.26566" lon="-1.65886">
        <ele>30.4</ele>
        <time>2013-09-15T09:03:41Z</time>
      </trkpt>
      <trkpt lat="47.26563" lon="-1.65898">
        <ele>29.9</ele>
        <time>2013-09-15T09:03:48Z</time>
      </trkpt>
      <trkpt lat="47.26556" lon="-1.65909">
        <ele>30.1</ele>
        <time>2013-09-15T09:03:53Z</time>
      </trkpt>
      <trkpt lat="47.26546" lon="-1.65909">
        <ele>30</ele>
        <time>2013-09-15T09:03:58Z</time>
      </trkpt>
      <trkpt lat="47.26537" lon="-1.65912">
        <ele>29.9</ele>
        <time>2013-09-15T09:04:01Z</time>
      </trkpt>
      <trkpt lat="47.26529" lon="-1.65917">
        <ele>29.9</ele>
        <time>2013-09-15T09:04:11Z</time>
      </trkpt>
      <trkpt lat="47.26519" lon="-1.65915">
        <ele>29.4</ele>
        <time>2013-09-15T09:04:24Z</time>
      </trkpt>
      <trkpt lat="47.26511" lon="-1.65907">
        <ele>30.6</ele>
        <time>2013-09-15T09:04:40Z</time>
      </trkpt>
      <trkpt lat="47.26516" lon="-1.65894">
        <ele>31.4</ele>
        <time>2013-09-15T09:04:55Z</time>
      </trkpt>
      <trkpt lat="47.26518" lon="-1.6588">
        <ele>30.5</ele>
        <time>2013-09-15T09:05:01Z</time>
      </trkpt>
      <trkpt lat="47.26518" lon="-1.65866">
        <ele>29.9</ele>
        <time>2013-09-15T09:05:06Z</time>
      </trkpt>
      <trkpt lat="47.26518" lon="-1.65852">
        <ele>29.3</ele>
        <time>2013-09-15T09:05:10Z</time>
      </trkpt>
      <trkpt lat="47.26517" lon="-1.65837">
        <ele>28.4</ele>
        <time>2013-09-15T09:05:15Z</time>
      </trkpt>
      <trkpt lat="47.26512" lon="-1.65825">
        <ele>27.8</ele>
        <time>2013-09-15T09:05:21Z</time>
      </trkpt>
      <trkpt lat="47.26507" lon="-1.65812">
        <ele>27.7</ele>
        <time>2013-09-15T09:05:25Z</time>
      </trkpt>
      <trkpt lat="47.26503" lon="-1.65798">
        <ele>28.1</ele>
        <time>2013-09-15T09:05:28Z</time>
      </trkpt>
      <trkpt lat="47.26499" lon="-1.65784">
        <ele>28.5</ele>
        <time>2013-09-15T09:05:31Z</time>
      </trkpt>
      <trkpt lat="47.26502" lon="-1.65769">
        <ele>28.9</ele>
        <time>2013-09-15T09:05:34Z</time>
      </trkpt>
      <trkpt lat="47.26506" lon="-1.65758">
        <ele>29.1</ele>
        <time>2013-09-15T09:05:36Z</time>
      </trkpt>
      <trkpt lat="47.26514" lon="-1.65745">
        <ele>29.2</ele>
        <time>2013-09-15T09:05:39Z</time>
      </trkpt>
      <trkpt lat="47.26522" lon="-1.65736">
        <ele>29.3</ele>
        <time>2013-09-15T09:05:42Z</time>
      </trkpt>
      <trkpt lat="47.26532" lon="-1.65733">
        <ele>30.9</ele>
        <time>2013-09-15T09:05:46Z</time>
      </trkpt>
      <trkpt lat="47.26543" lon="-1.65731">
        <ele>31</ele>
        <time>2013-09-15T09:05:51Z</time>
      </trkpt>
      <trkpt lat="47.26553" lon="-1.65728">
        <ele>31.5</ele>
        <time>2013-09-15T09:05:54Z</time>
      </trkpt>
      <trkpt lat="47.26563" lon="-1.65725">
        <ele>31.9</ele>
        <time>2013-09-15T09:05:56Z</time>
      </trkpt>
      <trkpt lat="47.26575" lon="-1.65721">
        <ele>32.3</ele>
        <time>2013-09-15T09:05:59Z</time>
      </trkpt>
      <trkpt lat="47.26585" lon="-1.65717">
        <ele>32.9</ele>
        <time>2013-09-15T09:06:04Z</time>
      </trkpt>
      <trkpt lat="47.2658" lon="-1.65705">
        <ele>33.5</ele>
        <time>2013-09-15T09:06:31Z</time>
      </trkpt>
      <trkpt lat="47.26586" lon="-1.65692">
        <ele>34.3</ele>
        <time>2013-09-15T09:06:36Z</time>
      </trkpt>
      <trkpt lat="47.26592" lon="-1.6568">
        <ele>35.5</ele>
        <time>2013-09-15T09:06:42Z</time>
      </trkpt>
      <trkpt lat="47.26595" lon="-1.65667">
        <ele>35.9</ele>
        <time>2013-09-15T09:06:46Z</time>
      </trkpt>
      <trkpt lat="47.26593" lon="-1.65654">
        <ele>35.9</ele>
        <time>2013-09-15T09:06:52Z</time>
      </trkpt>
      <trkpt lat="47.2659" lon="-1.65666">
        <ele>36.2</ele>
        <time>2013-09-15T09:07:26Z</time>
      </trkpt>
      <trkpt lat="47.26589" lon="-1.65681">
        <ele>36.9</ele>
        <time>2013-09-15T09:07:31Z</time>
      </trkpt>
      <trkpt lat="47.26586" lon="-1.65697">
        <ele>37.5</ele>
        <time>2013-09-15T09:07:36Z</time>
      </trkpt>
      <trkpt lat="47.26585" lon="-1.65713">
        <ele>38.1</ele>
        <time>2013-09-15T09:07:41Z</time>
      </trkpt>
      <trkpt lat="47.26582" lon="-1.65699">
        <ele>38.3</ele>
        <time>2013-09-15T09:10:09Z</time>
      </trkpt>
      <trkpt lat="47.26583" lon="-1.65684">
        <ele>37.5</ele>
        <time>2013-09-15T09:10:14Z</time>
      </trkpt>
      <trkpt lat="47.26583" lon="-1.65669">
        <ele>37.4</ele>
        <time>2013-09-15T09:10:19Z</time>
      </trkpt>
      <trkpt lat="47.26585" lon="-1.65654">
        <ele>37.1</ele>
        <time>2013-09-15T09:10:24Z</time>
      </trkpt>
      <trkpt lat="47.26585" lon="-1.65638">
        <ele>36.1</ele>
        <time>2013-09-15T09:10:29Z</time>
      </trkpt>
      <trkpt lat="47.26586" lon="-1.65625">
        <ele>34</ele>
        <time>2013-09-15T09:10:35Z</time>
      </trkpt>
      <trkpt lat="47.26588" lon="-1.6561">
        <ele>32.1</ele>
        <time>2013-09-15T09:10:40Z</time>
      </trkpt>
      <trkpt lat="47.26585" lon="-1.65598">
        <ele>31.5</ele>
        <time>2013-09-15T09:10:45Z</time>
      </trkpt>
      <trkpt lat="47.26578" lon="-1.65584">
        <ele>31.1</ele>
        <time>2013-09-15T09:10:50Z</time>
      </trkpt>
      <trkpt lat="47.26575" lon="-1.65571">
        <ele>31.1</ele>
        <time>2013-09-15T09:10:54Z</time>
      </trkpt>
      <trkpt lat="47.26572" lon="-1.65558">
        <ele>31.5</ele>
        <time>2013-09-15T09:10:58Z</time>
      </trkpt>
      <trkpt lat="47.2657" lon="-1.65543">
        <ele>32.3</ele>
        <time>2013-09-15T09:11:02Z</time>
      </trkpt>
      <trkpt lat="47.26568" lon="-1.65529">
        <ele>32.9</ele>
        <time>2013-09-15T09:11:06Z</time>
      </trkpt>
      <trkpt lat="47.26563" lon="-1.65516">
        <ele>33.7</ele>
        <time>2013-09-15T09:11:11Z</time>
      </trkpt>
      <trkpt lat="47.26561" lon="-1.65502">
        <ele>35.2</ele>
        <time>2013-09-15T09:11:18Z</time>
      </trkpt>
      <trkpt lat="47.26559" lon="-1.65488">
        <ele>35.6</ele>
        <time>2013-09-15T09:11:23Z</time>
      </trkpt>
      <trkpt lat="47.26559" lon="-1.65472">
        <ele>35.9</ele>
        <time>2013-09-15T09:11:28Z</time>
      </trkpt>
      <trkpt lat="47.26558" lon="-1.65457">
        <ele>35.8</ele>
        <time>2013-09-15T09:11:33Z</time>
      </trkpt>
      <trkpt lat="47.26558" lon="-1.65442">
        <ele>35.6</ele>
        <time>2013-09-15T09:11:38Z</time>
      </trkpt>
      <trkpt lat="47.2656" lon="-1.65428">
        <ele>35.3</ele>
        <time>2013-09-15T09:11:43Z</time>
      </trkpt>
      <trkpt lat="47.26562" lon="-1.65412">
        <ele>34.6</ele>
        <time>2013-09-15T09:11:48Z</time>
      </trkpt>
      <trkpt lat="47.26565" lon="-1.65399">
        <ele>33.9</ele>
        <time>2013-09-15T09:11:52Z</time>
      </trkpt>
      <trkpt lat="47.26568" lon="-1.65382">
        <ele>32.9</ele>
        <time>2013-09-15T09:11:56Z</time>
      </trkpt>
      <trkpt lat="47.26573" lon="-1.6537">
        <ele>32</ele>
        <time>2013-09-15T09:12:00Z</time>
      </trkpt>
      <trkpt lat="47.26576" lon="-1.65355">
        <ele>30.7</ele>
        <time>2013-09-15T09:12:05Z</time>
      </trkpt>
      <trkpt lat="47.26578" lon="-1.65341">
        <ele>29.6</ele>
        <time>2013-09-15T09:12:09Z</time>
      </trkpt>
      <trkpt lat="47.26581" lon="-1.65325">
        <ele>29</ele>
        <time>2013-09-15T09:12:13Z</time>
      </trkpt>
      <trkpt lat="47.26582" lon="-1.6531">
        <ele>28.8</ele>
        <time>2013-09-15T09:12:17Z</time>
      </trkpt>
      <trkpt lat="47.26583" lon="-1.65296">
        <ele>28.5</ele>
        <time>2013-09-15T09:12:21Z</time>
      </trkpt>
      <trkpt lat="47.26583" lon="-1.6528">
        <ele>28.5</ele>
        <time>2013-09-15T09:12:25Z</time>
      </trkpt>
      <trkpt lat="47.2658" lon="-1.65264">
        <ele>30.2</ele>
        <time>2013-09-15T09:12:30Z</time>
      </trkpt>
      <trkpt lat="47.26574" lon="-1.65252">
        <ele>32.4</ele>
        <time>2013-09-15T09:12:35Z</time>
      </trkpt>
      <trkpt lat="47.26575" lon="-1.65236">
        <ele>34.6</ele>
        <time>2013-09-15T09:12:41Z</time>
      </trkpt>
      <trkpt lat="47.26574" lon="-1.65223">
        <ele>35.6</ele>
        <time>2013-09-15T09:12:44Z</time>
      </trkpt>
      <trkpt lat="47.26571" lon="-1.65208">
        <ele>36.3</ele>
        <time>2013-09-15T09:12:46Z</time>
      </trkpt>
      <trkpt lat="47.26569" lon="-1.65189">
        <ele>37.3</ele>
        <time>2013-09-15T09:12:49Z</time>
      </trkpt>
      <trkpt lat="47.26566" lon="-1.65175">
        <ele>38.3</ele>
        <time>2013-09-15T09:12:52Z</time>
      </trkpt>
      <trkpt lat="47.26562" lon="-1.65158">
        <ele>41.3</ele>
        <time>2013-09-15T09:12:55Z</time>
      </trkpt>
      <trkpt lat="47.26556" lon="-1.65142">
        <ele>41.7</ele>
        <time>2013-09-15T09:12:58Z</time>
      </trkpt>
      <trkpt lat="47.26551" lon="-1.65129">
        <ele>43.3</ele>
        <time>2013-09-15T09:13:00Z</time>
      </trkpt>
      <trkpt lat="47.26545" lon="-1.65116">
        <ele>46</ele>
        <time>2013-09-15T09:13:02Z</time>
      </trkpt>
      <trkpt lat="47.2654" lon="-1.65103">
        <ele>47.4</ele>
        <time>2013-09-15T09:13:04Z</time>
      </trkpt>
      <trkpt lat="47.26535" lon="-1.65086">
        <ele>47.8</ele>
        <time>2013-09-15T09:13:06Z</time>
      </trkpt>
      <trkpt lat="47.26529" lon="-1.65071">
        <ele>49.1</ele>
        <time>2013-09-15T09:13:08Z</time>
      </trkpt>
      <trkpt lat="47.26524" lon="-1.65053">
        <ele>49.3</ele>
        <time>2013-09-15T09:13:11Z</time>
      </trkpt>
      <trkpt lat="47.2652" lon="-1.65041">
        <ele>49.5</ele>
        <time>2013-09-15T09:13:13Z</time>
      </trkpt>
      <trkpt lat="47.26513" lon="-1.65025">
        <ele>49.8</ele>
        <time>2013-09-15T09:13:16Z</time>
      </trkpt>
      <trkpt lat="47.26507" lon="-1.65011">
        <ele>50.3</ele>
        <time>2013-09-15T09:13:19Z</time>
      </trkpt>
      <trkpt lat="47.26501" lon="-1.64996">
        <ele>50.6</ele>
        <time>2013-09-15T09:13:22Z</time>
      </trkpt>
      <trkpt lat="47.26497" lon="-1.64984">
        <ele>52.9</ele>
        <time>2013-09-15T09:13:24Z</time>
      </trkpt>
      <trkpt lat="47.2649" lon="-1.64968">
        <ele>54.2</ele>
        <time>2013-09-15T09:13:27Z</time>
      </trkpt>
      <trkpt lat="47.26483" lon="-1.64955">
        <ele>54.8</ele>
        <time>2013-09-15T09:13:30Z</time>
      </trkpt>
      <trkpt lat="47.26476" lon="-1.64942">
        <ele>54.9</ele>
        <time>2013-09-15T09:13:33Z</time>
      </trkpt>
      <trkpt lat="47.26468" lon="-1.64927">
        <ele>55.4</ele>
        <time>2013-09-15T09:13:36Z</time>
      </trkpt>
      <trkpt lat="47.26461" lon="-1.64914">
        <ele>55.4</ele>
        <time>2013-09-15T09:13:39Z</time>
      </trkpt>
      <trkpt lat="47.26453" lon="-1.64905">
        <ele>55.5</ele>
        <time>2013-09-15T09:13:43Z</time>
      </trkpt>
      <trkpt lat="47.26446" lon="-1.64894">
        <ele>55.2</ele>
        <time>2013-09-15T09:13:52Z</time>
      </trkpt>
      <trkpt lat="47.26438" lon="-1.6488">
        <ele>55.4</ele>
        <time>2013-09-15T09:13:56Z</time>
      </trkpt>
      <trkpt lat="47.26432" lon="-1.64867">
        <ele>55.5</ele>
        <time>2013-09-15T09:13:59Z</time>
      </trkpt>
      <trkpt lat="47.26425" lon="-1.64852">
        <ele>55.7</ele>
        <time>2013-09-15T09:14:02Z</time>
      </trkpt>
      <trkpt lat="47.26419" lon="-1.64834">
        <ele>55.6</ele>
        <time>2013-09-15T09:14:05Z</time>
      </trkpt>
      <trkpt lat="47.26416" lon="-1.64821">
        <ele>55.5</ele>
        <time>2013-09-15T09:14:07Z</time>
      </trkpt>
      <trkpt lat="47.26413" lon="-1.64804">
        <ele>55.3</ele>
        <time>2013-09-15T09:14:10Z</time>
      </trkpt>
      <trkpt lat="47.2641" lon="-1.64786">
        <ele>53.5</ele>
        <time>2013-09-15T09:14:13Z</time>
      </trkpt>
      <trkpt lat="47.26408" lon="-1.64768">
        <ele>53.4</ele>
        <time>2013-09-15T09:14:16Z</time>
      </trkpt>
      <trkpt lat="47.26408" lon="-1.6475">
        <ele>53.4</ele>
        <time>2013-09-15T09:14:19Z</time>
      </trkpt>
      <trkpt lat="47.26408" lon="-1.64733">
        <ele>53.2</ele>
        <time>2013-09-15T09:14:22Z</time>
      </trkpt>
      <trkpt lat="47.26406" lon="-1.64717">
        <ele>53</ele>
        <time>2013-09-15T09:14:25Z</time>
      </trkpt>
      <trkpt lat="47.26404" lon="-1.64703">
        <ele>52.7</ele>
        <time>2013-09-15T09:14:28Z</time>
      </trkpt>
      <trkpt lat="47.264" lon="-1.64685">
        <ele>52.3</ele>
        <time>2013-09-15T09:14:31Z</time>
      </trkpt>
      <trkpt lat="47.26397" lon="-1.64673">
        <ele>51.9</ele>
        <time>2013-09-15T09:14:33Z</time>
      </trkpt>
      <trkpt lat="47.26394" lon="-1.6466">
        <ele>50.4</ele>
        <time>2013-09-15T09:14:35Z</time>
      </trkpt>
      <trkpt lat="47.26391" lon="-1.64645">
        <ele>50</ele>
        <time>2013-09-15T09:14:38Z</time>
      </trkpt>
      <trkpt lat="47.26386" lon="-1.64632">
        <ele>49.6</ele>
        <time>2013-09-15T09:14:41Z</time>
      </trkpt>
      <trkpt lat="47.26382" lon="-1.64616">
        <ele>49.3</ele>
        <time>2013-09-15T09:14:46Z</time>
      </trkpt>
      <trkpt lat="47.26379" lon="-1.646">
        <ele>49.4</ele>
        <time>2013-09-15T09:14:49Z</time>
      </trkpt>
      <trkpt lat="47.26376" lon="-1.64587">
        <ele>49.6</ele>
        <time>2013-09-15T09:14:52Z</time>
      </trkpt>
      <trkpt lat="47.2637" lon="-1.64572">
        <ele>49.7</ele>
        <time>2013-09-15T09:14:56Z</time>
      </trkpt>
      <trkpt lat="47.26365" lon="-1.64558">
        <ele>49.8</ele>
        <time>2013-09-15T09:14:59Z</time>
      </trkpt>
      <trkpt lat="47.26359" lon="-1.64545">
        <ele>49.9</ele>
        <time>2013-09-15T09:15:02Z</time>
      </trkpt>
      <trkpt lat="47.26352" lon="-1.64532">
        <ele>49.9</ele>
        <time>2013-09-15T09:15:06Z</time>
      </trkpt>
      <trkpt lat="47.26346" lon="-1.64522">
        <ele>49.8</ele>
        <time>2013-09-15T09:15:09Z</time>
      </trkpt>
      <trkpt lat="47.26339" lon="-1.64512">
        <ele>49.7</ele>
        <time>2013-09-15T09:15:12Z</time>
      </trkpt>
      <trkpt lat="47.26331" lon="-1.64499">
        <ele>49.8</ele>
        <time>2013-09-15T09:15:15Z</time>
      </trkpt>
      <trkpt lat="47.26323" lon="-1.64485">
        <ele>49.8</ele>
        <time>2013-09-15T09:15:18Z</time>
      </trkpt>
      <trkpt lat="47.26315" lon="-1.64472">
        <ele>49.7</ele>
        <time>2013-09-15T09:15:21Z</time>
      </trkpt>
      <trkpt lat="47.26307" lon="-1.6446">
        <ele>49.5</ele>
        <time>2013-09-15T09:15:24Z</time>
      </trkpt>
      <trkpt lat="47.263" lon="-1.64447">
        <ele>49.4</ele>
        <time>2013-09-15T09:15:27Z</time>
      </trkpt>
      <trkpt lat="47.26293" lon="-1.64434">
        <ele>49.2</ele>
        <time>2013-09-15T09:15:30Z</time>
      </trkpt>
      <trkpt lat="47.26284" lon="-1.64418">
        <ele>48.9</ele>
        <time>2013-09-15T09:15:33Z</time>
      </trkpt>
      <trkpt lat="47.26277" lon="-1.64406">
        <ele>49.2</ele>
        <time>2013-09-15T09:15:35Z</time>
      </trkpt>
      <trkpt lat="47.2627" lon="-1.64395">
        <ele>49.6</ele>
        <time>2013-09-15T09:15:37Z</time>
      </trkpt>
      <trkpt lat="47.26264" lon="-1.64385">
        <ele>49.9</ele>
        <time>2013-09-15T09:15:39Z</time>
      </trkpt>
      <trkpt lat="47.26256" lon="-1.64373">
        <ele>49.7</ele>
        <time>2013-09-15T09:15:42Z</time>
      </trkpt>
      <trkpt lat="47.26247" lon="-1.64362">
        <ele>49.6</ele>
        <time>2013-09-15T09:15:45Z</time>
      </trkpt>
      <trkpt lat="47.2624" lon="-1.64351">
        <ele>49.4</ele>
        <time>2013-09-15T09:15:48Z</time>
      </trkpt>
      <trkpt lat="47.26234" lon="-1.64341">
        <ele>49.3</ele>
        <time>2013-09-15T09:15:51Z</time>
      </trkpt>
      <trkpt lat="47.26227" lon="-1.64331">
        <ele>49.5</ele>
        <time>2013-09-15T09:15:54Z</time>
      </trkpt>
      <trkpt lat="47.26221" lon="-1.64321">
        <ele>49.7</ele>
        <time>2013-09-15T09:15:57Z</time>
      </trkpt>
      <trkpt lat="47.26213" lon="-1.64312">
        <ele>50</ele>
        <time>2013-09-15T09:16:00Z</time>
      </trkpt>
      <trkpt lat="47.26204" lon="-1.64315">
        <ele>50.3</ele>
        <time>2013-09-15T09:16:04Z</time>
      </trkpt>
      <trkpt lat="47.26196" lon="-1.64321">
        <ele>50.4</ele>
        <time>2013-09-15T09:16:07Z</time>
      </trkpt>
      <trkpt lat="47.26185" lon="-1.64328">
        <ele>50.6</ele>
        <time>2013-09-15T09:16:10Z</time>
      </trkpt>
      <trkpt lat="47.26177" lon="-1.64333">
        <ele>52</ele>
        <time>2013-09-15T09:16:12Z</time>
      </trkpt>
      <trkpt lat="47.26167" lon="-1.6434">
        <ele>52.7</ele>
        <time>2013-09-15T09:16:14Z</time>
      </trkpt>
      <trkpt lat="47.26157" lon="-1.64346">
        <ele>53.2</ele>
        <time>2013-09-15T09:16:16Z</time>
      </trkpt>
      <trkpt lat="47.26147" lon="-1.64352">
        <ele>53.6</ele>
        <time>2013-09-15T09:16:18Z</time>
      </trkpt>
      <trkpt lat="47.26138" lon="-1.64358">
        <ele>54.1</ele>
        <time>2013-09-15T09:16:20Z</time>
      </trkpt>
      <trkpt lat="47.26128" lon="-1.64365">
        <ele>54</ele>
        <time>2013-09-15T09:16:22Z</time>
      </trkpt>
      <trkpt lat="47.26117" lon="-1.64371">
        <ele>53.3</ele>
        <time>2013-09-15T09:16:24Z</time>
      </trkpt>
      <trkpt lat="47.26107" lon="-1.64377">
        <ele>53.2</ele>
        <time>2013-09-15T09:16:26Z</time>
      </trkpt>
      <trkpt lat="47.261" lon="-1.64387">
        <ele>53.3</ele>
        <time>2013-09-15T09:16:28Z</time>
      </trkpt>
      <trkpt lat="47.26094" lon="-1.64401">
        <ele>52.6</ele>
        <time>2013-09-15T09:16:30Z</time>
      </trkpt>
      <trkpt lat="47.26092" lon="-1.64418">
        <ele>51.8</ele>
        <time>2013-09-15T09:16:32Z</time>
      </trkpt>
      <trkpt lat="47.26095" lon="-1.64439">
        <ele>52.2</ele>
        <time>2013-09-15T09:16:34Z</time>
      </trkpt>
      <trkpt lat="47.26099" lon="-1.64461">
        <ele>53.6</ele>
        <time>2013-09-15T09:16:36Z</time>
      </trkpt>
      <trkpt lat="47.26101" lon="-1.64476">
        <ele>54.5</ele>
        <time>2013-09-15T09:16:37Z</time>
      </trkpt>
      <trkpt lat="47.26106" lon="-1.64497">
        <ele>55.3</ele>
        <time>2013-09-15T09:16:39Z</time>
      </trkpt>
      <trkpt lat="47.26111" lon="-1.64517">
        <ele>55.1</ele>
        <time>2013-09-15T09:16:41Z</time>
      </trkpt>
      <trkpt lat="47.26116" lon="-1.64536">
        <ele>55</ele>
        <time>2013-09-15T09:16:43Z</time>
      </trkpt>
      <trkpt lat="47.2612" lon="-1.64554">
        <ele>54.4</ele>
        <time>2013-09-15T09:16:45Z</time>
      </trkpt>
      <trkpt lat="47.26124" lon="-1.64572">
        <ele>53.9</ele>
        <time>2013-09-15T09:16:47Z</time>
      </trkpt>
      <trkpt lat="47.26128" lon="-1.64589">
        <ele>53.9</ele>
        <time>2013-09-15T09:16:49Z</time>
      </trkpt>
      <trkpt lat="47.26131" lon="-1.64603">
        <ele>53.9</ele>
        <time>2013-09-15T09:16:51Z</time>
      </trkpt>
      <trkpt lat="47.26134" lon="-1.64616">
        <ele>54.1</ele>
        <time>2013-09-15T09:16:53Z</time>
      </trkpt>
      <trkpt lat="47.26137" lon="-1.6463">
        <ele>54.2</ele>
        <time>2013-09-15T09:16:55Z</time>
      </trkpt>
      <trkpt lat="47.26139" lon="-1.64643">
        <ele>54.2</ele>
        <time>2013-09-15T09:16:57Z</time>
      </trkpt>
      <trkpt lat="47.26142" lon="-1.64657">
        <ele>54.4</ele>
        <time>2013-09-15T09:16:59Z</time>
      </trkpt>
      <trkpt lat="47.26144" lon="-1.64674">
        <ele>55.2</ele>
        <time>2013-09-15T09:17:01Z</time>
      </trkpt>
      <trkpt lat="47.26145" lon="-1.64688">
        <ele>55.4</ele>
        <time>2013-09-15T09:17:03Z</time>
      </trkpt>
      <trkpt lat="47.26146" lon="-1.64702">
        <ele>55.3</ele>
        <time>2013-09-15T09:17:05Z</time>
      </trkpt>
      <trkpt lat="47.26147" lon="-1.64721">
        <ele>55</ele>
        <time>2013-09-15T09:17:08Z</time>
      </trkpt>
      <trkpt lat="47.26148" lon="-1.6474">
        <ele>54.7</ele>
        <time>2013-09-15T09:17:11Z</time>
      </trkpt>
      <trkpt lat="47.26148" lon="-1.64759">
        <ele>54.6</ele>
        <time>2013-09-15T09:17:14Z</time>
      </trkpt>
      <trkpt lat="47.26148" lon="-1.64772">
        <ele>55</ele>
        <time>2013-09-15T09:17:16Z</time>
      </trkpt>
      <trkpt lat="47.26149" lon="-1.64788">
        <ele>55.2</ele>
        <time>2013-09-15T09:17:19Z</time>
      </trkpt>
      <trkpt lat="47.26148" lon="-1.64803">
        <ele>55.1</ele>
        <time>2013-09-15T09:17:22Z</time>
      </trkpt>
      <trkpt lat="47.26148" lon="-1.64819">
        <ele>55</ele>
        <time>2013-09-15T09:17:25Z</time>
      </trkpt>
      <trkpt lat="47.26147" lon="-1.64837">
        <ele>55</ele>
        <time>2013-09-15T09:17:28Z</time>
      </trkpt>
      <trkpt lat="47.26146" lon="-1.64851">
        <ele>55.1</ele>
        <time>2013-09-15T09:17:31Z</time>
      </trkpt>
      <trkpt lat="47.26145" lon="-1.64866">
        <ele>55.4</ele>
        <time>2013-09-15T09:17:34Z</time>
      </trkpt>
      <trkpt lat="47.26144" lon="-1.64883">
        <ele>55.5</ele>
        <time>2013-09-15T09:17:37Z</time>
      </trkpt>
      <trkpt lat="47.26142" lon="-1.64898">
        <ele>55.7</ele>
        <time>2013-09-15T09:17:40Z</time>
      </trkpt>
      <trkpt lat="47.2614" lon="-1.64915">
        <ele>55.9</ele>
        <time>2013-09-15T09:17:43Z</time>
      </trkpt>
      <trkpt lat="47.26138" lon="-1.64931">
        <ele>56</ele>
        <time>2013-09-15T09:17:46Z</time>
      </trkpt>
      <trkpt lat="47.26136" lon="-1.64944">
        <ele>56.1</ele>
        <time>2013-09-15T09:17:49Z</time>
      </trkpt>
      <trkpt lat="47.26135" lon="-1.64962">
        <ele>56.3</ele>
        <time>2013-09-15T09:17:53Z</time>
      </trkpt>
      <trkpt lat="47.26134" lon="-1.64982">
        <ele>56.5</ele>
        <time>2013-09-15T09:17:56Z</time>
      </trkpt>
      <trkpt lat="47.26133" lon="-1.64999">
        <ele>56.6</ele>
        <time>2013-09-15T09:17:59Z</time>
      </trkpt>
      <trkpt lat="47.26131" lon="-1.65017">
        <ele>56.9</ele>
        <time>2013-09-15T09:18:02Z</time>
      </trkpt>
      <trkpt lat="47.2613" lon="-1.65032">
        <ele>57.1</ele>
        <time>2013-09-15T09:18:05Z</time>
      </trkpt>
      <trkpt lat="47.26129" lon="-1.65046">
        <ele>57.5</ele>
        <time>2013-09-15T09:18:08Z</time>
      </trkpt>
      <trkpt lat="47.26128" lon="-1.65064">
        <ele>57.8</ele>
        <time>2013-09-15T09:18:11Z</time>
      </trkpt>
      <trkpt lat="47.26128" lon="-1.6508">
        <ele>58.1</ele>
        <time>2013-09-15T09:18:14Z</time>
      </trkpt>
      <trkpt lat="47.26127" lon="-1.65097">
        <ele>58.3</ele>
        <time>2013-09-15T09:18:17Z</time>
      </trkpt>
      <trkpt lat="47.26129" lon="-1.65112">
        <ele>58.6</ele>
        <time>2013-09-15T09:18:20Z</time>
      </trkpt>
      <trkpt lat="47.2613" lon="-1.6513">
        <ele>58.7</ele>
        <time>2013-09-15T09:18:24Z</time>
      </trkpt>
      <trkpt lat="47.2613" lon="-1.65146">
        <ele>59.2</ele>
        <time>2013-09-15T09:18:28Z</time>
      </trkpt>
      <trkpt lat="47.26132" lon="-1.65161">
        <ele>59.7</ele>
        <time>2013-09-15T09:18:31Z</time>
      </trkpt>
      <trkpt lat="47.26133" lon="-1.65179">
        <ele>60.1</ele>
        <time>2013-09-15T09:18:34Z</time>
      </trkpt>
      <trkpt lat="47.26134" lon="-1.65196">
        <ele>60.5</ele>
        <time>2013-09-15T09:18:37Z</time>
      </trkpt>
      <trkpt lat="47.26136" lon="-1.6521">
        <ele>60.9</ele>
        <time>2013-09-15T09:18:40Z</time>
      </trkpt>
      <trkpt lat="47.26138" lon="-1.65227">
        <ele>61.5</ele>
        <time>2013-09-15T09:18:44Z</time>
      </trkpt>
      <trkpt lat="47.26142" lon="-1.65243">
        <ele>61.9</ele>
        <time>2013-09-15T09:18:47Z</time>
      </trkpt>
      <trkpt lat="47.26153" lon="-1.65247">
        <ele>62.2</ele>
        <time>2013-09-15T09:18:50Z</time>
      </trkpt>
      <trkpt lat="47.26163" lon="-1.65244">
        <ele>62.4</ele>
        <time>2013-09-15T09:18:54Z</time>
      </trkpt>
      <trkpt lat="47.26172" lon="-1.65236">
        <ele>62.4</ele>
        <time>2013-09-15T09:18:59Z</time>
      </trkpt>
      <trkpt lat="47.26182" lon="-1.65232">
        <ele>62.3</ele>
        <time>2013-09-15T09:19:03Z</time>
      </trkpt>
      <trkpt lat="47.2619" lon="-1.65227">
        <ele>62.5</ele>
        <time>2013-09-15T09:19:07Z</time>
      </trkpt>
      <trkpt lat="47.262" lon="-1.65221">
        <ele>62.3</ele>
        <time>2013-09-15T09:19:12Z</time>
      </trkpt>
      <trkpt lat="47.2621" lon="-1.65226">
        <ele>61.3</ele>
        <time>2013-09-15T09:20:19Z</time>
      </trkpt>
      <trkpt lat="47.26218" lon="-1.65233">
        <ele>61.2</ele>
        <time>2013-09-15T09:20:25Z</time>
      </trkpt>
      <trkpt lat="47.26226" lon="-1.65238">
        <ele>61.1</ele>
        <time>2013-09-15T09:20:29Z</time>
      </trkpt>
      <trkpt lat="47.26236" lon="-1.65241">
        <ele>60.8</ele>
        <time>2013-09-15T09:20:34Z</time>
      </trkpt>
      <trkpt lat="47.26247" lon="-1.6524">
        <ele>60.5</ele>
        <time>2013-09-15T09:20:39Z</time>
      </trkpt>
      <trkpt lat="47.26257" lon="-1.65237">
        <ele>60</ele>
        <time>2013-09-15T09:20:43Z</time>
      </trkpt>
      <trkpt lat="47.26266" lon="-1.65233">
        <ele>59.5</ele>
        <time>2013-09-15T09:20:47Z</time>
      </trkpt>
      <trkpt lat="47.26275" lon="-1.65228">
        <ele>59.1</ele>
        <time>2013-09-15T09:20:52Z</time>
      </trkpt>
      <trkpt lat="47.26284" lon="-1.65223">
        <ele>58.5</ele>
        <time>2013-09-15T09:20:56Z</time>
      </trkpt>
      <trkpt lat="47.26295" lon="-1.65222">
        <ele>57.9</ele>
        <time>2013-09-15T09:21:00Z</time>
      </trkpt>
      <trkpt lat="47.26307" lon="-1.65222">
        <ele>57.2</ele>
        <time>2013-09-15T09:21:04Z</time>
      </trkpt>
      <trkpt lat="47.26319" lon="-1.65221">
        <ele>56.2</ele>
        <time>2013-09-15T09:21:07Z</time>
      </trkpt>
      <trkpt lat="47.26329" lon="-1.65222">
        <ele>55.5</ele>
        <time>2013-09-15T09:21:09Z</time>
      </trkpt>
      <trkpt lat="47.26341" lon="-1.65223">
        <ele>54.4</ele>
        <time>2013-09-15T09:21:12Z</time>
      </trkpt>
      <trkpt lat="47.2635" lon="-1.65225">
        <ele>50.8</ele>
        <time>2013-09-15T09:21:14Z</time>
      </trkpt>
      <trkpt lat="47.26359" lon="-1.65226">
        <ele>50.2</ele>
        <time>2013-09-15T09:21:16Z</time>
      </trkpt>
      <trkpt lat="47.26369" lon="-1.65228">
        <ele>46.9</ele>
        <time>2013-09-15T09:21:18Z</time>
      </trkpt>
      <trkpt lat="47.26379" lon="-1.6523">
        <ele>43</ele>
        <time>2013-09-15T09:21:20Z</time>
      </trkpt>
      <trkpt lat="47.26393" lon="-1.65232">
        <ele>40.3</ele>
        <time>2013-09-15T09:21:23Z</time>
      </trkpt>
      <trkpt lat="47.26403" lon="-1.65233">
        <ele>39</ele>
        <time>2013-09-15T09:21:25Z</time>
      </trkpt>
      <trkpt lat="47.26413" lon="-1.65234">
        <ele>37.4</ele>
        <time>2013-09-15T09:21:27Z</time>
      </trkpt>
      <trkpt lat="47.26423" lon="-1.65235">
        <ele>34.8</ele>
        <time>2013-09-15T09:21:29Z</time>
      </trkpt>
      <trkpt lat="47.26434" lon="-1.65237">
        <ele>32.2</ele>
        <time>2013-09-15T09:21:31Z</time>
      </trkpt>
      <trkpt lat="47.26447" lon="-1.6524">
        <ele>30.1</ele>
        <time>2013-09-15T09:21:33Z</time>
      </trkpt>
      <trkpt lat="47.26461" lon="-1.65243">
        <ele>29.1</ele>
        <time>2013-09-15T09:21:35Z</time>
      </trkpt>
      <trkpt lat="47.26475" lon="-1.65246">
        <ele>28.9</ele>
        <time>2013-09-15T09:21:37Z</time>
      </trkpt>
      <trkpt lat="47.26488" lon="-1.65248">
        <ele>28</ele>
        <time>2013-09-15T09:21:39Z</time>
      </trkpt>
      <trkpt lat="47.26502" lon="-1.65251">
        <ele>26.6</ele>
        <time>2013-09-15T09:21:41Z</time>
      </trkpt>
      <trkpt lat="47.26514" lon="-1.65253">
        <ele>25.9</ele>
        <time>2013-09-15T09:21:43Z</time>
      </trkpt>
      <trkpt lat="47.26525" lon="-1.65255">
        <ele>26.3</ele>
        <time>2013-09-15T09:21:45Z</time>
      </trkpt>
      <trkpt lat="47.26536" lon="-1.65258">
        <ele>25.5</ele>
        <time>2013-09-15T09:21:47Z</time>
      </trkpt>
      <trkpt lat="47.26547" lon="-1.65261">
        <ele>24.6</ele>
        <time>2013-09-15T09:21:49Z</time>
      </trkpt>
      <trkpt lat="47.26561" lon="-1.65263">
        <ele>26.9</ele>
        <time>2013-09-15T09:21:51Z</time>
      </trkpt>
      <trkpt lat="47.2657" lon="-1.65263">
        <ele>29.8</ele>
        <time>2013-09-15T09:21:52Z</time>
      </trkpt>
      <trkpt lat="47.2658" lon="-1.65264">
        <ele>32.7</ele>
        <time>2013-09-15T09:21:53Z</time>
      </trkpt>
      <trkpt lat="47.26592" lon="-1.65265">
        <ele>34.8</ele>
        <time>2013-09-15T09:21:55Z</time>
      </trkpt>
      <trkpt lat="47.26607" lon="-1.65272">
        <ele>36.5</ele>
        <time>2013-09-15T09:22:03Z</time>
      </trkpt>
      <trkpt lat="47.26622" lon="-1.65281">
        <ele>41.7</ele>
        <time>2013-09-15T09:23:41Z</time>
      </trkpt>
      <trkpt lat="47.26629" lon="-1.6529">
        <ele>41.9</ele>
        <time>2013-09-15T09:23:45Z</time>
      </trkpt>
      <trkpt lat="47.26638" lon="-1.65294">
        <ele>42.4</ele>
        <time>2013-09-15T09:23:51Z</time>
      </trkpt>
      <trkpt lat="47.26649" lon="-1.65295">
        <ele>43.1</ele>
        <time>2013-09-15T09:24:00Z</time>
      </trkpt>
      <trkpt lat="47.26659" lon="-1.65298">
        <ele>43.3</ele>
        <time>2013-09-15T09:24:05Z</time>
      </trkpt>
      <trkpt lat="47.26668" lon="-1.65309">
        <ele>43.3</ele>
        <time>2013-09-15T09:24:11Z</time>
      </trkpt>
      <trkpt lat="47.26683" lon="-1.65322">
        <ele>42.7</ele>
        <time>2013-09-15T09:24:24Z</time>
      </trkpt>
      <trkpt lat="47.26691" lon="-1.65332">
        <ele>42.4</ele>
        <time>2013-09-15T09:24:35Z</time>
      </trkpt>
      <trkpt lat="47.26706" lon="-1.6534">
        <ele>38.8</ele>
        <time>2013-09-15T09:24:55Z</time>
      </trkpt>
      <trkpt lat="47.26717" lon="-1.65343">
        <ele>37.9</ele>
        <time>2013-09-15T09:25:00Z</time>
      </trkpt>
      <trkpt lat="47.26727" lon="-1.65347">
        <ele>37.4</ele>
        <time>2013-09-15T09:25:04Z</time>
      </trkpt>
      <trkpt lat="47.26736" lon="-1.65352">
        <ele>37</ele>
        <time>2013-09-15T09:25:08Z</time>
      </trkpt>
      <trkpt lat="47.26747" lon="-1.65362">
        <ele>36.7</ele>
        <time>2013-09-15T09:25:12Z</time>
      </trkpt>
      <trkpt lat="47.26754" lon="-1.65372">
        <ele>36.5</ele>
        <time>2013-09-15T09:25:15Z</time>
      </trkpt>
      <trkpt lat="47.26756" lon="-1.65387">
        <ele>36.2</ele>
        <time>2013-09-15T09:25:19Z</time>
      </trkpt>
      <trkpt lat="47.26762" lon="-1.65401">
        <ele>35.8</ele>
        <time>2013-09-15T09:25:22Z</time>
      </trkpt>
      <trkpt lat="47.26766" lon="-1.65418">
        <ele>35.5</ele>
        <time>2013-09-15T09:25:25Z</time>
      </trkpt>
      <trkpt lat="47.2677" lon="-1.65436">
        <ele>35.2</ele>
        <time>2013-09-15T09:25:27Z</time>
      </trkpt>
      <trkpt lat="47.26773" lon="-1.65451">
        <ele>34.7</ele>
        <time>2013-09-15T09:25:30Z</time>
      </trkpt>
      <trkpt lat="47.26776" lon="-1.65469">
        <ele>34.8</ele>
        <time>2013-09-15T09:25:33Z</time>
      </trkpt>
      <trkpt lat="47.26778" lon="-1.65484">
        <ele>34.7</ele>
        <time>2013-09-15T09:25:36Z</time>
      </trkpt>
      <trkpt lat="47.26779" lon="-1.65501">
        <ele>34.6</ele>
        <time>2013-09-15T09:25:39Z</time>
      </trkpt>
      <trkpt lat="47.26782" lon="-1.65515">
        <ele>34.4</ele>
        <time>2013-09-15T09:25:42Z</time>
      </trkpt>
      <trkpt lat="47.26784" lon="-1.65537">
        <ele>34.1</ele>
        <time>2013-09-15T09:25:56Z</time>
      </trkpt>
      <trkpt lat="47.26784" lon="-1.65553">
        <ele>33.5</ele>
        <time>2013-09-15T09:26:00Z</time>
      </trkpt>
      <trkpt lat="47.26777" lon="-1.65566">
        <ele>33.6</ele>
        <time>2013-09-15T09:26:03Z</time>
      </trkpt>
      <trkpt lat="47.26767" lon="-1.65574">
        <ele>33.8</ele>
        <time>2013-09-15T09:26:07Z</time>
      </trkpt>
      <trkpt lat="47.2676" lon="-1.65582">
        <ele>33.7</ele>
        <time>2013-09-15T09:26:11Z</time>
      </trkpt>
      <trkpt lat="47.26752" lon="-1.6559">
        <ele>33.2</ele>
        <time>2013-09-15T09:26:15Z</time>
      </trkpt>
      <trkpt lat="47.26743" lon="-1.65598">
        <ele>32.5</ele>
        <time>2013-09-15T09:26:19Z</time>
      </trkpt>
      <trkpt lat="47.26736" lon="-1.65607">
        <ele>31.8</ele>
        <time>2013-09-15T09:26:24Z</time>
      </trkpt>
      <trkpt lat="47.26727" lon="-1.65613">
        <ele>31.2</ele>
        <time>2013-09-15T09:26:29Z</time>
      </trkpt>
      <trkpt lat="47.26719" lon="-1.6562">
        <ele>31</ele>
        <time>2013-09-15T09:26:36Z</time>
      </trkpt>
      <trkpt lat="47.26709" lon="-1.65626">
        <ele>30.8</ele>
        <time>2013-09-15T09:26:40Z</time>
      </trkpt>
      <trkpt lat="47.267" lon="-1.6563">
        <ele>30.2</ele>
        <time>2013-09-15T09:26:55Z</time>
      </trkpt>
      <trkpt lat="47.26691" lon="-1.65631">
        <ele>30.3</ele>
        <time>2013-09-15T09:27:07Z</time>
      </trkpt>
      <trkpt lat="47.26684" lon="-1.65623">
        <ele>30.8</ele>
        <time>2013-09-15T09:27:38Z</time>
      </trkpt>
      <trkpt lat="47.26672" lon="-1.65624">
        <ele>31.4</ele>
        <time>2013-09-15T09:27:47Z</time>
      </trkpt>
      <trkpt lat="47.26662" lon="-1.65625">
        <ele>31.5</ele>
        <time>2013-09-15T09:27:51Z</time>
      </trkpt>
      <trkpt lat="47.26653" lon="-1.65621">
        <ele>31.7</ele>
        <time>2013-09-15T09:27:56Z</time>
      </trkpt>
      <trkpt lat="47.26643" lon="-1.65619">
        <ele>32.1</ele>
        <time>2013-09-15T09:28:01Z</time>
      </trkpt>
      <trkpt lat="47.26634" lon="-1.65614">
        <ele>32.8</ele>
        <time>2013-09-15T09:28:05Z</time>
      </trkpt>
      <trkpt lat="47.26622" lon="-1.65613">
        <ele>33.5</ele>
        <time>2013-09-15T09:28:10Z</time>
      </trkpt>
      <trkpt lat="47.26611" lon="-1.65611">
        <ele>33.7</ele>
        <time>2013-09-15T09:28:15Z</time>
      </trkpt>
      <trkpt lat="47.26601" lon="-1.65604">
        <ele>34</ele>
        <time>2013-09-15T09:28:20Z</time>
      </trkpt>
      <trkpt lat="47.26592" lon="-1.65599">
        <ele>34.7</ele>
        <time>2013-09-15T09:28:33Z</time>
      </trkpt>
      <trkpt lat="47.26586" lon="-1.6561">
        <ele>35.6</ele>
        <time>2013-09-15T09:28:38Z</time>
      </trkpt>
      <trkpt lat="47.26584" lon="-1.65625">
        <ele>36.4</ele>
        <time>2013-09-15T09:28:43Z</time>
      </trkpt>
      <trkpt lat="47.26584" lon="-1.6564">
        <ele>37.1</ele>
        <time>2013-09-15T09:28:47Z</time>
      </trkpt>
      <trkpt lat="47.26583" lon="-1.65654">
        <ele>37.5</ele>
        <time>2013-09-15T09:28:50Z</time>
      </trkpt>
      <trkpt lat="47.26584" lon="-1.65668">
        <ele>38</ele>
        <time>2013-09-15T09:28:53Z</time>
      </trkpt>
      <trkpt lat="47.26586" lon="-1.65682">
        <ele>38.3</ele>
        <time>2013-09-15T09:28:56Z</time>
      </trkpt>
      <trkpt lat="47.26587" lon="-1.65698">
        <ele>38.4</ele>
        <time>2013-09-15T09:28:59Z</time>
      </trkpt>
      <trkpt lat="47.26587" lon="-1.65711">
        <ele>38.5</ele>
        <time>2013-09-15T09:29:02Z</time>
      </trkpt>
      <trkpt lat="47.26579" lon="-1.65722">
        <ele>38.9</ele>
        <time>2013-09-15T09:29:06Z</time>
      </trkpt>
      <trkpt lat="47.26569" lon="-1.65727">
        <ele>40.2</ele>
        <time>2013-09-15T09:29:08Z</time>
      </trkpt>
      <trkpt lat="47.26559" lon="-1.6573">
        <ele>40.4</ele>
        <time>2013-09-15T09:29:10Z</time>
      </trkpt>
      <trkpt lat="47.26549" lon="-1.65734">
        <ele>39.1</ele>
        <time>2013-09-15T09:29:12Z</time>
      </trkpt>
      <trkpt lat="47.2654" lon="-1.65737">
        <ele>35.8</ele>
        <time>2013-09-15T09:29:14Z</time>
      </trkpt>
      <trkpt lat="47.2653" lon="-1.65741">
        <ele>32.2</ele>
        <time>2013-09-15T09:29:16Z</time>
      </trkpt>
      <trkpt lat="47.26521" lon="-1.65743">
        <ele>28.9</ele>
        <time>2013-09-15T09:29:18Z</time>
      </trkpt>
      <trkpt lat="47.26511" lon="-1.65752">
        <ele>26.2</ele>
        <time>2013-09-15T09:29:21Z</time>
      </trkpt>
      <trkpt lat="47.26501" lon="-1.65764">
        <ele>23</ele>
        <time>2013-09-15T09:29:24Z</time>
      </trkpt>
      <trkpt lat="47.26503" lon="-1.65781">
        <ele>22.7</ele>
        <time>2013-09-15T09:29:28Z</time>
      </trkpt>
      <trkpt lat="47.2651" lon="-1.65794">
        <ele>22.1</ele>
        <time>2013-09-15T09:29:31Z</time>
      </trkpt>
      <trkpt lat="47.26516" lon="-1.65805">
        <ele>22</ele>
        <time>2013-09-15T09:29:33Z</time>
      </trkpt>
      <trkpt lat="47.26521" lon="-1.65817">
        <ele>21.7</ele>
        <time>2013-09-15T09:29:35Z</time>
      </trkpt>
      <trkpt lat="47.26527" lon="-1.65832">
        <ele>16.2</ele>
        <time>2013-09-15T09:29:37Z</time>
      </trkpt>
      <trkpt lat="47.26532" lon="-1.65852">
        <ele>10.6</ele>
        <time>2013-09-15T09:29:39Z</time>
      </trkpt>
      <trkpt lat="47.26534" lon="-1.65872">
        <ele>2</ele>
        <time>2013-09-15T09:29:41Z</time>
      </trkpt>
      <trkpt lat="47.26541" lon="-1.65883">
        <ele>-2</ele>
        <time>2013-09-15T09:29:43Z</time>
      </trkpt>
      <trkpt lat="47.2655" lon="-1.65898">
        <ele>-3</ele>
        <time>2013-09-15T09:29:46Z</time>
      </trkpt>
      <trkpt lat="47.26551" lon="-1.65918">
        <ele>-3.8</ele>
        <time>2013-09-15T09:29:49Z</time>
      </trkpt>
      <trkpt lat="47.26552" lon="-1.65932">
        <ele>-4.3</ele>
        <time>2013-09-15T09:29:51Z</time>
      </trkpt>
      <trkpt lat="47.26556" lon="-1.65952">
        <ele>-8.3</ele>
        <time>2013-09-15T09:29:53Z</time>
      </trkpt>
      <trkpt lat="47.26563" lon="-1.65971">
        <ele>-12.4</ele>
        <time>2013-09-15T09:29:55Z</time>
      </trkpt>
      <trkpt lat="47.26573" lon="-1.65984">
        <ele>-15.1</ele>
        <time>2013-09-15T09:29:57Z</time>
      </trkpt>
      <trkpt lat="47.26585" lon="-1.65999">
        <ele>-13.9</ele>
        <time>2013-09-15T09:29:59Z</time>
      </trkpt>
      <trkpt lat="47.26598" lon="-1.66011">
        <ele>-11.6</ele>
        <time>2013-09-15T09:30:01Z</time>
      </trkpt>
      <trkpt lat="47.26612" lon="-1.66015">
        <ele>-7.8</ele>
        <time>2013-09-15T09:30:03Z</time>
      </trkpt>
      <trkpt lat="47.2662" lon="-1.66027">
        <ele>-6.2</ele>
        <time>2013-09-15T09:30:04Z</time>
      </trkpt>
      <trkpt lat="47.26626" lon="-1.66039">
        <ele>-4.7</ele>
        <time>2013-09-15T09:30:05Z</time>
      </trkpt>
      <trkpt lat="47.26635" lon="-1.66055">
        <ele>-2.1</ele>
        <time>2013-09-15T09:30:07Z</time>
      </trkpt>
      <trkpt lat="47.26647" lon="-1.66071">
        <ele>-0.7</ele>
        <time>2013-09-15T09:30:09Z</time>
      </trkpt>
      <trkpt lat="47.26656" lon="-1.66085">
        <ele>0.6</ele>
        <time>2013-09-15T09:30:11Z</time>
      </trkpt>
      <trkpt lat="47.26662" lon="-1.66103">
        <ele>2.8</ele>
        <time>2013-09-15T09:30:13Z</time>
      </trkpt>
      <trkpt lat="47.26664" lon="-1.66118">
        <ele>3.1</ele>
        <time>2013-09-15T09:30:15Z</time>
      </trkpt>
      <trkpt lat="47.26663" lon="-1.66132">
        <ele>4.5</ele>
        <time>2013-09-15T09:30:34Z</time>
      </trkpt>
      <trkpt lat="47.26663" lon="-1.66145">
        <ele>5.4</ele>
        <time>2013-09-15T09:30:37Z</time>
      </trkpt>
      <trkpt lat="47.26662" lon="-1.6616">
        <ele>8.3</ele>
        <time>2013-09-15T09:30:46Z</time>
      </trkpt>
      <trkpt lat="47.26659" lon="-1.66176">
        <ele>10.4</ele>
        <time>2013-09-15T09:30:52Z</time>
      </trkpt>
      <trkpt lat="47.26651" lon="-1.66168">
        <ele>14.3</ele>
        <time>2013-09-15T09:31:06Z</time>
      </trkpt>
      <trkpt lat="47.2664" lon="-1.66168">
        <ele>15.1</ele>
        <time>2013-09-15T09:31:09Z</time>
      </trkpt>
      <trkpt lat="47.26626" lon="-1.66173">
        <ele>18.1</ele>
        <time>2013-09-15T09:31:12Z</time>
      </trkpt>
      <trkpt lat="47.26617" lon="-1.66181">
        <ele>18.7</ele>
        <time>2013-09-15T09:31:15Z</time>
      </trkpt>
      <trkpt lat="47.26617" lon="-1.66199">
        <ele>19.3</ele>
        <time>2013-09-15T09:31:18Z</time>
      </trkpt>
      <trkpt lat="47.26616" lon="-1.66217">
        <ele>19.9</ele>
        <time>2013-09-15T09:31:21Z</time>
      </trkpt>
      <trkpt lat="47.26612" lon="-1.66234">
        <ele>22.3</ele>
        <time>2013-09-15T09:31:24Z</time>
      </trkpt>
      <trkpt lat="47.26615" lon="-1.66256">
        <ele>22.6</ele>
        <time>2013-09-15T09:31:27Z</time>
      </trkpt>
      <trkpt lat="47.26618" lon="-1.66272">
        <ele>24.3</ele>
        <time>2013-09-15T09:31:29Z</time>
      </trkpt>
      <trkpt lat="47.26625" lon="-1.66289">
        <ele>22.7</ele>
        <time>2013-09-15T09:31:31Z</time>
      </trkpt>
      <trkpt lat="47.26632" lon="-1.66304">
        <ele>20</ele>
        <time>2013-09-15T09:31:33Z</time>
      </trkpt>
      <trkpt lat="47.26636" lon="-1.66327">
        <ele>18.7</ele>
        <time>2013-09-15T09:31:35Z</time>
      </trkpt>
      <trkpt lat="47.26641" lon="-1.6635">
        <ele>19.2</ele>
        <time>2013-09-15T09:31:37Z</time>
      </trkpt>
      <trkpt lat="47.26642" lon="-1.66373">
        <ele>22</ele>
        <time>2013-09-15T09:31:39Z</time>
      </trkpt>
      <trkpt lat="47.26645" lon="-1.66393">
        <ele>23.8</ele>
        <time>2013-09-15T09:31:41Z</time>
      </trkpt>
      <trkpt lat="47.26649" lon="-1.66411">
        <ele>25.6</ele>
        <time>2013-09-15T09:31:43Z</time>
      </trkpt>
      <trkpt lat="47.26653" lon="-1.66429">
        <ele>26.2</ele>
        <time>2013-09-15T09:31:45Z</time>
      </trkpt>
      <trkpt lat="47.26658" lon="-1.66447">
        <ele>26.2</ele>
        <time>2013-09-15T09:31:47Z</time>
      </trkpt>
      <trkpt lat="47.2666" lon="-1.66463">
        <ele>26.4</ele>
        <time>2013-09-15T09:31:49Z</time>
      </trkpt>
      <trkpt lat="47.2666" lon="-1.66479">
        <ele>26.2</ele>
        <time>2013-09-15T09:31:51Z</time>
      </trkpt>
      <trkpt lat="47.2666" lon="-1.66498">
        <ele>24.7</ele>
        <time>2013-09-15T09:31:54Z</time>
      </trkpt>
      <trkpt lat="47.26663" lon="-1.66516">
        <ele>24.1</ele>
        <time>2013-09-15T09:31:57Z</time>
      </trkpt>
      <trkpt lat="47.26664" lon="-1.6653">
        <ele>23.5</ele>
        <time>2013-09-15T09:32:01Z</time>
      </trkpt>
      <trkpt lat="47.26666" lon="-1.66544">
        <ele>23.4</ele>
        <time>2013-09-15T09:32:04Z</time>
      </trkpt>
      <trkpt lat="47.26672" lon="-1.66559">
        <ele>23.1</ele>
        <time>2013-09-15T09:32:07Z</time>
      </trkpt>
      <trkpt lat="47.26677" lon="-1.6657">
        <ele>23</ele>
        <time>2013-09-15T09:32:09Z</time>
      </trkpt>
      <trkpt lat="47.2668" lon="-1.66583">
        <ele>23</ele>
        <time>2013-09-15T09:32:11Z</time>
      </trkpt>
      <trkpt lat="47.26686" lon="-1.66597">
        <ele>23</ele>
        <time>2013-09-15T09:32:14Z</time>
      </trkpt>
      <trkpt lat="47.26692" lon="-1.6661">
        <ele>23</ele>
        <time>2013-09-15T09:32:17Z</time>
      </trkpt>
      <trkpt lat="47.267" lon="-1.66619">
        <ele>22.6</ele>
        <time>2013-09-15T09:32:25Z</time>
      </trkpt>
      <trkpt lat="47.26709" lon="-1.66616">
        <ele>21</ele>
        <time>2013-09-15T09:32:36Z</time>
      </trkpt>
      <trkpt lat="47.2672" lon="-1.66616">
        <ele>22.6</ele>
        <time>2013-09-15T09:32:53Z</time>
      </trkpt>
      <trkpt lat="47.26729" lon="-1.66612">
        <ele>23.3</ele>
        <time>2013-09-15T09:32:57Z</time>
      </trkpt>
      <trkpt lat="47.26739" lon="-1.66614">
        <ele>23.6</ele>
        <time>2013-09-15T09:33:01Z</time>
      </trkpt>
      <trkpt lat="47.26751" lon="-1.66622">
        <ele>23.3</ele>
        <time>2013-09-15T09:33:04Z</time>
      </trkpt>
      <trkpt lat="47.26761" lon="-1.66632">
        <ele>23.1</ele>
        <time>2013-09-15T09:33:06Z</time>
      </trkpt>
      <trkpt lat="47.26769" lon="-1.66639">
        <ele>23.2</ele>
        <time>2013-09-15T09:33:08Z</time>
      </trkpt>
      <trkpt lat="47.26778" lon="-1.66652">
        <ele>23.7</ele>
        <time>2013-09-15T09:33:11Z</time>
      </trkpt>
      <trkpt lat="47.26786" lon="-1.66663">
        <ele>24.5</ele>
        <time>2013-09-15T09:33:14Z</time>
      </trkpt>
      <trkpt lat="47.26793" lon="-1.66674">
        <ele>25.8</ele>
        <time>2013-09-15T09:33:17Z</time>
      </trkpt>
      <trkpt lat="47.268" lon="-1.66687">
        <ele>28</ele>
        <time>2013-09-15T09:33:22Z</time>
      </trkpt>
      <trkpt lat="47.26805" lon="-1.66698">
        <ele>29.4</ele>
        <time>2013-09-15T09:33:26Z</time>
      </trkpt>
      <trkpt lat="47.2681" lon="-1.66712">
        <ele>30.3</ele>
        <time>2013-09-15T09:33:31Z</time>
      </trkpt>
      <trkpt lat="47.26816" lon="-1.66723">
        <ele>30.6</ele>
        <time>2013-09-15T09:33:34Z</time>
      </trkpt>
      <trkpt lat="47.26823" lon="-1.66733">
        <ele>30.8</ele>
        <time>2013-09-15T09:33:37Z</time>
      </trkpt>
      <trkpt lat="47.2683" lon="-1.66745">
        <ele>31.1</ele>
        <time>2013-09-15T09:33:40Z</time>
      </trkpt>
      <trkpt lat="47.26838" lon="-1.66755">
        <ele>31.8</ele>
        <time>2013-09-15T09:33:43Z</time>
      </trkpt>
      <trkpt lat="47.26846" lon="-1.66766">
        <ele>32.2</ele>
        <time>2013-09-15T09:33:47Z</time>
      </trkpt>
      <trkpt lat="47.26855" lon="-1.66774">
        <ele>32.7</ele>
        <time>2013-09-15T09:33:51Z</time>
      </trkpt>
      <trkpt lat="47.26863" lon="-1.6678">
        <ele>32.7</ele>
        <time>2013-09-15T09:33:54Z</time>
      </trkpt>
      <trkpt lat="47.26872" lon="-1.66786">
        <ele>32.5</ele>
        <time>2013-09-15T09:33:57Z</time>
      </trkpt>
      <trkpt lat="47.26881" lon="-1.66792">
        <ele>32.4</ele>
        <time>2013-09-15T09:34:00Z</time>
      </trkpt>
      <trkpt lat="47.2689" lon="-1.668">
        <ele>32.4</ele>
        <time>2013-09-15T09:34:03Z</time>
      </trkpt>
      <trkpt lat="47.26899" lon="-1.66811">
        <ele>32.7</ele>
        <time>2013-09-15T09:34:07Z</time>
      </trkpt>
      <trkpt lat="47.26908" lon="-1.66821">
        <ele>33.7</ele>
        <time>2013-09-15T09:34:12Z</time>
      </trkpt>
      <trkpt lat="47.26914" lon="-1.6683">
        <ele>34.2</ele>
        <time>2013-09-15T09:34:16Z</time>
      </trkpt>
      <trkpt lat="47.26918" lon="-1.66842">
        <ele>34.6</ele>
        <time>2013-09-15T09:34:20Z</time>
      </trkpt>
      <trkpt lat="47.26919" lon="-1.66858">
        <ele>35.1</ele>
        <time>2013-09-15T09:34:24Z</time>
      </trkpt>
      <trkpt lat="47.26922" lon="-1.66872">
        <ele>36.1</ele>
        <time>2013-09-15T09:34:29Z</time>
      </trkpt>
      <trkpt lat="47.26927" lon="-1.66885">
        <ele>37.2</ele>
        <time>2013-09-15T09:34:34Z</time>
      </trkpt>
      <trkpt lat="47.26932" lon="-1.66901">
        <ele>38.1</ele>
        <time>2013-09-15T09:34:39Z</time>
      </trkpt>
      <trkpt lat="47.26936" lon="-1.66917">
        <ele>39.2</ele>
        <time>2013-09-15T09:34:43Z</time>
      </trkpt>
      <trkpt lat="47.26936" lon="-1.66935">
        <ele>40</ele>
        <time>2013-09-15T09:34:46Z</time>
      </trkpt>
      <trkpt lat="47.26935" lon="-1.66949">
        <ele>40.7</ele>
        <time>2013-09-15T09:34:49Z</time>
      </trkpt>
      <trkpt lat="47.26933" lon="-1.66962">
        <ele>41.1</ele>
        <time>2013-09-15T09:34:52Z</time>
      </trkpt>
      <trkpt lat="47.26927" lon="-1.66981">
        <ele>40.7</ele>
        <time>2013-09-15T09:34:55Z</time>
      </trkpt>
      <trkpt lat="47.26923" lon="-1.66998">
        <ele>40</ele>
        <time>2013-09-15T09:34:58Z</time>
      </trkpt>
      <trkpt lat="47.26922" lon="-1.67015">
        <ele>39</ele>
        <time>2013-09-15T09:35:01Z</time>
      </trkpt>
      <trkpt lat="47.26923" lon="-1.67032">
        <ele>38.1</ele>
        <time>2013-09-15T09:35:05Z</time>
      </trkpt>
      <trkpt lat="47.26923" lon="-1.67046">
        <ele>37.9</ele>
        <time>2013-09-15T09:35:07Z</time>
      </trkpt>
      <trkpt lat="47.2692" lon="-1.67064">
        <ele>37.6</ele>
        <time>2013-09-15T09:35:10Z</time>
      </trkpt>
      <trkpt lat="47.26917" lon="-1.67079">
        <ele>37.1</ele>
        <time>2013-09-15T09:35:13Z</time>
      </trkpt>
      <trkpt lat="47.26915" lon="-1.67092">
        <ele>36.5</ele>
        <time>2013-09-15T09:35:16Z</time>
      </trkpt>
      <trkpt lat="47.26913" lon="-1.67107">
        <ele>35.8</ele>
        <time>2013-09-15T09:35:19Z</time>
      </trkpt>
      <trkpt lat="47.26906" lon="-1.67122">
        <ele>34.7</ele>
        <time>2013-09-15T09:35:22Z</time>
      </trkpt>
      <trkpt lat="47.26895" lon="-1.67128">
        <ele>33.2</ele>
        <time>2013-09-15T09:35:26Z</time>
      </trkpt>
      <trkpt lat="47.26886" lon="-1.6713">
        <ele>30.7</ele>
        <time>2013-09-15T09:35:36Z</time>
      </trkpt>
      <trkpt lat="47.26877" lon="-1.67134">
        <ele>33.1</ele>
        <time>2013-09-15T09:36:11Z</time>
      </trkpt>
      <trkpt lat="47.26868" lon="-1.67136">
        <ele>33.9</ele>
        <time>2013-09-15T09:36:15Z</time>
      </trkpt>
      <trkpt lat="47.2686" lon="-1.67132">
        <ele>34.6</ele>
        <time>2013-09-15T09:36:20Z</time>
      </trkpt>
      <trkpt lat="47.2685" lon="-1.67125">
        <ele>35.2</ele>
        <time>2013-09-15T09:36:24Z</time>
      </trkpt>
      <trkpt lat="47.26842" lon="-1.67117">
        <ele>35.4</ele>
        <time>2013-09-15T09:36:27Z</time>
      </trkpt>
      <trkpt lat="47.26834" lon="-1.67106">
        <ele>35.6</ele>
        <time>2013-09-15T09:36:31Z</time>
      </trkpt>
      <trkpt lat="47.26825" lon="-1.67096">
        <ele>35.7</ele>
        <time>2013-09-15T09:36:35Z</time>
      </trkpt>
      <trkpt lat="47.26816" lon="-1.6709">
        <ele>36</ele>
        <time>2013-09-15T09:36:40Z</time>
      </trkpt>
      <trkpt lat="47.26807" lon="-1.67095">
        <ele>36.1</ele>
        <time>2013-09-15T09:36:45Z</time>
      </trkpt>
      <trkpt lat="47.26804" lon="-1.67108">
        <ele>36.1</ele>
        <time>2013-09-15T09:36:50Z</time>
      </trkpt>
      <trkpt lat="47.26801" lon="-1.67122">
        <ele>36.3</ele>
        <time>2013-09-15T09:36:56Z</time>
      </trkpt>
      <trkpt lat="47.26792" lon="-1.67129">
        <ele>36.2</ele>
        <time>2013-09-15T09:37:01Z</time>
      </trkpt>
      <trkpt lat="47.26784" lon="-1.67134">
        <ele>35.9</ele>
        <time>2013-09-15T09:37:06Z</time>
      </trkpt>
      <trkpt lat="47.26775" lon="-1.67135">
        <ele>35.6</ele>
        <time>2013-09-15T09:37:18Z</time>
      </trkpt>
      <trkpt lat="47.26766" lon="-1.67139">
        <ele>35.8</ele>
        <time>2013-09-15T09:37:26Z</time>
      </trkpt>
      <trkpt lat="47.26775" lon="-1.6714">
        <ele>35.9</ele>
        <time>2013-09-15T09:37:31Z</time>
      </trkpt>
      <trkpt lat="47.26785" lon="-1.67142">
        <ele>35.4</ele>
        <time>2013-09-15T09:37:58Z</time>
      </trkpt>
      <trkpt lat="47.26795" lon="-1.67141">
        <ele>35.5</ele>
        <time>2013-09-15T09:38:01Z</time>
      </trkpt>
      <trkpt lat="47.26809" lon="-1.67141">
        <ele>35.8</ele>
        <time>2013-09-15T09:38:04Z</time>
      </trkpt>
      <trkpt lat="47.26818" lon="-1.67144">
        <ele>35.9</ele>
        <time>2013-09-15T09:38:07Z</time>
      </trkpt>
      <trkpt lat="47.26829" lon="-1.67144">
        <ele>35.5</ele>
        <time>2013-09-15T09:38:13Z</time>
      </trkpt>
      <trkpt lat="47.26836" lon="-1.67154">
        <ele>34.8</ele>
        <time>2013-09-15T09:38:16Z</time>
      </trkpt>
      <trkpt lat="47.26841" lon="-1.67168">
        <ele>34.1</ele>
        <time>2013-09-15T09:38:19Z</time>
      </trkpt>
      <trkpt lat="47.26844" lon="-1.67184">
        <ele>33.4</ele>
        <time>2013-09-15T09:38:22Z</time>
      </trkpt>
      <trkpt lat="47.26848" lon="-1.67196">
        <ele>32.8</ele>
        <time>2013-09-15T09:38:25Z</time>
      </trkpt>
      <trkpt lat="47.26852" lon="-1.67209">
        <ele>32.3</ele>
        <time>2013-09-15T09:38:28Z</time>
      </trkpt>
      <trkpt lat="47.26858" lon="-1.6722">
        <ele>31.9</ele>
        <time>2013-09-15T09:38:30Z</time>
      </trkpt>
      <trkpt lat="47.26868" lon="-1.67233">
        <ele>31.5</ele>
        <time>2013-09-15T09:38:33Z</time>
      </trkpt>
      <trkpt lat="47.26879" lon="-1.6724">
        <ele>31</ele>
        <time>2013-09-15T09:38:36Z</time>
      </trkpt>
      <trkpt lat="47.26888" lon="-1.67248">
        <ele>30</ele>
        <time>2013-09-15T09:38:38Z</time>
      </trkpt>
      <trkpt lat="47.26898" lon="-1.67253">
        <ele>29.9</ele>
        <time>2013-09-15T09:38:40Z</time>
      </trkpt>
      <trkpt lat="47.26911" lon="-1.67253">
        <ele>30.1</ele>
        <time>2013-09-15T09:38:43Z</time>
      </trkpt>
      <trkpt lat="47.26923" lon="-1.67249">
        <ele>29</ele>
        <time>2013-09-15T09:38:46Z</time>
      </trkpt>
      <trkpt lat="47.26935" lon="-1.67254">
        <ele>28.5</ele>
        <time>2013-09-15T09:38:49Z</time>
      </trkpt>
      <trkpt lat="47.26947" lon="-1.67252">
        <ele>26.7</ele>
        <time>2013-09-15T09:38:52Z</time>
      </trkpt>
      <trkpt lat="47.26957" lon="-1.67247">
        <ele>24.3</ele>
        <time>2013-09-15T09:38:54Z</time>
      </trkpt>
      <trkpt lat="47.26966" lon="-1.67243">
        <ele>22</ele>
        <time>2013-09-15T09:38:56Z</time>
      </trkpt>
      <trkpt lat="47.26979" lon="-1.67239">
        <ele>18.7</ele>
        <time>2013-09-15T09:38:59Z</time>
      </trkpt>
      <trkpt lat="47.26992" lon="-1.67238">
        <ele>16.9</ele>
        <time>2013-09-15T09:39:01Z</time>
      </trkpt>
      <trkpt lat="47.27005" lon="-1.67236">
        <ele>15.8</ele>
        <time>2013-09-15T09:39:03Z</time>
      </trkpt>
      <trkpt lat="47.27017" lon="-1.67233">
        <ele>15.5</ele>
        <time>2013-09-15T09:39:05Z</time>
      </trkpt>
      <trkpt lat="47.2703" lon="-1.67231">
        <ele>15.9</ele>
        <time>2013-09-15T09:39:07Z</time>
      </trkpt>
      <trkpt lat="47.27041" lon="-1.67239">
        <ele>15.6</ele>
        <time>2013-09-15T09:39:11Z</time>
      </trkpt>
      <trkpt lat="47.27055" lon="-1.67247">
        <ele>14.3</ele>
        <time>2013-09-15T09:39:13Z</time>
      </trkpt>
      <trkpt lat="47.27069" lon="-1.67255">
        <ele>13.6</ele>
        <time>2013-09-15T09:39:15Z</time>
      </trkpt>
      <trkpt lat="47.2708" lon="-1.67268">
        <ele>14.2</ele>
        <time>2013-09-15T09:39:17Z</time>
      </trkpt>
      <trkpt lat="47.27084" lon="-1.67281">
        <ele>14.9</ele>
        <time>2013-09-15T09:39:19Z</time>
      </trkpt>
      <trkpt lat="47.27082" lon="-1.67301">
        <ele>18.2</ele>
        <time>2013-09-15T09:39:22Z</time>
      </trkpt>
      <trkpt lat="47.27075" lon="-1.67315">
        <ele>19</ele>
        <time>2013-09-15T09:39:25Z</time>
      </trkpt>
      <trkpt lat="47.27069" lon="-1.67326">
        <ele>19.9</ele>
        <time>2013-09-15T09:39:28Z</time>
      </trkpt>
      <trkpt lat="47.27065" lon="-1.67342">
        <ele>20.8</ele>
        <time>2013-09-15T09:39:32Z</time>
      </trkpt>
      <trkpt lat="47.27067" lon="-1.6736">
        <ele>21.4</ele>
        <time>2013-09-15T09:39:35Z</time>
      </trkpt>
      <trkpt lat="47.27068" lon="-1.67378">
        <ele>22</ele>
        <time>2013-09-15T09:39:38Z</time>
      </trkpt>
      <trkpt lat="47.27069" lon="-1.67397">
        <ele>24.5</ele>
        <time>2013-09-15T09:39:41Z</time>
      </trkpt>
      <trkpt lat="47.27076" lon="-1.6741">
        <ele>24.8</ele>
        <time>2013-09-15T09:39:44Z</time>
      </trkpt>
      <trkpt lat="47.2708" lon="-1.67424">
        <ele>25.1</ele>
        <time>2013-09-15T09:39:46Z</time>
      </trkpt>
      <trkpt lat="47.2708" lon="-1.67438">
        <ele>25.4</ele>
        <time>2013-09-15T09:39:48Z</time>
      </trkpt>
      <trkpt lat="47.2708" lon="-1.67456">
        <ele>25.9</ele>
        <time>2013-09-15T09:39:51Z</time>
      </trkpt>
      <trkpt lat="47.27081" lon="-1.67472">
        <ele>26.4</ele>
        <time>2013-09-15T09:39:54Z</time>
      </trkpt>
      <trkpt lat="47.27083" lon="-1.6749">
        <ele>27.1</ele>
        <time>2013-09-15T09:39:57Z</time>
      </trkpt>
      <trkpt lat="47.27083" lon="-1.67505">
        <ele>27.4</ele>
        <time>2013-09-15T09:39:59Z</time>
      </trkpt>
      <trkpt lat="47.27081" lon="-1.67521">
        <ele>27.7</ele>
        <time>2013-09-15T09:40:01Z</time>
      </trkpt>
      <trkpt lat="47.27084" lon="-1.67537">
        <ele>27.7</ele>
        <time>2013-09-15T09:40:04Z</time>
      </trkpt>
      <trkpt lat="47.27088" lon="-1.67549">
        <ele>27.5</ele>
        <time>2013-09-15T09:40:07Z</time>
      </trkpt>
      <trkpt lat="47.27095" lon="-1.67563">
        <ele>27.2</ele>
        <time>2013-09-15T09:40:10Z</time>
      </trkpt>
      <trkpt lat="47.27102" lon="-1.67578">
        <ele>26.3</ele>
        <time>2013-09-15T09:40:13Z</time>
      </trkpt>
      <trkpt lat="47.27106" lon="-1.67591">
        <ele>24.2</ele>
        <time>2013-09-15T09:40:15Z</time>
      </trkpt>
      <trkpt lat="47.2711" lon="-1.67606">
        <ele>24</ele>
        <time>2013-09-15T09:40:17Z</time>
      </trkpt>
      <trkpt lat="47.27115" lon="-1.67626">
        <ele>22.9</ele>
        <time>2013-09-15T09:40:20Z</time>
      </trkpt>
      <trkpt lat="47.27119" lon="-1.67642">
        <ele>22.8</ele>
        <time>2013-09-15T09:40:23Z</time>
      </trkpt>
      <trkpt lat="47.27122" lon="-1.67663">
        <ele>22.8</ele>
        <time>2013-09-15T09:40:26Z</time>
      </trkpt>
      <trkpt lat="47.2712" lon="-1.67677">
        <ele>23.1</ele>
        <time>2013-09-15T09:40:28Z</time>
      </trkpt>
      <trkpt lat="47.27119" lon="-1.67696">
        <ele>23.5</ele>
        <time>2013-09-15T09:40:31Z</time>
      </trkpt>
      <trkpt lat="47.27116" lon="-1.67713">
        <ele>24.1</ele>
        <time>2013-09-15T09:40:34Z</time>
      </trkpt>
      <trkpt lat="47.27112" lon="-1.67731">
        <ele>24.7</ele>
        <time>2013-09-15T09:40:37Z</time>
      </trkpt>
      <trkpt lat="47.27108" lon="-1.67754">
        <ele>25.5</ele>
        <time>2013-09-15T09:40:40Z</time>
      </trkpt>
      <trkpt lat="47.27102" lon="-1.6777">
        <ele>30.6</ele>
        <time>2013-09-15T09:40:42Z</time>
      </trkpt>
      <trkpt lat="47.27098" lon="-1.67787">
        <ele>33.1</ele>
        <time>2013-09-15T09:40:44Z</time>
      </trkpt>
      <trkpt lat="47.27092" lon="-1.67806">
        <ele>34.7</ele>
        <time>2013-09-15T09:40:46Z</time>
      </trkpt>
      <trkpt lat="47.27086" lon="-1.67822">
        <ele>36</ele>
        <time>2013-09-15T09:40:48Z</time>
      </trkpt>
      <trkpt lat="47.27079" lon="-1.67836">
        <ele>37.1</ele>
        <time>2013-09-15T09:40:50Z</time>
      </trkpt>
      <trkpt lat="47.27073" lon="-1.67851">
        <ele>38.5</ele>
        <time>2013-09-15T09:40:52Z</time>
      </trkpt>
      <trkpt lat="47.27068" lon="-1.67865">
        <ele>38.5</ele>
        <time>2013-09-15T09:40:54Z</time>
      </trkpt>
      <trkpt lat="47.27064" lon="-1.67877">
        <ele>38.5</ele>
        <time>2013-09-15T09:40:56Z</time>
      </trkpt>
      <trkpt lat="47.2706" lon="-1.6789">
        <ele>38.4</ele>
        <time>2013-09-15T09:40:58Z</time>
      </trkpt>
      <trkpt lat="47.27055" lon="-1.67904">
        <ele>38.4</ele>
        <time>2013-09-15T09:41:00Z</time>
      </trkpt>
      <trkpt lat="47.27053" lon="-1.67916">
        <ele>38.5</ele>
        <time>2013-09-15T09:41:02Z</time>
      </trkpt>
      <trkpt lat="47.27049" lon="-1.67934">
        <ele>38.8</ele>
        <time>2013-09-15T09:41:05Z</time>
      </trkpt>
      <trkpt lat="47.27047" lon="-1.67948">
        <ele>39</ele>
        <time>2013-09-15T09:41:07Z</time>
      </trkpt>
      <trkpt lat="47.27045" lon="-1.67965">
        <ele>39.1</ele>
        <time>2013-09-15T09:41:10Z</time>
      </trkpt>
      <trkpt lat="47.27043" lon="-1.6798">
        <ele>39.1</ele>
        <time>2013-09-15T09:41:12Z</time>
      </trkpt>
      <trkpt lat="47.2704" lon="-1.67995">
        <ele>39.5</ele>
        <time>2013-09-15T09:41:15Z</time>
      </trkpt>
      <trkpt lat="47.27036" lon="-1.68007">
        <ele>39.4</ele>
        <time>2013-09-15T09:41:19Z</time>
      </trkpt>
      <trkpt lat="47.27033" lon="-1.68022">
        <ele>39.3</ele>
        <time>2013-09-15T09:41:22Z</time>
      </trkpt>
      <trkpt lat="47.27033" lon="-1.68037">
        <ele>39.3</ele>
        <time>2013-09-15T09:41:25Z</time>
      </trkpt>
      <trkpt lat="47.27035" lon="-1.68051">
        <ele>39.3</ele>
        <time>2013-09-15T09:41:29Z</time>
      </trkpt>
      <trkpt lat="47.27037" lon="-1.68065">
        <ele>39.1</ele>
        <time>2013-09-15T09:41:35Z</time>
      </trkpt>
      <trkpt lat="47.27042" lon="-1.68077">
        <ele>37.5</ele>
        <time>2013-09-15T09:42:04Z</time>
      </trkpt>
      <trkpt lat="47.27043" lon="-1.68093">
        <ele>37.3</ele>
        <time>2013-09-15T09:42:12Z</time>
      </trkpt>
      <trkpt lat="47.27047" lon="-1.68107">
        <ele>37.2</ele>
        <time>2013-09-15T09:42:18Z</time>
      </trkpt>
      <trkpt lat="47.27049" lon="-1.6812">
        <ele>37.8</ele>
        <time>2013-09-15T09:42:24Z</time>
      </trkpt>
      <trkpt lat="47.27052" lon="-1.68134">
        <ele>38</ele>
        <time>2013-09-15T09:42:30Z</time>
      </trkpt>
      <trkpt lat="47.27056" lon="-1.68147">
        <ele>37.9</ele>
        <time>2013-09-15T09:42:37Z</time>
      </trkpt>
      <trkpt lat="47.27062" lon="-1.68163">
        <ele>38.6</ele>
        <time>2013-09-15T09:42:42Z</time>
      </trkpt>
      <trkpt lat="47.27065" lon="-1.68176">
        <ele>38.8</ele>
        <time>2013-09-15T09:42:46Z</time>
      </trkpt>
      <trkpt lat="47.27065" lon="-1.6819">
        <ele>38.4</ele>
        <time>2013-09-15T09:42:50Z</time>
      </trkpt>
      <trkpt lat="47.27066" lon="-1.68204">
        <ele>37.9</ele>
        <time>2013-09-15T09:42:55Z</time>
      </trkpt>
      <trkpt lat="47.27068" lon="-1.6819">
        <ele>38.5</ele>
        <time>2013-09-15T09:43:07Z</time>
      </trkpt>
      <trkpt lat="47.27062" lon="-1.68179">
        <ele>38.9</ele>
        <time>2013-09-15T09:43:15Z</time>
      </trkpt>
      <trkpt lat="47.27062" lon="-1.68192">
        <ele>39.8</ele>
        <time>2013-09-15T09:43:31Z</time>
      </trkpt>
      <trkpt lat="47.27063" lon="-1.68207">
        <ele>40.5</ele>
        <time>2013-09-15T09:43:47Z</time>
      </trkpt>
      <trkpt lat="47.27059" lon="-1.68222">
        <ele>40.6</ele>
        <time>2013-09-15T09:43:52Z</time>
      </trkpt>
      <trkpt lat="47.27056" lon="-1.68236">
        <ele>40.8</ele>
        <time>2013-09-15T09:43:57Z</time>
      </trkpt>
      <trkpt lat="47.27058" lon="-1.68249">
        <ele>41</ele>
        <time>2013-09-15T09:44:02Z</time>
      </trkpt>
      <trkpt lat="47.27056" lon="-1.68266">
        <ele>41.3</ele>
        <time>2013-09-15T09:44:07Z</time>
      </trkpt>
      <trkpt lat="47.27053" lon="-1.68281">
        <ele>41.9</ele>
        <time>2013-09-15T09:44:12Z</time>
      </trkpt>
      <trkpt lat="47.27049" lon="-1.68295">
        <ele>42.3</ele>
        <time>2013-09-15T09:44:17Z</time>
      </trkpt>
      <trkpt lat="47.27045" lon="-1.6831">
        <ele>42.6</ele>
        <time>2013-09-15T09:44:22Z</time>
      </trkpt>
      <trkpt lat="47.27038" lon="-1.68325">
        <ele>42.8</ele>
        <time>2013-09-15T09:44:25Z</time>
      </trkpt>
      <trkpt lat="47.27034" lon="-1.68336">
        <ele>43.1</ele>
        <time>2013-09-15T09:44:27Z</time>
      </trkpt>
      <trkpt lat="47.27028" lon="-1.6835">
        <ele>43.7</ele>
        <time>2013-09-15T09:44:30Z</time>
      </trkpt>
      <trkpt lat="47.27021" lon="-1.6836">
        <ele>45</ele>
        <time>2013-09-15T09:44:35Z</time>
      </trkpt>
      <trkpt lat="47.27014" lon="-1.68371">
        <ele>45.9</ele>
        <time>2013-09-15T09:44:40Z</time>
      </trkpt>
      <trkpt lat="47.27009" lon="-1.68382">
        <ele>46.8</ele>
        <time>2013-09-15T09:44:44Z</time>
      </trkpt>
      <trkpt lat="47.27003" lon="-1.68396">
        <ele>49.2</ele>
        <time>2013-09-15T09:44:53Z</time>
      </trkpt>
      <trkpt lat="47.26999" lon="-1.68407">
        <ele>52.5</ele>
        <time>2013-09-15T09:45:15Z</time>
      </trkpt>
      <trkpt lat="47.26996" lon="-1.68421">
        <ele>53.7</ele>
        <time>2013-09-15T09:45:19Z</time>
      </trkpt>
      <trkpt lat="47.26991" lon="-1.68432">
        <ele>54.8</ele>
        <time>2013-09-15T09:45:27Z</time>
      </trkpt>
      <trkpt lat="47.26989" lon="-1.68445">
        <ele>57.2</ele>
        <time>2013-09-15T09:46:21Z</time>
      </trkpt>
      <trkpt lat="47.26997" lon="-1.68458">
        <ele>60</ele>
        <time>2013-09-15T09:46:24Z</time>
      </trkpt>
      <trkpt lat="47.27007" lon="-1.68466">
        <ele>60.1</ele>
        <time>2013-09-15T09:46:27Z</time>
      </trkpt>
      <trkpt lat="47.27015" lon="-1.68473">
        <ele>60.3</ele>
        <time>2013-09-15T09:46:32Z</time>
      </trkpt>
      <trkpt lat="47.27026" lon="-1.68485">
        <ele>59.9</ele>
        <time>2013-09-15T09:46:38Z</time>
      </trkpt>
      <trkpt lat="47.27034" lon="-1.68497">
        <ele>59.7</ele>
        <time>2013-09-15T09:46:41Z</time>
      </trkpt>
      <trkpt lat="47.27041" lon="-1.68506">
        <ele>59.4</ele>
        <time>2013-09-15T09:46:44Z</time>
      </trkpt>
      <trkpt lat="47.27044" lon="-1.68521">
        <ele>58.8</ele>
        <time>2013-09-15T09:46:49Z</time>
      </trkpt>
      <trkpt lat="47.27036" lon="-1.68533">
        <ele>58</ele>
        <time>2013-09-15T09:46:53Z</time>
      </trkpt>
      <trkpt lat="47.27028" lon="-1.68542">
        <ele>57.8</ele>
        <time>2013-09-15T09:46:55Z</time>
      </trkpt>
      <trkpt lat="47.27022" lon="-1.68554">
        <ele>55.6</ele>
        <time>2013-09-15T09:46:57Z</time>
      </trkpt>
      <trkpt lat="47.27016" lon="-1.68566">
        <ele>54.3</ele>
        <time>2013-09-15T09:46:59Z</time>
      </trkpt>
      <trkpt lat="47.27008" lon="-1.68577">
        <ele>54.6</ele>
        <time>2013-09-15T09:47:01Z</time>
      </trkpt>
      <trkpt lat="47.27001" lon="-1.68587">
        <ele>55.1</ele>
        <time>2013-09-15T09:47:03Z</time>
      </trkpt>
      <trkpt lat="47.26994" lon="-1.68602">
        <ele>54.9</ele>
        <time>2013-09-15T09:47:06Z</time>
      </trkpt>
      <trkpt lat="47.26989" lon="-1.68617">
        <ele>54</ele>
        <time>2013-09-15T09:47:09Z</time>
      </trkpt>
      <trkpt lat="47.26981" lon="-1.68632">
        <ele>53.5</ele>
        <time>2013-09-15T09:47:12Z</time>
      </trkpt>
      <trkpt lat="47.26976" lon="-1.68644">
        <ele>54.3</ele>
        <time>2013-09-15T09:47:14Z</time>
      </trkpt>
      <trkpt lat="47.26968" lon="-1.68659">
        <ele>54.8</ele>
        <time>2013-09-15T09:47:17Z</time>
      </trkpt>
      <trkpt lat="47.26962" lon="-1.68671">
        <ele>55</ele>
        <time>2013-09-15T09:47:20Z</time>
      </trkpt>
      <trkpt lat="47.26955" lon="-1.6868">
        <ele>55.3</ele>
        <time>2013-09-15T09:47:25Z</time>
      </trkpt>
      <trkpt lat="47.26943" lon="-1.6868">
        <ele>55.9</ele>
        <time>2013-09-15T09:47:29Z</time>
      </trkpt>
      <trkpt lat="47.26934" lon="-1.68674">
        <ele>56.1</ele>
        <time>2013-09-15T09:47:31Z</time>
      </trkpt>
      <trkpt lat="47.26926" lon="-1.68669">
        <ele>56.4</ele>
        <time>2013-09-15T09:47:33Z</time>
      </trkpt>
      <trkpt lat="47.26918" lon="-1.68663">
        <ele>58.6</ele>
        <time>2013-09-15T09:47:35Z</time>
      </trkpt>
      <trkpt lat="47.26906" lon="-1.68654">
        <ele>60.3</ele>
        <time>2013-09-15T09:47:38Z</time>
      </trkpt>
      <trkpt lat="47.26896" lon="-1.68644">
        <ele>61.7</ele>
        <time>2013-09-15T09:47:41Z</time>
      </trkpt>
      <trkpt lat="47.26886" lon="-1.68631">
        <ele>61</ele>
        <time>2013-09-15T09:47:44Z</time>
      </trkpt>
      <trkpt lat="47.26879" lon="-1.68623">
        <ele>61</ele>
        <time>2013-09-15T09:47:46Z</time>
      </trkpt>
      <trkpt lat="47.26872" lon="-1.68614">
        <ele>61.9</ele>
        <time>2013-09-15T09:47:48Z</time>
      </trkpt>
      <trkpt lat="47.26865" lon="-1.68605">
        <ele>62.2</ele>
        <time>2013-09-15T09:47:50Z</time>
      </trkpt>
      <trkpt lat="47.26855" lon="-1.68592">
        <ele>62.8</ele>
        <time>2013-09-15T09:47:53Z</time>
      </trkpt>
      <trkpt lat="47.26846" lon="-1.68581">
        <ele>63</ele>
        <time>2013-09-15T09:47:56Z</time>
      </trkpt>
      <trkpt lat="47.26837" lon="-1.68569">
        <ele>63.3</ele>
        <time>2013-09-15T09:47:59Z</time>
      </trkpt>
      <trkpt lat="47.26827" lon="-1.68556">
        <ele>62.2</ele>
        <time>2013-09-15T09:48:02Z</time>
      </trkpt>
      <trkpt lat="47.26818" lon="-1.68542">
        <ele>60.8</ele>
        <time>2013-09-15T09:48:05Z</time>
      </trkpt>
      <trkpt lat="47.26812" lon="-1.68531">
        <ele>60.8</ele>
        <time>2013-09-15T09:48:07Z</time>
      </trkpt>
      <trkpt lat="47.26804" lon="-1.68519">
        <ele>61.9</ele>
        <time>2013-09-15T09:48:09Z</time>
      </trkpt>
      <trkpt lat="47.26797" lon="-1.6851">
        <ele>62.9</ele>
        <time>2013-09-15T09:48:11Z</time>
      </trkpt>
      <trkpt lat="47.2679" lon="-1.68501">
        <ele>64.2</ele>
        <time>2013-09-15T09:48:13Z</time>
      </trkpt>
      <trkpt lat="47.26783" lon="-1.68491">
        <ele>65.2</ele>
        <time>2013-09-15T09:48:15Z</time>
      </trkpt>
      <trkpt lat="47.26775" lon="-1.68479">
        <ele>65</ele>
        <time>2013-09-15T09:48:18Z</time>
      </trkpt>
      <trkpt lat="47.26767" lon="-1.68466">
        <ele>64.6</ele>
        <time>2013-09-15T09:48:21Z</time>
      </trkpt>
      <trkpt lat="47.26759" lon="-1.68451">
        <ele>63.4</ele>
        <time>2013-09-15T09:48:24Z</time>
      </trkpt>
      <trkpt lat="47.26754" lon="-1.68439">
        <ele>63.2</ele>
        <time>2013-09-15T09:48:26Z</time>
      </trkpt>
      <trkpt lat="47.26749" lon="-1.68428">
        <ele>62.6</ele>
        <time>2013-09-15T09:48:28Z</time>
      </trkpt>
      <trkpt lat="47.26744" lon="-1.68415">
        <ele>62.2</ele>
        <time>2013-09-15T09:48:30Z</time>
      </trkpt>
      <trkpt lat="47.26739" lon="-1.68403">
        <ele>61.9</ele>
        <time>2013-09-15T09:48:32Z</time>
      </trkpt>
      <trkpt lat="47.26734" lon="-1.68391">
        <ele>61.8</ele>
        <time>2013-09-15T09:48:34Z</time>
      </trkpt>
      <trkpt lat="47.26728" lon="-1.6838">
        <ele>62</ele>
        <time>2013-09-15T09:48:36Z</time>
      </trkpt>
      <trkpt lat="47.26721" lon="-1.68369">
        <ele>63</ele>
        <time>2013-09-15T09:48:38Z</time>
      </trkpt>
      <trkpt lat="47.26714" lon="-1.68353">
        <ele>63.3</ele>
        <time>2013-09-15T09:48:41Z</time>
      </trkpt>
      <trkpt lat="47.26709" lon="-1.6834">
        <ele>63.3</ele>
        <time>2013-09-15T09:48:43Z</time>
      </trkpt>
      <trkpt lat="47.26705" lon="-1.68328">
        <ele>62.9</ele>
        <time>2013-09-15T09:48:45Z</time>
      </trkpt>
      <trkpt lat="47.26699" lon="-1.68312">
        <ele>62.8</ele>
        <time>2013-09-15T09:48:48Z</time>
      </trkpt>
      <trkpt lat="47.26694" lon="-1.683">
        <ele>63</ele>
        <time>2013-09-15T09:48:50Z</time>
      </trkpt>
      <trkpt lat="47.26687" lon="-1.68283">
        <ele>62.7</ele>
        <time>2013-09-15T09:48:53Z</time>
      </trkpt>
      <trkpt lat="47.26682" lon="-1.68269">
        <ele>63.1</ele>
        <time>2013-09-15T09:48:55Z</time>
      </trkpt>
      <trkpt lat="47.26677" lon="-1.68255">
        <ele>63.7</ele>
        <time>2013-09-15T09:48:57Z</time>
      </trkpt>
      <trkpt lat="47.26674" lon="-1.68242">
        <ele>63.9</ele>
        <time>2013-09-15T09:48:59Z</time>
      </trkpt>
      <trkpt lat="47.26669" lon="-1.68224">
        <ele>62.9</ele>
        <time>2013-09-15T09:49:02Z</time>
      </trkpt>
      <trkpt lat="47.26665" lon="-1.68211">
        <ele>62.4</ele>
        <time>2013-09-15T09:49:04Z</time>
      </trkpt>
      <trkpt lat="47.26662" lon="-1.68198">
        <ele>61.9</ele>
        <time>2013-09-15T09:49:06Z</time>
      </trkpt>
      <trkpt lat="47.26658" lon="-1.68185">
        <ele>61.8</ele>
        <time>2013-09-15T09:49:08Z</time>
      </trkpt>
      <trkpt lat="47.26654" lon="-1.68173">
        <ele>61.6</ele>
        <time>2013-09-15T09:49:10Z</time>
      </trkpt>
      <trkpt lat="47.26649" lon="-1.6816">
        <ele>61.3</ele>
        <time>2013-09-15T09:49:12Z</time>
      </trkpt>
      <trkpt lat="47.26644" lon="-1.68147">
        <ele>61.4</ele>
        <time>2013-09-15T09:49:14Z</time>
      </trkpt>
      <trkpt lat="47.26639" lon="-1.68135">
        <ele>61.7</ele>
        <time>2013-09-15T09:49:16Z</time>
      </trkpt>
      <trkpt lat="47.26633" lon="-1.68121">
        <ele>62.9</ele>
        <time>2013-09-15T09:49:18Z</time>
      </trkpt>
      <trkpt lat="47.26627" lon="-1.68107">
        <ele>63.6</ele>
        <time>2013-09-15T09:49:20Z</time>
      </trkpt>
      <trkpt lat="47.26622" lon="-1.68094">
        <ele>63.7</ele>
        <time>2013-09-15T09:49:22Z</time>
      </trkpt>
      <trkpt lat="47.26618" lon="-1.68082">
        <ele>64.2</ele>
        <time>2013-09-15T09:49:24Z</time>
      </trkpt>
      <trkpt lat="47.26613" lon="-1.68069">
        <ele>65.2</ele>
        <time>2013-09-15T09:49:26Z</time>
      </trkpt>
      <trkpt lat="47.26608" lon="-1.68054">
        <ele>66.6</ele>
        <time>2013-09-15T09:49:28Z</time>
      </trkpt>
      <trkpt lat="47.26603" lon="-1.68041">
        <ele>67.9</ele>
        <time>2013-09-15T09:49:30Z</time>
      </trkpt>
      <trkpt lat="47.26599" lon="-1.68027">
        <ele>68.2</ele>
        <time>2013-09-15T09:49:32Z</time>
      </trkpt>
      <trkpt lat="47.26594" lon="-1.68013">
        <ele>67.9</ele>
        <time>2013-09-15T09:49:34Z</time>
      </trkpt>
      <trkpt lat="47.26589" lon="-1.68">
        <ele>67.7</ele>
        <time>2013-09-15T09:49:36Z</time>
      </trkpt>
      <trkpt lat="47.26585" lon="-1.67988">
        <ele>67.3</ele>
        <time>2013-09-15T09:49:38Z</time>
      </trkpt>
      <trkpt lat="47.26579" lon="-1.6797">
        <ele>66.6</ele>
        <time>2013-09-15T09:49:41Z</time>
      </trkpt>
      <trkpt lat="47.26575" lon="-1.67958">
        <ele>66.4</ele>
        <time>2013-09-15T09:49:43Z</time>
      </trkpt>
      <trkpt lat="47.2657" lon="-1.67941">
        <ele>66.2</ele>
        <time>2013-09-15T09:49:46Z</time>
      </trkpt>
      <trkpt lat="47.26563" lon="-1.67929">
        <ele>66.3</ele>
        <time>2013-09-15T09:49:49Z</time>
      </trkpt>
      <trkpt lat="47.26558" lon="-1.67913">
        <ele>66.3</ele>
        <time>2013-09-15T09:49:52Z</time>
      </trkpt>
      <trkpt lat="47.26557" lon="-1.67896">
        <ele>66.1</ele>
        <time>2013-09-15T09:49:56Z</time>
      </trkpt>
      <trkpt lat="47.26553" lon="-1.67883">
        <ele>65.9</ele>
        <time>2013-09-15T09:49:59Z</time>
      </trkpt>
      <trkpt lat="47.26546" lon="-1.67867">
        <ele>65.9</ele>
        <time>2013-09-15T09:50:02Z</time>
      </trkpt>
      <trkpt lat="47.26542" lon="-1.67855">
        <ele>66</ele>
        <time>2013-09-15T09:50:04Z</time>
      </trkpt>
      <trkpt lat="47.26536" lon="-1.67839">
        <ele>66.2</ele>
        <time>2013-09-15T09:50:07Z</time>
      </trkpt>
      <trkpt lat="47.26531" lon="-1.67825">
        <ele>66.1</ele>
        <time>2013-09-15T09:50:10Z</time>
      </trkpt>
      <trkpt lat="47.26525" lon="-1.67809">
        <ele>66.2</ele>
        <time>2013-09-15T09:50:13Z</time>
      </trkpt>
      <trkpt lat="47.26521" lon="-1.67793">
        <ele>66.2</ele>
        <time>2013-09-15T09:50:16Z</time>
      </trkpt>
      <trkpt lat="47.26518" lon="-1.67777">
        <ele>65.5</ele>
        <time>2013-09-15T09:50:19Z</time>
      </trkpt>
      <trkpt lat="47.26515" lon="-1.6776">
        <ele>64.9</ele>
        <time>2013-09-15T09:50:22Z</time>
      </trkpt>
      <trkpt lat="47.26511" lon="-1.67744">
        <ele>63.8</ele>
        <time>2013-09-15T09:50:25Z</time>
      </trkpt>
      <trkpt lat="47.26507" lon="-1.67725">
        <ele>63.3</ele>
        <time>2013-09-15T09:50:28Z</time>
      </trkpt>
      <trkpt lat="47.26504" lon="-1.67706">
        <ele>62.5</ele>
        <time>2013-09-15T09:50:31Z</time>
      </trkpt>
      <trkpt lat="47.26502" lon="-1.67687">
        <ele>61.4</ele>
        <time>2013-09-15T09:50:34Z</time>
      </trkpt>
      <trkpt lat="47.26499" lon="-1.67672">
        <ele>61.2</ele>
        <time>2013-09-15T09:50:36Z</time>
      </trkpt>
      <trkpt lat="47.26496" lon="-1.67657">
        <ele>60.9</ele>
        <time>2013-09-15T09:50:38Z</time>
      </trkpt>
      <trkpt lat="47.26493" lon="-1.67642">
        <ele>61.1</ele>
        <time>2013-09-15T09:50:40Z</time>
      </trkpt>
      <trkpt lat="47.2649" lon="-1.67629">
        <ele>61.1</ele>
        <time>2013-09-15T09:50:42Z</time>
      </trkpt>
      <trkpt lat="47.26487" lon="-1.67616">
        <ele>60.9</ele>
        <time>2013-09-15T09:50:44Z</time>
      </trkpt>
      <trkpt lat="47.26484" lon="-1.67602">
        <ele>60.4</ele>
        <time>2013-09-15T09:50:46Z</time>
      </trkpt>
      <trkpt lat="47.26481" lon="-1.67588">
        <ele>60.4</ele>
        <time>2013-09-15T09:50:48Z</time>
      </trkpt>
      <trkpt lat="47.26478" lon="-1.67575">
        <ele>60.8</ele>
        <time>2013-09-15T09:50:50Z</time>
      </trkpt>
      <trkpt lat="47.26474" lon="-1.67556">
        <ele>60.8</ele>
        <time>2013-09-15T09:50:53Z</time>
      </trkpt>
      <trkpt lat="47.2647" lon="-1.67539">
        <ele>60.8</ele>
        <time>2013-09-15T09:50:56Z</time>
      </trkpt>
      <trkpt lat="47.26467" lon="-1.67521">
        <ele>60.1</ele>
        <time>2013-09-15T09:50:59Z</time>
      </trkpt>
      <trkpt lat="47.26463" lon="-1.67509">
        <ele>59.5</ele>
        <time>2013-09-15T09:51:01Z</time>
      </trkpt>
      <trkpt lat="47.26458" lon="-1.67496">
        <ele>60.2</ele>
        <time>2013-09-15T09:51:03Z</time>
      </trkpt>
      <trkpt lat="47.26452" lon="-1.67485">
        <ele>61.6</ele>
        <time>2013-09-15T09:51:05Z</time>
      </trkpt>
      <trkpt lat="47.26446" lon="-1.67474">
        <ele>61.6</ele>
        <time>2013-09-15T09:51:07Z</time>
      </trkpt>
      <trkpt lat="47.2644" lon="-1.67463">
        <ele>61.4</ele>
        <time>2013-09-15T09:51:09Z</time>
      </trkpt>
      <trkpt lat="47.26435" lon="-1.67452">
        <ele>61.1</ele>
        <time>2013-09-15T09:51:11Z</time>
      </trkpt>
      <trkpt lat="47.26429" lon="-1.67435">
        <ele>60.8</ele>
        <time>2013-09-15T09:51:14Z</time>
      </trkpt>
      <trkpt lat="47.26424" lon="-1.67422">
        <ele>60.8</ele>
        <time>2013-09-15T09:51:17Z</time>
      </trkpt>
      <trkpt lat="47.26419" lon="-1.67408">
        <ele>60.8</ele>
        <time>2013-09-15T09:51:21Z</time>
      </trkpt>
      <trkpt lat="47.26417" lon="-1.67393">
        <ele>61.2</ele>
        <time>2013-09-15T09:51:25Z</time>
      </trkpt>
      <trkpt lat="47.26416" lon="-1.6738">
        <ele>61.4</ele>
        <time>2013-09-15T09:51:28Z</time>
      </trkpt>
      <trkpt lat="47.26409" lon="-1.67371">
        <ele>61.8</ele>
        <time>2013-09-15T09:51:32Z</time>
      </trkpt>
      <trkpt lat="47.26403" lon="-1.67358">
        <ele>61.9</ele>
        <time>2013-09-15T09:51:36Z</time>
      </trkpt>
      <trkpt lat="47.26394" lon="-1.67351">
        <ele>62</ele>
        <time>2013-09-15T09:51:40Z</time>
      </trkpt>
      <trkpt lat="47.26383" lon="-1.67346">
        <ele>62</ele>
        <time>2013-09-15T09:51:44Z</time>
      </trkpt>
      <trkpt lat="47.26372" lon="-1.67345">
        <ele>62.1</ele>
        <time>2013-09-15T09:51:47Z</time>
      </trkpt>
      <trkpt lat="47.26361" lon="-1.67344">
        <ele>62.2</ele>
        <time>2013-09-15T09:51:51Z</time>
      </trkpt>
      <trkpt lat="47.26351" lon="-1.67339">
        <ele>62.4</ele>
        <time>2013-09-15T09:51:58Z</time>
      </trkpt>
      <trkpt lat="47.26341" lon="-1.6734">
        <ele>62.8</ele>
        <time>2013-09-15T09:52:02Z</time>
      </trkpt>
      <trkpt lat="47.2633" lon="-1.67338">
        <ele>62.9</ele>
        <time>2013-09-15T09:52:06Z</time>
      </trkpt>
      <trkpt lat="47.2632" lon="-1.67334">
        <ele>63.2</ele>
        <time>2013-09-15T09:52:11Z</time>
      </trkpt>
      <trkpt lat="47.26314" lon="-1.6732">
        <ele>63.4</ele>
        <time>2013-09-15T09:52:17Z</time>
      </trkpt>
      <trkpt lat="47.26311" lon="-1.67305">
        <ele>63.5</ele>
        <time>2013-09-15T09:52:22Z</time>
      </trkpt>
      <trkpt lat="47.26304" lon="-1.67295">
        <ele>63.6</ele>
        <time>2013-09-15T09:52:29Z</time>
      </trkpt>
      <trkpt lat="47.26294" lon="-1.67296">
        <ele>63.6</ele>
        <time>2013-09-15T09:52:36Z</time>
      </trkpt>
      <trkpt lat="47.26284" lon="-1.67294">
        <ele>63.8</ele>
        <time>2013-09-15T09:52:41Z</time>
      </trkpt>
      <trkpt lat="47.26278" lon="-1.67283">
        <ele>63.3</ele>
        <time>2013-09-15T09:53:18Z</time>
      </trkpt>
      <trkpt lat="47.26276" lon="-1.67269">
        <ele>63.3</ele>
        <time>2013-09-15T09:53:22Z</time>
      </trkpt>
      <trkpt lat="47.26275" lon="-1.67256">
        <ele>63.3</ele>
        <time>2013-09-15T09:53:27Z</time>
      </trkpt>
      <trkpt lat="47.26267" lon="-1.6725">
        <ele>63.7</ele>
        <time>2013-09-15T09:53:43Z</time>
      </trkpt>
      <trkpt lat="47.26258" lon="-1.67254">
        <ele>63.7</ele>
        <time>2013-09-15T09:53:47Z</time>
      </trkpt>
      <trkpt lat="47.26248" lon="-1.6726">
        <ele>63.6</ele>
        <time>2013-09-15T09:53:59Z</time>
      </trkpt>
      <trkpt lat="47.26238" lon="-1.67256">
        <ele>63.6</ele>
        <time>2013-09-15T09:54:03Z</time>
      </trkpt>
      <trkpt lat="47.26233" lon="-1.67239">
        <ele>63.7</ele>
        <time>2013-09-15T09:54:07Z</time>
      </trkpt>
      <trkpt lat="47.26231" lon="-1.67226">
        <ele>63.1</ele>
        <time>2013-09-15T09:54:09Z</time>
      </trkpt>
      <trkpt lat="47.26228" lon="-1.6721">
        <ele>62.7</ele>
        <time>2013-09-15T09:54:11Z</time>
      </trkpt>
      <trkpt lat="47.26226" lon="-1.67194">
        <ele>63</ele>
        <time>2013-09-15T09:54:13Z</time>
      </trkpt>
      <trkpt lat="47.26224" lon="-1.67178">
        <ele>63.4</ele>
        <time>2013-09-15T09:54:15Z</time>
      </trkpt>
      <trkpt lat="47.26221" lon="-1.67164">
        <ele>63.9</ele>
        <time>2013-09-15T09:54:17Z</time>
      </trkpt>
      <trkpt lat="47.26219" lon="-1.6715">
        <ele>64.2</ele>
        <time>2013-09-15T09:54:19Z</time>
      </trkpt>
      <trkpt lat="47.26217" lon="-1.67136">
        <ele>64.3</ele>
        <time>2013-09-15T09:54:21Z</time>
      </trkpt>
      <trkpt lat="47.26214" lon="-1.67117">
        <ele>65.3</ele>
        <time>2013-09-15T09:54:24Z</time>
      </trkpt>
      <trkpt lat="47.26211" lon="-1.67104">
        <ele>64.9</ele>
        <time>2013-09-15T09:54:26Z</time>
      </trkpt>
      <trkpt lat="47.26207" lon="-1.67086">
        <ele>64</ele>
        <time>2013-09-15T09:54:29Z</time>
      </trkpt>
      <trkpt lat="47.26202" lon="-1.67067">
        <ele>63.2</ele>
        <time>2013-09-15T09:54:32Z</time>
      </trkpt>
      <trkpt lat="47.262" lon="-1.67054">
        <ele>63.1</ele>
        <time>2013-09-15T09:54:34Z</time>
      </trkpt>
      <trkpt lat="47.26198" lon="-1.6704">
        <ele>63.3</ele>
        <time>2013-09-15T09:54:36Z</time>
      </trkpt>
      <trkpt lat="47.26196" lon="-1.67026">
        <ele>63.8</ele>
        <time>2013-09-15T09:54:38Z</time>
      </trkpt>
      <trkpt lat="47.26193" lon="-1.67012">
        <ele>63.2</ele>
        <time>2013-09-15T09:54:40Z</time>
      </trkpt>
      <trkpt lat="47.26189" lon="-1.66999">
        <ele>62.6</ele>
        <time>2013-09-15T09:54:42Z</time>
      </trkpt>
      <trkpt lat="47.26185" lon="-1.66986">
        <ele>61.9</ele>
        <time>2013-09-15T09:54:44Z</time>
      </trkpt>
      <trkpt lat="47.26181" lon="-1.66971">
        <ele>62.1</ele>
        <time>2013-09-15T09:54:46Z</time>
      </trkpt>
      <trkpt lat="47.26178" lon="-1.66956">
        <ele>62.8</ele>
        <time>2013-09-15T09:54:48Z</time>
      </trkpt>
      <trkpt lat="47.26175" lon="-1.66941">
        <ele>63.2</ele>
        <time>2013-09-15T09:54:50Z</time>
      </trkpt>
      <trkpt lat="47.26173" lon="-1.66923">
        <ele>63.2</ele>
        <time>2013-09-15T09:54:52Z</time>
      </trkpt>
      <trkpt lat="47.2617" lon="-1.66903">
        <ele>62.8</ele>
        <time>2013-09-15T09:54:54Z</time>
      </trkpt>
      <trkpt lat="47.26167" lon="-1.66879">
        <ele>62.5</ele>
        <time>2013-09-15T09:54:56Z</time>
      </trkpt>
      <trkpt lat="47.26163" lon="-1.66856">
        <ele>62.4</ele>
        <time>2013-09-15T09:54:58Z</time>
      </trkpt>
      <trkpt lat="47.26159" lon="-1.6683">
        <ele>62.2</ele>
        <time>2013-09-15T09:55:00Z</time>
      </trkpt>
      <trkpt lat="47.26157" lon="-1.66816">
        <ele>62.1</ele>
        <time>2013-09-15T09:55:01Z</time>
      </trkpt>
      <trkpt lat="47.26155" lon="-1.66802">
        <ele>61.9</ele>
        <time>2013-09-15T09:55:02Z</time>
      </trkpt>
      <trkpt lat="47.26152" lon="-1.66787">
        <ele>61.7</ele>
        <time>2013-09-15T09:55:03Z</time>
      </trkpt>
      <trkpt lat="47.2615" lon="-1.66772">
        <ele>61.5</ele>
        <time>2013-09-15T09:55:04Z</time>
      </trkpt>
      <trkpt lat="47.26148" lon="-1.66757">
        <ele>61.3</ele>
        <time>2013-09-15T09:55:05Z</time>
      </trkpt>
      <trkpt lat="47.26146" lon="-1.66743">
        <ele>61.1</ele>
        <time>2013-09-15T09:55:06Z</time>
      </trkpt>
      <trkpt lat="47.26144" lon="-1.66729">
        <ele>60.9</ele>
        <time>2013-09-15T09:55:07Z</time>
      </trkpt>
      <trkpt lat="47.2614" lon="-1.66703">
        <ele>61.1</ele>
        <time>2013-09-15T09:55:09Z</time>
      </trkpt>
      <trkpt lat="47.26137" lon="-1.66678">
        <ele>61.3</ele>
        <time>2013-09-15T09:55:11Z</time>
      </trkpt>
      <trkpt lat="47.26134" lon="-1.66653">
        <ele>61.2</ele>
        <time>2013-09-15T09:55:13Z</time>
      </trkpt>
      <trkpt lat="47.26129" lon="-1.66628">
        <ele>60.9</ele>
        <time>2013-09-15T09:55:15Z</time>
      </trkpt>
      <trkpt lat="47.26125" lon="-1.66605">
        <ele>60.6</ele>
        <time>2013-09-15T09:55:17Z</time>
      </trkpt>
      <trkpt lat="47.2612" lon="-1.66583">
        <ele>60.7</ele>
        <time>2013-09-15T09:55:19Z</time>
      </trkpt>
      <trkpt lat="47.26116" lon="-1.66561">
        <ele>61.2</ele>
        <time>2013-09-15T09:55:21Z</time>
      </trkpt>
      <trkpt lat="47.26112" lon="-1.66539">
        <ele>61.4</ele>
        <time>2013-09-15T09:55:23Z</time>
      </trkpt>
      <trkpt lat="47.26109" lon="-1.66518">
        <ele>61.1</ele>
        <time>2013-09-15T09:55:25Z</time>
      </trkpt>
      <trkpt lat="47.26106" lon="-1.66498">
        <ele>61.5</ele>
        <time>2013-09-15T09:55:27Z</time>
      </trkpt>
      <trkpt lat="47.26103" lon="-1.66478">
        <ele>62.4</ele>
        <time>2013-09-15T09:55:29Z</time>
      </trkpt>
      <trkpt lat="47.26101" lon="-1.66458">
        <ele>62.6</ele>
        <time>2013-09-15T09:55:31Z</time>
      </trkpt>
      <trkpt lat="47.26098" lon="-1.66439">
        <ele>62.3</ele>
        <time>2013-09-15T09:55:33Z</time>
      </trkpt>
      <trkpt lat="47.26096" lon="-1.6642">
        <ele>62.5</ele>
        <time>2013-09-15T09:55:35Z</time>
      </trkpt>
      <trkpt lat="47.26094" lon="-1.66402">
        <ele>62.4</ele>
        <time>2013-09-15T09:55:37Z</time>
      </trkpt>
      <trkpt lat="47.26092" lon="-1.66385">
        <ele>62.5</ele>
        <time>2013-09-15T09:55:39Z</time>
      </trkpt>
      <trkpt lat="47.26089" lon="-1.66368">
        <ele>62.8</ele>
        <time>2013-09-15T09:55:41Z</time>
      </trkpt>
      <trkpt lat="47.26087" lon="-1.66351">
        <ele>63.1</ele>
        <time>2013-09-15T09:55:43Z</time>
      </trkpt>
      <trkpt lat="47.26084" lon="-1.66332">
        <ele>63</ele>
        <time>2013-09-15T09:55:45Z</time>
      </trkpt>
      <trkpt lat="47.26082" lon="-1.66314">
        <ele>62.3</ele>
        <time>2013-09-15T09:55:47Z</time>
      </trkpt>
      <trkpt lat="47.26079" lon="-1.66297">
        <ele>61.2</ele>
        <time>2013-09-15T09:55:49Z</time>
      </trkpt>
      <trkpt lat="47.26076" lon="-1.66281">
        <ele>60.6</ele>
        <time>2013-09-15T09:55:51Z</time>
      </trkpt>
      <trkpt lat="47.26074" lon="-1.66267">
        <ele>60.1</ele>
        <time>2013-09-15T09:55:53Z</time>
      </trkpt>
      <trkpt lat="47.26071" lon="-1.66253">
        <ele>60</ele>
        <time>2013-09-15T09:55:55Z</time>
      </trkpt>
      <trkpt lat="47.26069" lon="-1.66239">
        <ele>59.6</ele>
        <time>2013-09-15T09:55:57Z</time>
      </trkpt>
      <trkpt lat="47.26068" lon="-1.66223">
        <ele>60</ele>
        <time>2013-09-15T09:55:59Z</time>
      </trkpt>
      <trkpt lat="47.26066" lon="-1.66209">
        <ele>61</ele>
        <time>2013-09-15T09:56:01Z</time>
      </trkpt>
      <trkpt lat="47.26064" lon="-1.66196">
        <ele>61.7</ele>
        <time>2013-09-15T09:56:03Z</time>
      </trkpt>
      <trkpt lat="47.26062" lon="-1.66182">
        <ele>61.6</ele>
        <time>2013-09-15T09:56:05Z</time>
      </trkpt>
      <trkpt lat="47.26059" lon="-1.66167">
        <ele>61.1</ele>
        <time>2013-09-15T09:56:07Z</time>
      </trkpt>
      <trkpt lat="47.26057" lon="-1.66152">
        <ele>60</ele>
        <time>2013-09-15T09:56:09Z</time>
      </trkpt>
      <trkpt lat="47.26055" lon="-1.66137">
        <ele>59.6</ele>
        <time>2013-09-15T09:56:11Z</time>
      </trkpt>
      <trkpt lat="47.26053" lon="-1.66124">
        <ele>59.7</ele>
        <time>2013-09-15T09:56:13Z</time>
      </trkpt>
      <trkpt lat="47.2605" lon="-1.66109">
        <ele>60.1</ele>
        <time>2013-09-15T09:56:15Z</time>
      </trkpt>
      <trkpt lat="47.26048" lon="-1.66093">
        <ele>60</ele>
        <time>2013-09-15T09:56:17Z</time>
      </trkpt>
      <trkpt lat="47.26045" lon="-1.6608">
        <ele>60</ele>
        <time>2013-09-15T09:56:19Z</time>
      </trkpt>
      <trkpt lat="47.26043" lon="-1.66066">
        <ele>59.7</ele>
        <time>2013-09-15T09:56:21Z</time>
      </trkpt>
      <trkpt lat="47.2604" lon="-1.66053">
        <ele>59.3</ele>
        <time>2013-09-15T09:56:23Z</time>
      </trkpt>
      <trkpt lat="47.26038" lon="-1.66038">
        <ele>59.1</ele>
        <time>2013-09-15T09:56:25Z</time>
      </trkpt>
      <trkpt lat="47.26036" lon="-1.66024">
        <ele>58.5</ele>
        <time>2013-09-15T09:56:27Z</time>
      </trkpt>
      <trkpt lat="47.26034" lon="-1.6601">
        <ele>58.4</ele>
        <time>2013-09-15T09:56:29Z</time>
      </trkpt>
      <trkpt lat="47.26032" lon="-1.65996">
        <ele>58.5</ele>
        <time>2013-09-15T09:56:31Z</time>
      </trkpt>
      <trkpt lat="47.26029" lon="-1.65982">
        <ele>58.8</ele>
        <time>2013-09-15T09:56:33Z</time>
      </trkpt>
      <trkpt lat="47.26027" lon="-1.65968">
        <ele>58.7</ele>
        <time>2013-09-15T09:56:35Z</time>
      </trkpt>
      <trkpt lat="47.26025" lon="-1.65954">
        <ele>58.8</ele>
        <time>2013-09-15T09:56:37Z</time>
      </trkpt>
      <trkpt lat="47.26022" lon="-1.65936">
        <ele>59</ele>
        <time>2013-09-15T09:56:40Z</time>
      </trkpt>
      <trkpt lat="47.26019" lon="-1.65919">
        <ele>59.2</ele>
        <time>2013-09-15T09:56:43Z</time>
      </trkpt>
      <trkpt lat="47.26016" lon="-1.659">
        <ele>58.6</ele>
        <time>2013-09-15T09:56:46Z</time>
      </trkpt>
      <trkpt lat="47.26014" lon="-1.65883">
        <ele>58.5</ele>
        <time>2013-09-15T09:56:49Z</time>
      </trkpt>
      <trkpt lat="47.26011" lon="-1.65865">
        <ele>57.8</ele>
        <time>2013-09-15T09:56:52Z</time>
      </trkpt>
      <trkpt lat="47.26009" lon="-1.65848">
        <ele>58.5</ele>
        <time>2013-09-15T09:56:55Z</time>
      </trkpt>
      <trkpt lat="47.26006" lon="-1.6583">
        <ele>59.3</ele>
        <time>2013-09-15T09:56:58Z</time>
      </trkpt>
      <trkpt lat="47.26003" lon="-1.65814">
        <ele>59.6</ele>
        <time>2013-09-15T09:57:01Z</time>
      </trkpt>
      <trkpt lat="47.26001" lon="-1.65795">
        <ele>60.5</ele>
        <time>2013-09-15T09:57:04Z</time>
      </trkpt>
      <trkpt lat="47.25999" lon="-1.6578">
        <ele>60.5</ele>
        <time>2013-09-15T09:57:06Z</time>
      </trkpt>
      <trkpt lat="47.25996" lon="-1.65763">
        <ele>60.7</ele>
        <time>2013-09-15T09:57:08Z</time>
      </trkpt>
      <trkpt lat="47.25993" lon="-1.65746">
        <ele>60.9</ele>
        <time>2013-09-15T09:57:10Z</time>
      </trkpt>
      <trkpt lat="47.25991" lon="-1.65728">
        <ele>60.6</ele>
        <time>2013-09-15T09:57:12Z</time>
      </trkpt>
      <trkpt lat="47.25989" lon="-1.6571">
        <ele>60.8</ele>
        <time>2013-09-15T09:57:14Z</time>
      </trkpt>
      <trkpt lat="47.25986" lon="-1.65694">
        <ele>60.7</ele>
        <time>2013-09-15T09:57:16Z</time>
      </trkpt>
      <trkpt lat="47.25983" lon="-1.65679">
        <ele>60.5</ele>
        <time>2013-09-15T09:57:18Z</time>
      </trkpt>
      <trkpt lat="47.2598" lon="-1.65665">
        <ele>61.1</ele>
        <time>2013-09-15T09:57:20Z</time>
      </trkpt>
      <trkpt lat="47.25977" lon="-1.6565">
        <ele>61.9</ele>
        <time>2013-09-15T09:57:22Z</time>
      </trkpt>
      <trkpt lat="47.25975" lon="-1.65633">
        <ele>62.4</ele>
        <time>2013-09-15T09:57:24Z</time>
      </trkpt>
      <trkpt lat="47.25972" lon="-1.65616">
        <ele>62.5</ele>
        <time>2013-09-15T09:57:26Z</time>
      </trkpt>
      <trkpt lat="47.2597" lon="-1.65598">
        <ele>62.4</ele>
        <time>2013-09-15T09:57:28Z</time>
      </trkpt>
      <trkpt lat="47.25967" lon="-1.6558">
        <ele>62.1</ele>
        <time>2013-09-15T09:57:30Z</time>
      </trkpt>
      <trkpt lat="47.25965" lon="-1.65563">
        <ele>62.1</ele>
        <time>2013-09-15T09:57:32Z</time>
      </trkpt>
      <trkpt lat="47.25962" lon="-1.65546">
        <ele>62.5</ele>
        <time>2013-09-15T09:57:34Z</time>
      </trkpt>
      <trkpt lat="47.25959" lon="-1.65531">
        <ele>63.1</ele>
        <time>2013-09-15T09:57:36Z</time>
      </trkpt>
      <trkpt lat="47.25956" lon="-1.65514">
        <ele>62.9</ele>
        <time>2013-09-15T09:57:38Z</time>
      </trkpt>
      <trkpt lat="47.25954" lon="-1.65499">
        <ele>63</ele>
        <time>2013-09-15T09:57:40Z</time>
      </trkpt>
      <trkpt lat="47.25951" lon="-1.65485">
        <ele>63</ele>
        <time>2013-09-15T09:57:42Z</time>
      </trkpt>
      <trkpt lat="47.25945" lon="-1.65476">
        <ele>63.1</ele>
        <time>2013-09-15T09:57:46Z</time>
      </trkpt>
      <trkpt lat="47.25939" lon="-1.65487">
        <ele>63.1</ele>
        <time>2013-09-15T10:00:48Z</time>
      </trkpt>
      <trkpt lat="47.25943" lon="-1.65473">
        <ele>63.1</ele>
        <time>2013-09-15T10:02:11Z</time>
      </trkpt>
      <trkpt lat="47.25943" lon="-1.65459">
        <ele>63.1</ele>
        <time>2013-09-15T10:02:17Z</time>
      </trkpt>
      <trkpt lat="47.25941" lon="-1.65445">
        <ele>63.2</ele>
        <time>2013-09-15T10:02:22Z</time>
      </trkpt>
      <trkpt lat="47.25938" lon="-1.65429">
        <ele>63.2</ele>
        <time>2013-09-15T10:02:27Z</time>
      </trkpt>
      <trkpt lat="47.25933" lon="-1.65417">
        <ele>63.3</ele>
        <time>2013-09-15T10:02:31Z</time>
      </trkpt>
      <trkpt lat="47.25928" lon="-1.65405">
        <ele>63.5</ele>
        <time>2013-09-15T10:02:34Z</time>
      </trkpt>
      <trkpt lat="47.25925" lon="-1.65391">
        <ele>63.6</ele>
        <time>2013-09-15T10:02:39Z</time>
      </trkpt>
      <trkpt lat="47.25928" lon="-1.65377">
        <ele>63.7</ele>
        <time>2013-09-15T10:02:43Z</time>
      </trkpt>
      <trkpt lat="47.2593" lon="-1.6536">
        <ele>63.7</ele>
        <time>2013-09-15T10:02:47Z</time>
      </trkpt>
      <trkpt lat="47.25928" lon="-1.65343">
        <ele>63.8</ele>
        <time>2013-09-15T10:02:50Z</time>
      </trkpt>
      <trkpt lat="47.25926" lon="-1.65326">
        <ele>63.8</ele>
        <time>2013-09-15T10:02:53Z</time>
      </trkpt>
      <trkpt lat="47.25923" lon="-1.65308">
        <ele>63.5</ele>
        <time>2013-09-15T10:02:56Z</time>
      </trkpt>
      <trkpt lat="47.2592" lon="-1.65291">
        <ele>63.5</ele>
        <time>2013-09-15T10:02:59Z</time>
      </trkpt>
      <trkpt lat="47.25917" lon="-1.65274">
        <ele>62.5</ele>
        <time>2013-09-15T10:03:02Z</time>
      </trkpt>
      <trkpt lat="47.25915" lon="-1.65258">
        <ele>61.3</ele>
        <time>2013-09-15T10:03:05Z</time>
      </trkpt>
      <trkpt lat="47.25912" lon="-1.6524">
        <ele>60.7</ele>
        <time>2013-09-15T10:03:08Z</time>
      </trkpt>
      <trkpt lat="47.2591" lon="-1.65224">
        <ele>60.8</ele>
        <time>2013-09-15T10:03:11Z</time>
      </trkpt>
      <trkpt lat="47.25906" lon="-1.65206">
        <ele>61.5</ele>
        <time>2013-09-15T10:03:14Z</time>
      </trkpt>
      <trkpt lat="47.25903" lon="-1.65188">
        <ele>61.2</ele>
        <time>2013-09-15T10:03:17Z</time>
      </trkpt>
      <trkpt lat="47.259" lon="-1.65174">
        <ele>61.2</ele>
        <time>2013-09-15T10:03:19Z</time>
      </trkpt>
      <trkpt lat="47.25896" lon="-1.65155">
        <ele>61.3</ele>
        <time>2013-09-15T10:03:21Z</time>
      </trkpt>
      <trkpt lat="47.25893" lon="-1.65136">
        <ele>60.9</ele>
        <time>2013-09-15T10:03:23Z</time>
      </trkpt>
      <trkpt lat="47.2589" lon="-1.65118">
        <ele>60.9</ele>
        <time>2013-09-15T10:03:25Z</time>
      </trkpt>
      <trkpt lat="47.25887" lon="-1.65096">
        <ele>60.9</ele>
        <time>2013-09-15T10:03:27Z</time>
      </trkpt>
      <trkpt lat="47.25883" lon="-1.65074">
        <ele>61.7</ele>
        <time>2013-09-15T10:03:29Z</time>
      </trkpt>
      <trkpt lat="47.25878" lon="-1.65051">
        <ele>62.9</ele>
        <time>2013-09-15T10:03:31Z</time>
      </trkpt>
      <trkpt lat="47.25874" lon="-1.65032">
        <ele>63.7</ele>
        <time>2013-09-15T10:03:33Z</time>
      </trkpt>
      <trkpt lat="47.25871" lon="-1.65013">
        <ele>64.2</ele>
        <time>2013-09-15T10:03:35Z</time>
      </trkpt>
      <trkpt lat="47.25868" lon="-1.64995">
        <ele>63.8</ele>
        <time>2013-09-15T10:03:37Z</time>
      </trkpt>
      <trkpt lat="47.25866" lon="-1.64977">
        <ele>63.3</ele>
        <time>2013-09-15T10:03:39Z</time>
      </trkpt>
      <trkpt lat="47.25863" lon="-1.64959">
        <ele>62.6</ele>
        <time>2013-09-15T10:03:41Z</time>
      </trkpt>
      <trkpt lat="47.2586" lon="-1.64942">
        <ele>62</ele>
        <time>2013-09-15T10:03:43Z</time>
      </trkpt>
      <trkpt lat="47.25857" lon="-1.64924">
        <ele>61.1</ele>
        <time>2013-09-15T10:03:45Z</time>
      </trkpt>
      <trkpt lat="47.25854" lon="-1.64907">
        <ele>60.9</ele>
        <time>2013-09-15T10:03:47Z</time>
      </trkpt>
      <trkpt lat="47.25851" lon="-1.6489">
        <ele>61.4</ele>
        <time>2013-09-15T10:03:49Z</time>
      </trkpt>
      <trkpt lat="47.25847" lon="-1.64872">
        <ele>61.9</ele>
        <time>2013-09-15T10:03:51Z</time>
      </trkpt>
      <trkpt lat="47.25844" lon="-1.64854">
        <ele>62.2</ele>
        <time>2013-09-15T10:03:53Z</time>
      </trkpt>
      <trkpt lat="47.25841" lon="-1.64836">
        <ele>62.5</ele>
        <time>2013-09-15T10:03:55Z</time>
      </trkpt>
      <trkpt lat="47.25838" lon="-1.6482">
        <ele>62.4</ele>
        <time>2013-09-15T10:03:57Z</time>
      </trkpt>
      <trkpt lat="47.25836" lon="-1.64802">
        <ele>61.7</ele>
        <time>2013-09-15T10:03:59Z</time>
      </trkpt>
      <trkpt lat="47.25833" lon="-1.64783">
        <ele>61.4</ele>
        <time>2013-09-15T10:04:01Z</time>
      </trkpt>
      <trkpt lat="47.2583" lon="-1.64764">
        <ele>60.8</ele>
        <time>2013-09-15T10:04:03Z</time>
      </trkpt>
      <trkpt lat="47.25827" lon="-1.64745">
        <ele>60.8</ele>
        <time>2013-09-15T10:04:05Z</time>
      </trkpt>
      <trkpt lat="47.25824" lon="-1.64727">
        <ele>61.5</ele>
        <time>2013-09-15T10:04:07Z</time>
      </trkpt>
      <trkpt lat="47.25821" lon="-1.64708">
        <ele>62.1</ele>
        <time>2013-09-15T10:04:09Z</time>
      </trkpt>
      <trkpt lat="47.25818" lon="-1.6469">
        <ele>62.3</ele>
        <time>2013-09-15T10:04:11Z</time>
      </trkpt>
      <trkpt lat="47.25815" lon="-1.64672">
        <ele>61.4</ele>
        <time>2013-09-15T10:04:13Z</time>
      </trkpt>
      <trkpt lat="47.25812" lon="-1.64655">
        <ele>60.8</ele>
        <time>2013-09-15T10:04:15Z</time>
      </trkpt>
      <trkpt lat="47.25808" lon="-1.64638">
        <ele>61.3</ele>
        <time>2013-09-15T10:04:17Z</time>
      </trkpt>
      <trkpt lat="47.25803" lon="-1.64621">
        <ele>61.8</ele>
        <time>2013-09-15T10:04:19Z</time>
      </trkpt>
      <trkpt lat="47.25799" lon="-1.64602">
        <ele>62</ele>
        <time>2013-09-15T10:04:21Z</time>
      </trkpt>
      <trkpt lat="47.25795" lon="-1.64583">
        <ele>62</ele>
        <time>2013-09-15T10:04:23Z</time>
      </trkpt>
      <trkpt lat="47.25789" lon="-1.64565">
        <ele>62.4</ele>
        <time>2013-09-15T10:04:25Z</time>
      </trkpt>
      <trkpt lat="47.25783" lon="-1.64547">
        <ele>62.6</ele>
        <time>2013-09-15T10:04:27Z</time>
      </trkpt>
      <trkpt lat="47.25777" lon="-1.6453">
        <ele>61.8</ele>
        <time>2013-09-15T10:04:29Z</time>
      </trkpt>
      <trkpt lat="47.25769" lon="-1.64512">
        <ele>60.4</ele>
        <time>2013-09-15T10:04:31Z</time>
      </trkpt>
      <trkpt lat="47.2576" lon="-1.64494">
        <ele>59.3</ele>
        <time>2013-09-15T10:04:33Z</time>
      </trkpt>
      <trkpt lat="47.25751" lon="-1.64477">
        <ele>58.9</ele>
        <time>2013-09-15T10:04:35Z</time>
      </trkpt>
      <trkpt lat="47.25742" lon="-1.64461">
        <ele>58.7</ele>
        <time>2013-09-15T10:04:37Z</time>
      </trkpt>
      <trkpt lat="47.25731" lon="-1.64446">
        <ele>59.5</ele>
        <time>2013-09-15T10:04:39Z</time>
      </trkpt>
      <trkpt lat="47.2572" lon="-1.64433">
        <ele>60.8</ele>
        <time>2013-09-15T10:04:41Z</time>
      </trkpt>
      <trkpt lat="47.25709" lon="-1.64422">
        <ele>61.6</ele>
        <time>2013-09-15T10:04:43Z</time>
      </trkpt>
      <trkpt lat="47.25697" lon="-1.64412">
        <ele>61.6</ele>
        <time>2013-09-15T10:04:45Z</time>
      </trkpt>
      <trkpt lat="47.25685" lon="-1.64401">
        <ele>61.3</ele>
        <time>2013-09-15T10:04:47Z</time>
      </trkpt>
      <trkpt lat="47.25671" lon="-1.6439">
        <ele>60.6</ele>
        <time>2013-09-15T10:04:49Z</time>
      </trkpt>
      <trkpt lat="47.25656" lon="-1.64382">
        <ele>59.7</ele>
        <time>2013-09-15T10:04:51Z</time>
      </trkpt>
      <trkpt lat="47.25641" lon="-1.64376">
        <ele>58.8</ele>
        <time>2013-09-15T10:04:53Z</time>
      </trkpt>
      <trkpt lat="47.25627" lon="-1.6437">
        <ele>58.9</ele>
        <time>2013-09-15T10:04:55Z</time>
      </trkpt>
      <trkpt lat="47.25614" lon="-1.64365">
        <ele>58.9</ele>
        <time>2013-09-15T10:04:57Z</time>
      </trkpt>
      <trkpt lat="47.25603" lon="-1.64362">
        <ele>58.5</ele>
        <time>2013-09-15T10:04:59Z</time>
      </trkpt>
      <trkpt lat="47.25592" lon="-1.64359">
        <ele>58.7</ele>
        <time>2013-09-15T10:05:01Z</time>
      </trkpt>
      <trkpt lat="47.2558" lon="-1.64356">
        <ele>59.3</ele>
        <time>2013-09-15T10:05:03Z</time>
      </trkpt>
      <trkpt lat="47.25569" lon="-1.64351">
        <ele>59.5</ele>
        <time>2013-09-15T10:05:05Z</time>
      </trkpt>
      <trkpt lat="47.25559" lon="-1.64345">
        <ele>59.1</ele>
        <time>2013-09-15T10:05:07Z</time>
      </trkpt>
      <trkpt lat="47.25549" lon="-1.64337">
        <ele>58.3</ele>
        <time>2013-09-15T10:05:09Z</time>
      </trkpt>
      <trkpt lat="47.25541" lon="-1.64326">
        <ele>57.7</ele>
        <time>2013-09-15T10:05:11Z</time>
      </trkpt>
      <trkpt lat="47.25535" lon="-1.64316">
        <ele>57.4</ele>
        <time>2013-09-15T10:05:13Z</time>
      </trkpt>
      <trkpt lat="47.25526" lon="-1.64304">
        <ele>57.8</ele>
        <time>2013-09-15T10:05:16Z</time>
      </trkpt>
      <trkpt lat="47.25518" lon="-1.64295">
        <ele>57.7</ele>
        <time>2013-09-15T10:05:18Z</time>
      </trkpt>
      <trkpt lat="47.25517" lon="-1.64281">
        <ele>57.7</ele>
        <time>2013-09-15T10:05:55Z</time>
      </trkpt>
      <trkpt lat="47.25524" lon="-1.64271">
        <ele>57.7</ele>
        <time>2013-09-15T10:06:00Z</time>
      </trkpt>
      <trkpt lat="47.25528" lon="-1.64257">
        <ele>57.6</ele>
        <time>2013-09-15T10:06:06Z</time>
      </trkpt>
      <trkpt lat="47.25536" lon="-1.64248">
        <ele>57.6</ele>
        <time>2013-09-15T10:06:09Z</time>
      </trkpt>
      <trkpt lat="47.25546" lon="-1.64237">
        <ele>57.7</ele>
        <time>2013-09-15T10:06:12Z</time>
      </trkpt>
      <trkpt lat="47.25555" lon="-1.64223">
        <ele>58.2</ele>
        <time>2013-09-15T10:06:15Z</time>
      </trkpt>
      <trkpt lat="47.2556" lon="-1.64211">
        <ele>58.2</ele>
        <time>2013-09-15T10:06:17Z</time>
      </trkpt>
      <trkpt lat="47.25566" lon="-1.64194">
        <ele>57.9</ele>
        <time>2013-09-15T10:06:20Z</time>
      </trkpt>
      <trkpt lat="47.25568" lon="-1.64179">
        <ele>57.6</ele>
        <time>2013-09-15T10:06:22Z</time>
      </trkpt>
      <trkpt lat="47.25571" lon="-1.64165">
        <ele>57.6</ele>
        <time>2013-09-15T10:06:24Z</time>
      </trkpt>
      <trkpt lat="47.25572" lon="-1.6415">
        <ele>57.5</ele>
        <time>2013-09-15T10:06:26Z</time>
      </trkpt>
      <trkpt lat="47.25574" lon="-1.64135">
        <ele>57</ele>
        <time>2013-09-15T10:06:28Z</time>
      </trkpt>
      <trkpt lat="47.25576" lon="-1.6412">
        <ele>56.5</ele>
        <time>2013-09-15T10:06:30Z</time>
      </trkpt>
      <trkpt lat="47.25578" lon="-1.64105">
        <ele>56.3</ele>
        <time>2013-09-15T10:06:32Z</time>
      </trkpt>
      <trkpt lat="47.2558" lon="-1.6409">
        <ele>56.3</ele>
        <time>2013-09-15T10:06:34Z</time>
      </trkpt>
      <trkpt lat="47.25583" lon="-1.64075">
        <ele>56.1</ele>
        <time>2013-09-15T10:06:36Z</time>
      </trkpt>
      <trkpt lat="47.25586" lon="-1.64056">
        <ele>56.4</ele>
        <time>2013-09-15T10:06:39Z</time>
      </trkpt>
      <trkpt lat="47.25588" lon="-1.64042">
        <ele>56.7</ele>
        <time>2013-09-15T10:06:41Z</time>
      </trkpt>
      <trkpt lat="47.2559" lon="-1.64027">
        <ele>57</ele>
        <time>2013-09-15T10:06:43Z</time>
      </trkpt>
      <trkpt lat="47.25592" lon="-1.64008">
        <ele>57.7</ele>
        <time>2013-09-15T10:06:46Z</time>
      </trkpt>
      <trkpt lat="47.25594" lon="-1.63994">
        <ele>58.1</ele>
        <time>2013-09-15T10:06:48Z</time>
      </trkpt>
      <trkpt lat="47.25596" lon="-1.63979">
        <ele>57.9</ele>
        <time>2013-09-15T10:06:50Z</time>
      </trkpt>
      <trkpt lat="47.25598" lon="-1.63965">
        <ele>57.5</ele>
        <time>2013-09-15T10:06:52Z</time>
      </trkpt>
      <trkpt lat="47.256" lon="-1.63951">
        <ele>57</ele>
        <time>2013-09-15T10:06:54Z</time>
      </trkpt>
      <trkpt lat="47.25601" lon="-1.63938">
        <ele>56.5</ele>
        <time>2013-09-15T10:06:56Z</time>
      </trkpt>
      <trkpt lat="47.25603" lon="-1.63921">
        <ele>56.2</ele>
        <time>2013-09-15T10:06:58Z</time>
      </trkpt>
      <trkpt lat="47.25605" lon="-1.63907">
        <ele>56.2</ele>
        <time>2013-09-15T10:07:00Z</time>
      </trkpt>
      <trkpt lat="47.25608" lon="-1.63892">
        <ele>56.3</ele>
        <time>2013-09-15T10:07:02Z</time>
      </trkpt>
      <trkpt lat="47.2561" lon="-1.63877">
        <ele>55.7</ele>
        <time>2013-09-15T10:07:04Z</time>
      </trkpt>
      <trkpt lat="47.25612" lon="-1.63861">
        <ele>55.3</ele>
        <time>2013-09-15T10:07:06Z</time>
      </trkpt>
      <trkpt lat="47.25614" lon="-1.63846">
        <ele>54.7</ele>
        <time>2013-09-15T10:07:08Z</time>
      </trkpt>
      <trkpt lat="47.25615" lon="-1.63831">
        <ele>55.2</ele>
        <time>2013-09-15T10:07:10Z</time>
      </trkpt>
      <trkpt lat="47.25617" lon="-1.63817">
        <ele>55.7</ele>
        <time>2013-09-15T10:07:12Z</time>
      </trkpt>
      <trkpt lat="47.25618" lon="-1.63801">
        <ele>55.4</ele>
        <time>2013-09-15T10:07:14Z</time>
      </trkpt>
      <trkpt lat="47.25619" lon="-1.63783">
        <ele>54.6</ele>
        <time>2013-09-15T10:07:16Z</time>
      </trkpt>
      <trkpt lat="47.2562" lon="-1.63764">
        <ele>55</ele>
        <time>2013-09-15T10:07:18Z</time>
      </trkpt>
      <trkpt lat="47.2562" lon="-1.63744">
        <ele>55.1</ele>
        <time>2013-09-15T10:07:20Z</time>
      </trkpt>
      <trkpt lat="47.2562" lon="-1.63726">
        <ele>55.2</ele>
        <time>2013-09-15T10:07:22Z</time>
      </trkpt>
      <trkpt lat="47.2562" lon="-1.63708">
        <ele>55.1</ele>
        <time>2013-09-15T10:07:24Z</time>
      </trkpt>
      <trkpt lat="47.25619" lon="-1.63689">
        <ele>55.1</ele>
        <time>2013-09-15T10:07:26Z</time>
      </trkpt>
      <trkpt lat="47.25618" lon="-1.63671">
        <ele>55.3</ele>
        <time>2013-09-15T10:07:28Z</time>
      </trkpt>
      <trkpt lat="47.25617" lon="-1.63654">
        <ele>55.2</ele>
        <time>2013-09-15T10:07:30Z</time>
      </trkpt>
      <trkpt lat="47.25616" lon="-1.63635">
        <ele>55.6</ele>
        <time>2013-09-15T10:07:32Z</time>
      </trkpt>
      <trkpt lat="47.25615" lon="-1.63618">
        <ele>56.1</ele>
        <time>2013-09-15T10:07:34Z</time>
      </trkpt>
      <trkpt lat="47.25614" lon="-1.63604">
        <ele>56.2</ele>
        <time>2013-09-15T10:07:36Z</time>
      </trkpt>
      <trkpt lat="47.25612" lon="-1.63588">
        <ele>55.5</ele>
        <time>2013-09-15T10:07:38Z</time>
      </trkpt>
      <trkpt lat="47.2561" lon="-1.63571">
        <ele>55.4</ele>
        <time>2013-09-15T10:07:40Z</time>
      </trkpt>
      <trkpt lat="47.25608" lon="-1.63556">
        <ele>55.7</ele>
        <time>2013-09-15T10:07:42Z</time>
      </trkpt>
      <trkpt lat="47.25605" lon="-1.63541">
        <ele>55.8</ele>
        <time>2013-09-15T10:07:44Z</time>
      </trkpt>
      <trkpt lat="47.25602" lon="-1.63526">
        <ele>55.7</ele>
        <time>2013-09-15T10:07:46Z</time>
      </trkpt>
      <trkpt lat="47.25599" lon="-1.63512">
        <ele>54.8</ele>
        <time>2013-09-15T10:07:48Z</time>
      </trkpt>
      <trkpt lat="47.25595" lon="-1.63498">
        <ele>54.8</ele>
        <time>2013-09-15T10:07:50Z</time>
      </trkpt>
      <trkpt lat="47.25592" lon="-1.63485">
        <ele>54.7</ele>
        <time>2013-09-15T10:07:52Z</time>
      </trkpt>
      <trkpt lat="47.25589" lon="-1.63472">
        <ele>54.9</ele>
        <time>2013-09-15T10:07:54Z</time>
      </trkpt>
      <trkpt lat="47.25586" lon="-1.63458">
        <ele>54.7</ele>
        <time>2013-09-15T10:07:56Z</time>
      </trkpt>
      <trkpt lat="47.25583" lon="-1.63444">
        <ele>55.1</ele>
        <time>2013-09-15T10:07:58Z</time>
      </trkpt>
      <trkpt lat="47.2558" lon="-1.6343">
        <ele>55.5</ele>
        <time>2013-09-15T10:08:00Z</time>
      </trkpt>
      <trkpt lat="47.25577" lon="-1.63411">
        <ele>56.2</ele>
        <time>2013-09-15T10:08:03Z</time>
      </trkpt>
      <trkpt lat="47.25574" lon="-1.63397">
        <ele>55.8</ele>
        <time>2013-09-15T10:08:05Z</time>
      </trkpt>
      <trkpt lat="47.25571" lon="-1.63378">
        <ele>55.3</ele>
        <time>2013-09-15T10:08:08Z</time>
      </trkpt>
      <trkpt lat="47.25567" lon="-1.63361">
        <ele>56.6</ele>
        <time>2013-09-15T10:08:11Z</time>
      </trkpt>
      <trkpt lat="47.25564" lon="-1.63344">
        <ele>59.2</ele>
        <time>2013-09-15T10:08:14Z</time>
      </trkpt>
      <trkpt lat="47.2556" lon="-1.63327">
        <ele>62.7</ele>
        <time>2013-09-15T10:08:17Z</time>
      </trkpt>
      <trkpt lat="47.25558" lon="-1.63313">
        <ele>63.3</ele>
        <time>2013-09-15T10:08:19Z</time>
      </trkpt>
      <trkpt lat="47.25556" lon="-1.633">
        <ele>63.1</ele>
        <time>2013-09-15T10:08:21Z</time>
      </trkpt>
      <trkpt lat="47.25554" lon="-1.63285">
        <ele>62.1</ele>
        <time>2013-09-15T10:08:23Z</time>
      </trkpt>
      <trkpt lat="47.25552" lon="-1.63272">
        <ele>60.8</ele>
        <time>2013-09-15T10:08:25Z</time>
      </trkpt>
      <trkpt lat="47.25549" lon="-1.63253">
        <ele>61</ele>
        <time>2013-09-15T10:08:28Z</time>
      </trkpt>
      <trkpt lat="47.25546" lon="-1.63233">
        <ele>60</ele>
        <time>2013-09-15T10:08:31Z</time>
      </trkpt>
      <trkpt lat="47.25544" lon="-1.6322">
        <ele>59.3</ele>
        <time>2013-09-15T10:08:33Z</time>
      </trkpt>
      <trkpt lat="47.25542" lon="-1.63206">
        <ele>58.8</ele>
        <time>2013-09-15T10:08:35Z</time>
      </trkpt>
      <trkpt lat="47.25539" lon="-1.63193">
        <ele>58.5</ele>
        <time>2013-09-15T10:08:37Z</time>
      </trkpt>
      <trkpt lat="47.25537" lon="-1.63179">
        <ele>58</ele>
        <time>2013-09-15T10:08:39Z</time>
      </trkpt>
      <trkpt lat="47.25534" lon="-1.63165">
        <ele>57.7</ele>
        <time>2013-09-15T10:08:41Z</time>
      </trkpt>
      <trkpt lat="47.2553" lon="-1.63146">
        <ele>58.2</ele>
        <time>2013-09-15T10:08:44Z</time>
      </trkpt>
      <trkpt lat="47.25527" lon="-1.63133">
        <ele>58.6</ele>
        <time>2013-09-15T10:08:46Z</time>
      </trkpt>
      <trkpt lat="47.25523" lon="-1.6312">
        <ele>58.1</ele>
        <time>2013-09-15T10:08:48Z</time>
      </trkpt>
      <trkpt lat="47.25519" lon="-1.63107">
        <ele>57.8</ele>
        <time>2013-09-15T10:08:50Z</time>
      </trkpt>
      <trkpt lat="47.25516" lon="-1.63094">
        <ele>58.3</ele>
        <time>2013-09-15T10:08:52Z</time>
      </trkpt>
      <trkpt lat="47.25513" lon="-1.6308">
        <ele>58.4</ele>
        <time>2013-09-15T10:08:54Z</time>
      </trkpt>
      <trkpt lat="47.2551" lon="-1.63067">
        <ele>59.2</ele>
        <time>2013-09-15T10:08:56Z</time>
      </trkpt>
      <trkpt lat="47.25507" lon="-1.63053">
        <ele>59.3</ele>
        <time>2013-09-15T10:08:58Z</time>
      </trkpt>
      <trkpt lat="47.25504" lon="-1.6304">
        <ele>58.8</ele>
        <time>2013-09-15T10:09:00Z</time>
      </trkpt>
      <trkpt lat="47.25498" lon="-1.63022">
        <ele>59.1</ele>
        <time>2013-09-15T10:09:03Z</time>
      </trkpt>
      <trkpt lat="47.25494" lon="-1.6301">
        <ele>58.9</ele>
        <time>2013-09-15T10:09:05Z</time>
      </trkpt>
      <trkpt lat="47.2549" lon="-1.62998">
        <ele>58.1</ele>
        <time>2013-09-15T10:09:07Z</time>
      </trkpt>
      <trkpt lat="47.25484" lon="-1.62986">
        <ele>57.4</ele>
        <time>2013-09-15T10:09:09Z</time>
      </trkpt>
      <trkpt lat="47.25477" lon="-1.62975">
        <ele>57.4</ele>
        <time>2013-09-15T10:09:11Z</time>
      </trkpt>
      <trkpt lat="47.25468" lon="-1.62966">
        <ele>57.7</ele>
        <time>2013-09-15T10:09:13Z</time>
      </trkpt>
      <trkpt lat="47.2546" lon="-1.62962">
        <ele>57.8</ele>
        <time>2013-09-15T10:09:15Z</time>
      </trkpt>
      <trkpt lat="47.2545" lon="-1.62962">
        <ele>58</ele>
        <time>2013-09-15T10:09:18Z</time>
      </trkpt>
      <trkpt lat="47.2544" lon="-1.62958">
        <ele>58.3</ele>
        <time>2013-09-15T10:09:21Z</time>
      </trkpt>
      <trkpt lat="47.25429" lon="-1.62945">
        <ele>61.4</ele>
        <time>2013-09-15T10:09:24Z</time>
      </trkpt>
      <trkpt lat="47.25424" lon="-1.62933">
        <ele>61.1</ele>
        <time>2013-09-15T10:09:26Z</time>
      </trkpt>
      <trkpt lat="47.25423" lon="-1.6292">
        <ele>60.6</ele>
        <time>2013-09-15T10:09:28Z</time>
      </trkpt>
      <trkpt lat="47.25423" lon="-1.62905">
        <ele>59.8</ele>
        <time>2013-09-15T10:09:30Z</time>
      </trkpt>
      <trkpt lat="47.25425" lon="-1.62889">
        <ele>58.3</ele>
        <time>2013-09-15T10:09:32Z</time>
      </trkpt>
      <trkpt lat="47.25426" lon="-1.62875">
        <ele>57.9</ele>
        <time>2013-09-15T10:09:34Z</time>
      </trkpt>
      <trkpt lat="47.25425" lon="-1.62855">
        <ele>57.9</ele>
        <time>2013-09-15T10:09:36Z</time>
      </trkpt>
      <trkpt lat="47.25423" lon="-1.62837">
        <ele>57.5</ele>
        <time>2013-09-15T10:09:38Z</time>
      </trkpt>
      <trkpt lat="47.2542" lon="-1.62821">
        <ele>55.7</ele>
        <time>2013-09-15T10:09:40Z</time>
      </trkpt>
      <trkpt lat="47.25415" lon="-1.62807">
        <ele>54.2</ele>
        <time>2013-09-15T10:09:42Z</time>
      </trkpt>
      <trkpt lat="47.2541" lon="-1.62794">
        <ele>53.7</ele>
        <time>2013-09-15T10:09:44Z</time>
      </trkpt>
      <trkpt lat="47.25404" lon="-1.6278">
        <ele>53.7</ele>
        <time>2013-09-15T10:09:46Z</time>
      </trkpt>
      <trkpt lat="47.25398" lon="-1.62765">
        <ele>53.6</ele>
        <time>2013-09-15T10:09:48Z</time>
      </trkpt>
      <trkpt lat="47.25391" lon="-1.62752">
        <ele>53.5</ele>
        <time>2013-09-15T10:09:50Z</time>
      </trkpt>
      <trkpt lat="47.25385" lon="-1.62738">
        <ele>52.9</ele>
        <time>2013-09-15T10:09:52Z</time>
      </trkpt>
      <trkpt lat="47.25379" lon="-1.62724">
        <ele>53</ele>
        <time>2013-09-15T10:09:54Z</time>
      </trkpt>
      <trkpt lat="47.25373" lon="-1.62708">
        <ele>52.8</ele>
        <time>2013-09-15T10:09:56Z</time>
      </trkpt>
      <trkpt lat="47.25367" lon="-1.62692">
        <ele>52.8</ele>
        <time>2013-09-15T10:09:58Z</time>
      </trkpt>
      <trkpt lat="47.25361" lon="-1.62676">
        <ele>53.7</ele>
        <time>2013-09-15T10:10:00Z</time>
      </trkpt>
      <trkpt lat="47.25355" lon="-1.62661">
        <ele>54.7</ele>
        <time>2013-09-15T10:10:02Z</time>
      </trkpt>
      <trkpt lat="47.2535" lon="-1.62643">
        <ele>55.1</ele>
        <time>2013-09-15T10:10:04Z</time>
      </trkpt>
      <trkpt lat="47.25343" lon="-1.62626">
        <ele>55.1</ele>
        <time>2013-09-15T10:10:06Z</time>
      </trkpt>
      <trkpt lat="47.25338" lon="-1.6261">
        <ele>53.8</ele>
        <time>2013-09-15T10:10:08Z</time>
      </trkpt>
      <trkpt lat="47.25331" lon="-1.62593">
        <ele>52.4</ele>
        <time>2013-09-15T10:10:10Z</time>
      </trkpt>
      <trkpt lat="47.25325" lon="-1.62577">
        <ele>51.5</ele>
        <time>2013-09-15T10:10:12Z</time>
      </trkpt>
      <trkpt lat="47.25318" lon="-1.6256">
        <ele>51.6</ele>
        <time>2013-09-15T10:10:14Z</time>
      </trkpt>
      <trkpt lat="47.25313" lon="-1.62547">
        <ele>50.6</ele>
        <time>2013-09-15T10:10:16Z</time>
      </trkpt>
      <trkpt lat="47.25308" lon="-1.62533">
        <ele>49.4</ele>
        <time>2013-09-15T10:10:18Z</time>
      </trkpt>
      <trkpt lat="47.25301" lon="-1.62518">
        <ele>50.9</ele>
        <time>2013-09-15T10:10:20Z</time>
      </trkpt>
      <trkpt lat="47.25295" lon="-1.62502">
        <ele>51.2</ele>
        <time>2013-09-15T10:10:22Z</time>
      </trkpt>
      <trkpt lat="47.25289" lon="-1.62487">
        <ele>51.1</ele>
        <time>2013-09-15T10:10:24Z</time>
      </trkpt>
      <trkpt lat="47.25284" lon="-1.62473">
        <ele>51.4</ele>
        <time>2013-09-15T10:10:26Z</time>
      </trkpt>
      <trkpt lat="47.25279" lon="-1.62458">
        <ele>51.9</ele>
        <time>2013-09-15T10:10:28Z</time>
      </trkpt>
      <trkpt lat="47.25273" lon="-1.6244">
        <ele>52.7</ele>
        <time>2013-09-15T10:10:30Z</time>
      </trkpt>
      <trkpt lat="47.25265" lon="-1.62421">
        <ele>51.8</ele>
        <time>2013-09-15T10:10:32Z</time>
      </trkpt>
      <trkpt lat="47.25256" lon="-1.624">
        <ele>50.4</ele>
        <time>2013-09-15T10:10:34Z</time>
      </trkpt>
      <trkpt lat="47.25249" lon="-1.62384">
        <ele>49.8</ele>
        <time>2013-09-15T10:10:36Z</time>
      </trkpt>
      <trkpt lat="47.2524" lon="-1.62363">
        <ele>48.3</ele>
        <time>2013-09-15T10:10:38Z</time>
      </trkpt>
      <trkpt lat="47.25232" lon="-1.62345">
        <ele>47.2</ele>
        <time>2013-09-15T10:10:40Z</time>
      </trkpt>
      <trkpt lat="47.25225" lon="-1.62327">
        <ele>48.4</ele>
        <time>2013-09-15T10:10:42Z</time>
      </trkpt>
      <trkpt lat="47.25217" lon="-1.62309">
        <ele>49.8</ele>
        <time>2013-09-15T10:10:44Z</time>
      </trkpt>
      <trkpt lat="47.2521" lon="-1.62291">
        <ele>50.5</ele>
        <time>2013-09-15T10:10:46Z</time>
      </trkpt>
      <trkpt lat="47.25203" lon="-1.62272">
        <ele>50.1</ele>
        <time>2013-09-15T10:10:48Z</time>
      </trkpt>
      <trkpt lat="47.25195" lon="-1.62253">
        <ele>48.9</ele>
        <time>2013-09-15T10:10:50Z</time>
      </trkpt>
      <trkpt lat="47.25188" lon="-1.62234">
        <ele>48.7</ele>
        <time>2013-09-15T10:10:52Z</time>
      </trkpt>
      <trkpt lat="47.25181" lon="-1.62216">
        <ele>49.4</ele>
        <time>2013-09-15T10:10:54Z</time>
      </trkpt>
      <trkpt lat="47.25173" lon="-1.62198">
        <ele>49.3</ele>
        <time>2013-09-15T10:10:56Z</time>
      </trkpt>
      <trkpt lat="47.25165" lon="-1.62181">
        <ele>50</ele>
        <time>2013-09-15T10:10:58Z</time>
      </trkpt>
      <trkpt lat="47.25156" lon="-1.62165">
        <ele>51.3</ele>
        <time>2013-09-15T10:11:00Z</time>
      </trkpt>
      <trkpt lat="47.25144" lon="-1.62155">
        <ele>52.9</ele>
        <time>2013-09-15T10:11:02Z</time>
      </trkpt>
      <trkpt lat="47.2513" lon="-1.6215">
        <ele>53.6</ele>
        <time>2013-09-15T10:11:04Z</time>
      </trkpt>
      <trkpt lat="47.25116" lon="-1.62145">
        <ele>54.2</ele>
        <time>2013-09-15T10:11:06Z</time>
      </trkpt>
      <trkpt lat="47.25105" lon="-1.62136">
        <ele>55.1</ele>
        <time>2013-09-15T10:11:08Z</time>
      </trkpt>
      <trkpt lat="47.25095" lon="-1.62122">
        <ele>55.7</ele>
        <time>2013-09-15T10:11:10Z</time>
      </trkpt>
      <trkpt lat="47.25088" lon="-1.62107">
        <ele>56.3</ele>
        <time>2013-09-15T10:11:12Z</time>
      </trkpt>
      <trkpt lat="47.25083" lon="-1.62088">
        <ele>56.5</ele>
        <time>2013-09-15T10:11:14Z</time>
      </trkpt>
      <trkpt lat="47.25083" lon="-1.62068">
        <ele>57</ele>
        <time>2013-09-15T10:11:16Z</time>
      </trkpt>
      <trkpt lat="47.25086" lon="-1.62049">
        <ele>56.5</ele>
        <time>2013-09-15T10:11:18Z</time>
      </trkpt>
      <trkpt lat="47.25092" lon="-1.62033">
        <ele>55.8</ele>
        <time>2013-09-15T10:11:20Z</time>
      </trkpt>
      <trkpt lat="47.25099" lon="-1.62019">
        <ele>56</ele>
        <time>2013-09-15T10:11:22Z</time>
      </trkpt>
      <trkpt lat="47.25105" lon="-1.62001">
        <ele>56.1</ele>
        <time>2013-09-15T10:11:24Z</time>
      </trkpt>
      <trkpt lat="47.25107" lon="-1.61981">
        <ele>56</ele>
        <time>2013-09-15T10:11:26Z</time>
      </trkpt>
      <trkpt lat="47.25105" lon="-1.61962">
        <ele>56</ele>
        <time>2013-09-15T10:11:28Z</time>
      </trkpt>
      <trkpt lat="47.25101" lon="-1.61945">
        <ele>56</ele>
        <time>2013-09-15T10:11:30Z</time>
      </trkpt>
      <trkpt lat="47.25097" lon="-1.61928">
        <ele>55.9</ele>
        <time>2013-09-15T10:11:32Z</time>
      </trkpt>
      <trkpt lat="47.25091" lon="-1.61913">
        <ele>56</ele>
        <time>2013-09-15T10:11:34Z</time>
      </trkpt>
      <trkpt lat="47.25086" lon="-1.61896">
        <ele>55.6</ele>
        <time>2013-09-15T10:11:36Z</time>
      </trkpt>
      <trkpt lat="47.2508" lon="-1.61877">
        <ele>55.6</ele>
        <time>2013-09-15T10:11:38Z</time>
      </trkpt>
      <trkpt lat="47.25075" lon="-1.6186">
        <ele>54.5</ele>
        <time>2013-09-15T10:11:40Z</time>
      </trkpt>
      <trkpt lat="47.25069" lon="-1.61845">
        <ele>53.5</ele>
        <time>2013-09-15T10:11:42Z</time>
      </trkpt>
      <trkpt lat="47.25062" lon="-1.61832">
        <ele>52.8</ele>
        <time>2013-09-15T10:11:44Z</time>
      </trkpt>
      <trkpt lat="47.25057" lon="-1.61819">
        <ele>53.2</ele>
        <time>2013-09-15T10:11:46Z</time>
      </trkpt>
      <trkpt lat="47.25052" lon="-1.61804">
        <ele>54.2</ele>
        <time>2013-09-15T10:11:48Z</time>
      </trkpt>
      <trkpt lat="47.25048" lon="-1.61789">
        <ele>54.2</ele>
        <time>2013-09-15T10:11:50Z</time>
      </trkpt>
      <trkpt lat="47.25043" lon="-1.61774">
        <ele>54.3</ele>
        <time>2013-09-15T10:11:52Z</time>
      </trkpt>
      <trkpt lat="47.2504" lon="-1.61759">
        <ele>53.9</ele>
        <time>2013-09-15T10:11:54Z</time>
      </trkpt>
      <trkpt lat="47.25036" lon="-1.61746">
        <ele>53.5</ele>
        <time>2013-09-15T10:11:56Z</time>
      </trkpt>
      <trkpt lat="47.25032" lon="-1.61731">
        <ele>52.8</ele>
        <time>2013-09-15T10:11:58Z</time>
      </trkpt>
      <trkpt lat="47.25027" lon="-1.61715">
        <ele>50.9</ele>
        <time>2013-09-15T10:12:00Z</time>
      </trkpt>
      <trkpt lat="47.25024" lon="-1.617">
        <ele>48.4</ele>
        <time>2013-09-15T10:12:02Z</time>
      </trkpt>
      <trkpt lat="47.25021" lon="-1.61687">
        <ele>47.1</ele>
        <time>2013-09-15T10:12:04Z</time>
      </trkpt>
      <trkpt lat="47.25016" lon="-1.6167">
        <ele>47.6</ele>
        <time>2013-09-15T10:12:07Z</time>
      </trkpt>
      <trkpt lat="47.25012" lon="-1.61655">
        <ele>48.5</ele>
        <time>2013-09-15T10:12:09Z</time>
      </trkpt>
      <trkpt lat="47.25008" lon="-1.61639">
        <ele>49.6</ele>
        <time>2013-09-15T10:12:11Z</time>
      </trkpt>
      <trkpt lat="47.25004" lon="-1.61623">
        <ele>51.2</ele>
        <time>2013-09-15T10:12:13Z</time>
      </trkpt>
      <trkpt lat="47.24999" lon="-1.61605">
        <ele>51.7</ele>
        <time>2013-09-15T10:12:15Z</time>
      </trkpt>
      <trkpt lat="47.24996" lon="-1.61588">
        <ele>51.8</ele>
        <time>2013-09-15T10:12:17Z</time>
      </trkpt>
      <trkpt lat="47.24993" lon="-1.61572">
        <ele>51.5</ele>
        <time>2013-09-15T10:12:19Z</time>
      </trkpt>
      <trkpt lat="47.24988" lon="-1.61555">
        <ele>51.3</ele>
        <time>2013-09-15T10:12:21Z</time>
      </trkpt>
      <trkpt lat="47.24983" lon="-1.61538">
        <ele>51.1</ele>
        <time>2013-09-15T10:12:23Z</time>
      </trkpt>
      <trkpt lat="47.24977" lon="-1.61522">
        <ele>51.3</ele>
        <time>2013-09-15T10:12:25Z</time>
      </trkpt>
      <trkpt lat="47.24972" lon="-1.61506">
        <ele>51.5</ele>
        <time>2013-09-15T10:12:27Z</time>
      </trkpt>
      <trkpt lat="47.24968" lon="-1.61491">
        <ele>51.2</ele>
        <time>2013-09-15T10:12:29Z</time>
      </trkpt>
      <trkpt lat="47.24965" lon="-1.61475">
        <ele>51</ele>
        <time>2013-09-15T10:12:31Z</time>
      </trkpt>
      <trkpt lat="47.24961" lon="-1.61458">
        <ele>50.8</ele>
        <time>2013-09-15T10:12:33Z</time>
      </trkpt>
      <trkpt lat="47.24955" lon="-1.61442">
        <ele>50.5</ele>
        <time>2013-09-15T10:12:35Z</time>
      </trkpt>
      <trkpt lat="47.24951" lon="-1.61427">
        <ele>51.6</ele>
        <time>2013-09-15T10:12:37Z</time>
      </trkpt>
      <trkpt lat="47.24951" lon="-1.61412">
        <ele>52</ele>
        <time>2013-09-15T10:12:39Z</time>
      </trkpt>
      <trkpt lat="47.24947" lon="-1.61398">
        <ele>50.8</ele>
        <time>2013-09-15T10:12:41Z</time>
      </trkpt>
      <trkpt lat="47.24942" lon="-1.61385">
        <ele>48.9</ele>
        <time>2013-09-15T10:12:43Z</time>
      </trkpt>
      <trkpt lat="47.24936" lon="-1.6137">
        <ele>48.7</ele>
        <time>2013-09-15T10:12:45Z</time>
      </trkpt>
      <trkpt lat="47.24931" lon="-1.61355">
        <ele>48.9</ele>
        <time>2013-09-15T10:12:47Z</time>
      </trkpt>
      <trkpt lat="47.24926" lon="-1.6134">
        <ele>48.8</ele>
        <time>2013-09-15T10:12:49Z</time>
      </trkpt>
      <trkpt lat="47.24922" lon="-1.61326">
        <ele>48.4</ele>
        <time>2013-09-15T10:12:51Z</time>
      </trkpt>
      <trkpt lat="47.24919" lon="-1.61313">
        <ele>48</ele>
        <time>2013-09-15T10:12:53Z</time>
      </trkpt>
      <trkpt lat="47.24914" lon="-1.61297">
        <ele>49.3</ele>
        <time>2013-09-15T10:12:55Z</time>
      </trkpt>
      <trkpt lat="47.24911" lon="-1.61284">
        <ele>49.7</ele>
        <time>2013-09-15T10:12:57Z</time>
      </trkpt>
      <trkpt lat="47.24907" lon="-1.61268">
        <ele>50.5</ele>
        <time>2013-09-15T10:13:00Z</time>
      </trkpt>
      <trkpt lat="47.24903" lon="-1.61251">
        <ele>50.2</ele>
        <time>2013-09-15T10:13:03Z</time>
      </trkpt>
      <trkpt lat="47.24898" lon="-1.61232">
        <ele>47.2</ele>
        <time>2013-09-15T10:13:06Z</time>
      </trkpt>
      <trkpt lat="47.24894" lon="-1.61214">
        <ele>46.9</ele>
        <time>2013-09-15T10:13:09Z</time>
      </trkpt>
      <trkpt lat="47.2489" lon="-1.61198">
        <ele>46</ele>
        <time>2013-09-15T10:13:12Z</time>
      </trkpt>
      <trkpt lat="47.24885" lon="-1.61181">
        <ele>44.4</ele>
        <time>2013-09-15T10:13:15Z</time>
      </trkpt>
      <trkpt lat="47.24882" lon="-1.61169">
        <ele>42.7</ele>
        <time>2013-09-15T10:13:17Z</time>
      </trkpt>
      <trkpt lat="47.24878" lon="-1.61154">
        <ele>42.5</ele>
        <time>2013-09-15T10:13:20Z</time>
      </trkpt>
      <trkpt lat="47.24873" lon="-1.61136">
        <ele>43.6</ele>
        <time>2013-09-15T10:13:23Z</time>
      </trkpt>
      <trkpt lat="47.24869" lon="-1.61121">
        <ele>42.9</ele>
        <time>2013-09-15T10:13:25Z</time>
      </trkpt>
      <trkpt lat="47.24865" lon="-1.61108">
        <ele>41.2</ele>
        <time>2013-09-15T10:13:27Z</time>
      </trkpt>
      <trkpt lat="47.24862" lon="-1.61094">
        <ele>40.7</ele>
        <time>2013-09-15T10:13:29Z</time>
      </trkpt>
      <trkpt lat="47.24855" lon="-1.61082">
        <ele>42.9</ele>
        <time>2013-09-15T10:13:36Z</time>
      </trkpt>
      <trkpt lat="47.2485" lon="-1.61066">
        <ele>44.7</ele>
        <time>2013-09-15T10:13:38Z</time>
      </trkpt>
      <trkpt lat="47.24844" lon="-1.61045">
        <ele>44.1</ele>
        <time>2013-09-15T10:13:40Z</time>
      </trkpt>
      <trkpt lat="47.24836" lon="-1.61023">
        <ele>44.4</ele>
        <time>2013-09-15T10:13:42Z</time>
      </trkpt>
      <trkpt lat="47.24831" lon="-1.6101">
        <ele>44.9</ele>
        <time>2013-09-15T10:13:43Z</time>
      </trkpt>
      <trkpt lat="47.24826" lon="-1.60998">
        <ele>45.3</ele>
        <time>2013-09-15T10:13:44Z</time>
      </trkpt>
      <trkpt lat="47.24821" lon="-1.60985">
        <ele>45.2</ele>
        <time>2013-09-15T10:13:45Z</time>
      </trkpt>
      <trkpt lat="47.24813" lon="-1.60963">
        <ele>45.3</ele>
        <time>2013-09-15T10:13:47Z</time>
      </trkpt>
      <trkpt lat="47.24805" lon="-1.60942">
        <ele>47.3</ele>
        <time>2013-09-15T10:13:49Z</time>
      </trkpt>
      <trkpt lat="47.24797" lon="-1.60922">
        <ele>49.4</ele>
        <time>2013-09-15T10:13:51Z</time>
      </trkpt>
      <trkpt lat="47.24789" lon="-1.609">
        <ele>50.7</ele>
        <time>2013-09-15T10:13:53Z</time>
      </trkpt>
      <trkpt lat="47.24781" lon="-1.60878">
        <ele>51.9</ele>
        <time>2013-09-15T10:13:55Z</time>
      </trkpt>
      <trkpt lat="47.24775" lon="-1.60857">
        <ele>52.4</ele>
        <time>2013-09-15T10:13:57Z</time>
      </trkpt>
      <trkpt lat="47.2477" lon="-1.60835">
        <ele>51.8</ele>
        <time>2013-09-15T10:13:59Z</time>
      </trkpt>
      <trkpt lat="47.24764" lon="-1.60814">
        <ele>50.8</ele>
        <time>2013-09-15T10:14:01Z</time>
      </trkpt>
      <trkpt lat="47.24759" lon="-1.60794">
        <ele>49.5</ele>
        <time>2013-09-15T10:14:03Z</time>
      </trkpt>
      <trkpt lat="47.24755" lon="-1.60773">
        <ele>49.2</ele>
        <time>2013-09-15T10:14:05Z</time>
      </trkpt>
      <trkpt lat="47.24751" lon="-1.60753">
        <ele>48.3</ele>
        <time>2013-09-15T10:14:07Z</time>
      </trkpt>
      <trkpt lat="47.24748" lon="-1.60736">
        <ele>47.6</ele>
        <time>2013-09-15T10:14:09Z</time>
      </trkpt>
      <trkpt lat="47.24744" lon="-1.60718">
        <ele>46.6</ele>
        <time>2013-09-15T10:14:11Z</time>
      </trkpt>
      <trkpt lat="47.24739" lon="-1.60699">
        <ele>46</ele>
        <time>2013-09-15T10:14:13Z</time>
      </trkpt>
      <trkpt lat="47.24734" lon="-1.60682">
        <ele>46.7</ele>
        <time>2013-09-15T10:14:15Z</time>
      </trkpt>
      <trkpt lat="47.24729" lon="-1.60664">
        <ele>47.1</ele>
        <time>2013-09-15T10:14:17Z</time>
      </trkpt>
      <trkpt lat="47.24724" lon="-1.60647">
        <ele>47.6</ele>
        <time>2013-09-15T10:14:19Z</time>
      </trkpt>
      <trkpt lat="47.24718" lon="-1.6063">
        <ele>47.1</ele>
        <time>2013-09-15T10:14:21Z</time>
      </trkpt>
      <trkpt lat="47.24712" lon="-1.60614">
        <ele>46.8</ele>
        <time>2013-09-15T10:14:23Z</time>
      </trkpt>
      <trkpt lat="47.24706" lon="-1.60599">
        <ele>46</ele>
        <time>2013-09-15T10:14:25Z</time>
      </trkpt>
      <trkpt lat="47.247" lon="-1.60583">
        <ele>46.3</ele>
        <time>2013-09-15T10:14:27Z</time>
      </trkpt>
      <trkpt lat="47.24693" lon="-1.60566">
        <ele>47.9</ele>
        <time>2013-09-15T10:14:29Z</time>
      </trkpt>
      <trkpt lat="47.24686" lon="-1.60551">
        <ele>48.9</ele>
        <time>2013-09-15T10:14:31Z</time>
      </trkpt>
      <trkpt lat="47.24676" lon="-1.60543">
        <ele>49.3</ele>
        <time>2013-09-15T10:14:33Z</time>
      </trkpt>
      <trkpt lat="47.24668" lon="-1.60534">
        <ele>49.3</ele>
        <time>2013-09-15T10:14:35Z</time>
      </trkpt>
      <trkpt lat="47.2466" lon="-1.60522">
        <ele>49.8</ele>
        <time>2013-09-15T10:14:37Z</time>
      </trkpt>
      <trkpt lat="47.24653" lon="-1.60509">
        <ele>50.3</ele>
        <time>2013-09-15T10:14:39Z</time>
      </trkpt>
      <trkpt lat="47.24647" lon="-1.60496">
        <ele>50.4</ele>
        <time>2013-09-15T10:14:41Z</time>
      </trkpt>
      <trkpt lat="47.24637" lon="-1.60497">
        <ele>51.3</ele>
        <time>2013-09-15T10:14:44Z</time>
      </trkpt>
      <trkpt lat="47.24627" lon="-1.60504">
        <ele>52</ele>
        <time>2013-09-15T10:14:47Z</time>
      </trkpt>
      <trkpt lat="47.24617" lon="-1.60518">
        <ele>51.4</ele>
        <time>2013-09-15T10:14:50Z</time>
      </trkpt>
      <trkpt lat="47.24609" lon="-1.60528">
        <ele>51</ele>
        <time>2013-09-15T10:14:52Z</time>
      </trkpt>
      <trkpt lat="47.24597" lon="-1.60542">
        <ele>51.5</ele>
        <time>2013-09-15T10:14:55Z</time>
      </trkpt>
      <trkpt lat="47.24589" lon="-1.60551">
        <ele>52.6</ele>
        <time>2013-09-15T10:14:57Z</time>
      </trkpt>
      <trkpt lat="47.24577" lon="-1.60564">
        <ele>52</ele>
        <time>2013-09-15T10:14:59Z</time>
      </trkpt>
      <trkpt lat="47.24553" lon="-1.60592">
        <ele>50.4</ele>
        <time>2013-09-15T10:15:04Z</time>
      </trkpt>
      <trkpt lat="47.24544" lon="-1.60598">
        <ele>48.1</ele>
        <time>2013-09-15T10:15:09Z</time>
      </trkpt>
      <trkpt lat="47.2454" lon="-1.60616">
        <ele>47</ele>
        <time>2013-09-15T10:15:13Z</time>
      </trkpt>
      <trkpt lat="47.24547" lon="-1.60631">
        <ele>47.7</ele>
        <time>2013-09-15T10:15:17Z</time>
      </trkpt>
      <trkpt lat="47.24547" lon="-1.60651">
        <ele>48.3</ele>
        <time>2013-09-15T10:15:19Z</time>
      </trkpt>
      <trkpt lat="47.24545" lon="-1.60667">
        <ele>48.6</ele>
        <time>2013-09-15T10:15:20Z</time>
      </trkpt>
      <trkpt lat="47.2454" lon="-1.60678">
        <ele>48.9</ele>
        <time>2013-09-15T10:15:21Z</time>
      </trkpt>
      <trkpt lat="47.24529" lon="-1.60692">
        <ele>54</ele>
        <time>2013-09-15T10:15:23Z</time>
      </trkpt>
      <trkpt lat="47.2452" lon="-1.60702">
        <ele>57.4</ele>
        <time>2013-09-15T10:15:25Z</time>
      </trkpt>
      <trkpt lat="47.24512" lon="-1.6071">
        <ele>59.9</ele>
        <time>2013-09-15T10:15:27Z</time>
      </trkpt>
      <trkpt lat="47.24501" lon="-1.60711">
        <ele>60.8</ele>
        <time>2013-09-15T10:15:29Z</time>
      </trkpt>
      <trkpt lat="47.2449" lon="-1.60709">
        <ele>60.1</ele>
        <time>2013-09-15T10:15:31Z</time>
      </trkpt>
      <trkpt lat="47.24479" lon="-1.60705">
        <ele>57.8</ele>
        <time>2013-09-15T10:15:33Z</time>
      </trkpt>
      <trkpt lat="47.24467" lon="-1.607">
        <ele>55.5</ele>
        <time>2013-09-15T10:15:35Z</time>
      </trkpt>
      <trkpt lat="47.24455" lon="-1.60695">
        <ele>53.2</ele>
        <time>2013-09-15T10:15:37Z</time>
      </trkpt>
      <trkpt lat="47.24443" lon="-1.60691">
        <ele>52.2</ele>
        <time>2013-09-15T10:15:39Z</time>
      </trkpt>
      <trkpt lat="47.24432" lon="-1.60686">
        <ele>51.6</ele>
        <time>2013-09-15T10:15:41Z</time>
      </trkpt>
      <trkpt lat="47.24422" lon="-1.6068">
        <ele>50.8</ele>
        <time>2013-09-15T10:15:43Z</time>
      </trkpt>
      <trkpt lat="47.24413" lon="-1.60673">
        <ele>50.4</ele>
        <time>2013-09-15T10:15:46Z</time>
      </trkpt>
      <trkpt lat="47.24402" lon="-1.6067">
        <ele>50.6</ele>
        <time>2013-09-15T10:15:50Z</time>
      </trkpt>
      <trkpt lat="47.24394" lon="-1.60678">
        <ele>51.9</ele>
        <time>2013-09-15T10:15:52Z</time>
      </trkpt>
      <trkpt lat="47.24385" lon="-1.60686">
        <ele>54.1</ele>
        <time>2013-09-15T10:15:54Z</time>
      </trkpt>
      <trkpt lat="47.24377" lon="-1.60694">
        <ele>55.5</ele>
        <time>2013-09-15T10:15:56Z</time>
      </trkpt>
      <trkpt lat="47.24368" lon="-1.60703">
        <ele>56.9</ele>
        <time>2013-09-15T10:15:58Z</time>
      </trkpt>
      <trkpt lat="47.24359" lon="-1.60714">
        <ele>58.9</ele>
        <time>2013-09-15T10:16:01Z</time>
      </trkpt>
      <trkpt lat="47.24348" lon="-1.60723">
        <ele>59.9</ele>
        <time>2013-09-15T10:16:04Z</time>
      </trkpt>
      <trkpt lat="47.24339" lon="-1.60731">
        <ele>60.8</ele>
        <time>2013-09-15T10:16:06Z</time>
      </trkpt>
      <trkpt lat="47.24329" lon="-1.60741">
        <ele>60</ele>
        <time>2013-09-15T10:16:08Z</time>
      </trkpt>
      <trkpt lat="47.24319" lon="-1.6075">
        <ele>58</ele>
        <time>2013-09-15T10:16:10Z</time>
      </trkpt>
      <trkpt lat="47.24308" lon="-1.60758">
        <ele>56.4</ele>
        <time>2013-09-15T10:16:12Z</time>
      </trkpt>
      <trkpt lat="47.24298" lon="-1.60765">
        <ele>54.8</ele>
        <time>2013-09-15T10:16:14Z</time>
      </trkpt>
      <trkpt lat="47.24287" lon="-1.60773">
        <ele>53.3</ele>
        <time>2013-09-15T10:16:16Z</time>
      </trkpt>
      <trkpt lat="47.24278" lon="-1.6078">
        <ele>52.1</ele>
        <time>2013-09-15T10:16:18Z</time>
      </trkpt>
      <trkpt lat="47.24269" lon="-1.60787">
        <ele>51.4</ele>
        <time>2013-09-15T10:16:20Z</time>
      </trkpt>
      <trkpt lat="47.24258" lon="-1.60795">
        <ele>52</ele>
        <time>2013-09-15T10:16:22Z</time>
      </trkpt>
      <trkpt lat="47.24248" lon="-1.60802">
        <ele>53.5</ele>
        <time>2013-09-15T10:16:24Z</time>
      </trkpt>
      <trkpt lat="47.24237" lon="-1.6081">
        <ele>55.5</ele>
        <time>2013-09-15T10:16:26Z</time>
      </trkpt>
      <trkpt lat="47.24228" lon="-1.60817">
        <ele>56.5</ele>
        <time>2013-09-15T10:16:28Z</time>
      </trkpt>
      <trkpt lat="47.24219" lon="-1.6083">
        <ele>52.5</ele>
        <time>2013-09-15T10:16:31Z</time>
      </trkpt>
      <trkpt lat="47.24208" lon="-1.6084">
        <ele>49.2</ele>
        <time>2013-09-15T10:16:33Z</time>
      </trkpt>
      <trkpt lat="47.24197" lon="-1.60846">
        <ele>46.9</ele>
        <time>2013-09-15T10:16:35Z</time>
      </trkpt>
      <trkpt lat="47.24184" lon="-1.60852">
        <ele>46.4</ele>
        <time>2013-09-15T10:16:38Z</time>
      </trkpt>
      <trkpt lat="47.24173" lon="-1.60858">
        <ele>47.4</ele>
        <time>2013-09-15T10:16:40Z</time>
      </trkpt>
      <trkpt lat="47.24162" lon="-1.60863">
        <ele>50.3</ele>
        <time>2013-09-15T10:16:42Z</time>
      </trkpt>
      <trkpt lat="47.24152" lon="-1.60867">
        <ele>51.8</ele>
        <time>2013-09-15T10:16:44Z</time>
      </trkpt>
      <trkpt lat="47.24142" lon="-1.60866">
        <ele>51.9</ele>
        <time>2013-09-15T10:16:47Z</time>
      </trkpt>
      <trkpt lat="47.24137" lon="-1.60854">
        <ele>51.5</ele>
        <time>2013-09-15T10:16:51Z</time>
      </trkpt>
      <trkpt lat="47.24127" lon="-1.60859">
        <ele>50.6</ele>
        <time>2013-09-15T10:16:57Z</time>
      </trkpt>
      <trkpt lat="47.24121" lon="-1.60846">
        <ele>50</ele>
        <time>2013-09-15T10:17:02Z</time>
      </trkpt>
      <trkpt lat="47.24115" lon="-1.60832">
        <ele>49.5</ele>
        <time>2013-09-15T10:17:05Z</time>
      </trkpt>
      <trkpt lat="47.24111" lon="-1.6082">
        <ele>49.1</ele>
        <time>2013-09-15T10:17:08Z</time>
      </trkpt>
      <trkpt lat="47.24105" lon="-1.60808">
        <ele>48.8</ele>
        <time>2013-09-15T10:17:13Z</time>
      </trkpt>
      <trkpt lat="47.24108" lon="-1.6079">
        <ele>48.8</ele>
        <time>2013-09-15T10:19:23Z</time>
      </trkpt>
      <trkpt lat="47.24116" lon="-1.608">
        <ele>46.6</ele>
        <time>2013-09-15T10:27:07Z</time>
      </trkpt>
      <trkpt lat="47.24117" lon="-1.60816">
        <ele>45.1</ele>
        <time>2013-09-15T10:27:11Z</time>
      </trkpt>
      <trkpt lat="47.24118" lon="-1.6083">
        <ele>44.2</ele>
        <time>2013-09-15T10:27:14Z</time>
      </trkpt>
      <trkpt lat="47.24119" lon="-1.60844">
        <ele>43.4</ele>
        <time>2013-09-15T10:27:18Z</time>
      </trkpt>
      <trkpt lat="47.2412" lon="-1.60859">
        <ele>42.5</ele>
        <time>2013-09-15T10:27:22Z</time>
      </trkpt>
      <trkpt lat="47.2413" lon="-1.60863">
        <ele>42</ele>
        <time>2013-09-15T10:27:27Z</time>
      </trkpt>
      <trkpt lat="47.2414" lon="-1.60863">
        <ele>42</ele>
        <time>2013-09-15T10:27:31Z</time>
      </trkpt>
      <trkpt lat="47.24149" lon="-1.60863">
        <ele>42.3</ele>
        <time>2013-09-15T10:27:34Z</time>
      </trkpt>
      <trkpt lat="47.2416" lon="-1.60856">
        <ele>42.8</ele>
        <time>2013-09-15T10:27:37Z</time>
      </trkpt>
      <trkpt lat="47.2417" lon="-1.60849">
        <ele>43.4</ele>
        <time>2013-09-15T10:27:40Z</time>
      </trkpt>
      <trkpt lat="47.2418" lon="-1.6084">
        <ele>44.2</ele>
        <time>2013-09-15T10:27:43Z</time>
      </trkpt>
      <trkpt lat="47.2419" lon="-1.60834">
        <ele>45</ele>
        <time>2013-09-15T10:27:46Z</time>
      </trkpt>
      <trkpt lat="47.24198" lon="-1.60825">
        <ele>45.3</ele>
        <time>2013-09-15T10:27:49Z</time>
      </trkpt>
      <trkpt lat="47.24205" lon="-1.60816">
        <ele>45.4</ele>
        <time>2013-09-15T10:27:52Z</time>
      </trkpt>
      <trkpt lat="47.24215" lon="-1.60811">
        <ele>45.7</ele>
        <time>2013-09-15T10:27:55Z</time>
      </trkpt>
      <trkpt lat="47.24228" lon="-1.60806">
        <ele>47</ele>
        <time>2013-09-15T10:27:58Z</time>
      </trkpt>
      <trkpt lat="47.24239" lon="-1.608">
        <ele>49.1</ele>
        <time>2013-09-15T10:28:01Z</time>
      </trkpt>
      <trkpt lat="47.2425" lon="-1.60794">
        <ele>50.6</ele>
        <time>2013-09-15T10:28:04Z</time>
      </trkpt>
      <trkpt lat="47.2426" lon="-1.60787">
        <ele>53.9</ele>
        <time>2013-09-15T10:28:07Z</time>
      </trkpt>
      <trkpt lat="47.24272" lon="-1.60777">
        <ele>58</ele>
        <time>2013-09-15T10:28:10Z</time>
      </trkpt>
      <trkpt lat="47.2428" lon="-1.6077">
        <ele>57.7</ele>
        <time>2013-09-15T10:28:12Z</time>
      </trkpt>
      <trkpt lat="47.2429" lon="-1.60762">
        <ele>55.6</ele>
        <time>2013-09-15T10:28:15Z</time>
      </trkpt>
      <trkpt lat="47.243" lon="-1.60752">
        <ele>54.4</ele>
        <time>2013-09-15T10:28:18Z</time>
      </trkpt>
      <trkpt lat="47.24311" lon="-1.60742">
        <ele>54.6</ele>
        <time>2013-09-15T10:28:21Z</time>
      </trkpt>
      <trkpt lat="47.24321" lon="-1.60734">
        <ele>54.6</ele>
        <time>2013-09-15T10:28:24Z</time>
      </trkpt>
      <trkpt lat="47.2433" lon="-1.60725">
        <ele>54.4</ele>
        <time>2013-09-15T10:28:27Z</time>
      </trkpt>
      <trkpt lat="47.2434" lon="-1.60716">
        <ele>54.5</ele>
        <time>2013-09-15T10:28:30Z</time>
      </trkpt>
      <trkpt lat="47.24351" lon="-1.60707">
        <ele>54.4</ele>
        <time>2013-09-15T10:28:33Z</time>
      </trkpt>
      <trkpt lat="47.2436" lon="-1.607">
        <ele>54.1</ele>
        <time>2013-09-15T10:28:35Z</time>
      </trkpt>
      <trkpt lat="47.24368" lon="-1.60693">
        <ele>54.5</ele>
        <time>2013-09-15T10:28:37Z</time>
      </trkpt>
      <trkpt lat="47.24379" lon="-1.60683">
        <ele>55.3</ele>
        <time>2013-09-15T10:28:40Z</time>
      </trkpt>
      <trkpt lat="47.24387" lon="-1.60674">
        <ele>55.2</ele>
        <time>2013-09-15T10:28:43Z</time>
      </trkpt>
      <trkpt lat="47.24398" lon="-1.60663">
        <ele>54.1</ele>
        <time>2013-09-15T10:28:46Z</time>
      </trkpt>
      <trkpt lat="47.24406" lon="-1.60657">
        <ele>53.5</ele>
        <time>2013-09-15T10:28:48Z</time>
      </trkpt>
      <trkpt lat="47.24416" lon="-1.60648">
        <ele>52.7</ele>
        <time>2013-09-15T10:28:51Z</time>
      </trkpt>
      <trkpt lat="47.24425" lon="-1.60636">
        <ele>52.3</ele>
        <time>2013-09-15T10:28:54Z</time>
      </trkpt>
      <trkpt lat="47.24434" lon="-1.60629">
        <ele>52.2</ele>
        <time>2013-09-15T10:28:57Z</time>
      </trkpt>
      <trkpt lat="47.24442" lon="-1.60622">
        <ele>52.4</ele>
        <time>2013-09-15T10:29:00Z</time>
      </trkpt>
      <trkpt lat="47.24453" lon="-1.60613">
        <ele>52.8</ele>
        <time>2013-09-15T10:29:03Z</time>
      </trkpt>
      <trkpt lat="47.24464" lon="-1.60607">
        <ele>53.3</ele>
        <time>2013-09-15T10:29:06Z</time>
      </trkpt>
      <trkpt lat="47.24471" lon="-1.60596">
        <ele>53.3</ele>
        <time>2013-09-15T10:29:09Z</time>
      </trkpt>
      <trkpt lat="47.24478" lon="-1.60581">
        <ele>53</ele>
        <time>2013-09-15T10:29:13Z</time>
      </trkpt>
      <trkpt lat="47.24486" lon="-1.60574">
        <ele>52.9</ele>
        <time>2013-09-15T10:29:16Z</time>
      </trkpt>
      <trkpt lat="47.24498" lon="-1.6057">
        <ele>53</ele>
        <time>2013-09-15T10:29:19Z</time>
      </trkpt>
      <trkpt lat="47.24508" lon="-1.60562">
        <ele>52.9</ele>
        <time>2013-09-15T10:29:22Z</time>
      </trkpt>
      <trkpt lat="47.24517" lon="-1.60552">
        <ele>53.1</ele>
        <time>2013-09-15T10:29:25Z</time>
      </trkpt>
      <trkpt lat="47.24527" lon="-1.60542">
        <ele>53.8</ele>
        <time>2013-09-15T10:29:28Z</time>
      </trkpt>
      <trkpt lat="47.24535" lon="-1.60536">
        <ele>56.5</ele>
        <time>2013-09-15T10:29:30Z</time>
      </trkpt>
      <trkpt lat="47.24547" lon="-1.60526">
        <ele>63</ele>
        <time>2013-09-15T10:29:33Z</time>
      </trkpt>
      <trkpt lat="47.24557" lon="-1.60518">
        <ele>65.9</ele>
        <time>2013-09-15T10:29:36Z</time>
      </trkpt>
      <trkpt lat="47.24569" lon="-1.60511">
        <ele>68</ele>
        <time>2013-09-15T10:29:39Z</time>
      </trkpt>
      <trkpt lat="47.24581" lon="-1.60505">
        <ele>68</ele>
        <time>2013-09-15T10:29:42Z</time>
      </trkpt>
      <trkpt lat="47.24593" lon="-1.60499">
        <ele>68</ele>
        <time>2013-09-15T10:29:45Z</time>
      </trkpt>
      <trkpt lat="47.24603" lon="-1.6049">
        <ele>66.6</ele>
        <time>2013-09-15T10:29:48Z</time>
      </trkpt>
      <trkpt lat="47.24611" lon="-1.6048">
        <ele>65</ele>
        <time>2013-09-15T10:29:50Z</time>
      </trkpt>
      <trkpt lat="47.24618" lon="-1.60464">
        <ele>60.8</ele>
        <time>2013-09-15T10:29:53Z</time>
      </trkpt>
      <trkpt lat="47.24624" lon="-1.60451">
        <ele>58.6</ele>
        <time>2013-09-15T10:29:55Z</time>
      </trkpt>
      <trkpt lat="47.2463" lon="-1.60436">
        <ele>54.8</ele>
        <time>2013-09-15T10:29:58Z</time>
      </trkpt>
      <trkpt lat="47.24634" lon="-1.60422">
        <ele>52.7</ele>
        <time>2013-09-15T10:30:00Z</time>
      </trkpt>
      <trkpt lat="47.24639" lon="-1.60405">
        <ele>50.9</ele>
        <time>2013-09-15T10:30:03Z</time>
      </trkpt>
      <trkpt lat="47.24648" lon="-1.60392">
        <ele>50.2</ele>
        <time>2013-09-15T10:30:06Z</time>
      </trkpt>
      <trkpt lat="47.24654" lon="-1.60382">
        <ele>51.1</ele>
        <time>2013-09-15T10:30:08Z</time>
      </trkpt>
      <trkpt lat="47.24659" lon="-1.60369">
        <ele>51.1</ele>
        <time>2013-09-15T10:30:10Z</time>
      </trkpt>
      <trkpt lat="47.24666" lon="-1.60355">
        <ele>51.2</ele>
        <time>2013-09-15T10:30:12Z</time>
      </trkpt>
      <trkpt lat="47.24673" lon="-1.60344">
        <ele>52.7</ele>
        <time>2013-09-15T10:30:14Z</time>
      </trkpt>
      <trkpt lat="47.24682" lon="-1.60331">
        <ele>53.5</ele>
        <time>2013-09-15T10:30:17Z</time>
      </trkpt>
      <trkpt lat="47.24689" lon="-1.60321">
        <ele>54</ele>
        <time>2013-09-15T10:30:19Z</time>
      </trkpt>
      <trkpt lat="47.24696" lon="-1.6031">
        <ele>54.8</ele>
        <time>2013-09-15T10:30:21Z</time>
      </trkpt>
      <trkpt lat="47.24704" lon="-1.603">
        <ele>55.1</ele>
        <time>2013-09-15T10:30:23Z</time>
      </trkpt>
      <trkpt lat="47.24712" lon="-1.60289">
        <ele>54.5</ele>
        <time>2013-09-15T10:30:25Z</time>
      </trkpt>
      <trkpt lat="47.24719" lon="-1.60279">
        <ele>55.1</ele>
        <time>2013-09-15T10:30:27Z</time>
      </trkpt>
      <trkpt lat="47.24725" lon="-1.60268">
        <ele>55.5</ele>
        <time>2013-09-15T10:30:30Z</time>
      </trkpt>
      <trkpt lat="47.24732" lon="-1.60252">
        <ele>54.3</ele>
        <time>2013-09-15T10:30:33Z</time>
      </trkpt>
      <trkpt lat="47.24741" lon="-1.60243">
        <ele>53.5</ele>
        <time>2013-09-15T10:30:35Z</time>
      </trkpt>
      <trkpt lat="47.24752" lon="-1.60233">
        <ele>52.8</ele>
        <time>2013-09-15T10:30:38Z</time>
      </trkpt>
      <trkpt lat="47.24762" lon="-1.6022">
        <ele>51.5</ele>
        <time>2013-09-15T10:30:41Z</time>
      </trkpt>
      <trkpt lat="47.2477" lon="-1.60208">
        <ele>50.6</ele>
        <time>2013-09-15T10:30:43Z</time>
      </trkpt>
      <trkpt lat="47.24779" lon="-1.60194">
        <ele>48.8</ele>
        <time>2013-09-15T10:30:45Z</time>
      </trkpt>
      <trkpt lat="47.24788" lon="-1.60182">
        <ele>47.8</ele>
        <time>2013-09-15T10:30:47Z</time>
      </trkpt>
      <trkpt lat="47.24796" lon="-1.60171">
        <ele>48.2</ele>
        <time>2013-09-15T10:30:49Z</time>
      </trkpt>
      <trkpt lat="47.24803" lon="-1.60161">
        <ele>49</ele>
        <time>2013-09-15T10:30:51Z</time>
      </trkpt>
      <trkpt lat="47.24811" lon="-1.6015">
        <ele>48.5</ele>
        <time>2013-09-15T10:30:53Z</time>
      </trkpt>
      <trkpt lat="47.24819" lon="-1.60139">
        <ele>47.1</ele>
        <time>2013-09-15T10:30:55Z</time>
      </trkpt>
      <trkpt lat="47.24827" lon="-1.60129">
        <ele>46.8</ele>
        <time>2013-09-15T10:30:57Z</time>
      </trkpt>
      <trkpt lat="47.24835" lon="-1.60118">
        <ele>46.9</ele>
        <time>2013-09-15T10:30:59Z</time>
      </trkpt>
      <trkpt lat="47.24842" lon="-1.60108">
        <ele>47.8</ele>
        <time>2013-09-15T10:31:01Z</time>
      </trkpt>
      <trkpt lat="47.2485" lon="-1.60097">
        <ele>48</ele>
        <time>2013-09-15T10:31:03Z</time>
      </trkpt>
      <trkpt lat="47.24858" lon="-1.60085">
        <ele>47.7</ele>
        <time>2013-09-15T10:31:05Z</time>
      </trkpt>
      <trkpt lat="47.24865" lon="-1.60075">
        <ele>46.3</ele>
        <time>2013-09-15T10:31:07Z</time>
      </trkpt>
      <trkpt lat="47.24874" lon="-1.60065">
        <ele>45.9</ele>
        <time>2013-09-15T10:31:09Z</time>
      </trkpt>
      <trkpt lat="47.24882" lon="-1.60053">
        <ele>45.5</ele>
        <time>2013-09-15T10:31:11Z</time>
      </trkpt>
      <trkpt lat="47.2489" lon="-1.60041">
        <ele>45.9</ele>
        <time>2013-09-15T10:31:13Z</time>
      </trkpt>
      <trkpt lat="47.24898" lon="-1.60031">
        <ele>45.7</ele>
        <time>2013-09-15T10:31:15Z</time>
      </trkpt>
      <trkpt lat="47.24906" lon="-1.60023">
        <ele>45.4</ele>
        <time>2013-09-15T10:31:17Z</time>
      </trkpt>
      <trkpt lat="47.24913" lon="-1.60013">
        <ele>45.9</ele>
        <time>2013-09-15T10:31:19Z</time>
      </trkpt>
      <trkpt lat="47.24922" lon="-1.60001">
        <ele>45</ele>
        <time>2013-09-15T10:31:21Z</time>
      </trkpt>
      <trkpt lat="47.24931" lon="-1.5999">
        <ele>45</ele>
        <time>2013-09-15T10:31:23Z</time>
      </trkpt>
      <trkpt lat="47.24938" lon="-1.59978">
        <ele>45.4</ele>
        <time>2013-09-15T10:31:25Z</time>
      </trkpt>
      <trkpt lat="47.24946" lon="-1.59967">
        <ele>45.9</ele>
        <time>2013-09-15T10:31:27Z</time>
      </trkpt>
      <trkpt lat="47.24954" lon="-1.59957">
        <ele>46.4</ele>
        <time>2013-09-15T10:31:29Z</time>
      </trkpt>
      <trkpt lat="47.24962" lon="-1.59946">
        <ele>47.5</ele>
        <time>2013-09-15T10:31:31Z</time>
      </trkpt>
      <trkpt lat="47.24969" lon="-1.59936">
        <ele>49</ele>
        <time>2013-09-15T10:31:33Z</time>
      </trkpt>
      <trkpt lat="47.24977" lon="-1.59925">
        <ele>49.2</ele>
        <time>2013-09-15T10:31:35Z</time>
      </trkpt>
      <trkpt lat="47.24985" lon="-1.59913">
        <ele>48.7</ele>
        <time>2013-09-15T10:31:37Z</time>
      </trkpt>
      <trkpt lat="47.24991" lon="-1.59903">
        <ele>48</ele>
        <time>2013-09-15T10:31:39Z</time>
      </trkpt>
      <trkpt lat="47.24997" lon="-1.59888">
        <ele>46.4</ele>
        <time>2013-09-15T10:31:42Z</time>
      </trkpt>
      <trkpt lat="47.25003" lon="-1.59877">
        <ele>44.4</ele>
        <time>2013-09-15T10:31:44Z</time>
      </trkpt>
      <trkpt lat="47.25014" lon="-1.59873">
        <ele>43.6</ele>
        <time>2013-09-15T10:31:47Z</time>
      </trkpt>
      <trkpt lat="47.25023" lon="-1.59878">
        <ele>44.3</ele>
        <time>2013-09-15T10:31:49Z</time>
      </trkpt>
      <trkpt lat="47.25033" lon="-1.59876">
        <ele>45.7</ele>
        <time>2013-09-15T10:31:51Z</time>
      </trkpt>
      <trkpt lat="47.25043" lon="-1.5987">
        <ele>47.3</ele>
        <time>2013-09-15T10:31:53Z</time>
      </trkpt>
      <trkpt lat="47.25054" lon="-1.59864">
        <ele>48.4</ele>
        <time>2013-09-15T10:31:55Z</time>
      </trkpt>
      <trkpt lat="47.25066" lon="-1.59859">
        <ele>48.6</ele>
        <time>2013-09-15T10:31:57Z</time>
      </trkpt>
      <trkpt lat="47.25077" lon="-1.59854">
        <ele>46.6</ele>
        <time>2013-09-15T10:31:59Z</time>
      </trkpt>
      <trkpt lat="47.25089" lon="-1.59849">
        <ele>45.8</ele>
        <time>2013-09-15T10:32:01Z</time>
      </trkpt>
      <trkpt lat="47.25101" lon="-1.59843">
        <ele>46.3</ele>
        <time>2013-09-15T10:32:03Z</time>
      </trkpt>
      <trkpt lat="47.25111" lon="-1.59839">
        <ele>46.2</ele>
        <time>2013-09-15T10:32:05Z</time>
      </trkpt>
      <trkpt lat="47.25123" lon="-1.59833">
        <ele>46.1</ele>
        <time>2013-09-15T10:32:07Z</time>
      </trkpt>
      <trkpt lat="47.25135" lon="-1.59826">
        <ele>46.3</ele>
        <time>2013-09-15T10:32:09Z</time>
      </trkpt>
      <trkpt lat="47.25147" lon="-1.59821">
        <ele>45.6</ele>
        <time>2013-09-15T10:32:11Z</time>
      </trkpt>
      <trkpt lat="47.25157" lon="-1.59815">
        <ele>46</ele>
        <time>2013-09-15T10:32:13Z</time>
      </trkpt>
      <trkpt lat="47.25168" lon="-1.59807">
        <ele>46</ele>
        <time>2013-09-15T10:32:15Z</time>
      </trkpt>
      <trkpt lat="47.2518" lon="-1.598">
        <ele>45.6</ele>
        <time>2013-09-15T10:32:17Z</time>
      </trkpt>
      <trkpt lat="47.25192" lon="-1.59793">
        <ele>44.3</ele>
        <time>2013-09-15T10:32:19Z</time>
      </trkpt>
      <trkpt lat="47.25204" lon="-1.59786">
        <ele>43</ele>
        <time>2013-09-15T10:32:21Z</time>
      </trkpt>
      <trkpt lat="47.25216" lon="-1.59779">
        <ele>41.3</ele>
        <time>2013-09-15T10:32:23Z</time>
      </trkpt>
      <trkpt lat="47.25227" lon="-1.59773">
        <ele>40.3</ele>
        <time>2013-09-15T10:32:25Z</time>
      </trkpt>
      <trkpt lat="47.25239" lon="-1.59767">
        <ele>39.3</ele>
        <time>2013-09-15T10:32:27Z</time>
      </trkpt>
      <trkpt lat="47.25251" lon="-1.59761">
        <ele>38.9</ele>
        <time>2013-09-15T10:32:29Z</time>
      </trkpt>
      <trkpt lat="47.25263" lon="-1.59754">
        <ele>38.7</ele>
        <time>2013-09-15T10:32:31Z</time>
      </trkpt>
      <trkpt lat="47.25273" lon="-1.59747">
        <ele>38.6</ele>
        <time>2013-09-15T10:32:33Z</time>
      </trkpt>
      <trkpt lat="47.25284" lon="-1.5974">
        <ele>38.9</ele>
        <time>2013-09-15T10:32:35Z</time>
      </trkpt>
      <trkpt lat="47.25297" lon="-1.59731">
        <ele>39.4</ele>
        <time>2013-09-15T10:32:37Z</time>
      </trkpt>
      <trkpt lat="47.25309" lon="-1.59724">
        <ele>40.4</ele>
        <time>2013-09-15T10:32:39Z</time>
      </trkpt>
      <trkpt lat="47.25321" lon="-1.59718">
        <ele>41.9</ele>
        <time>2013-09-15T10:32:41Z</time>
      </trkpt>
      <trkpt lat="47.25332" lon="-1.59713">
        <ele>42.5</ele>
        <time>2013-09-15T10:32:43Z</time>
      </trkpt>
      <trkpt lat="47.25336" lon="-1.59701">
        <ele>43.7</ele>
        <time>2013-09-15T10:32:45Z</time>
      </trkpt>
      <trkpt lat="47.25337" lon="-1.59682">
        <ele>43.3</ele>
        <time>2013-09-15T10:32:47Z</time>
      </trkpt>
      <trkpt lat="47.25333" lon="-1.59664">
        <ele>42.6</ele>
        <time>2013-09-15T10:32:49Z</time>
      </trkpt>
      <trkpt lat="47.25328" lon="-1.59647">
        <ele>42</ele>
        <time>2013-09-15T10:32:51Z</time>
      </trkpt>
      <trkpt lat="47.25324" lon="-1.5963">
        <ele>41.4</ele>
        <time>2013-09-15T10:32:53Z</time>
      </trkpt>
      <trkpt lat="47.25319" lon="-1.59615">
        <ele>41</ele>
        <time>2013-09-15T10:32:55Z</time>
      </trkpt>
      <trkpt lat="47.25316" lon="-1.59601">
        <ele>40.8</ele>
        <time>2013-09-15T10:32:57Z</time>
      </trkpt>
      <trkpt lat="47.25312" lon="-1.59587">
        <ele>40</ele>
        <time>2013-09-15T10:32:59Z</time>
      </trkpt>
      <trkpt lat="47.25308" lon="-1.59572">
        <ele>39.3</ele>
        <time>2013-09-15T10:33:01Z</time>
      </trkpt>
      <trkpt lat="47.25303" lon="-1.59556">
        <ele>38.7</ele>
        <time>2013-09-15T10:33:03Z</time>
      </trkpt>
      <trkpt lat="47.25298" lon="-1.59538">
        <ele>39.1</ele>
        <time>2013-09-15T10:33:05Z</time>
      </trkpt>
      <trkpt lat="47.25293" lon="-1.59523">
        <ele>39.6</ele>
        <time>2013-09-15T10:33:07Z</time>
      </trkpt>
      <trkpt lat="47.25289" lon="-1.59507">
        <ele>39.4</ele>
        <time>2013-09-15T10:33:09Z</time>
      </trkpt>
      <trkpt lat="47.25283" lon="-1.5949">
        <ele>39.3</ele>
        <time>2013-09-15T10:33:11Z</time>
      </trkpt>
      <trkpt lat="47.25277" lon="-1.59473">
        <ele>39.6</ele>
        <time>2013-09-15T10:33:13Z</time>
      </trkpt>
      <trkpt lat="47.25272" lon="-1.59455">
        <ele>39.4</ele>
        <time>2013-09-15T10:33:15Z</time>
      </trkpt>
      <trkpt lat="47.25267" lon="-1.59438">
        <ele>39.7</ele>
        <time>2013-09-15T10:33:17Z</time>
      </trkpt>
      <trkpt lat="47.25262" lon="-1.5942">
        <ele>40.4</ele>
        <time>2013-09-15T10:33:19Z</time>
      </trkpt>
      <trkpt lat="47.25257" lon="-1.59404">
        <ele>41</ele>
        <time>2013-09-15T10:33:21Z</time>
      </trkpt>
      <trkpt lat="47.25253" lon="-1.59387">
        <ele>40.9</ele>
        <time>2013-09-15T10:33:23Z</time>
      </trkpt>
      <trkpt lat="47.25247" lon="-1.59368">
        <ele>41.4</ele>
        <time>2013-09-15T10:33:25Z</time>
      </trkpt>
      <trkpt lat="47.25241" lon="-1.5935">
        <ele>41.5</ele>
        <time>2013-09-15T10:33:27Z</time>
      </trkpt>
      <trkpt lat="47.25234" lon="-1.5933">
        <ele>41.1</ele>
        <time>2013-09-15T10:33:29Z</time>
      </trkpt>
      <trkpt lat="47.25228" lon="-1.59311">
        <ele>39.5</ele>
        <time>2013-09-15T10:33:31Z</time>
      </trkpt>
      <trkpt lat="47.25221" lon="-1.59292">
        <ele>38.7</ele>
        <time>2013-09-15T10:33:33Z</time>
      </trkpt>
      <trkpt lat="47.25214" lon="-1.59273">
        <ele>38.8</ele>
        <time>2013-09-15T10:33:35Z</time>
      </trkpt>
      <trkpt lat="47.25206" lon="-1.59253">
        <ele>38.1</ele>
        <time>2013-09-15T10:33:37Z</time>
      </trkpt>
      <trkpt lat="47.25197" lon="-1.59233">
        <ele>37.6</ele>
        <time>2013-09-15T10:33:39Z</time>
      </trkpt>
      <trkpt lat="47.25189" lon="-1.59211">
        <ele>36.9</ele>
        <time>2013-09-15T10:33:41Z</time>
      </trkpt>
      <trkpt lat="47.25185" lon="-1.59198">
        <ele>36.2</ele>
        <time>2013-09-15T10:33:42Z</time>
      </trkpt>
      <trkpt lat="47.2518" lon="-1.59186">
        <ele>35.6</ele>
        <time>2013-09-15T10:33:43Z</time>
      </trkpt>
      <trkpt lat="47.25176" lon="-1.59174">
        <ele>35.3</ele>
        <time>2013-09-15T10:33:44Z</time>
      </trkpt>
      <trkpt lat="47.25171" lon="-1.59162">
        <ele>35.1</ele>
        <time>2013-09-15T10:33:45Z</time>
      </trkpt>
      <trkpt lat="47.25167" lon="-1.59149">
        <ele>34.7</ele>
        <time>2013-09-15T10:33:46Z</time>
      </trkpt>
      <trkpt lat="47.25162" lon="-1.59136">
        <ele>34.5</ele>
        <time>2013-09-15T10:33:47Z</time>
      </trkpt>
      <trkpt lat="47.25157" lon="-1.59123">
        <ele>34.4</ele>
        <time>2013-09-15T10:33:48Z</time>
      </trkpt>
      <trkpt lat="47.25152" lon="-1.59109">
        <ele>34.2</ele>
        <time>2013-09-15T10:33:49Z</time>
      </trkpt>
      <trkpt lat="47.25147" lon="-1.59095">
        <ele>34.1</ele>
        <time>2013-09-15T10:33:50Z</time>
      </trkpt>
      <trkpt lat="47.25142" lon="-1.59081">
        <ele>33.8</ele>
        <time>2013-09-15T10:33:51Z</time>
      </trkpt>
      <trkpt lat="47.25137" lon="-1.59067">
        <ele>33.2</ele>
        <time>2013-09-15T10:33:52Z</time>
      </trkpt>
      <trkpt lat="47.25131" lon="-1.59052">
        <ele>32.8</ele>
        <time>2013-09-15T10:33:53Z</time>
      </trkpt>
      <trkpt lat="47.25126" lon="-1.59037">
        <ele>31.9</ele>
        <time>2013-09-15T10:33:54Z</time>
      </trkpt>
      <trkpt lat="47.2512" lon="-1.59021">
        <ele>31.1</ele>
        <time>2013-09-15T10:33:55Z</time>
      </trkpt>
      <trkpt lat="47.25115" lon="-1.59007">
        <ele>30.5</ele>
        <time>2013-09-15T10:33:56Z</time>
      </trkpt>
      <trkpt lat="47.25109" lon="-1.58993">
        <ele>30</ele>
        <time>2013-09-15T10:33:57Z</time>
      </trkpt>
      <trkpt lat="47.25104" lon="-1.58979">
        <ele>29.4</ele>
        <time>2013-09-15T10:33:58Z</time>
      </trkpt>
      <trkpt lat="47.25098" lon="-1.58964">
        <ele>28.7</ele>
        <time>2013-09-15T10:33:59Z</time>
      </trkpt>
      <trkpt lat="47.25094" lon="-1.58951">
        <ele>28.1</ele>
        <time>2013-09-15T10:34:00Z</time>
      </trkpt>
      <trkpt lat="47.25089" lon="-1.58937">
        <ele>27.6</ele>
        <time>2013-09-15T10:34:01Z</time>
      </trkpt>
      <trkpt lat="47.25084" lon="-1.58923">
        <ele>27.3</ele>
        <time>2013-09-15T10:34:02Z</time>
      </trkpt>
      <trkpt lat="47.25079" lon="-1.5891">
        <ele>27.2</ele>
        <time>2013-09-15T10:34:03Z</time>
      </trkpt>
      <trkpt lat="47.25075" lon="-1.58897">
        <ele>26.8</ele>
        <time>2013-09-15T10:34:04Z</time>
      </trkpt>
      <trkpt lat="47.2507" lon="-1.58884">
        <ele>26.4</ele>
        <time>2013-09-15T10:34:05Z</time>
      </trkpt>
      <trkpt lat="47.25065" lon="-1.58871">
        <ele>25.8</ele>
        <time>2013-09-15T10:34:06Z</time>
      </trkpt>
      <trkpt lat="47.25056" lon="-1.58848">
        <ele>25.1</ele>
        <time>2013-09-15T10:34:08Z</time>
      </trkpt>
      <trkpt lat="47.25048" lon="-1.58826">
        <ele>24.8</ele>
        <time>2013-09-15T10:34:10Z</time>
      </trkpt>
      <trkpt lat="47.2504" lon="-1.58804">
        <ele>24.2</ele>
        <time>2013-09-15T10:34:12Z</time>
      </trkpt>
      <trkpt lat="47.25036" lon="-1.58792">
        <ele>24.2</ele>
        <time>2013-09-15T10:34:13Z</time>
      </trkpt>
      <trkpt lat="47.25029" lon="-1.58772">
        <ele>25</ele>
        <time>2013-09-15T10:34:15Z</time>
      </trkpt>
      <trkpt lat="47.25024" lon="-1.58753">
        <ele>26.2</ele>
        <time>2013-09-15T10:34:17Z</time>
      </trkpt>
      <trkpt lat="47.25019" lon="-1.58734">
        <ele>27.4</ele>
        <time>2013-09-15T10:34:19Z</time>
      </trkpt>
      <trkpt lat="47.25015" lon="-1.58715">
        <ele>28.4</ele>
        <time>2013-09-15T10:34:21Z</time>
      </trkpt>
      <trkpt lat="47.2501" lon="-1.58698">
        <ele>28.4</ele>
        <time>2013-09-15T10:34:23Z</time>
      </trkpt>
      <trkpt lat="47.25002" lon="-1.58688">
        <ele>28.5</ele>
        <time>2013-09-15T10:34:25Z</time>
      </trkpt>
      <trkpt lat="47.24994" lon="-1.58677">
        <ele>29.1</ele>
        <time>2013-09-15T10:34:27Z</time>
      </trkpt>
      <trkpt lat="47.24997" lon="-1.58658">
        <ele>30.1</ele>
        <time>2013-09-15T10:34:30Z</time>
      </trkpt>
      <trkpt lat="47.25005" lon="-1.58646">
        <ele>29.8</ele>
        <time>2013-09-15T10:34:32Z</time>
      </trkpt>
      <trkpt lat="47.25009" lon="-1.58631">
        <ele>29.9</ele>
        <time>2013-09-15T10:34:34Z</time>
      </trkpt>
      <trkpt lat="47.25007" lon="-1.58611">
        <ele>29.4</ele>
        <time>2013-09-15T10:34:36Z</time>
      </trkpt>
      <trkpt lat="47.25006" lon="-1.58591">
        <ele>28.4</ele>
        <time>2013-09-15T10:34:38Z</time>
      </trkpt>
      <trkpt lat="47.25004" lon="-1.5857">
        <ele>26.5</ele>
        <time>2013-09-15T10:34:40Z</time>
      </trkpt>
      <trkpt lat="47.25002" lon="-1.58549">
        <ele>25.2</ele>
        <time>2013-09-15T10:34:42Z</time>
      </trkpt>
      <trkpt lat="47.24999" lon="-1.58528">
        <ele>24.9</ele>
        <time>2013-09-15T10:34:44Z</time>
      </trkpt>
      <trkpt lat="47.24997" lon="-1.58504">
        <ele>24.4</ele>
        <time>2013-09-15T10:34:46Z</time>
      </trkpt>
      <trkpt lat="47.24994" lon="-1.58478">
        <ele>23.1</ele>
        <time>2013-09-15T10:34:48Z</time>
      </trkpt>
      <trkpt lat="47.24992" lon="-1.58452">
        <ele>21.6</ele>
        <time>2013-09-15T10:34:50Z</time>
      </trkpt>
      <trkpt lat="47.24989" lon="-1.58427">
        <ele>20.8</ele>
        <time>2013-09-15T10:34:52Z</time>
      </trkpt>
      <trkpt lat="47.24987" lon="-1.58414">
        <ele>20.5</ele>
        <time>2013-09-15T10:34:53Z</time>
      </trkpt>
      <trkpt lat="47.24986" lon="-1.584">
        <ele>20.1</ele>
        <time>2013-09-15T10:34:54Z</time>
      </trkpt>
      <trkpt lat="47.24985" lon="-1.58387">
        <ele>19.8</ele>
        <time>2013-09-15T10:34:55Z</time>
      </trkpt>
      <trkpt lat="47.24983" lon="-1.58373">
        <ele>19.5</ele>
        <time>2013-09-15T10:34:56Z</time>
      </trkpt>
      <trkpt lat="47.24981" lon="-1.5836">
        <ele>19.1</ele>
        <time>2013-09-15T10:34:57Z</time>
      </trkpt>
      <trkpt lat="47.2498" lon="-1.58346">
        <ele>18.6</ele>
        <time>2013-09-15T10:34:58Z</time>
      </trkpt>
      <trkpt lat="47.24979" lon="-1.58332">
        <ele>18.1</ele>
        <time>2013-09-15T10:34:59Z</time>
      </trkpt>
      <trkpt lat="47.24977" lon="-1.58318">
        <ele>17.9</ele>
        <time>2013-09-15T10:35:00Z</time>
      </trkpt>
      <trkpt lat="47.24976" lon="-1.58304">
        <ele>17.6</ele>
        <time>2013-09-15T10:35:01Z</time>
      </trkpt>
      <trkpt lat="47.24974" lon="-1.58289">
        <ele>17</ele>
        <time>2013-09-15T10:35:02Z</time>
      </trkpt>
      <trkpt lat="47.24973" lon="-1.58275">
        <ele>16.3</ele>
        <time>2013-09-15T10:35:03Z</time>
      </trkpt>
      <trkpt lat="47.24971" lon="-1.58262">
        <ele>16.1</ele>
        <time>2013-09-15T10:35:04Z</time>
      </trkpt>
      <trkpt lat="47.2497" lon="-1.58247">
        <ele>15.9</ele>
        <time>2013-09-15T10:35:05Z</time>
      </trkpt>
      <trkpt lat="47.24968" lon="-1.58233">
        <ele>15.4</ele>
        <time>2013-09-15T10:35:06Z</time>
      </trkpt>
      <trkpt lat="47.24966" lon="-1.58218">
        <ele>15.1</ele>
        <time>2013-09-15T10:35:07Z</time>
      </trkpt>
      <trkpt lat="47.24965" lon="-1.58204">
        <ele>14.6</ele>
        <time>2013-09-15T10:35:08Z</time>
      </trkpt>
      <trkpt lat="47.24963" lon="-1.58189">
        <ele>14</ele>
        <time>2013-09-15T10:35:09Z</time>
      </trkpt>
      <trkpt lat="47.24962" lon="-1.58174">
        <ele>13.4</ele>
        <time>2013-09-15T10:35:10Z</time>
      </trkpt>
      <trkpt lat="47.24961" lon="-1.58159">
        <ele>12.8</ele>
        <time>2013-09-15T10:35:11Z</time>
      </trkpt>
      <trkpt lat="47.2496" lon="-1.58144">
        <ele>12.1</ele>
        <time>2013-09-15T10:35:12Z</time>
      </trkpt>
      <trkpt lat="47.24959" lon="-1.58128">
        <ele>11.4</ele>
        <time>2013-09-15T10:35:13Z</time>
      </trkpt>
      <trkpt lat="47.24957" lon="-1.58113">
        <ele>10.6</ele>
        <time>2013-09-15T10:35:14Z</time>
      </trkpt>
      <trkpt lat="47.24956" lon="-1.58098">
        <ele>9.6</ele>
        <time>2013-09-15T10:35:15Z</time>
      </trkpt>
      <trkpt lat="47.24955" lon="-1.58082">
        <ele>8.7</ele>
        <time>2013-09-15T10:35:16Z</time>
      </trkpt>
      <trkpt lat="47.24953" lon="-1.58068">
        <ele>7.6</ele>
        <time>2013-09-15T10:35:17Z</time>
      </trkpt>
      <trkpt lat="47.24951" lon="-1.58053">
        <ele>6.6</ele>
        <time>2013-09-15T10:35:18Z</time>
      </trkpt>
      <trkpt lat="47.24948" lon="-1.58038">
        <ele>5.8</ele>
        <time>2013-09-15T10:35:19Z</time>
      </trkpt>
      <trkpt lat="47.24944" lon="-1.58023">
        <ele>5.1</ele>
        <time>2013-09-15T10:35:20Z</time>
      </trkpt>
      <trkpt lat="47.2494" lon="-1.5801">
        <ele>4.3</ele>
        <time>2013-09-15T10:35:21Z</time>
      </trkpt>
      <trkpt lat="47.24935" lon="-1.57997">
        <ele>3.6</ele>
        <time>2013-09-15T10:35:22Z</time>
      </trkpt>
      <trkpt lat="47.2493" lon="-1.57984">
        <ele>2.9</ele>
        <time>2013-09-15T10:35:23Z</time>
      </trkpt>
      <trkpt lat="47.24924" lon="-1.57972">
        <ele>2.9</ele>
        <time>2013-09-15T10:35:24Z</time>
      </trkpt>
      <trkpt lat="47.24918" lon="-1.57959">
        <ele>3.4</ele>
        <time>2013-09-15T10:35:25Z</time>
      </trkpt>
      <trkpt lat="47.24912" lon="-1.57946">
        <ele>3.6</ele>
        <time>2013-09-15T10:35:26Z</time>
      </trkpt>
      <trkpt lat="47.24905" lon="-1.57934">
        <ele>3.8</ele>
        <time>2013-09-15T10:35:27Z</time>
      </trkpt>
      <trkpt lat="47.24898" lon="-1.57922">
        <ele>3.7</ele>
        <time>2013-09-15T10:35:28Z</time>
      </trkpt>
      <trkpt lat="47.2489" lon="-1.57914">
        <ele>3.6</ele>
        <time>2013-09-15T10:35:29Z</time>
      </trkpt>
      <trkpt lat="47.24878" lon="-1.57901">
        <ele>3.8</ele>
        <time>2013-09-15T10:35:31Z</time>
      </trkpt>
      <trkpt lat="47.24868" lon="-1.57887">
        <ele>4.7</ele>
        <time>2013-09-15T10:35:33Z</time>
      </trkpt>
      <trkpt lat="47.24858" lon="-1.57869">
        <ele>5.1</ele>
        <time>2013-09-15T10:35:35Z</time>
      </trkpt>
      <trkpt lat="47.24847" lon="-1.57853">
        <ele>5.4</ele>
        <time>2013-09-15T10:35:37Z</time>
      </trkpt>
      <trkpt lat="47.24835" lon="-1.57838">
        <ele>5.1</ele>
        <time>2013-09-15T10:35:39Z</time>
      </trkpt>
      <trkpt lat="47.24825" lon="-1.57825">
        <ele>4.3</ele>
        <time>2013-09-15T10:35:41Z</time>
      </trkpt>
      <trkpt lat="47.24813" lon="-1.57811">
        <ele>5.3</ele>
        <time>2013-09-15T10:35:43Z</time>
      </trkpt>
      <trkpt lat="47.24795" lon="-1.57789">
        <ele>6.4</ele>
        <time>2013-09-15T10:35:45Z</time>
      </trkpt>
      <trkpt lat="47.24787" lon="-1.57778">
        <ele>5.9</ele>
        <time>2013-09-15T10:35:47Z</time>
      </trkpt>
      <trkpt lat="47.2478" lon="-1.57769">
        <ele>5.5</ele>
        <time>2013-09-15T10:35:49Z</time>
      </trkpt>
      <trkpt lat="47.24773" lon="-1.57758">
        <ele>5.6</ele>
        <time>2013-09-15T10:35:52Z</time>
      </trkpt>
      <trkpt lat="47.24775" lon="-1.57743">
        <ele>5.6</ele>
        <time>2013-09-15T10:36:33Z</time>
      </trkpt>
      <trkpt lat="47.24781" lon="-1.57731">
        <ele>5.6</ele>
        <time>2013-09-15T10:36:36Z</time>
      </trkpt>
      <trkpt lat="47.24791" lon="-1.57727">
        <ele>5.9</ele>
        <time>2013-09-15T10:36:40Z</time>
      </trkpt>
      <trkpt lat="47.24802" lon="-1.57725">
        <ele>6.4</ele>
        <time>2013-09-15T10:36:43Z</time>
      </trkpt>
      <trkpt lat="47.24814" lon="-1.57722">
        <ele>7.3</ele>
        <time>2013-09-15T10:36:46Z</time>
      </trkpt>
      <trkpt lat="47.24826" lon="-1.57719">
        <ele>10.7</ele>
        <time>2013-09-15T10:36:49Z</time>
      </trkpt>
      <trkpt lat="47.24839" lon="-1.57716">
        <ele>19.2</ele>
        <time>2013-09-15T10:36:52Z</time>
      </trkpt>
      <trkpt lat="47.2485" lon="-1.57713">
        <ele>21.3</ele>
        <time>2013-09-15T10:36:54Z</time>
      </trkpt>
      <trkpt lat="47.24859" lon="-1.57712">
        <ele>20.7</ele>
        <time>2013-09-15T10:36:56Z</time>
      </trkpt>
      <trkpt lat="47.2487" lon="-1.5771">
        <ele>19.9</ele>
        <time>2013-09-15T10:36:59Z</time>
      </trkpt>
      <trkpt lat="47.24879" lon="-1.57707">
        <ele>19.7</ele>
        <time>2013-09-15T10:37:02Z</time>
      </trkpt>
      <trkpt lat="47.24888" lon="-1.57705">
        <ele>19.5</ele>
        <time>2013-09-15T10:37:05Z</time>
      </trkpt>
      <trkpt lat="47.249" lon="-1.57706">
        <ele>19.5</ele>
        <time>2013-09-15T10:37:08Z</time>
      </trkpt>
      <trkpt lat="47.24911" lon="-1.57703">
        <ele>19.6</ele>
        <time>2013-09-15T10:37:11Z</time>
      </trkpt>
      <trkpt lat="47.24921" lon="-1.577">
        <ele>20</ele>
        <time>2013-09-15T10:37:14Z</time>
      </trkpt>
      <trkpt lat="47.24932" lon="-1.57698">
        <ele>20.3</ele>
        <time>2013-09-15T10:37:17Z</time>
      </trkpt>
      <trkpt lat="47.24941" lon="-1.57695">
        <ele>20.4</ele>
        <time>2013-09-15T10:37:20Z</time>
      </trkpt>
      <trkpt lat="47.24953" lon="-1.57692">
        <ele>20.5</ele>
        <time>2013-09-15T10:37:24Z</time>
      </trkpt>
      <trkpt lat="47.24963" lon="-1.5769">
        <ele>20.8</ele>
        <time>2013-09-15T10:37:27Z</time>
      </trkpt>
      <trkpt lat="47.24975" lon="-1.57687">
        <ele>21.1</ele>
        <time>2013-09-15T10:37:31Z</time>
      </trkpt>
      <trkpt lat="47.24985" lon="-1.57683">
        <ele>21.2</ele>
        <time>2013-09-15T10:37:34Z</time>
      </trkpt>
      <trkpt lat="47.24996" lon="-1.57679">
        <ele>21.6</ele>
        <time>2013-09-15T10:37:38Z</time>
      </trkpt>
      <trkpt lat="47.25007" lon="-1.57679">
        <ele>22.2</ele>
        <time>2013-09-15T10:37:42Z</time>
      </trkpt>
      <trkpt lat="47.25017" lon="-1.57681">
        <ele>23.9</ele>
        <time>2013-09-15T10:37:47Z</time>
      </trkpt>
      <trkpt lat="47.25027" lon="-1.57679">
        <ele>25.4</ele>
        <time>2013-09-15T10:37:52Z</time>
      </trkpt>
      <trkpt lat="47.25037" lon="-1.57676">
        <ele>26.6</ele>
        <time>2013-09-15T10:37:58Z</time>
      </trkpt>
      <trkpt lat="47.25046" lon="-1.57672">
        <ele>26.7</ele>
        <time>2013-09-15T10:38:03Z</time>
      </trkpt>
      <trkpt lat="47.25055" lon="-1.57669">
        <ele>26.5</ele>
        <time>2013-09-15T10:38:07Z</time>
      </trkpt>
      <trkpt lat="47.25065" lon="-1.57666">
        <ele>26.2</ele>
        <time>2013-09-15T10:38:12Z</time>
      </trkpt>
      <trkpt lat="47.25074" lon="-1.57664">
        <ele>26.7</ele>
        <time>2013-09-15T10:38:16Z</time>
      </trkpt>
      <trkpt lat="47.25085" lon="-1.57662">
        <ele>27.5</ele>
        <time>2013-09-15T10:38:20Z</time>
      </trkpt>
      <trkpt lat="47.25094" lon="-1.5766">
        <ele>28.1</ele>
        <time>2013-09-15T10:38:23Z</time>
      </trkpt>
      <trkpt lat="47.25104" lon="-1.57658">
        <ele>28.4</ele>
        <time>2013-09-15T10:38:27Z</time>
      </trkpt>
      <trkpt lat="47.25115" lon="-1.57655">
        <ele>29</ele>
        <time>2013-09-15T10:38:31Z</time>
      </trkpt>
      <trkpt lat="47.25124" lon="-1.57652">
        <ele>29.5</ele>
        <time>2013-09-15T10:38:35Z</time>
      </trkpt>
      <trkpt lat="47.25135" lon="-1.57651">
        <ele>30</ele>
        <time>2013-09-15T10:38:39Z</time>
      </trkpt>
      <trkpt lat="47.25144" lon="-1.57649">
        <ele>30.5</ele>
        <time>2013-09-15T10:38:42Z</time>
      </trkpt>
      <trkpt lat="47.25153" lon="-1.57647">
        <ele>30.7</ele>
        <time>2013-09-15T10:38:45Z</time>
      </trkpt>
      <trkpt lat="47.25162" lon="-1.57644">
        <ele>30.8</ele>
        <time>2013-09-15T10:38:49Z</time>
      </trkpt>
      <trkpt lat="47.25172" lon="-1.57642">
        <ele>31.1</ele>
        <time>2013-09-15T10:38:53Z</time>
      </trkpt>
      <trkpt lat="47.25182" lon="-1.5764">
        <ele>31.4</ele>
        <time>2013-09-15T10:38:57Z</time>
      </trkpt>
      <trkpt lat="47.25193" lon="-1.57637">
        <ele>31.9</ele>
        <time>2013-09-15T10:39:01Z</time>
      </trkpt>
      <trkpt lat="47.25205" lon="-1.57636">
        <ele>32.2</ele>
        <time>2013-09-15T10:39:05Z</time>
      </trkpt>
      <trkpt lat="47.25215" lon="-1.57634">
        <ele>32.5</ele>
        <time>2013-09-15T10:39:09Z</time>
      </trkpt>
      <trkpt lat="47.25226" lon="-1.57633">
        <ele>33.1</ele>
        <time>2013-09-15T10:39:13Z</time>
      </trkpt>
      <trkpt lat="47.25236" lon="-1.57632">
        <ele>33.7</ele>
        <time>2013-09-15T10:39:17Z</time>
      </trkpt>
      <trkpt lat="47.25246" lon="-1.5763">
        <ele>34.2</ele>
        <time>2013-09-15T10:39:22Z</time>
      </trkpt>
      <trkpt lat="47.25257" lon="-1.57626">
        <ele>34.8</ele>
        <time>2013-09-15T10:39:26Z</time>
      </trkpt>
      <trkpt lat="47.25266" lon="-1.57624">
        <ele>35.6</ele>
        <time>2013-09-15T10:39:30Z</time>
      </trkpt>
      <trkpt lat="47.25277" lon="-1.57622">
        <ele>36.5</ele>
        <time>2013-09-15T10:39:34Z</time>
      </trkpt>
      <trkpt lat="47.25287" lon="-1.57619">
        <ele>37.1</ele>
        <time>2013-09-15T10:39:38Z</time>
      </trkpt>
      <trkpt lat="47.25298" lon="-1.57616">
        <ele>37.3</ele>
        <time>2013-09-15T10:39:42Z</time>
      </trkpt>
      <trkpt lat="47.25302" lon="-1.57602">
        <ele>37.5</ele>
        <time>2013-09-15T10:39:48Z</time>
      </trkpt>
      <trkpt lat="47.25303" lon="-1.57586">
        <ele>37.2</ele>
        <time>2013-09-15T10:39:52Z</time>
      </trkpt>
      <trkpt lat="47.25313" lon="-1.57585">
        <ele>37.1</ele>
        <time>2013-09-15T10:40:47Z</time>
      </trkpt>
      <trkpt lat="47.25322" lon="-1.57584">
        <ele>40.1</ele>
        <time>2013-09-15T10:43:39Z</time>
      </trkpt>
      <trkpt lat="47.25314" lon="-1.57589">
        <ele>40.6</ele>
        <time>2013-09-15T10:45:02Z</time>
      </trkpt>
      <trkpt lat="47.25321" lon="-1.57582">
        <ele>40.6</ele>
        <time>2013-09-15T10:47:08Z</time>
      </trkpt>
      <trkpt lat="47.25312" lon="-1.57584">
        <ele>40.8</ele>
        <time>2013-09-15T10:47:41Z</time>
      </trkpt>
      <trkpt lat="47.25302" lon="-1.57585">
        <ele>40.6</ele>
        <time>2013-09-15T10:47:45Z</time>
      </trkpt>
      <trkpt lat="47.25294" lon="-1.57597">
        <ele>40.2</ele>
        <time>2013-09-15T10:47:49Z</time>
      </trkpt>
      <trkpt lat="47.25288" lon="-1.57611">
        <ele>39.7</ele>
        <time>2013-09-15T10:47:54Z</time>
      </trkpt>
      <trkpt lat="47.25289" lon="-1.57624">
        <ele>39.5</ele>
        <time>2013-09-15T10:47:58Z</time>
      </trkpt>
      <trkpt lat="47.25279" lon="-1.57634">
        <ele>39.8</ele>
        <time>2013-09-15T10:48:05Z</time>
      </trkpt>
      <trkpt lat="47.25269" lon="-1.57636">
        <ele>39.8</ele>
        <time>2013-09-15T10:48:08Z</time>
      </trkpt>
      <trkpt lat="47.25255" lon="-1.57636">
        <ele>39.5</ele>
        <time>2013-09-15T10:48:11Z</time>
      </trkpt>
      <trkpt lat="47.25245" lon="-1.57638">
        <ele>37</ele>
        <time>2013-09-15T10:48:13Z</time>
      </trkpt>
      <trkpt lat="47.25234" lon="-1.57639">
        <ele>36.8</ele>
        <time>2013-09-15T10:48:15Z</time>
      </trkpt>
      <trkpt lat="47.25223" lon="-1.5764">
        <ele>36.2</ele>
        <time>2013-09-15T10:48:17Z</time>
      </trkpt>
      <trkpt lat="47.25211" lon="-1.57639">
        <ele>35.6</ele>
        <time>2013-09-15T10:48:19Z</time>
      </trkpt>
      <trkpt lat="47.25199" lon="-1.57639">
        <ele>34.6</ele>
        <time>2013-09-15T10:48:21Z</time>
      </trkpt>
      <trkpt lat="47.25186" lon="-1.57642">
        <ele>33.6</ele>
        <time>2013-09-15T10:48:23Z</time>
      </trkpt>
      <trkpt lat="47.25174" lon="-1.57645">
        <ele>31.8</ele>
        <time>2013-09-15T10:48:25Z</time>
      </trkpt>
      <trkpt lat="47.25159" lon="-1.57649">
        <ele>29.4</ele>
        <time>2013-09-15T10:48:27Z</time>
      </trkpt>
      <trkpt lat="47.25144" lon="-1.57654">
        <ele>27.2</ele>
        <time>2013-09-15T10:48:29Z</time>
      </trkpt>
      <trkpt lat="47.25129" lon="-1.57659">
        <ele>26.3</ele>
        <time>2013-09-15T10:48:31Z</time>
      </trkpt>
      <trkpt lat="47.25114" lon="-1.57664">
        <ele>25.8</ele>
        <time>2013-09-15T10:48:33Z</time>
      </trkpt>
      <trkpt lat="47.25098" lon="-1.57668">
        <ele>25.5</ele>
        <time>2013-09-15T10:48:35Z</time>
      </trkpt>
      <trkpt lat="47.25081" lon="-1.57671">
        <ele>26</ele>
        <time>2013-09-15T10:48:37Z</time>
      </trkpt>
      <trkpt lat="47.25065" lon="-1.57674">
        <ele>26.4</ele>
        <time>2013-09-15T10:48:39Z</time>
      </trkpt>
      <trkpt lat="47.25047" lon="-1.57678">
        <ele>24.7</ele>
        <time>2013-09-15T10:48:41Z</time>
      </trkpt>
      <trkpt lat="47.25029" lon="-1.5768">
        <ele>22.9</ele>
        <time>2013-09-15T10:48:43Z</time>
      </trkpt>
      <trkpt lat="47.25012" lon="-1.57684">
        <ele>23.6</ele>
        <time>2013-09-15T10:48:45Z</time>
      </trkpt>
      <trkpt lat="47.25002" lon="-1.57686">
        <ele>24.3</ele>
        <time>2013-09-15T10:48:46Z</time>
      </trkpt>
      <trkpt lat="47.24985" lon="-1.57689">
        <ele>25.4</ele>
        <time>2013-09-15T10:48:48Z</time>
      </trkpt>
      <trkpt lat="47.24976" lon="-1.57691">
        <ele>25.5</ele>
        <time>2013-09-15T10:48:49Z</time>
      </trkpt>
      <trkpt lat="47.24959" lon="-1.57696">
        <ele>25.7</ele>
        <time>2013-09-15T10:48:51Z</time>
      </trkpt>
      <trkpt lat="47.24942" lon="-1.577">
        <ele>26.2</ele>
        <time>2013-09-15T10:48:53Z</time>
      </trkpt>
      <trkpt lat="47.24925" lon="-1.57704">
        <ele>25.5</ele>
        <time>2013-09-15T10:48:55Z</time>
      </trkpt>
      <trkpt lat="47.24908" lon="-1.57709">
        <ele>24.4</ele>
        <time>2013-09-15T10:48:57Z</time>
      </trkpt>
      <trkpt lat="47.24891" lon="-1.57713">
        <ele>23.8</ele>
        <time>2013-09-15T10:48:59Z</time>
      </trkpt>
      <trkpt lat="47.24875" lon="-1.57717">
        <ele>23</ele>
        <time>2013-09-15T10:49:01Z</time>
      </trkpt>
      <trkpt lat="47.24862" lon="-1.57721">
        <ele>22.1</ele>
        <time>2013-09-15T10:49:03Z</time>
      </trkpt>
      <trkpt lat="47.2485" lon="-1.57725">
        <ele>19.9</ele>
        <time>2013-09-15T10:49:05Z</time>
      </trkpt>
      <trkpt lat="47.24838" lon="-1.57727">
        <ele>17.7</ele>
        <time>2013-09-15T10:49:07Z</time>
      </trkpt>
      <trkpt lat="47.24826" lon="-1.5773">
        <ele>17.1</ele>
        <time>2013-09-15T10:49:09Z</time>
      </trkpt>
      <trkpt lat="47.24813" lon="-1.57733">
        <ele>16.3</ele>
        <time>2013-09-15T10:49:11Z</time>
      </trkpt>
      <trkpt lat="47.248" lon="-1.57737">
        <ele>16.2</ele>
        <time>2013-09-15T10:49:13Z</time>
      </trkpt>
      <trkpt lat="47.24786" lon="-1.57742">
        <ele>16.5</ele>
        <time>2013-09-15T10:49:15Z</time>
      </trkpt>
      <trkpt lat="47.24772" lon="-1.57746">
        <ele>16.5</ele>
        <time>2013-09-15T10:49:17Z</time>
      </trkpt>
      <trkpt lat="47.24759" lon="-1.5775">
        <ele>16.4</ele>
        <time>2013-09-15T10:49:19Z</time>
      </trkpt>
      <trkpt lat="47.24745" lon="-1.57753">
        <ele>16.2</ele>
        <time>2013-09-15T10:49:21Z</time>
      </trkpt>
      <trkpt lat="47.24732" lon="-1.57753">
        <ele>15.3</ele>
        <time>2013-09-15T10:49:23Z</time>
      </trkpt>
      <trkpt lat="47.2472" lon="-1.57753">
        <ele>14.6</ele>
        <time>2013-09-15T10:49:25Z</time>
      </trkpt>
      <trkpt lat="47.24709" lon="-1.57752">
        <ele>12.8</ele>
        <time>2013-09-15T10:49:27Z</time>
      </trkpt>
      <trkpt lat="47.24702" lon="-1.57764">
        <ele>10.2</ele>
        <time>2013-09-15T10:49:29Z</time>
      </trkpt>
      <trkpt lat="47.24697" lon="-1.57778">
        <ele>7</ele>
        <time>2013-09-15T10:49:31Z</time>
      </trkpt>
      <trkpt lat="47.24693" lon="-1.57795">
        <ele>5.3</ele>
        <time>2013-09-15T10:49:33Z</time>
      </trkpt>
      <trkpt lat="47.2469" lon="-1.57811">
        <ele>4.4</ele>
        <time>2013-09-15T10:49:35Z</time>
      </trkpt>
      <trkpt lat="47.24685" lon="-1.57827">
        <ele>4.2</ele>
        <time>2013-09-15T10:49:37Z</time>
      </trkpt>
      <trkpt lat="47.2468" lon="-1.5784">
        <ele>4.6</ele>
        <time>2013-09-15T10:49:39Z</time>
      </trkpt>
      <trkpt lat="47.24672" lon="-1.57855">
        <ele>4.9</ele>
        <time>2013-09-15T10:49:42Z</time>
      </trkpt>
      <trkpt lat="47.24666" lon="-1.57866">
        <ele>4.8</ele>
        <time>2013-09-15T10:49:44Z</time>
      </trkpt>
      <trkpt lat="47.24659" lon="-1.57878">
        <ele>4.8</ele>
        <time>2013-09-15T10:49:47Z</time>
      </trkpt>
      <trkpt lat="47.24653" lon="-1.5789">
        <ele>5</ele>
        <time>2013-09-15T10:49:50Z</time>
      </trkpt>
      <trkpt lat="47.24647" lon="-1.57904">
        <ele>5</ele>
        <time>2013-09-15T10:49:53Z</time>
      </trkpt>
      <trkpt lat="47.24641" lon="-1.57915">
        <ele>4.8</ele>
        <time>2013-09-15T10:49:56Z</time>
      </trkpt>
      <trkpt lat="47.24636" lon="-1.57927">
        <ele>4.7</ele>
        <time>2013-09-15T10:50:00Z</time>
      </trkpt>
      <trkpt lat="47.24629" lon="-1.57943">
        <ele>5.1</ele>
        <time>2013-09-15T10:50:04Z</time>
      </trkpt>
      <trkpt lat="47.24624" lon="-1.57954">
        <ele>5.6</ele>
        <time>2013-09-15T10:50:07Z</time>
      </trkpt>
      <trkpt lat="47.24618" lon="-1.57964">
        <ele>6.3</ele>
        <time>2013-09-15T10:50:11Z</time>
      </trkpt>
      <trkpt lat="47.24611" lon="-1.57977">
        <ele>7</ele>
        <time>2013-09-15T10:50:15Z</time>
      </trkpt>
      <trkpt lat="47.24605" lon="-1.57987">
        <ele>7.7</ele>
        <time>2013-09-15T10:50:18Z</time>
      </trkpt>
      <trkpt lat="47.24599" lon="-1.58001">
        <ele>8.4</ele>
        <time>2013-09-15T10:50:22Z</time>
      </trkpt>
      <trkpt lat="47.24593" lon="-1.58016">
        <ele>9.2</ele>
        <time>2013-09-15T10:50:26Z</time>
      </trkpt>
      <trkpt lat="47.24587" lon="-1.5803">
        <ele>9.8</ele>
        <time>2013-09-15T10:50:30Z</time>
      </trkpt>
      <trkpt lat="47.24582" lon="-1.58041">
        <ele>10.6</ele>
        <time>2013-09-15T10:50:34Z</time>
      </trkpt>
      <trkpt lat="47.24575" lon="-1.58051">
        <ele>11.8</ele>
        <time>2013-09-15T10:50:39Z</time>
      </trkpt>
      <trkpt lat="47.24567" lon="-1.58061">
        <ele>12.8</ele>
        <time>2013-09-15T10:50:43Z</time>
      </trkpt>
      <trkpt lat="47.24561" lon="-1.58071">
        <ele>13.5</ele>
        <time>2013-09-15T10:50:47Z</time>
      </trkpt>
      <trkpt lat="47.24554" lon="-1.58082">
        <ele>14.4</ele>
        <time>2013-09-15T10:50:52Z</time>
      </trkpt>
      <trkpt lat="47.24546" lon="-1.58091">
        <ele>14.6</ele>
        <time>2013-09-15T10:50:56Z</time>
      </trkpt>
      <trkpt lat="47.24539" lon="-1.58101">
        <ele>15.1</ele>
        <time>2013-09-15T10:51:01Z</time>
      </trkpt>
      <trkpt lat="47.24531" lon="-1.58112">
        <ele>15.3</ele>
        <time>2013-09-15T10:51:05Z</time>
      </trkpt>
      <trkpt lat="47.24524" lon="-1.58123">
        <ele>15.4</ele>
        <time>2013-09-15T10:51:09Z</time>
      </trkpt>
      <trkpt lat="47.24514" lon="-1.58134">
        <ele>15.6</ele>
        <time>2013-09-15T10:51:14Z</time>
      </trkpt>
      <trkpt lat="47.24505" lon="-1.58143">
        <ele>16.2</ele>
        <time>2013-09-15T10:51:18Z</time>
      </trkpt>
      <trkpt lat="47.24498" lon="-1.58154">
        <ele>16.4</ele>
        <time>2013-09-15T10:51:22Z</time>
      </trkpt>
      <trkpt lat="47.24493" lon="-1.58165">
        <ele>16.7</ele>
        <time>2013-09-15T10:51:26Z</time>
      </trkpt>
      <trkpt lat="47.24487" lon="-1.58178">
        <ele>16.6</ele>
        <time>2013-09-15T10:51:30Z</time>
      </trkpt>
      <trkpt lat="47.24481" lon="-1.58188">
        <ele>16.3</ele>
        <time>2013-09-15T10:51:33Z</time>
      </trkpt>
      <trkpt lat="47.24472" lon="-1.582">
        <ele>16.1</ele>
        <time>2013-09-15T10:51:37Z</time>
      </trkpt>
      <trkpt lat="47.24462" lon="-1.58212">
        <ele>16.2</ele>
        <time>2013-09-15T10:51:40Z</time>
      </trkpt>
      <trkpt lat="47.24455" lon="-1.58221">
        <ele>16.1</ele>
        <time>2013-09-15T10:51:42Z</time>
      </trkpt>
      <trkpt lat="47.24448" lon="-1.5823">
        <ele>16.1</ele>
        <time>2013-09-15T10:51:44Z</time>
      </trkpt>
      <trkpt lat="47.24443" lon="-1.58241">
        <ele>16.4</ele>
        <time>2013-09-15T10:51:46Z</time>
      </trkpt>
      <trkpt lat="47.24439" lon="-1.58255">
        <ele>17</ele>
        <time>2013-09-15T10:51:49Z</time>
      </trkpt>
      <trkpt lat="47.24432" lon="-1.58264">
        <ele>17.6</ele>
        <time>2013-09-15T10:51:52Z</time>
      </trkpt>
      <trkpt lat="47.2442" lon="-1.58274">
        <ele>18</ele>
        <time>2013-09-15T10:51:55Z</time>
      </trkpt>
      <trkpt lat="47.24414" lon="-1.58284">
        <ele>18.4</ele>
        <time>2013-09-15T10:51:57Z</time>
      </trkpt>
      <trkpt lat="47.2441" lon="-1.58296">
        <ele>19.9</ele>
        <time>2013-09-15T10:51:59Z</time>
      </trkpt>
      <trkpt lat="47.24404" lon="-1.58313">
        <ele>23.1</ele>
        <time>2013-09-15T10:52:02Z</time>
      </trkpt>
      <trkpt lat="47.24399" lon="-1.5833">
        <ele>25.3</ele>
        <time>2013-09-15T10:52:05Z</time>
      </trkpt>
      <trkpt lat="47.24394" lon="-1.58345">
        <ele>26</ele>
        <time>2013-09-15T10:52:08Z</time>
      </trkpt>
      <trkpt lat="47.24389" lon="-1.5836">
        <ele>27.3</ele>
        <time>2013-09-15T10:52:11Z</time>
      </trkpt>
      <trkpt lat="47.24385" lon="-1.58373">
        <ele>27.7</ele>
        <time>2013-09-15T10:52:14Z</time>
      </trkpt>
      <trkpt lat="47.2438" lon="-1.58387">
        <ele>28</ele>
        <time>2013-09-15T10:52:17Z</time>
      </trkpt>
      <trkpt lat="47.24376" lon="-1.584">
        <ele>28.3</ele>
        <time>2013-09-15T10:52:20Z</time>
      </trkpt>
      <trkpt lat="47.2437" lon="-1.58415">
        <ele>28.5</ele>
        <time>2013-09-15T10:52:24Z</time>
      </trkpt>
      <trkpt lat="47.24365" lon="-1.58426">
        <ele>28.6</ele>
        <time>2013-09-15T10:52:27Z</time>
      </trkpt>
      <trkpt lat="47.24361" lon="-1.5844">
        <ele>29.7</ele>
        <time>2013-09-15T10:53:07Z</time>
      </trkpt>
      <trkpt lat="47.24355" lon="-1.58452">
        <ele>30</ele>
        <time>2013-09-15T10:53:11Z</time>
      </trkpt>
      <trkpt lat="47.2435" lon="-1.58466">
        <ele>30.1</ele>
        <time>2013-09-15T10:53:14Z</time>
      </trkpt>
      <trkpt lat="47.24347" lon="-1.5848">
        <ele>30.3</ele>
        <time>2013-09-15T10:53:17Z</time>
      </trkpt>
      <trkpt lat="47.24343" lon="-1.58493">
        <ele>30.6</ele>
        <time>2013-09-15T10:53:20Z</time>
      </trkpt>
      <trkpt lat="47.2434" lon="-1.58506">
        <ele>31.1</ele>
        <time>2013-09-15T10:53:23Z</time>
      </trkpt>
      <trkpt lat="47.24335" lon="-1.58517">
        <ele>31.4</ele>
        <time>2013-09-15T10:53:26Z</time>
      </trkpt>
      <trkpt lat="47.24328" lon="-1.5853">
        <ele>31.7</ele>
        <time>2013-09-15T10:53:29Z</time>
      </trkpt>
      <trkpt lat="47.24316" lon="-1.58538">
        <ele>34</ele>
        <time>2013-09-15T10:53:32Z</time>
      </trkpt>
      <trkpt lat="47.24306" lon="-1.58544">
        <ele>35.1</ele>
        <time>2013-09-15T10:53:34Z</time>
      </trkpt>
      <trkpt lat="47.24297" lon="-1.58548">
        <ele>34.3</ele>
        <time>2013-09-15T10:53:36Z</time>
      </trkpt>
      <trkpt lat="47.24287" lon="-1.58553">
        <ele>33.7</ele>
        <time>2013-09-15T10:53:38Z</time>
      </trkpt>
      <trkpt lat="47.2428" lon="-1.58561">
        <ele>33.4</ele>
        <time>2013-09-15T10:53:40Z</time>
      </trkpt>
      <trkpt lat="47.24273" lon="-1.58571">
        <ele>32.6</ele>
        <time>2013-09-15T10:53:42Z</time>
      </trkpt>
      <trkpt lat="47.2427" lon="-1.58587">
        <ele>32.1</ele>
        <time>2013-09-15T10:53:44Z</time>
      </trkpt>
      <trkpt lat="47.24267" lon="-1.58604">
        <ele>31.1</ele>
        <time>2013-09-15T10:53:46Z</time>
      </trkpt>
      <trkpt lat="47.2426" lon="-1.58618">
        <ele>29.3</ele>
        <time>2013-09-15T10:53:49Z</time>
      </trkpt>
      <trkpt lat="47.24253" lon="-1.58626">
        <ele>27.5</ele>
        <time>2013-09-15T10:53:51Z</time>
      </trkpt>
      <trkpt lat="47.24241" lon="-1.58635">
        <ele>26.4</ele>
        <time>2013-09-15T10:53:54Z</time>
      </trkpt>
      <trkpt lat="47.2423" lon="-1.58643">
        <ele>29.1</ele>
        <time>2013-09-15T10:53:57Z</time>
      </trkpt>
      <trkpt lat="47.24218" lon="-1.58647">
        <ele>32.2</ele>
        <time>2013-09-15T10:54:00Z</time>
      </trkpt>
      <trkpt lat="47.24209" lon="-1.58652">
        <ele>34.4</ele>
        <time>2013-09-15T10:54:02Z</time>
      </trkpt>
      <trkpt lat="47.242" lon="-1.58657">
        <ele>36.4</ele>
        <time>2013-09-15T10:54:04Z</time>
      </trkpt>
      <trkpt lat="47.24192" lon="-1.58663">
        <ele>38.6</ele>
        <time>2013-09-15T10:54:06Z</time>
      </trkpt>
      <trkpt lat="47.24183" lon="-1.5867">
        <ele>38.9</ele>
        <time>2013-09-15T10:54:08Z</time>
      </trkpt>
      <trkpt lat="47.24174" lon="-1.58682">
        <ele>38.3</ele>
        <time>2013-09-15T10:54:11Z</time>
      </trkpt>
      <trkpt lat="47.24167" lon="-1.58697">
        <ele>38.4</ele>
        <time>2013-09-15T10:54:14Z</time>
      </trkpt>
      <trkpt lat="47.2416" lon="-1.5871">
        <ele>38.5</ele>
        <time>2013-09-15T10:54:17Z</time>
      </trkpt>
      <trkpt lat="47.24155" lon="-1.58723">
        <ele>38.5</ele>
        <time>2013-09-15T10:54:20Z</time>
      </trkpt>
      <trkpt lat="47.24148" lon="-1.58733">
        <ele>38.4</ele>
        <time>2013-09-15T10:54:23Z</time>
      </trkpt>
      <trkpt lat="47.2414" lon="-1.58746">
        <ele>38.1</ele>
        <time>2013-09-15T10:54:26Z</time>
      </trkpt>
      <trkpt lat="47.24133" lon="-1.58756">
        <ele>38</ele>
        <time>2013-09-15T10:54:29Z</time>
      </trkpt>
      <trkpt lat="47.24126" lon="-1.58768">
        <ele>38.1</ele>
        <time>2013-09-15T10:54:32Z</time>
      </trkpt>
      <trkpt lat="47.24118" lon="-1.5878">
        <ele>38.4</ele>
        <time>2013-09-15T10:54:35Z</time>
      </trkpt>
      <trkpt lat="47.2411" lon="-1.5879">
        <ele>38.9</ele>
        <time>2013-09-15T10:54:38Z</time>
      </trkpt>
      <trkpt lat="47.24102" lon="-1.588">
        <ele>39.1</ele>
        <time>2013-09-15T10:54:41Z</time>
      </trkpt>
      <trkpt lat="47.24092" lon="-1.58811">
        <ele>39.2</ele>
        <time>2013-09-15T10:54:44Z</time>
      </trkpt>
      <trkpt lat="47.24085" lon="-1.58819">
        <ele>39.4</ele>
        <time>2013-09-15T10:54:47Z</time>
      </trkpt>
      <trkpt lat="47.24076" lon="-1.58827">
        <ele>39.7</ele>
        <time>2013-09-15T10:54:50Z</time>
      </trkpt>
      <trkpt lat="47.24067" lon="-1.58834">
        <ele>40.2</ele>
        <time>2013-09-15T10:54:53Z</time>
      </trkpt>
      <trkpt lat="47.24058" lon="-1.58843">
        <ele>40.8</ele>
        <time>2013-09-15T10:54:56Z</time>
      </trkpt>
      <trkpt lat="47.24049" lon="-1.58851">
        <ele>41.5</ele>
        <time>2013-09-15T10:54:59Z</time>
      </trkpt>
      <trkpt lat="47.2404" lon="-1.58857">
        <ele>42.2</ele>
        <time>2013-09-15T10:55:02Z</time>
      </trkpt>
      <trkpt lat="47.24031" lon="-1.58864">
        <ele>42.7</ele>
        <time>2013-09-15T10:55:05Z</time>
      </trkpt>
      <trkpt lat="47.24021" lon="-1.58872">
        <ele>42.7</ele>
        <time>2013-09-15T10:55:08Z</time>
      </trkpt>
      <trkpt lat="47.24012" lon="-1.5888">
        <ele>42.5</ele>
        <time>2013-09-15T10:55:11Z</time>
      </trkpt>
      <trkpt lat="47.24003" lon="-1.58886">
        <ele>42.5</ele>
        <time>2013-09-15T10:55:14Z</time>
      </trkpt>
      <trkpt lat="47.23994" lon="-1.58893">
        <ele>42.5</ele>
        <time>2013-09-15T10:55:17Z</time>
      </trkpt>
      <trkpt lat="47.23985" lon="-1.58901">
        <ele>42.7</ele>
        <time>2013-09-15T10:55:20Z</time>
      </trkpt>
      <trkpt lat="47.23975" lon="-1.58908">
        <ele>43.3</ele>
        <time>2013-09-15T10:55:23Z</time>
      </trkpt>
      <trkpt lat="47.23965" lon="-1.58916">
        <ele>48</ele>
        <time>2013-09-15T10:55:26Z</time>
      </trkpt>
      <trkpt lat="47.23954" lon="-1.58924">
        <ele>50.1</ele>
        <time>2013-09-15T10:55:29Z</time>
      </trkpt>
      <trkpt lat="47.23945" lon="-1.58932">
        <ele>50</ele>
        <time>2013-09-15T10:55:32Z</time>
      </trkpt>
      <trkpt lat="47.23937" lon="-1.58945">
        <ele>50</ele>
        <time>2013-09-15T10:55:36Z</time>
      </trkpt>
      <trkpt lat="47.23929" lon="-1.58953">
        <ele>50.1</ele>
        <time>2013-09-15T10:55:39Z</time>
      </trkpt>
      <trkpt lat="47.23919" lon="-1.58952">
        <ele>50.3</ele>
        <time>2013-09-15T10:55:42Z</time>
      </trkpt>
      <trkpt lat="47.23907" lon="-1.58949">
        <ele>50</ele>
        <time>2013-09-15T10:55:45Z</time>
      </trkpt>
      <trkpt lat="47.23898" lon="-1.58945">
        <ele>49.8</ele>
        <time>2013-09-15T10:55:47Z</time>
      </trkpt>
      <trkpt lat="47.23888" lon="-1.58943">
        <ele>49.8</ele>
        <time>2013-09-15T10:55:49Z</time>
      </trkpt>
      <trkpt lat="47.23877" lon="-1.58948">
        <ele>50.1</ele>
        <time>2013-09-15T10:55:51Z</time>
      </trkpt>
      <trkpt lat="47.23867" lon="-1.58952">
        <ele>50</ele>
        <time>2013-09-15T10:55:53Z</time>
      </trkpt>
      <trkpt lat="47.23858" lon="-1.58957">
        <ele>51.3</ele>
        <time>2013-09-15T10:55:55Z</time>
      </trkpt>
      <trkpt lat="47.23849" lon="-1.58962">
        <ele>52.3</ele>
        <time>2013-09-15T10:55:57Z</time>
      </trkpt>
      <trkpt lat="47.2384" lon="-1.58967">
        <ele>52.8</ele>
        <time>2013-09-15T10:55:59Z</time>
      </trkpt>
      <trkpt lat="47.23831" lon="-1.58972">
        <ele>52.3</ele>
        <time>2013-09-15T10:56:01Z</time>
      </trkpt>
      <trkpt lat="47.23819" lon="-1.58979">
        <ele>52.6</ele>
        <time>2013-09-15T10:56:04Z</time>
      </trkpt>
      <trkpt lat="47.23806" lon="-1.58985">
        <ele>51.5</ele>
        <time>2013-09-15T10:56:07Z</time>
      </trkpt>
      <trkpt lat="47.23797" lon="-1.58989">
        <ele>50</ele>
        <time>2013-09-15T10:56:09Z</time>
      </trkpt>
      <trkpt lat="47.23788" lon="-1.58994">
        <ele>47</ele>
        <time>2013-09-15T10:56:11Z</time>
      </trkpt>
      <trkpt lat="47.23779" lon="-1.59005">
        <ele>46.6</ele>
        <time>2013-09-15T10:56:14Z</time>
      </trkpt>
      <trkpt lat="47.23772" lon="-1.59015">
        <ele>44.1</ele>
        <time>2013-09-15T10:56:16Z</time>
      </trkpt>
      <trkpt lat="47.23764" lon="-1.59023">
        <ele>42.7</ele>
        <time>2013-09-15T10:56:18Z</time>
      </trkpt>
      <trkpt lat="47.23754" lon="-1.59034">
        <ele>41.2</ele>
        <time>2013-09-15T10:56:21Z</time>
      </trkpt>
      <trkpt lat="47.23745" lon="-1.59045">
        <ele>40.9</ele>
        <time>2013-09-15T10:56:23Z</time>
      </trkpt>
      <trkpt lat="47.23737" lon="-1.59057">
        <ele>41.4</ele>
        <time>2013-09-15T10:56:25Z</time>
      </trkpt>
      <trkpt lat="47.23729" lon="-1.59066">
        <ele>40.2</ele>
        <time>2013-09-15T10:56:27Z</time>
      </trkpt>
      <trkpt lat="47.23722" lon="-1.59077">
        <ele>40.3</ele>
        <time>2013-09-15T10:56:29Z</time>
      </trkpt>
      <trkpt lat="47.23715" lon="-1.59087">
        <ele>41.8</ele>
        <time>2013-09-15T10:56:31Z</time>
      </trkpt>
      <trkpt lat="47.23704" lon="-1.59089">
        <ele>42.3</ele>
        <time>2013-09-15T10:56:35Z</time>
      </trkpt>
      <trkpt lat="47.23697" lon="-1.59079">
        <ele>42.2</ele>
        <time>2013-09-15T10:56:38Z</time>
      </trkpt>
      <trkpt lat="47.2369" lon="-1.59064">
        <ele>40.7</ele>
        <time>2013-09-15T10:56:41Z</time>
      </trkpt>
      <trkpt lat="47.23683" lon="-1.5905">
        <ele>40</ele>
        <time>2013-09-15T10:56:44Z</time>
      </trkpt>
      <trkpt lat="47.23677" lon="-1.59036">
        <ele>38.2</ele>
        <time>2013-09-15T10:56:47Z</time>
      </trkpt>
      <trkpt lat="47.23671" lon="-1.59024">
        <ele>38.2</ele>
        <time>2013-09-15T10:56:49Z</time>
      </trkpt>
      <trkpt lat="47.23663" lon="-1.59012">
        <ele>38.3</ele>
        <time>2013-09-15T10:56:52Z</time>
      </trkpt>
      <trkpt lat="47.23653" lon="-1.5901">
        <ele>38.3</ele>
        <time>2013-09-15T10:56:55Z</time>
      </trkpt>
      <trkpt lat="47.23642" lon="-1.59022">
        <ele>37.4</ele>
        <time>2013-09-15T10:56:58Z</time>
      </trkpt>
      <trkpt lat="47.23634" lon="-1.59032">
        <ele>39.8</ele>
        <time>2013-09-15T10:57:00Z</time>
      </trkpt>
      <trkpt lat="47.23626" lon="-1.59041">
        <ele>41.7</ele>
        <time>2013-09-15T10:57:02Z</time>
      </trkpt>
      <trkpt lat="47.23618" lon="-1.5905">
        <ele>42.5</ele>
        <time>2013-09-15T10:57:04Z</time>
      </trkpt>
      <trkpt lat="47.23609" lon="-1.59058">
        <ele>42.7</ele>
        <time>2013-09-15T10:57:06Z</time>
      </trkpt>
      <trkpt lat="47.23599" lon="-1.59066">
        <ele>42.3</ele>
        <time>2013-09-15T10:57:08Z</time>
      </trkpt>
      <trkpt lat="47.23589" lon="-1.59074">
        <ele>41</ele>
        <time>2013-09-15T10:57:10Z</time>
      </trkpt>
      <trkpt lat="47.23579" lon="-1.5908">
        <ele>40.8</ele>
        <time>2013-09-15T10:57:12Z</time>
      </trkpt>
      <trkpt lat="47.23569" lon="-1.59089">
        <ele>41.6</ele>
        <time>2013-09-15T10:57:14Z</time>
      </trkpt>
      <trkpt lat="47.23559" lon="-1.59099">
        <ele>42.7</ele>
        <time>2013-09-15T10:57:16Z</time>
      </trkpt>
      <trkpt lat="47.23549" lon="-1.59107">
        <ele>43.7</ele>
        <time>2013-09-15T10:57:18Z</time>
      </trkpt>
      <trkpt lat="47.2354" lon="-1.59117">
        <ele>43.9</ele>
        <time>2013-09-15T10:57:20Z</time>
      </trkpt>
      <trkpt lat="47.23531" lon="-1.59126">
        <ele>43.5</ele>
        <time>2013-09-15T10:57:22Z</time>
      </trkpt>
      <trkpt lat="47.23521" lon="-1.59134">
        <ele>44</ele>
        <time>2013-09-15T10:57:24Z</time>
      </trkpt>
      <trkpt lat="47.23511" lon="-1.59143">
        <ele>44.9</ele>
        <time>2013-09-15T10:57:26Z</time>
      </trkpt>
      <trkpt lat="47.23501" lon="-1.59152">
        <ele>45.7</ele>
        <time>2013-09-15T10:57:28Z</time>
      </trkpt>
      <trkpt lat="47.2349" lon="-1.59162">
        <ele>45.8</ele>
        <time>2013-09-15T10:57:30Z</time>
      </trkpt>
      <trkpt lat="47.23479" lon="-1.59173">
        <ele>45.3</ele>
        <time>2013-09-15T10:57:32Z</time>
      </trkpt>
      <trkpt lat="47.23467" lon="-1.59185">
        <ele>43.7</ele>
        <time>2013-09-15T10:57:34Z</time>
      </trkpt>
      <trkpt lat="47.23458" lon="-1.59196">
        <ele>42</ele>
        <time>2013-09-15T10:57:36Z</time>
      </trkpt>
      <trkpt lat="47.23449" lon="-1.59207">
        <ele>40.4</ele>
        <time>2013-09-15T10:57:38Z</time>
      </trkpt>
      <trkpt lat="47.2344" lon="-1.59216">
        <ele>39.2</ele>
        <time>2013-09-15T10:57:40Z</time>
      </trkpt>
      <trkpt lat="47.2343" lon="-1.59226">
        <ele>38.8</ele>
        <time>2013-09-15T10:57:42Z</time>
      </trkpt>
      <trkpt lat="47.23421" lon="-1.59236">
        <ele>40.1</ele>
        <time>2013-09-15T10:57:44Z</time>
      </trkpt>
      <trkpt lat="47.23411" lon="-1.59246">
        <ele>41.5</ele>
        <time>2013-09-15T10:57:46Z</time>
      </trkpt>
      <trkpt lat="47.23401" lon="-1.59255">
        <ele>41.3</ele>
        <time>2013-09-15T10:57:48Z</time>
      </trkpt>
      <trkpt lat="47.23391" lon="-1.59265">
        <ele>40.1</ele>
        <time>2013-09-15T10:57:50Z</time>
      </trkpt>
      <trkpt lat="47.23381" lon="-1.59278">
        <ele>40.1</ele>
        <time>2013-09-15T10:57:52Z</time>
      </trkpt>
      <trkpt lat="47.23371" lon="-1.5929">
        <ele>40.8</ele>
        <time>2013-09-15T10:57:54Z</time>
      </trkpt>
      <trkpt lat="47.23362" lon="-1.59304">
        <ele>40.3</ele>
        <time>2013-09-15T10:57:56Z</time>
      </trkpt>
      <trkpt lat="47.23352" lon="-1.59318">
        <ele>38</ele>
        <time>2013-09-15T10:57:58Z</time>
      </trkpt>
      <trkpt lat="47.23341" lon="-1.59332">
        <ele>35.7</ele>
        <time>2013-09-15T10:58:00Z</time>
      </trkpt>
      <trkpt lat="47.23331" lon="-1.59346">
        <ele>34.6</ele>
        <time>2013-09-15T10:58:02Z</time>
      </trkpt>
      <trkpt lat="47.23322" lon="-1.59361">
        <ele>34.4</ele>
        <time>2013-09-15T10:58:04Z</time>
      </trkpt>
      <trkpt lat="47.23313" lon="-1.59375">
        <ele>33.7</ele>
        <time>2013-09-15T10:58:06Z</time>
      </trkpt>
      <trkpt lat="47.23304" lon="-1.59388">
        <ele>32.8</ele>
        <time>2013-09-15T10:58:08Z</time>
      </trkpt>
      <trkpt lat="47.23297" lon="-1.59401">
        <ele>32.2</ele>
        <time>2013-09-15T10:58:10Z</time>
      </trkpt>
      <trkpt lat="47.2329" lon="-1.59413">
        <ele>31.8</ele>
        <time>2013-09-15T10:58:12Z</time>
      </trkpt>
      <trkpt lat="47.23283" lon="-1.59424">
        <ele>31.4</ele>
        <time>2013-09-15T10:58:14Z</time>
      </trkpt>
      <trkpt lat="47.23274" lon="-1.59437">
        <ele>31.8</ele>
        <time>2013-09-15T10:58:16Z</time>
      </trkpt>
      <trkpt lat="47.23266" lon="-1.5945">
        <ele>32.5</ele>
        <time>2013-09-15T10:58:18Z</time>
      </trkpt>
      <trkpt lat="47.23259" lon="-1.59465">
        <ele>33.3</ele>
        <time>2013-09-15T10:58:20Z</time>
      </trkpt>
      <trkpt lat="47.23246" lon="-1.59475">
        <ele>32.9</ele>
        <time>2013-09-15T10:58:23Z</time>
      </trkpt>
      <trkpt lat="47.23235" lon="-1.59478">
        <ele>31.4</ele>
        <time>2013-09-15T10:58:25Z</time>
      </trkpt>
      <trkpt lat="47.23225" lon="-1.59483">
        <ele>30.7</ele>
        <time>2013-09-15T10:58:27Z</time>
      </trkpt>
      <trkpt lat="47.23217" lon="-1.59493">
        <ele>31.1</ele>
        <time>2013-09-15T10:58:29Z</time>
      </trkpt>
      <trkpt lat="47.23209" lon="-1.59503">
        <ele>31.7</ele>
        <time>2013-09-15T10:58:31Z</time>
      </trkpt>
      <trkpt lat="47.23197" lon="-1.59517">
        <ele>31.6</ele>
        <time>2013-09-15T10:58:34Z</time>
      </trkpt>
      <trkpt lat="47.23187" lon="-1.59529">
        <ele>31.4</ele>
        <time>2013-09-15T10:58:37Z</time>
      </trkpt>
      <trkpt lat="47.2318" lon="-1.59536">
        <ele>31.1</ele>
        <time>2013-09-15T10:58:39Z</time>
      </trkpt>
      <trkpt lat="47.23172" lon="-1.59543">
        <ele>31</ele>
        <time>2013-09-15T10:58:41Z</time>
      </trkpt>
      <trkpt lat="47.23164" lon="-1.59552">
        <ele>30.8</ele>
        <time>2013-09-15T10:58:43Z</time>
      </trkpt>
      <trkpt lat="47.23155" lon="-1.59561">
        <ele>30</ele>
        <time>2013-09-15T10:58:46Z</time>
      </trkpt>
      <trkpt lat="47.23147" lon="-1.59569">
        <ele>29.1</ele>
        <time>2013-09-15T10:58:49Z</time>
      </trkpt>
      <trkpt lat="47.23138" lon="-1.5958">
        <ele>28.7</ele>
        <time>2013-09-15T10:58:52Z</time>
      </trkpt>
      <trkpt lat="47.23131" lon="-1.59593">
        <ele>28.6</ele>
        <time>2013-09-15T10:58:55Z</time>
      </trkpt>
      <trkpt lat="47.23124" lon="-1.59602">
        <ele>26.9</ele>
        <time>2013-09-15T10:59:06Z</time>
      </trkpt>
      <trkpt lat="47.23115" lon="-1.59619">
        <ele>22.7</ele>
        <time>2013-09-15T10:59:23Z</time>
      </trkpt>
      <trkpt lat="47.23124" lon="-1.59626">
        <ele>20.8</ele>
        <time>2013-09-15T10:59:29Z</time>
      </trkpt>
      <trkpt lat="47.23135" lon="-1.59629">
        <ele>19.7</ele>
        <time>2013-09-15T10:59:34Z</time>
      </trkpt>
      <trkpt lat="47.23145" lon="-1.59637">
        <ele>19</ele>
        <time>2013-09-15T10:59:37Z</time>
      </trkpt>
      <trkpt lat="47.23152" lon="-1.59648">
        <ele>18.3</ele>
        <time>2013-09-15T10:59:40Z</time>
      </trkpt>
      <trkpt lat="47.23159" lon="-1.59658">
        <ele>17.5</ele>
        <time>2013-09-15T10:59:43Z</time>
      </trkpt>
      <trkpt lat="47.23166" lon="-1.5967">
        <ele>16.9</ele>
        <time>2013-09-15T10:59:49Z</time>
      </trkpt>
      <trkpt lat="47.23172" lon="-1.59684">
        <ele>16.7</ele>
        <time>2013-09-15T10:59:52Z</time>
      </trkpt>
      <trkpt lat="47.23178" lon="-1.59698">
        <ele>15.5</ele>
        <time>2013-09-15T10:59:54Z</time>
      </trkpt>
      <trkpt lat="47.23184" lon="-1.5971">
        <ele>15.1</ele>
        <time>2013-09-15T10:59:56Z</time>
      </trkpt>
      <trkpt lat="47.23191" lon="-1.59724">
        <ele>14.6</ele>
        <time>2013-09-15T10:59:59Z</time>
      </trkpt>
      <trkpt lat="47.23197" lon="-1.59734">
        <ele>14.1</ele>
        <time>2013-09-15T11:00:02Z</time>
      </trkpt>
      <trkpt lat="47.23203" lon="-1.59748">
        <ele>13</ele>
        <time>2013-09-15T11:00:07Z</time>
      </trkpt>
      <trkpt lat="47.23206" lon="-1.59762">
        <ele>12.3</ele>
        <time>2013-09-15T11:00:11Z</time>
      </trkpt>
      <trkpt lat="47.23211" lon="-1.59775">
        <ele>11.5</ele>
        <time>2013-09-15T11:00:16Z</time>
      </trkpt>
      <trkpt lat="47.23203" lon="-1.59784">
        <ele>10.8</ele>
        <time>2013-09-15T11:00:22Z</time>
      </trkpt>
      <trkpt lat="47.23193" lon="-1.59785">
        <ele>9.9</ele>
        <time>2013-09-15T11:00:29Z</time>
      </trkpt>
      <trkpt lat="47.2318" lon="-1.59789">
        <ele>9.7</ele>
        <time>2013-09-15T11:00:33Z</time>
      </trkpt>
      <trkpt lat="47.23171" lon="-1.59793">
        <ele>9.5</ele>
        <time>2013-09-15T11:00:35Z</time>
      </trkpt>
      <trkpt lat="47.23162" lon="-1.59798">
        <ele>9.2</ele>
        <time>2013-09-15T11:00:38Z</time>
      </trkpt>
      <trkpt lat="47.23152" lon="-1.59798">
        <ele>9.1</ele>
        <time>2013-09-15T11:00:42Z</time>
      </trkpt>
      <trkpt lat="47.23145" lon="-1.59785">
        <ele>8.1</ele>
        <time>2013-09-15T11:00:49Z</time>
      </trkpt>
      <trkpt lat="47.23137" lon="-1.59773">
        <ele>7.7</ele>
        <time>2013-09-15T11:00:53Z</time>
      </trkpt>
      <trkpt lat="47.23129" lon="-1.59765">
        <ele>7.6</ele>
        <time>2013-09-15T11:00:56Z</time>
      </trkpt>
      <trkpt lat="47.23122" lon="-1.59756">
        <ele>7.8</ele>
        <time>2013-09-15T11:00:59Z</time>
      </trkpt>
      <trkpt lat="47.23114" lon="-1.59744">
        <ele>7.5</ele>
        <time>2013-09-15T11:01:02Z</time>
      </trkpt>
      <trkpt lat="47.23104" lon="-1.59733">
        <ele>7.3</ele>
        <time>2013-09-15T11:01:05Z</time>
      </trkpt>
      <trkpt lat="47.23096" lon="-1.59727">
        <ele>7.3</ele>
        <time>2013-09-15T11:01:08Z</time>
      </trkpt>
      <trkpt lat="47.23085" lon="-1.59724">
        <ele>7.4</ele>
        <time>2013-09-15T11:01:11Z</time>
      </trkpt>
      <trkpt lat="47.23076" lon="-1.59735">
        <ele>7.5</ele>
        <time>2013-09-15T11:01:15Z</time>
      </trkpt>
      <trkpt lat="47.2307" lon="-1.5975">
        <ele>7.7</ele>
        <time>2013-09-15T11:01:19Z</time>
      </trkpt>
      <trkpt lat="47.23063" lon="-1.59762">
        <ele>7.9</ele>
        <time>2013-09-15T11:01:23Z</time>
      </trkpt>
      <trkpt lat="47.23055" lon="-1.59771">
        <ele>7.8</ele>
        <time>2013-09-15T11:01:27Z</time>
      </trkpt>
      <trkpt lat="47.23045" lon="-1.59776">
        <ele>7.8</ele>
        <time>2013-09-15T11:01:30Z</time>
      </trkpt>
      <trkpt lat="47.23036" lon="-1.5978">
        <ele>7.7</ele>
        <time>2013-09-15T11:01:33Z</time>
      </trkpt>
      <trkpt lat="47.23025" lon="-1.59783">
        <ele>7.7</ele>
        <time>2013-09-15T11:01:36Z</time>
      </trkpt>
      <trkpt lat="47.23013" lon="-1.59784">
        <ele>7.7</ele>
        <time>2013-09-15T11:01:39Z</time>
      </trkpt>
      <trkpt lat="47.23003" lon="-1.59786">
        <ele>7.6</ele>
        <time>2013-09-15T11:01:42Z</time>
      </trkpt>
      <trkpt lat="47.22995" lon="-1.59793">
        <ele>7.7</ele>
        <time>2013-09-15T11:01:45Z</time>
      </trkpt>
      <trkpt lat="47.22988" lon="-1.59804">
        <ele>7.9</ele>
        <time>2013-09-15T11:01:49Z</time>
      </trkpt>
      <trkpt lat="47.22977" lon="-1.5981">
        <ele>8</ele>
        <time>2013-09-15T11:01:54Z</time>
      </trkpt>
      <trkpt lat="47.2297" lon="-1.5982">
        <ele>8.7</ele>
        <time>2013-09-15T11:01:59Z</time>
      </trkpt>
      <trkpt lat="47.22966" lon="-1.59837">
        <ele>9.9</ele>
        <time>2013-09-15T11:02:04Z</time>
      </trkpt>
      <trkpt lat="47.22962" lon="-1.5985">
        <ele>10.3</ele>
        <time>2013-09-15T11:02:08Z</time>
      </trkpt>
      <trkpt lat="47.22958" lon="-1.59862">
        <ele>10.4</ele>
        <time>2013-09-15T11:02:12Z</time>
      </trkpt>
      <trkpt lat="47.22967" lon="-1.59872">
        <ele>10.2</ele>
        <time>2013-09-15T11:02:17Z</time>
      </trkpt>
      <trkpt lat="47.22971" lon="-1.59886">
        <ele>10.4</ele>
        <time>2013-09-15T11:02:22Z</time>
      </trkpt>
      <trkpt lat="47.22975" lon="-1.59902">
        <ele>10.7</ele>
        <time>2013-09-15T11:02:26Z</time>
      </trkpt>
      <trkpt lat="47.22978" lon="-1.59918">
        <ele>11.1</ele>
        <time>2013-09-15T11:02:30Z</time>
      </trkpt>
      <trkpt lat="47.2298" lon="-1.59932">
        <ele>11.3</ele>
        <time>2013-09-15T11:02:34Z</time>
      </trkpt>
      <trkpt lat="47.22983" lon="-1.59948">
        <ele>11.3</ele>
        <time>2013-09-15T11:02:38Z</time>
      </trkpt>
      <trkpt lat="47.22984" lon="-1.59962">
        <ele>11.3</ele>
        <time>2013-09-15T11:02:41Z</time>
      </trkpt>
      <trkpt lat="47.22984" lon="-1.59977">
        <ele>11.2</ele>
        <time>2013-09-15T11:02:44Z</time>
      </trkpt>
      <trkpt lat="47.22984" lon="-1.59992">
        <ele>11.2</ele>
        <time>2013-09-15T11:02:47Z</time>
      </trkpt>
      <trkpt lat="47.22985" lon="-1.60006">
        <ele>11.1</ele>
        <time>2013-09-15T11:02:50Z</time>
      </trkpt>
      <trkpt lat="47.22983" lon="-1.60022">
        <ele>11.1</ele>
        <time>2013-09-15T11:02:54Z</time>
      </trkpt>
      <trkpt lat="47.22978" lon="-1.60036">
        <ele>11.4</ele>
        <time>2013-09-15T11:02:59Z</time>
      </trkpt>
      <trkpt lat="47.22972" lon="-1.60051">
        <ele>11.9</ele>
        <time>2013-09-15T11:03:03Z</time>
      </trkpt>
      <trkpt lat="47.22969" lon="-1.60065">
        <ele>12.5</ele>
        <time>2013-09-15T11:03:07Z</time>
      </trkpt>
      <trkpt lat="47.22967" lon="-1.60081">
        <ele>12.9</ele>
        <time>2013-09-15T11:03:11Z</time>
      </trkpt>
      <trkpt lat="47.22966" lon="-1.60095">
        <ele>13.2</ele>
        <time>2013-09-15T11:03:14Z</time>
      </trkpt>
      <trkpt lat="47.22966" lon="-1.60108">
        <ele>13.8</ele>
        <time>2013-09-15T11:03:18Z</time>
      </trkpt>
      <trkpt lat="47.22967" lon="-1.60124">
        <ele>14.3</ele>
        <time>2013-09-15T11:03:22Z</time>
      </trkpt>
      <trkpt lat="47.2297" lon="-1.6014">
        <ele>14.5</ele>
        <time>2013-09-15T11:03:26Z</time>
      </trkpt>
      <trkpt lat="47.22972" lon="-1.60155">
        <ele>14.7</ele>
        <time>2013-09-15T11:03:30Z</time>
      </trkpt>
      <trkpt lat="47.22975" lon="-1.6017">
        <ele>14.8</ele>
        <time>2013-09-15T11:03:34Z</time>
      </trkpt>
      <trkpt lat="47.22976" lon="-1.60186">
        <ele>14.7</ele>
        <time>2013-09-15T11:03:39Z</time>
      </trkpt>
      <trkpt lat="47.22977" lon="-1.602">
        <ele>15.1</ele>
        <time>2013-09-15T11:03:43Z</time>
      </trkpt>
      <trkpt lat="47.2298" lon="-1.60216">
        <ele>15.7</ele>
        <time>2013-09-15T11:03:47Z</time>
      </trkpt>
      <trkpt lat="47.22983" lon="-1.60231">
        <ele>16.6</ele>
        <time>2013-09-15T11:03:51Z</time>
      </trkpt>
      <trkpt lat="47.22983" lon="-1.60247">
        <ele>17.3</ele>
        <time>2013-09-15T11:03:55Z</time>
      </trkpt>
      <trkpt lat="47.22982" lon="-1.60263">
        <ele>17.9</ele>
        <time>2013-09-15T11:03:59Z</time>
      </trkpt>
      <trkpt lat="47.22982" lon="-1.60277">
        <ele>18.5</ele>
        <time>2013-09-15T11:04:03Z</time>
      </trkpt>
      <trkpt lat="47.22983" lon="-1.60291">
        <ele>18.8</ele>
        <time>2013-09-15T11:04:06Z</time>
      </trkpt>
      <trkpt lat="47.22985" lon="-1.60305">
        <ele>19.1</ele>
        <time>2013-09-15T11:04:09Z</time>
      </trkpt>
      <trkpt lat="47.22986" lon="-1.6032">
        <ele>19.4</ele>
        <time>2013-09-15T11:04:12Z</time>
      </trkpt>
      <trkpt lat="47.22985" lon="-1.60334">
        <ele>19.8</ele>
        <time>2013-09-15T11:04:15Z</time>
      </trkpt>
      <trkpt lat="47.22984" lon="-1.60347">
        <ele>20.3</ele>
        <time>2013-09-15T11:04:18Z</time>
      </trkpt>
      <trkpt lat="47.22984" lon="-1.60365">
        <ele>20.8</ele>
        <time>2013-09-15T11:04:22Z</time>
      </trkpt>
      <trkpt lat="47.22988" lon="-1.60377">
        <ele>20.9</ele>
        <time>2013-09-15T11:04:25Z</time>
      </trkpt>
      <trkpt lat="47.22994" lon="-1.60388">
        <ele>21</ele>
        <time>2013-09-15T11:04:28Z</time>
      </trkpt>
      <trkpt lat="47.23002" lon="-1.60398">
        <ele>21.3</ele>
        <time>2013-09-15T11:04:31Z</time>
      </trkpt>
      <trkpt lat="47.2301" lon="-1.60406">
        <ele>21.7</ele>
        <time>2013-09-15T11:04:35Z</time>
      </trkpt>
      <trkpt lat="47.2302" lon="-1.60416">
        <ele>22</ele>
        <time>2013-09-15T11:04:39Z</time>
      </trkpt>
      <trkpt lat="47.23029" lon="-1.60421">
        <ele>21.9</ele>
        <time>2013-09-15T11:04:42Z</time>
      </trkpt>
      <trkpt lat="47.23039" lon="-1.60426">
        <ele>21.8</ele>
        <time>2013-09-15T11:04:45Z</time>
      </trkpt>
      <trkpt lat="47.23047" lon="-1.60432">
        <ele>21.8</ele>
        <time>2013-09-15T11:04:47Z</time>
      </trkpt>
      <trkpt lat="47.23056" lon="-1.6044">
        <ele>22.1</ele>
        <time>2013-09-15T11:04:50Z</time>
      </trkpt>
      <trkpt lat="47.23065" lon="-1.60448">
        <ele>22.5</ele>
        <time>2013-09-15T11:04:54Z</time>
      </trkpt>
      <trkpt lat="47.23071" lon="-1.60459">
        <ele>22.7</ele>
        <time>2013-09-15T11:04:57Z</time>
      </trkpt>
      <trkpt lat="47.23075" lon="-1.60474">
        <ele>22.9</ele>
        <time>2013-09-15T11:05:01Z</time>
      </trkpt>
      <trkpt lat="47.23074" lon="-1.60491">
        <ele>23.5</ele>
        <time>2013-09-15T11:05:05Z</time>
      </trkpt>
      <trkpt lat="47.2307" lon="-1.60504">
        <ele>24.1</ele>
        <time>2013-09-15T11:05:08Z</time>
      </trkpt>
      <trkpt lat="47.23063" lon="-1.60514">
        <ele>24.5</ele>
        <time>2013-09-15T11:05:11Z</time>
      </trkpt>
      <trkpt lat="47.23056" lon="-1.60523">
        <ele>24.8</ele>
        <time>2013-09-15T11:05:14Z</time>
      </trkpt>
      <trkpt lat="47.23045" lon="-1.60531">
        <ele>24.9</ele>
        <time>2013-09-15T11:05:17Z</time>
      </trkpt>
      <trkpt lat="47.23038" lon="-1.60539">
        <ele>25.1</ele>
        <time>2013-09-15T11:05:19Z</time>
      </trkpt>
      <trkpt lat="47.23027" lon="-1.60548">
        <ele>25.4</ele>
        <time>2013-09-15T11:05:22Z</time>
      </trkpt>
      <trkpt lat="47.23018" lon="-1.60558">
        <ele>25.6</ele>
        <time>2013-09-15T11:05:25Z</time>
      </trkpt>
      <trkpt lat="47.2301" lon="-1.60566">
        <ele>25.9</ele>
        <time>2013-09-15T11:05:28Z</time>
      </trkpt>
      <trkpt lat="47.23" lon="-1.60576">
        <ele>26.6</ele>
        <time>2013-09-15T11:05:32Z</time>
      </trkpt>
      <trkpt lat="47.22991" lon="-1.60585">
        <ele>27.3</ele>
        <time>2013-09-15T11:05:35Z</time>
      </trkpt>
      <trkpt lat="47.22984" lon="-1.60594">
        <ele>27.9</ele>
        <time>2013-09-15T11:05:38Z</time>
      </trkpt>
      <trkpt lat="47.2298" lon="-1.60607">
        <ele>28.4</ele>
        <time>2013-09-15T11:05:41Z</time>
      </trkpt>
      <trkpt lat="47.22984" lon="-1.6062">
        <ele>29</ele>
        <time>2013-09-15T11:05:44Z</time>
      </trkpt>
      <trkpt lat="47.22988" lon="-1.60633">
        <ele>29.3</ele>
        <time>2013-09-15T11:05:48Z</time>
      </trkpt>
      <trkpt lat="47.22994" lon="-1.60648">
        <ele>29.6</ele>
        <time>2013-09-15T11:05:52Z</time>
      </trkpt>
      <trkpt lat="47.22998" lon="-1.60663">
        <ele>29.8</ele>
        <time>2013-09-15T11:05:56Z</time>
      </trkpt>
      <trkpt lat="47.23001" lon="-1.60677">
        <ele>30</ele>
        <time>2013-09-15T11:06:00Z</time>
      </trkpt>
      <trkpt lat="47.23006" lon="-1.60691">
        <ele>30.3</ele>
        <time>2013-09-15T11:06:04Z</time>
      </trkpt>
      <trkpt lat="47.23008" lon="-1.60705">
        <ele>31</ele>
        <time>2013-09-15T11:06:08Z</time>
      </trkpt>
      <trkpt lat="47.23011" lon="-1.6072">
        <ele>31.6</ele>
        <time>2013-09-15T11:06:12Z</time>
      </trkpt>
      <trkpt lat="47.23016" lon="-1.60734">
        <ele>31.8</ele>
        <time>2013-09-15T11:06:16Z</time>
      </trkpt>
      <trkpt lat="47.23022" lon="-1.60746">
        <ele>32</ele>
        <time>2013-09-15T11:06:20Z</time>
      </trkpt>
      <trkpt lat="47.23029" lon="-1.60758">
        <ele>32</ele>
        <time>2013-09-15T11:06:24Z</time>
      </trkpt>
      <trkpt lat="47.23037" lon="-1.6077">
        <ele>31.7</ele>
        <time>2013-09-15T11:06:28Z</time>
      </trkpt>
      <trkpt lat="47.23047" lon="-1.60773">
        <ele>31.5</ele>
        <time>2013-09-15T11:06:32Z</time>
      </trkpt>
      <trkpt lat="47.23056" lon="-1.60766">
        <ele>31.6</ele>
        <time>2013-09-15T11:06:35Z</time>
      </trkpt>
      <trkpt lat="47.23066" lon="-1.60758">
        <ele>31.7</ele>
        <time>2013-09-15T11:06:37Z</time>
      </trkpt>
      <trkpt lat="47.23075" lon="-1.60745">
        <ele>32.1</ele>
        <time>2013-09-15T11:06:40Z</time>
      </trkpt>
      <trkpt lat="47.23075" lon="-1.60729">
        <ele>32.4</ele>
        <time>2013-09-15T11:06:43Z</time>
      </trkpt>
      <trkpt lat="47.23073" lon="-1.60716">
        <ele>32.7</ele>
        <time>2013-09-15T11:06:45Z</time>
      </trkpt>
      <trkpt lat="47.23071" lon="-1.60697">
        <ele>30.5</ele>
        <time>2013-09-15T11:06:48Z</time>
      </trkpt>
      <trkpt lat="47.2307" lon="-1.6068">
        <ele>28.9</ele>
        <time>2013-09-15T11:06:51Z</time>
      </trkpt>
      <trkpt lat="47.23073" lon="-1.60665">
        <ele>29</ele>
        <time>2013-09-15T11:06:55Z</time>
      </trkpt>
      <trkpt lat="47.23068" lon="-1.60653">
        <ele>30.4</ele>
        <time>2013-09-15T11:07:07Z</time>
      </trkpt>
      <trkpt lat="47.23069" lon="-1.60646">
        <ele>31.9</ele>
        <time>2013-09-15T11:07:34Z</time>
      </trkpt>
      <trkpt lat="47.23069" lon="-1.60646">
        <ele>31.9</ele>
        <time>2013-09-15T11:07:34Z</time>
      </trkpt>
    </trkseg>
  </trk>
</gpx>